<?xml version="1.0" encoding="UTF-8" standalone="no" ?>
<gpx xmlns="http://www.topografix.com/GPX/1/1" xmlns:xsi="http://www.w3.org/2001/XMLSchema-instance" xsi:schemaLocation="http://www.topografix.com/GPX/1/1 http://www.topografix.com/GPX/1/1/gpx.xsd" version="1.1" creator="VisuGPX - https://www.visugpx.com">
  <metadata>
    <name>Sortie vtt forêt d\'evreux et la bonneville</name>
    <desc><![CDATA[petite sortie sous la pluie avec un bon parcours]]></desc>
  </metadata>
  <trk>
    <name><![CDATA[Untitled]]></name>
    <trkseg>
      <trkpt lat="48.97672" lon="1.15388">
        <ele>208</ele>
        <time>2014-04-27T06:21:25.000Z</time>
      </trkpt>
      <trkpt lat="48.97672" lon="1.15387">
        <ele>206.19999694824</ele>
        <time>2014-04-27T06:21:27.000Z</time>
      </trkpt>
      <trkpt lat="48.97672" lon="1.15387">
        <ele>204.60000610352</ele>
        <time>2014-04-27T06:21:28.000Z</time>
      </trkpt>
      <trkpt lat="48.97672" lon="1.15387">
        <ele>203.19999694824</ele>
        <time>2014-04-27T06:21:29.000Z</time>
      </trkpt>
      <trkpt lat="48.9767" lon="1.15387">
        <ele>203.19999694824</ele>
        <time>2014-04-27T06:21:31.000Z</time>
      </trkpt>
      <trkpt lat="48.97662" lon="1.15386">
        <ele>203</ele>
        <time>2014-04-27T06:21:37.000Z</time>
      </trkpt>
      <trkpt lat="48.97653" lon="1.15399">
        <ele>203.19999694824</ele>
        <time>2014-04-27T06:21:42.000Z</time>
      </trkpt>
      <trkpt lat="48.97649" lon="1.15424">
        <ele>203.80000305176</ele>
        <time>2014-04-27T06:21:47.000Z</time>
      </trkpt>
      <trkpt lat="48.97649" lon="1.15429">
        <ele>204</ele>
        <time>2014-04-27T06:21:48.000Z</time>
      </trkpt>
      <trkpt lat="48.97651" lon="1.15438">
        <ele>204.19999694824</ele>
        <time>2014-04-27T06:21:50.000Z</time>
      </trkpt>
      <trkpt lat="48.97664" lon="1.15453">
        <ele>204.39999389648</ele>
        <time>2014-04-27T06:21:54.000Z</time>
      </trkpt>
      <trkpt lat="48.97675" lon="1.15466">
        <ele>204.60000610352</ele>
        <time>2014-04-27T06:21:58.000Z</time>
      </trkpt>
      <trkpt lat="48.97675" lon="1.1547">
        <ele>204.39999389648</ele>
        <time>2014-04-27T06:21:59.000Z</time>
      </trkpt>
      <trkpt lat="48.97673" lon="1.15487">
        <ele>204.39999389648</ele>
        <time>2014-04-27T06:22:03.000Z</time>
      </trkpt>
      <trkpt lat="48.97673" lon="1.15491">
        <ele>204.39999389648</ele>
        <time>2014-04-27T06:22:04.000Z</time>
      </trkpt>
      <trkpt lat="48.97672" lon="1.15496">
        <ele>204.39999389648</ele>
        <time>2014-04-27T06:22:07.000Z</time>
      </trkpt>
      <trkpt lat="48.9767" lon="1.15497">
        <ele>204.60000610352</ele>
        <time>2014-04-27T06:22:09.000Z</time>
      </trkpt>
      <trkpt lat="48.97668" lon="1.15508">
        <ele>204.60000610352</ele>
        <time>2014-04-27T06:22:13.000Z</time>
      </trkpt>
      <trkpt lat="48.97665" lon="1.15533">
        <ele>205.19999694824</ele>
        <time>2014-04-27T06:22:18.000Z</time>
      </trkpt>
      <trkpt lat="48.97666" lon="1.15542">
        <ele>205.19999694824</ele>
        <time>2014-04-27T06:22:20.000Z</time>
      </trkpt>
      <trkpt lat="48.97671" lon="1.15545">
        <ele>205.19999694824</ele>
        <time>2014-04-27T06:22:22.000Z</time>
      </trkpt>
      <trkpt lat="48.97678" lon="1.15545">
        <ele>205.19999694824</ele>
        <time>2014-04-27T06:22:24.000Z</time>
      </trkpt>
      <trkpt lat="48.97687" lon="1.15547">
        <ele>205.19999694824</ele>
        <time>2014-04-27T06:22:26.000Z</time>
      </trkpt>
      <trkpt lat="48.97691" lon="1.1555">
        <ele>205</ele>
        <time>2014-04-27T06:22:27.000Z</time>
      </trkpt>
      <trkpt lat="48.97705" lon="1.15553">
        <ele>204.80000305176</ele>
        <time>2014-04-27T06:22:30.000Z</time>
      </trkpt>
      <trkpt lat="48.97715" lon="1.15554">
        <ele>204.60000610352</ele>
        <time>2014-04-27T06:22:32.000Z</time>
      </trkpt>
      <trkpt lat="48.97757" lon="1.15551">
        <ele>204</ele>
        <time>2014-04-27T06:22:40.000Z</time>
      </trkpt>
      <trkpt lat="48.97796" lon="1.15541">
        <ele>203.60000610352</ele>
        <time>2014-04-27T06:22:47.000Z</time>
      </trkpt>
      <trkpt lat="48.9782" lon="1.15535">
        <ele>203.19999694824</ele>
        <time>2014-04-27T06:22:51.000Z</time>
      </trkpt>
      <trkpt lat="48.97848" lon="1.15527">
        <ele>203</ele>
        <time>2014-04-27T06:22:56.000Z</time>
      </trkpt>
      <trkpt lat="48.97883" lon="1.15518">
        <ele>202.60000610352</ele>
        <time>2014-04-27T06:23:03.000Z</time>
      </trkpt>
      <trkpt lat="48.97909" lon="1.15502">
        <ele>203.19999694824</ele>
        <time>2014-04-27T06:23:09.000Z</time>
      </trkpt>
      <trkpt lat="48.97913" lon="1.15497">
        <ele>203.19999694824</ele>
        <time>2014-04-27T06:23:10.000Z</time>
      </trkpt>
      <trkpt lat="48.97927" lon="1.15478">
        <ele>203.60000610352</ele>
        <time>2014-04-27T06:23:14.000Z</time>
      </trkpt>
      <trkpt lat="48.97931" lon="1.15474">
        <ele>203.60000610352</ele>
        <time>2014-04-27T06:23:15.000Z</time>
      </trkpt>
      <trkpt lat="48.97947" lon="1.15456">
        <ele>204.19999694824</ele>
        <time>2014-04-27T06:23:19.000Z</time>
      </trkpt>
      <trkpt lat="48.97966" lon="1.15434">
        <ele>204.80000305176</ele>
        <time>2014-04-27T06:23:24.000Z</time>
      </trkpt>
      <trkpt lat="48.97981" lon="1.15417">
        <ele>205.19999694824</ele>
        <time>2014-04-27T06:23:28.000Z</time>
      </trkpt>
      <trkpt lat="48.98004" lon="1.1539">
        <ele>205.80000305176</ele>
        <time>2014-04-27T06:23:34.000Z</time>
      </trkpt>
      <trkpt lat="48.98026" lon="1.15362">
        <ele>206.19999694824</ele>
        <time>2014-04-27T06:23:40.000Z</time>
      </trkpt>
      <trkpt lat="48.98036" lon="1.15348">
        <ele>206.39999389648</ele>
        <time>2014-04-27T06:23:43.000Z</time>
      </trkpt>
      <trkpt lat="48.98042" lon="1.15339">
        <ele>206.60000610352</ele>
        <time>2014-04-27T06:23:45.000Z</time>
      </trkpt>
      <trkpt lat="48.98047" lon="1.1533">
        <ele>206.39999389648</ele>
        <time>2014-04-27T06:23:47.000Z</time>
      </trkpt>
      <trkpt lat="48.9805" lon="1.15315">
        <ele>206.19999694824</ele>
        <time>2014-04-27T06:23:51.000Z</time>
      </trkpt>
      <trkpt lat="48.98038" lon="1.15296">
        <ele>206.19999694824</ele>
        <time>2014-04-27T06:23:55.000Z</time>
      </trkpt>
      <trkpt lat="48.98035" lon="1.15292">
        <ele>206.19999694824</ele>
        <time>2014-04-27T06:23:56.000Z</time>
      </trkpt>
      <trkpt lat="48.9801" lon="1.15265">
        <ele>205.39999389648</ele>
        <time>2014-04-27T06:24:02.000Z</time>
      </trkpt>
      <trkpt lat="48.98002" lon="1.15256">
        <ele>205.19999694824</ele>
        <time>2014-04-27T06:24:04.000Z</time>
      </trkpt>
      <trkpt lat="48.97977" lon="1.15229">
        <ele>204.39999389648</ele>
        <time>2014-04-27T06:24:10.000Z</time>
      </trkpt>
      <trkpt lat="48.97976" lon="1.15209">
        <ele>204</ele>
        <time>2014-04-27T06:24:14.000Z</time>
      </trkpt>
      <trkpt lat="48.97977" lon="1.15204">
        <ele>204</ele>
        <time>2014-04-27T06:24:15.000Z</time>
      </trkpt>
      <trkpt lat="48.9798" lon="1.152">
        <ele>203.60000610352</ele>
        <time>2014-04-27T06:24:18.000Z</time>
      </trkpt>
      <trkpt lat="48.97982" lon="1.15197">
        <ele>204</ele>
        <time>2014-04-27T06:24:23.000Z</time>
      </trkpt>
      <trkpt lat="48.97985" lon="1.1519">
        <ele>203.80000305176</ele>
        <time>2014-04-27T06:24:27.000Z</time>
      </trkpt>
      <trkpt lat="48.97986" lon="1.15188">
        <ele>203.80000305176</ele>
        <time>2014-04-27T06:24:28.000Z</time>
      </trkpt>
      <trkpt lat="48.97993" lon="1.15175">
        <ele>203.60000610352</ele>
        <time>2014-04-27T06:24:32.000Z</time>
      </trkpt>
      <trkpt lat="48.97995" lon="1.15172">
        <ele>203.60000610352</ele>
        <time>2014-04-27T06:24:33.000Z</time>
      </trkpt>
      <trkpt lat="48.98005" lon="1.15149">
        <ele>203.60000610352</ele>
        <time>2014-04-27T06:24:38.000Z</time>
      </trkpt>
      <trkpt lat="48.98019" lon="1.1512">
        <ele>203.19999694824</ele>
        <time>2014-04-27T06:24:44.000Z</time>
      </trkpt>
      <trkpt lat="48.98021" lon="1.15113">
        <ele>203.19999694824</ele>
        <time>2014-04-27T06:24:45.000Z</time>
      </trkpt>
      <trkpt lat="48.98026" lon="1.15103">
        <ele>203.19999694824</ele>
        <time>2014-04-27T06:24:47.000Z</time>
      </trkpt>
      <trkpt lat="48.98031" lon="1.15091">
        <ele>203.39999389648</ele>
        <time>2014-04-27T06:24:49.000Z</time>
      </trkpt>
      <trkpt lat="48.98035" lon="1.15081">
        <ele>203.39999389648</ele>
        <time>2014-04-27T06:24:51.000Z</time>
      </trkpt>
      <trkpt lat="48.98038" lon="1.15076">
        <ele>203.60000610352</ele>
        <time>2014-04-27T06:24:52.000Z</time>
      </trkpt>
      <trkpt lat="48.98046" lon="1.15061">
        <ele>203.60000610352</ele>
        <time>2014-04-27T06:24:55.000Z</time>
      </trkpt>
      <trkpt lat="48.98057" lon="1.15041">
        <ele>202.80000305176</ele>
        <time>2014-04-27T06:24:59.000Z</time>
      </trkpt>
      <trkpt lat="48.98061" lon="1.15031">
        <ele>203</ele>
        <time>2014-04-27T06:25:01.000Z</time>
      </trkpt>
      <trkpt lat="48.98073" lon="1.15006">
        <ele>202.80000305176</ele>
        <time>2014-04-27T06:25:06.000Z</time>
      </trkpt>
      <trkpt lat="48.98084" lon="1.14981">
        <ele>202.80000305176</ele>
        <time>2014-04-27T06:25:12.000Z</time>
      </trkpt>
      <trkpt lat="48.98095" lon="1.14958">
        <ele>203</ele>
        <time>2014-04-27T06:25:17.000Z</time>
      </trkpt>
      <trkpt lat="48.98102" lon="1.14941">
        <ele>203.19999694824</ele>
        <time>2014-04-27T06:25:20.000Z</time>
      </trkpt>
      <trkpt lat="48.98107" lon="1.1493">
        <ele>203</ele>
        <time>2014-04-27T06:25:22.000Z</time>
      </trkpt>
      <trkpt lat="48.98122" lon="1.149">
        <ele>203</ele>
        <time>2014-04-27T06:25:28.000Z</time>
      </trkpt>
      <trkpt lat="48.98131" lon="1.14875">
        <ele>203</ele>
        <time>2014-04-27T06:25:33.000Z</time>
      </trkpt>
      <trkpt lat="48.98139" lon="1.14859">
        <ele>202.80000305176</ele>
        <time>2014-04-27T06:25:37.000Z</time>
      </trkpt>
      <trkpt lat="48.98151" lon="1.14835">
        <ele>202.80000305176</ele>
        <time>2014-04-27T06:25:42.000Z</time>
      </trkpt>
      <trkpt lat="48.98155" lon="1.14825">
        <ele>202.80000305176</ele>
        <time>2014-04-27T06:25:44.000Z</time>
      </trkpt>
      <trkpt lat="48.9816" lon="1.14817">
        <ele>202.80000305176</ele>
        <time>2014-04-27T06:25:46.000Z</time>
      </trkpt>
      <trkpt lat="48.98173" lon="1.14794">
        <ele>202.60000610352</ele>
        <time>2014-04-27T06:25:51.000Z</time>
      </trkpt>
      <trkpt lat="48.98186" lon="1.14772">
        <ele>203</ele>
        <time>2014-04-27T06:25:56.000Z</time>
      </trkpt>
      <trkpt lat="48.98195" lon="1.14753">
        <ele>203</ele>
        <time>2014-04-27T06:26:00.000Z</time>
      </trkpt>
      <trkpt lat="48.98199" lon="1.14749">
        <ele>203.19999694824</ele>
        <time>2014-04-27T06:26:01.000Z</time>
      </trkpt>
      <trkpt lat="48.98205" lon="1.14742">
        <ele>203</ele>
        <time>2014-04-27T06:26:03.000Z</time>
      </trkpt>
      <trkpt lat="48.98214" lon="1.14728">
        <ele>203</ele>
        <time>2014-04-27T06:26:07.000Z</time>
      </trkpt>
      <trkpt lat="48.98224" lon="1.1471">
        <ele>203.19999694824</ele>
        <time>2014-04-27T06:26:11.000Z</time>
      </trkpt>
      <trkpt lat="48.98226" lon="1.14705">
        <ele>203</ele>
        <time>2014-04-27T06:26:12.000Z</time>
      </trkpt>
      <trkpt lat="48.98237" lon="1.14687">
        <ele>203.19999694824</ele>
        <time>2014-04-27T06:26:16.000Z</time>
      </trkpt>
      <trkpt lat="48.98252" lon="1.14663">
        <ele>203.60000610352</ele>
        <time>2014-04-27T06:26:22.000Z</time>
      </trkpt>
      <trkpt lat="48.98267" lon="1.14643">
        <ele>204</ele>
        <time>2014-04-27T06:26:27.000Z</time>
      </trkpt>
      <trkpt lat="48.9828" lon="1.14622">
        <ele>204.39999389648</ele>
        <time>2014-04-27T06:26:32.000Z</time>
      </trkpt>
      <trkpt lat="48.98293" lon="1.14602">
        <ele>205</ele>
        <time>2014-04-27T06:26:37.000Z</time>
      </trkpt>
      <trkpt lat="48.98296" lon="1.14598">
        <ele>205.19999694824</ele>
        <time>2014-04-27T06:26:38.000Z</time>
      </trkpt>
      <trkpt lat="48.98302" lon="1.14585">
        <ele>205.39999389648</ele>
        <time>2014-04-27T06:26:41.000Z</time>
      </trkpt>
      <trkpt lat="48.98305" lon="1.14577">
        <ele>205.60000610352</ele>
        <time>2014-04-27T06:26:43.000Z</time>
      </trkpt>
      <trkpt lat="48.98315" lon="1.14561">
        <ele>206.19999694824</ele>
        <time>2014-04-27T06:26:47.000Z</time>
      </trkpt>
      <trkpt lat="48.9833" lon="1.14536">
        <ele>206.39999389648</ele>
        <time>2014-04-27T06:26:53.000Z</time>
      </trkpt>
      <trkpt lat="48.98342" lon="1.14515">
        <ele>206.80000305176</ele>
        <time>2014-04-27T06:26:58.000Z</time>
      </trkpt>
      <trkpt lat="48.98354" lon="1.14496">
        <ele>207.19999694824</ele>
        <time>2014-04-27T06:27:02.000Z</time>
      </trkpt>
      <trkpt lat="48.98359" lon="1.14487">
        <ele>207.19999694824</ele>
        <time>2014-04-27T06:27:04.000Z</time>
      </trkpt>
      <trkpt lat="48.98372" lon="1.14465">
        <ele>207.39999389648</ele>
        <time>2014-04-27T06:27:09.000Z</time>
      </trkpt>
      <trkpt lat="48.98388" lon="1.14441">
        <ele>207.80000305176</ele>
        <time>2014-04-27T06:27:15.000Z</time>
      </trkpt>
      <trkpt lat="48.98398" lon="1.14426">
        <ele>207.80000305176</ele>
        <time>2014-04-27T06:27:19.000Z</time>
      </trkpt>
      <trkpt lat="48.98421" lon="1.1439">
        <ele>208.19999694824</ele>
        <time>2014-04-27T06:27:27.000Z</time>
      </trkpt>
      <trkpt lat="48.98437" lon="1.14362">
        <ele>208.80000305176</ele>
        <time>2014-04-27T06:27:33.000Z</time>
      </trkpt>
      <trkpt lat="48.98456" lon="1.1433">
        <ele>208.80000305176</ele>
        <time>2014-04-27T06:27:40.000Z</time>
      </trkpt>
      <trkpt lat="48.98468" lon="1.14314">
        <ele>208.80000305176</ele>
        <time>2014-04-27T06:27:44.000Z</time>
      </trkpt>
      <trkpt lat="48.98483" lon="1.14292">
        <ele>208.39999389648</ele>
        <time>2014-04-27T06:27:49.000Z</time>
      </trkpt>
      <trkpt lat="48.98495" lon="1.14272">
        <ele>208.80000305176</ele>
        <time>2014-04-27T06:27:54.000Z</time>
      </trkpt>
      <trkpt lat="48.98497" lon="1.14268">
        <ele>208.80000305176</ele>
        <time>2014-04-27T06:27:55.000Z</time>
      </trkpt>
      <trkpt lat="48.98498" lon="1.14263">
        <ele>208.60000610352</ele>
        <time>2014-04-27T06:27:59.000Z</time>
      </trkpt>
      <trkpt lat="48.98501" lon="1.14256">
        <ele>208.19999694824</ele>
        <time>2014-04-27T06:28:03.000Z</time>
      </trkpt>
      <trkpt lat="48.98503" lon="1.14253">
        <ele>208.19999694824</ele>
        <time>2014-04-27T06:28:04.000Z</time>
      </trkpt>
      <trkpt lat="48.98511" lon="1.14239">
        <ele>208.80000305176</ele>
        <time>2014-04-27T06:28:08.000Z</time>
      </trkpt>
      <trkpt lat="48.98514" lon="1.14237">
        <ele>208.60000610352</ele>
        <time>2014-04-27T06:28:09.000Z</time>
      </trkpt>
      <trkpt lat="48.98522" lon="1.14228">
        <ele>208.39999389648</ele>
        <time>2014-04-27T06:28:12.000Z</time>
      </trkpt>
      <trkpt lat="48.98537" lon="1.14204">
        <ele>208.19999694824</ele>
        <time>2014-04-27T06:28:18.000Z</time>
      </trkpt>
      <trkpt lat="48.98551" lon="1.14181">
        <ele>208.19999694824</ele>
        <time>2014-04-27T06:28:24.000Z</time>
      </trkpt>
      <trkpt lat="48.98563" lon="1.14168">
        <ele>208</ele>
        <time>2014-04-27T06:28:28.000Z</time>
      </trkpt>
      <trkpt lat="48.98573" lon="1.14154">
        <ele>207.80000305176</ele>
        <time>2014-04-27T06:28:33.000Z</time>
      </trkpt>
      <trkpt lat="48.98585" lon="1.14136">
        <ele>207.60000610352</ele>
        <time>2014-04-27T06:28:40.000Z</time>
      </trkpt>
      <trkpt lat="48.98586" lon="1.14132">
        <ele>207.60000610352</ele>
        <time>2014-04-27T06:28:41.000Z</time>
      </trkpt>
      <trkpt lat="48.98589" lon="1.14126">
        <ele>207.60000610352</ele>
        <time>2014-04-27T06:28:43.000Z</time>
      </trkpt>
      <trkpt lat="48.98596" lon="1.1411">
        <ele>207.60000610352</ele>
        <time>2014-04-27T06:28:48.000Z</time>
      </trkpt>
      <trkpt lat="48.98607" lon="1.14095">
        <ele>207.39999389648</ele>
        <time>2014-04-27T06:28:52.000Z</time>
      </trkpt>
      <trkpt lat="48.98615" lon="1.1408">
        <ele>207.19999694824</ele>
        <time>2014-04-27T06:28:55.000Z</time>
      </trkpt>
      <trkpt lat="48.98622" lon="1.14071">
        <ele>207</ele>
        <time>2014-04-27T06:28:57.000Z</time>
      </trkpt>
      <trkpt lat="48.98637" lon="1.14044">
        <ele>206.80000305176</ele>
        <time>2014-04-27T06:29:02.000Z</time>
      </trkpt>
      <trkpt lat="48.98639" lon="1.14039">
        <ele>206.60000610352</ele>
        <time>2014-04-27T06:29:03.000Z</time>
      </trkpt>
      <trkpt lat="48.98654" lon="1.14018">
        <ele>206.60000610352</ele>
        <time>2014-04-27T06:29:07.000Z</time>
      </trkpt>
      <trkpt lat="48.98661" lon="1.14009">
        <ele>206.39999389648</ele>
        <time>2014-04-27T06:29:09.000Z</time>
      </trkpt>
      <trkpt lat="48.98666" lon="1.13997">
        <ele>206.60000610352</ele>
        <time>2014-04-27T06:29:11.000Z</time>
      </trkpt>
      <trkpt lat="48.98674" lon="1.13981">
        <ele>206.60000610352</ele>
        <time>2014-04-27T06:29:14.000Z</time>
      </trkpt>
      <trkpt lat="48.9868" lon="1.13971">
        <ele>206.19999694824</ele>
        <time>2014-04-27T06:29:16.000Z</time>
      </trkpt>
      <trkpt lat="48.98682" lon="1.13966">
        <ele>206</ele>
        <time>2014-04-27T06:29:17.000Z</time>
      </trkpt>
      <trkpt lat="48.98688" lon="1.13955">
        <ele>205.39999389648</ele>
        <time>2014-04-27T06:29:19.000Z</time>
      </trkpt>
      <trkpt lat="48.98694" lon="1.13945">
        <ele>205.39999389648</ele>
        <time>2014-04-27T06:29:21.000Z</time>
      </trkpt>
      <trkpt lat="48.98697" lon="1.13939">
        <ele>205.39999389648</ele>
        <time>2014-04-27T06:29:22.000Z</time>
      </trkpt>
      <trkpt lat="48.98707" lon="1.13925">
        <ele>205.19999694824</ele>
        <time>2014-04-27T06:29:25.000Z</time>
      </trkpt>
      <trkpt lat="48.9871" lon="1.13921">
        <ele>205.19999694824</ele>
        <time>2014-04-27T06:29:26.000Z</time>
      </trkpt>
      <trkpt lat="48.98719" lon="1.13907">
        <ele>205.39999389648</ele>
        <time>2014-04-27T06:29:30.000Z</time>
      </trkpt>
      <trkpt lat="48.98729" lon="1.13889">
        <ele>205.19999694824</ele>
        <time>2014-04-27T06:29:35.000Z</time>
      </trkpt>
      <trkpt lat="48.98742" lon="1.13866">
        <ele>205.39999389648</ele>
        <time>2014-04-27T06:29:40.000Z</time>
      </trkpt>
      <trkpt lat="48.98745" lon="1.13862">
        <ele>205.39999389648</ele>
        <time>2014-04-27T06:29:41.000Z</time>
      </trkpt>
      <trkpt lat="48.98755" lon="1.13847">
        <ele>205</ele>
        <time>2014-04-27T06:29:44.000Z</time>
      </trkpt>
      <trkpt lat="48.98758" lon="1.13842">
        <ele>205</ele>
        <time>2014-04-27T06:29:45.000Z</time>
      </trkpt>
      <trkpt lat="48.98776" lon="1.13815">
        <ele>205.19999694824</ele>
        <time>2014-04-27T06:29:51.000Z</time>
      </trkpt>
      <trkpt lat="48.98779" lon="1.13811">
        <ele>205.19999694824</ele>
        <time>2014-04-27T06:29:52.000Z</time>
      </trkpt>
      <trkpt lat="48.98788" lon="1.13797">
        <ele>205.19999694824</ele>
        <time>2014-04-27T06:29:55.000Z</time>
      </trkpt>
      <trkpt lat="48.9879" lon="1.13791">
        <ele>205.39999389648</ele>
        <time>2014-04-27T06:29:56.000Z</time>
      </trkpt>
      <trkpt lat="48.98796" lon="1.1378">
        <ele>205.39999389648</ele>
        <time>2014-04-27T06:29:58.000Z</time>
      </trkpt>
      <trkpt lat="48.98805" lon="1.13762">
        <ele>205.19999694824</ele>
        <time>2014-04-27T06:30:01.000Z</time>
      </trkpt>
      <trkpt lat="48.98815" lon="1.13746">
        <ele>205</ele>
        <time>2014-04-27T06:30:04.000Z</time>
      </trkpt>
      <trkpt lat="48.98822" lon="1.13736">
        <ele>204.80000305176</ele>
        <time>2014-04-27T06:30:06.000Z</time>
      </trkpt>
      <trkpt lat="48.98825" lon="1.1373">
        <ele>205</ele>
        <time>2014-04-27T06:30:07.000Z</time>
      </trkpt>
      <trkpt lat="48.98843" lon="1.13704">
        <ele>205</ele>
        <time>2014-04-27T06:30:12.000Z</time>
      </trkpt>
      <trkpt lat="48.98846" lon="1.13699">
        <ele>205</ele>
        <time>2014-04-27T06:30:13.000Z</time>
      </trkpt>
      <trkpt lat="48.9886" lon="1.13677">
        <ele>204.39999389648</ele>
        <time>2014-04-27T06:30:17.000Z</time>
      </trkpt>
      <trkpt lat="48.98864" lon="1.13672">
        <ele>204.19999694824</ele>
        <time>2014-04-27T06:30:18.000Z</time>
      </trkpt>
      <trkpt lat="48.98886" lon="1.13633">
        <ele>204.19999694824</ele>
        <time>2014-04-27T06:30:25.000Z</time>
      </trkpt>
      <trkpt lat="48.98904" lon="1.13601">
        <ele>204</ele>
        <time>2014-04-27T06:30:31.000Z</time>
      </trkpt>
      <trkpt lat="48.98919" lon="1.13577">
        <ele>203.60000610352</ele>
        <time>2014-04-27T06:30:36.000Z</time>
      </trkpt>
      <trkpt lat="48.98938" lon="1.13546">
        <ele>203.19999694824</ele>
        <time>2014-04-27T06:30:43.000Z</time>
      </trkpt>
      <trkpt lat="48.98944" lon="1.13536">
        <ele>202.60000610352</ele>
        <time>2014-04-27T06:30:46.000Z</time>
      </trkpt>
      <trkpt lat="48.98949" lon="1.1353">
        <ele>202.60000610352</ele>
        <time>2014-04-27T06:30:48.000Z</time>
      </trkpt>
      <trkpt lat="48.98962" lon="1.13512">
        <ele>202.39999389648</ele>
        <time>2014-04-27T06:30:53.000Z</time>
      </trkpt>
      <trkpt lat="48.98971" lon="1.13498">
        <ele>202.19999694824</ele>
        <time>2014-04-27T06:30:57.000Z</time>
      </trkpt>
      <trkpt lat="48.98981" lon="1.13482">
        <ele>202</ele>
        <time>2014-04-27T06:31:01.000Z</time>
      </trkpt>
      <trkpt lat="48.98989" lon="1.13473">
        <ele>201.39999389648</ele>
        <time>2014-04-27T06:31:04.000Z</time>
      </trkpt>
      <trkpt lat="48.98992" lon="1.13471">
        <ele>201.19999694824</ele>
        <time>2014-04-27T06:31:05.000Z</time>
      </trkpt>
      <trkpt lat="48.98994" lon="1.13468">
        <ele>201.19999694824</ele>
        <time>2014-04-27T06:31:06.000Z</time>
      </trkpt>
      <trkpt lat="48.99" lon="1.13459">
        <ele>201</ele>
        <time>2014-04-27T06:31:09.000Z</time>
      </trkpt>
      <trkpt lat="48.99011" lon="1.13442">
        <ele>201</ele>
        <time>2014-04-27T06:31:14.000Z</time>
      </trkpt>
      <trkpt lat="48.9902" lon="1.13426">
        <ele>200.60000610352</ele>
        <time>2014-04-27T06:31:19.000Z</time>
      </trkpt>
      <trkpt lat="48.99022" lon="1.13422">
        <ele>200.39999389648</ele>
        <time>2014-04-27T06:31:20.000Z</time>
      </trkpt>
      <trkpt lat="48.99036" lon="1.13396">
        <ele>200</ele>
        <time>2014-04-27T06:31:26.000Z</time>
      </trkpt>
      <trkpt lat="48.99042" lon="1.13384">
        <ele>199.39999389648</ele>
        <time>2014-04-27T06:31:29.000Z</time>
      </trkpt>
      <trkpt lat="48.9905" lon="1.13371">
        <ele>199.39999389648</ele>
        <time>2014-04-27T06:31:32.000Z</time>
      </trkpt>
      <trkpt lat="48.99062" lon="1.13348">
        <ele>199.19999694824</ele>
        <time>2014-04-27T06:31:37.000Z</time>
      </trkpt>
      <trkpt lat="48.99074" lon="1.13328">
        <ele>199</ele>
        <time>2014-04-27T06:31:42.000Z</time>
      </trkpt>
      <trkpt lat="48.99086" lon="1.13308">
        <ele>198.39999389648</ele>
        <time>2014-04-27T06:31:47.000Z</time>
      </trkpt>
      <trkpt lat="48.9909" lon="1.13298">
        <ele>198</ele>
        <time>2014-04-27T06:31:49.000Z</time>
      </trkpt>
      <trkpt lat="48.991" lon="1.13281">
        <ele>197.39999389648</ele>
        <time>2014-04-27T06:31:53.000Z</time>
      </trkpt>
      <trkpt lat="48.9912" lon="1.13252">
        <ele>197.39999389648</ele>
        <time>2014-04-27T06:32:00.000Z</time>
      </trkpt>
      <trkpt lat="48.99133" lon="1.13231">
        <ele>197</ele>
        <time>2014-04-27T06:32:05.000Z</time>
      </trkpt>
      <trkpt lat="48.99139" lon="1.13223">
        <ele>196.80000305176</ele>
        <time>2014-04-27T06:32:07.000Z</time>
      </trkpt>
      <trkpt lat="48.99148" lon="1.13204">
        <ele>196.39999389648</ele>
        <time>2014-04-27T06:32:11.000Z</time>
      </trkpt>
      <trkpt lat="48.99152" lon="1.13199">
        <ele>196.39999389648</ele>
        <time>2014-04-27T06:32:12.000Z</time>
      </trkpt>
      <trkpt lat="48.99157" lon="1.13189">
        <ele>195.80000305176</ele>
        <time>2014-04-27T06:32:14.000Z</time>
      </trkpt>
      <trkpt lat="48.99159" lon="1.13185">
        <ele>195.39999389648</ele>
        <time>2014-04-27T06:32:15.000Z</time>
      </trkpt>
      <trkpt lat="48.99165" lon="1.13179">
        <ele>194.60000610352</ele>
        <time>2014-04-27T06:32:17.000Z</time>
      </trkpt>
      <trkpt lat="48.9917" lon="1.13172">
        <ele>194.39999389648</ele>
        <time>2014-04-27T06:32:19.000Z</time>
      </trkpt>
      <trkpt lat="48.99181" lon="1.13155">
        <ele>194</ele>
        <time>2014-04-27T06:32:24.000Z</time>
      </trkpt>
      <trkpt lat="48.99195" lon="1.13137">
        <ele>194</ele>
        <time>2014-04-27T06:32:29.000Z</time>
      </trkpt>
      <trkpt lat="48.992" lon="1.1313">
        <ele>193.60000610352</ele>
        <time>2014-04-27T06:32:31.000Z</time>
      </trkpt>
      <trkpt lat="48.99204" lon="1.13122">
        <ele>192.80000305176</ele>
        <time>2014-04-27T06:32:34.000Z</time>
      </trkpt>
      <trkpt lat="48.99205" lon="1.13118">
        <ele>192.80000305176</ele>
        <time>2014-04-27T06:32:35.000Z</time>
      </trkpt>
      <trkpt lat="48.99206" lon="1.13113">
        <ele>192.39999389648</ele>
        <time>2014-04-27T06:32:37.000Z</time>
      </trkpt>
      <trkpt lat="48.99206" lon="1.13114">
        <ele>192.60000610352</ele>
        <time>2014-04-27T06:32:38.000Z</time>
      </trkpt>
      <trkpt lat="48.99208" lon="1.13112">
        <ele>192.60000610352</ele>
        <time>2014-04-27T06:32:43.000Z</time>
      </trkpt>
      <trkpt lat="48.99209" lon="1.13112">
        <ele>192.60000610352</ele>
        <time>2014-04-27T06:32:44.000Z</time>
      </trkpt>
      <trkpt lat="48.99213" lon="1.1311">
        <ele>192.80000305176</ele>
        <time>2014-04-27T06:32:47.000Z</time>
      </trkpt>
      <trkpt lat="48.99218" lon="1.13108">
        <ele>193</ele>
        <time>2014-04-27T06:32:52.000Z</time>
      </trkpt>
      <trkpt lat="48.99219" lon="1.13108">
        <ele>192.80000305176</ele>
        <time>2014-04-27T06:32:53.000Z</time>
      </trkpt>
      <trkpt lat="48.99223" lon="1.13102">
        <ele>192.80000305176</ele>
        <time>2014-04-27T06:32:59.000Z</time>
      </trkpt>
      <trkpt lat="48.99225" lon="1.13099">
        <ele>192.60000610352</ele>
        <time>2014-04-27T06:33:05.000Z</time>
      </trkpt>
      <trkpt lat="48.99225" lon="1.13097">
        <ele>192.80000305176</ele>
        <time>2014-04-27T06:33:11.000Z</time>
      </trkpt>
      <trkpt lat="48.99225" lon="1.13097">
        <ele>192.80000305176</ele>
        <time>2014-04-27T06:33:16.000Z</time>
      </trkpt>
      <trkpt lat="48.99227" lon="1.13097">
        <ele>192.19999694824</ele>
        <time>2014-04-27T06:33:22.000Z</time>
      </trkpt>
      <trkpt lat="48.99226" lon="1.13096">
        <ele>192.19999694824</ele>
        <time>2014-04-27T06:33:28.000Z</time>
      </trkpt>
      <trkpt lat="48.99227" lon="1.13093">
        <ele>192.39999389648</ele>
        <time>2014-04-27T06:33:34.000Z</time>
      </trkpt>
      <trkpt lat="48.99226" lon="1.13091">
        <ele>192.80000305176</ele>
        <time>2014-04-27T06:33:41.000Z</time>
      </trkpt>
      <trkpt lat="48.99226" lon="1.1309">
        <ele>192.80000305176</ele>
        <time>2014-04-27T06:33:49.000Z</time>
      </trkpt>
      <trkpt lat="48.99227" lon="1.13089">
        <ele>192.39999389648</ele>
        <time>2014-04-27T06:34:01.000Z</time>
      </trkpt>
      <trkpt lat="48.99226" lon="1.1309">
        <ele>192.60000610352</ele>
        <time>2014-04-27T06:34:11.000Z</time>
      </trkpt>
      <trkpt lat="48.99227" lon="1.13091">
        <ele>192.19999694824</ele>
        <time>2014-04-27T06:34:18.000Z</time>
      </trkpt>
      <trkpt lat="48.99227" lon="1.13092">
        <ele>193</ele>
        <time>2014-04-27T06:34:24.000Z</time>
      </trkpt>
      <trkpt lat="48.99228" lon="1.13094">
        <ele>193.39999389648</ele>
        <time>2014-04-27T06:34:30.000Z</time>
      </trkpt>
      <trkpt lat="48.99229" lon="1.13095">
        <ele>192.80000305176</ele>
        <time>2014-04-27T06:34:38.000Z</time>
      </trkpt>
      <trkpt lat="48.9923" lon="1.13095">
        <ele>192.80000305176</ele>
        <time>2014-04-27T06:34:49.000Z</time>
      </trkpt>
      <trkpt lat="48.99231" lon="1.13095">
        <ele>192</ele>
        <time>2014-04-27T06:34:56.000Z</time>
      </trkpt>
      <trkpt lat="48.9923" lon="1.13095">
        <ele>193</ele>
        <time>2014-04-27T06:35:01.000Z</time>
      </trkpt>
      <trkpt lat="48.99231" lon="1.13095">
        <ele>193.39999389648</ele>
        <time>2014-04-27T06:35:06.000Z</time>
      </trkpt>
      <trkpt lat="48.99231" lon="1.13094">
        <ele>193.19999694824</ele>
        <time>2014-04-27T06:35:08.000Z</time>
      </trkpt>
      <trkpt lat="48.99231" lon="1.13093">
        <ele>193.19999694824</ele>
        <time>2014-04-27T06:35:17.000Z</time>
      </trkpt>
      <trkpt lat="48.9923" lon="1.13092">
        <ele>192.39999389648</ele>
        <time>2014-04-27T06:35:24.000Z</time>
      </trkpt>
      <trkpt lat="48.9923" lon="1.13093">
        <ele>192</ele>
        <time>2014-04-27T06:35:27.000Z</time>
      </trkpt>
      <trkpt lat="48.99232" lon="1.13093">
        <ele>192.19999694824</ele>
        <time>2014-04-27T06:35:36.000Z</time>
      </trkpt>
      <trkpt lat="48.99232" lon="1.13094">
        <ele>191.80000305176</ele>
        <time>2014-04-27T06:35:47.000Z</time>
      </trkpt>
      <trkpt lat="48.99234" lon="1.13095">
        <ele>192</ele>
        <time>2014-04-27T06:35:59.000Z</time>
      </trkpt>
      <trkpt lat="48.99236" lon="1.13095">
        <ele>192.19999694824</ele>
        <time>2014-04-27T06:36:09.000Z</time>
      </trkpt>
      <trkpt lat="48.99236" lon="1.13094">
        <ele>192</ele>
        <time>2014-04-27T06:36:19.000Z</time>
      </trkpt>
      <trkpt lat="48.99236" lon="1.13094">
        <ele>192.19999694824</ele>
        <time>2014-04-27T06:36:24.000Z</time>
      </trkpt>
      <trkpt lat="48.99234" lon="1.13094">
        <ele>192.60000610352</ele>
        <time>2014-04-27T06:36:30.000Z</time>
      </trkpt>
      <trkpt lat="48.9923" lon="1.13093">
        <ele>192.60000610352</ele>
        <time>2014-04-27T06:36:39.000Z</time>
      </trkpt>
      <trkpt lat="48.99227" lon="1.13096">
        <ele>191.60000610352</ele>
        <time>2014-04-27T06:36:50.000Z</time>
      </trkpt>
      <trkpt lat="48.99227" lon="1.13097">
        <ele>191.60000610352</ele>
        <time>2014-04-27T06:36:55.000Z</time>
      </trkpt>
      <trkpt lat="48.99225" lon="1.13095">
        <ele>191.60000610352</ele>
        <time>2014-04-27T06:37:00.000Z</time>
      </trkpt>
      <trkpt lat="48.99223" lon="1.13095">
        <ele>192.39999389648</ele>
        <time>2014-04-27T06:37:06.000Z</time>
      </trkpt>
      <trkpt lat="48.99222" lon="1.13096">
        <ele>192.60000610352</ele>
        <time>2014-04-27T06:37:15.000Z</time>
      </trkpt>
      <trkpt lat="48.99216" lon="1.13089">
        <ele>191.60000610352</ele>
        <time>2014-04-27T06:37:27.000Z</time>
      </trkpt>
      <trkpt lat="48.99213" lon="1.13083">
        <ele>192.39999389648</ele>
        <time>2014-04-27T06:37:38.000Z</time>
      </trkpt>
      <trkpt lat="48.99213" lon="1.13081">
        <ele>191.80000305176</ele>
        <time>2014-04-27T06:37:43.000Z</time>
      </trkpt>
      <trkpt lat="48.99218" lon="1.13083">
        <ele>191.39999389648</ele>
        <time>2014-04-27T06:37:50.000Z</time>
      </trkpt>
      <trkpt lat="48.99223" lon="1.13087">
        <ele>191.60000610352</ele>
        <time>2014-04-27T06:37:58.000Z</time>
      </trkpt>
      <trkpt lat="48.99223" lon="1.13086">
        <ele>192.19999694824</ele>
        <time>2014-04-27T06:38:03.000Z</time>
      </trkpt>
      <trkpt lat="48.99221" lon="1.13086">
        <ele>192.39999389648</ele>
        <time>2014-04-27T06:38:15.000Z</time>
      </trkpt>
      <trkpt lat="48.99223" lon="1.13089">
        <ele>191.60000610352</ele>
        <time>2014-04-27T06:38:21.000Z</time>
      </trkpt>
      <trkpt lat="48.99224" lon="1.13091">
        <ele>191.80000305176</ele>
        <time>2014-04-27T06:38:26.000Z</time>
      </trkpt>
      <trkpt lat="48.99226" lon="1.13094">
        <ele>192.60000610352</ele>
        <time>2014-04-27T06:38:34.000Z</time>
      </trkpt>
      <trkpt lat="48.99226" lon="1.13095">
        <ele>191.80000305176</ele>
        <time>2014-04-27T06:38:43.000Z</time>
      </trkpt>
      <trkpt lat="48.99225" lon="1.13096">
        <ele>191.60000610352</ele>
        <time>2014-04-27T06:38:52.000Z</time>
      </trkpt>
      <trkpt lat="48.99226" lon="1.13098">
        <ele>192.39999389648</ele>
        <time>2014-04-27T06:38:59.000Z</time>
      </trkpt>
      <trkpt lat="48.99226" lon="1.13097">
        <ele>192.39999389648</ele>
        <time>2014-04-27T06:39:08.000Z</time>
      </trkpt>
      <trkpt lat="48.99226" lon="1.13094">
        <ele>191.80000305176</ele>
        <time>2014-04-27T06:39:16.000Z</time>
      </trkpt>
      <trkpt lat="48.9923" lon="1.13094">
        <ele>191.80000305176</ele>
        <time>2014-04-27T06:39:24.000Z</time>
      </trkpt>
      <trkpt lat="48.9923" lon="1.13094">
        <ele>192</ele>
        <time>2014-04-27T06:39:31.000Z</time>
      </trkpt>
      <trkpt lat="48.99229" lon="1.13095">
        <ele>192.19999694824</ele>
        <time>2014-04-27T06:39:39.000Z</time>
      </trkpt>
      <trkpt lat="48.9923" lon="1.13095">
        <ele>192.39999389648</ele>
        <time>2014-04-27T06:39:43.000Z</time>
      </trkpt>
      <trkpt lat="48.99229" lon="1.13095">
        <ele>192.80000305176</ele>
        <time>2014-04-27T06:39:49.000Z</time>
      </trkpt>
      <trkpt lat="48.99228" lon="1.13092">
        <ele>193.19999694824</ele>
        <time>2014-04-27T06:40:02.000Z</time>
      </trkpt>
      <trkpt lat="48.99228" lon="1.13092">
        <ele>193</ele>
        <time>2014-04-27T06:40:08.000Z</time>
      </trkpt>
      <trkpt lat="48.99229" lon="1.13092">
        <ele>193</ele>
        <time>2014-04-27T06:40:13.000Z</time>
      </trkpt>
      <trkpt lat="48.99229" lon="1.13093">
        <ele>192.60000610352</ele>
        <time>2014-04-27T06:40:20.000Z</time>
      </trkpt>
      <trkpt lat="48.99228" lon="1.13094">
        <ele>192.80000305176</ele>
        <time>2014-04-27T06:40:27.000Z</time>
      </trkpt>
      <trkpt lat="48.99227" lon="1.13098">
        <ele>193.39999389648</ele>
        <time>2014-04-27T06:40:41.000Z</time>
      </trkpt>
      <trkpt lat="48.99227" lon="1.13098">
        <ele>193.39999389648</ele>
        <time>2014-04-27T06:40:43.000Z</time>
      </trkpt>
      <trkpt lat="48.99226" lon="1.13099">
        <ele>193.39999389648</ele>
        <time>2014-04-27T06:41:00.000Z</time>
      </trkpt>
      <trkpt lat="48.99226" lon="1.13098">
        <ele>193.39999389648</ele>
        <time>2014-04-27T06:41:09.000Z</time>
      </trkpt>
      <trkpt lat="48.99226" lon="1.13099">
        <ele>193.39999389648</ele>
        <time>2014-04-27T06:41:14.000Z</time>
      </trkpt>
      <trkpt lat="48.99226" lon="1.13099">
        <ele>192.80000305176</ele>
        <time>2014-04-27T06:41:23.000Z</time>
      </trkpt>
      <trkpt lat="48.99225" lon="1.13102">
        <ele>192.60000610352</ele>
        <time>2014-04-27T06:41:31.000Z</time>
      </trkpt>
      <trkpt lat="48.99226" lon="1.13106">
        <ele>193.39999389648</ele>
        <time>2014-04-27T06:41:40.000Z</time>
      </trkpt>
      <trkpt lat="48.99226" lon="1.13107">
        <ele>193</ele>
        <time>2014-04-27T06:41:48.000Z</time>
      </trkpt>
      <trkpt lat="48.99228" lon="1.1311">
        <ele>192.80000305176</ele>
        <time>2014-04-27T06:41:58.000Z</time>
      </trkpt>
      <trkpt lat="48.99229" lon="1.13115">
        <ele>193</ele>
        <time>2014-04-27T06:42:11.000Z</time>
      </trkpt>
      <trkpt lat="48.99229" lon="1.13113">
        <ele>193.19999694824</ele>
        <time>2014-04-27T06:42:19.000Z</time>
      </trkpt>
      <trkpt lat="48.99228" lon="1.13111">
        <ele>193</ele>
        <time>2014-04-27T06:42:26.000Z</time>
      </trkpt>
      <trkpt lat="48.99225" lon="1.13107">
        <ele>193.60000610352</ele>
        <time>2014-04-27T06:42:33.000Z</time>
      </trkpt>
      <trkpt lat="48.99224" lon="1.131">
        <ele>192.80000305176</ele>
        <time>2014-04-27T06:42:39.000Z</time>
      </trkpt>
      <trkpt lat="48.99223" lon="1.13093">
        <ele>192.80000305176</ele>
        <time>2014-04-27T06:42:44.000Z</time>
      </trkpt>
      <trkpt lat="48.99223" lon="1.1309">
        <ele>192.80000305176</ele>
        <time>2014-04-27T06:42:51.000Z</time>
      </trkpt>
      <trkpt lat="48.99222" lon="1.13086">
        <ele>192.80000305176</ele>
        <time>2014-04-27T06:43:01.000Z</time>
      </trkpt>
      <trkpt lat="48.9922" lon="1.13084">
        <ele>192.60000610352</ele>
        <time>2014-04-27T06:43:10.000Z</time>
      </trkpt>
      <trkpt lat="48.99219" lon="1.13087">
        <ele>192.60000610352</ele>
        <time>2014-04-27T06:43:16.000Z</time>
      </trkpt>
      <trkpt lat="48.9922" lon="1.13088">
        <ele>192.60000610352</ele>
        <time>2014-04-27T06:43:19.000Z</time>
      </trkpt>
      <trkpt lat="48.99222" lon="1.13089">
        <ele>192.60000610352</ele>
        <time>2014-04-27T06:43:22.000Z</time>
      </trkpt>
      <trkpt lat="48.99222" lon="1.13088">
        <ele>193.19999694824</ele>
        <time>2014-04-27T06:43:26.000Z</time>
      </trkpt>
      <trkpt lat="48.99223" lon="1.13087">
        <ele>193.80000305176</ele>
        <time>2014-04-27T06:43:36.000Z</time>
      </trkpt>
      <trkpt lat="48.99224" lon="1.13087">
        <ele>193.19999694824</ele>
        <time>2014-04-27T06:43:44.000Z</time>
      </trkpt>
      <trkpt lat="48.99226" lon="1.13088">
        <ele>193.19999694824</ele>
        <time>2014-04-27T06:43:50.000Z</time>
      </trkpt>
      <trkpt lat="48.99227" lon="1.13089">
        <ele>193.60000610352</ele>
        <time>2014-04-27T06:43:54.000Z</time>
      </trkpt>
      <trkpt lat="48.99227" lon="1.13089">
        <ele>193.60000610352</ele>
        <time>2014-04-27T06:44:01.000Z</time>
      </trkpt>
      <trkpt lat="48.99228" lon="1.1309">
        <ele>193.39999389648</ele>
        <time>2014-04-27T06:44:08.000Z</time>
      </trkpt>
      <trkpt lat="48.99228" lon="1.1309">
        <ele>192.80000305176</ele>
        <time>2014-04-27T06:44:16.000Z</time>
      </trkpt>
      <trkpt lat="48.99229" lon="1.13091">
        <ele>192.80000305176</ele>
        <time>2014-04-27T06:44:24.000Z</time>
      </trkpt>
      <trkpt lat="48.99233" lon="1.13098">
        <ele>193</ele>
        <time>2014-04-27T06:44:40.000Z</time>
      </trkpt>
      <trkpt lat="48.99233" lon="1.13099">
        <ele>193</ele>
        <time>2014-04-27T06:44:48.000Z</time>
      </trkpt>
      <trkpt lat="48.99232" lon="1.13096">
        <ele>193.39999389648</ele>
        <time>2014-04-27T06:44:54.000Z</time>
      </trkpt>
      <trkpt lat="48.99231" lon="1.13093">
        <ele>193</ele>
        <time>2014-04-27T06:45:00.000Z</time>
      </trkpt>
      <trkpt lat="48.99231" lon="1.13092">
        <ele>192.80000305176</ele>
        <time>2014-04-27T06:45:09.000Z</time>
      </trkpt>
      <trkpt lat="48.99233" lon="1.13091">
        <ele>192.60000610352</ele>
        <time>2014-04-27T06:45:18.000Z</time>
      </trkpt>
      <trkpt lat="48.99232" lon="1.13092">
        <ele>193.19999694824</ele>
        <time>2014-04-27T06:45:25.000Z</time>
      </trkpt>
      <trkpt lat="48.9923" lon="1.13091">
        <ele>193.39999389648</ele>
        <time>2014-04-27T06:45:33.000Z</time>
      </trkpt>
      <trkpt lat="48.99229" lon="1.13091">
        <ele>193.19999694824</ele>
        <time>2014-04-27T06:45:39.000Z</time>
      </trkpt>
      <trkpt lat="48.99228" lon="1.13092">
        <ele>193.60000610352</ele>
        <time>2014-04-27T06:45:46.000Z</time>
      </trkpt>
      <trkpt lat="48.99228" lon="1.13095">
        <ele>193.19999694824</ele>
        <time>2014-04-27T06:45:56.000Z</time>
      </trkpt>
      <trkpt lat="48.99227" lon="1.13094">
        <ele>193.80000305176</ele>
        <time>2014-04-27T06:46:01.000Z</time>
      </trkpt>
      <trkpt lat="48.99225" lon="1.1309">
        <ele>193.60000610352</ele>
        <time>2014-04-27T06:46:03.000Z</time>
      </trkpt>
      <trkpt lat="48.99225" lon="1.13085">
        <ele>193.39999389648</ele>
        <time>2014-04-27T06:46:05.000Z</time>
      </trkpt>
      <trkpt lat="48.99222" lon="1.13073">
        <ele>193.19999694824</ele>
        <time>2014-04-27T06:46:07.000Z</time>
      </trkpt>
      <trkpt lat="48.99214" lon="1.13039">
        <ele>192.19999694824</ele>
        <time>2014-04-27T06:46:12.000Z</time>
      </trkpt>
      <trkpt lat="48.99206" lon="1.13015">
        <ele>192</ele>
        <time>2014-04-27T06:46:16.000Z</time>
      </trkpt>
      <trkpt lat="48.99201" lon="1.12993">
        <ele>191.60000610352</ele>
        <time>2014-04-27T06:46:21.000Z</time>
      </trkpt>
      <trkpt lat="48.99201" lon="1.12993">
        <ele>191.60000610352</ele>
        <time>2014-04-27T06:46:28.000Z</time>
      </trkpt>
      <trkpt lat="48.992" lon="1.12992">
        <ele>191.80000305176</ele>
        <time>2014-04-27T06:46:36.000Z</time>
      </trkpt>
      <trkpt lat="48.99201" lon="1.12992">
        <ele>191.80000305176</ele>
        <time>2014-04-27T06:46:42.000Z</time>
      </trkpt>
      <trkpt lat="48.992" lon="1.12992">
        <ele>191.60000610352</ele>
        <time>2014-04-27T06:46:48.000Z</time>
      </trkpt>
      <trkpt lat="48.992" lon="1.12991">
        <ele>191.19999694824</ele>
        <time>2014-04-27T06:46:54.000Z</time>
      </trkpt>
      <trkpt lat="48.992" lon="1.12991">
        <ele>191.19999694824</ele>
        <time>2014-04-27T06:46:55.000Z</time>
      </trkpt>
      <trkpt lat="48.992" lon="1.1299">
        <ele>191.19999694824</ele>
        <time>2014-04-27T06:47:12.000Z</time>
      </trkpt>
      <trkpt lat="48.992" lon="1.12988">
        <ele>191.19999694824</ele>
        <time>2014-04-27T06:47:21.000Z</time>
      </trkpt>
      <trkpt lat="48.99197" lon="1.12975">
        <ele>191</ele>
        <time>2014-04-27T06:47:26.000Z</time>
      </trkpt>
      <trkpt lat="48.99192" lon="1.12955">
        <ele>190.80000305176</ele>
        <time>2014-04-27T06:47:30.000Z</time>
      </trkpt>
      <trkpt lat="48.9919" lon="1.12949">
        <ele>191</ele>
        <time>2014-04-27T06:47:31.000Z</time>
      </trkpt>
      <trkpt lat="48.99186" lon="1.12934">
        <ele>190.80000305176</ele>
        <time>2014-04-27T06:47:33.000Z</time>
      </trkpt>
      <trkpt lat="48.99181" lon="1.1291">
        <ele>190.60000610352</ele>
        <time>2014-04-27T06:47:36.000Z</time>
      </trkpt>
      <trkpt lat="48.99177" lon="1.12897">
        <ele>190.60000610352</ele>
        <time>2014-04-27T06:47:38.000Z</time>
      </trkpt>
      <trkpt lat="48.99172" lon="1.12874">
        <ele>190.60000610352</ele>
        <time>2014-04-27T06:47:41.000Z</time>
      </trkpt>
      <trkpt lat="48.99171" lon="1.12867">
        <ele>190.60000610352</ele>
        <time>2014-04-27T06:47:42.000Z</time>
      </trkpt>
      <trkpt lat="48.99163" lon="1.12837">
        <ele>190.60000610352</ele>
        <time>2014-04-27T06:47:46.000Z</time>
      </trkpt>
      <trkpt lat="48.99154" lon="1.12796">
        <ele>190</ele>
        <time>2014-04-27T06:47:51.000Z</time>
      </trkpt>
      <trkpt lat="48.99152" lon="1.12788">
        <ele>190</ele>
        <time>2014-04-27T06:47:52.000Z</time>
      </trkpt>
      <trkpt lat="48.99147" lon="1.12765">
        <ele>189.60000610352</ele>
        <time>2014-04-27T06:47:55.000Z</time>
      </trkpt>
      <trkpt lat="48.99148" lon="1.1275">
        <ele>189.80000305176</ele>
        <time>2014-04-27T06:47:58.000Z</time>
      </trkpt>
      <trkpt lat="48.99144" lon="1.12736">
        <ele>189.60000610352</ele>
        <time>2014-04-27T06:48:01.000Z</time>
      </trkpt>
      <trkpt lat="48.99141" lon="1.12729">
        <ele>189.39999389648</ele>
        <time>2014-04-27T06:48:02.000Z</time>
      </trkpt>
      <trkpt lat="48.99139" lon="1.12722">
        <ele>189.60000610352</ele>
        <time>2014-04-27T06:48:03.000Z</time>
      </trkpt>
      <trkpt lat="48.99131" lon="1.12698">
        <ele>189.19999694824</ele>
        <time>2014-04-27T06:48:06.000Z</time>
      </trkpt>
      <trkpt lat="48.99128" lon="1.12681">
        <ele>189.19999694824</ele>
        <time>2014-04-27T06:48:08.000Z</time>
      </trkpt>
      <trkpt lat="48.99126" lon="1.12672">
        <ele>189</ele>
        <time>2014-04-27T06:48:09.000Z</time>
      </trkpt>
      <trkpt lat="48.99119" lon="1.12646">
        <ele>189.19999694824</ele>
        <time>2014-04-27T06:48:12.000Z</time>
      </trkpt>
      <trkpt lat="48.99112" lon="1.12611">
        <ele>188.80000305176</ele>
        <time>2014-04-27T06:48:17.000Z</time>
      </trkpt>
      <trkpt lat="48.99104" lon="1.1258">
        <ele>188.39999389648</ele>
        <time>2014-04-27T06:48:21.000Z</time>
      </trkpt>
      <trkpt lat="48.99098" lon="1.12558">
        <ele>188.39999389648</ele>
        <time>2014-04-27T06:48:24.000Z</time>
      </trkpt>
      <trkpt lat="48.99097" lon="1.1255">
        <ele>188.39999389648</ele>
        <time>2014-04-27T06:48:25.000Z</time>
      </trkpt>
      <trkpt lat="48.99087" lon="1.1251">
        <ele>189</ele>
        <time>2014-04-27T06:48:30.000Z</time>
      </trkpt>
      <trkpt lat="48.99077" lon="1.12463">
        <ele>189.19999694824</ele>
        <time>2014-04-27T06:48:36.000Z</time>
      </trkpt>
      <trkpt lat="48.99069" lon="1.12428">
        <ele>188.60000610352</ele>
        <time>2014-04-27T06:48:41.000Z</time>
      </trkpt>
      <trkpt lat="48.99061" lon="1.12395">
        <ele>188.60000610352</ele>
        <time>2014-04-27T06:48:45.000Z</time>
      </trkpt>
      <trkpt lat="48.9906" lon="1.12373">
        <ele>188.80000305176</ele>
        <time>2014-04-27T06:48:49.000Z</time>
      </trkpt>
      <trkpt lat="48.99058" lon="1.12362">
        <ele>188.60000610352</ele>
        <time>2014-04-27T06:48:52.000Z</time>
      </trkpt>
      <trkpt lat="48.99057" lon="1.12359">
        <ele>188.60000610352</ele>
        <time>2014-04-27T06:48:53.000Z</time>
      </trkpt>
      <trkpt lat="48.99051" lon="1.12352">
        <ele>188.39999389648</ele>
        <time>2014-04-27T06:48:56.000Z</time>
      </trkpt>
      <trkpt lat="48.99048" lon="1.12346">
        <ele>188.80000305176</ele>
        <time>2014-04-27T06:48:58.000Z</time>
      </trkpt>
      <trkpt lat="48.99047" lon="1.12342">
        <ele>189</ele>
        <time>2014-04-27T06:48:59.000Z</time>
      </trkpt>
      <trkpt lat="48.99043" lon="1.12321">
        <ele>189</ele>
        <time>2014-04-27T06:49:04.000Z</time>
      </trkpt>
      <trkpt lat="48.99038" lon="1.123">
        <ele>189.39999389648</ele>
        <time>2014-04-27T06:49:09.000Z</time>
      </trkpt>
      <trkpt lat="48.99036" lon="1.12282">
        <ele>190</ele>
        <time>2014-04-27T06:49:12.000Z</time>
      </trkpt>
      <trkpt lat="48.99035" lon="1.12277">
        <ele>190.19999694824</ele>
        <time>2014-04-27T06:49:13.000Z</time>
      </trkpt>
      <trkpt lat="48.99033" lon="1.12271">
        <ele>190.19999694824</ele>
        <time>2014-04-27T06:49:14.000Z</time>
      </trkpt>
      <trkpt lat="48.99029" lon="1.12258">
        <ele>190.19999694824</ele>
        <time>2014-04-27T06:49:16.000Z</time>
      </trkpt>
      <trkpt lat="48.99023" lon="1.12228">
        <ele>190.60000610352</ele>
        <time>2014-04-27T06:49:21.000Z</time>
      </trkpt>
      <trkpt lat="48.9902" lon="1.12216">
        <ele>191</ele>
        <time>2014-04-27T06:49:23.000Z</time>
      </trkpt>
      <trkpt lat="48.99018" lon="1.12209">
        <ele>191.19999694824</ele>
        <time>2014-04-27T06:49:24.000Z</time>
      </trkpt>
      <trkpt lat="48.99017" lon="1.12199">
        <ele>191.39999389648</ele>
        <time>2014-04-27T06:49:26.000Z</time>
      </trkpt>
      <trkpt lat="48.99008" lon="1.12162">
        <ele>191.60000610352</ele>
        <time>2014-04-27T06:49:32.000Z</time>
      </trkpt>
      <trkpt lat="48.99006" lon="1.12151">
        <ele>191.60000610352</ele>
        <time>2014-04-27T06:49:34.000Z</time>
      </trkpt>
      <trkpt lat="48.99004" lon="1.12145">
        <ele>191.60000610352</ele>
        <time>2014-04-27T06:49:35.000Z</time>
      </trkpt>
      <trkpt lat="48.99001" lon="1.1213">
        <ele>192</ele>
        <time>2014-04-27T06:49:38.000Z</time>
      </trkpt>
      <trkpt lat="48.98999" lon="1.12124">
        <ele>192.19999694824</ele>
        <time>2014-04-27T06:49:39.000Z</time>
      </trkpt>
      <trkpt lat="48.98993" lon="1.12096">
        <ele>192.39999389648</ele>
        <time>2014-04-27T06:49:44.000Z</time>
      </trkpt>
      <trkpt lat="48.98987" lon="1.12069">
        <ele>193</ele>
        <time>2014-04-27T06:49:49.000Z</time>
      </trkpt>
      <trkpt lat="48.98985" lon="1.12062">
        <ele>193.19999694824</ele>
        <time>2014-04-27T06:49:51.000Z</time>
      </trkpt>
      <trkpt lat="48.98982" lon="1.12051">
        <ele>193.19999694824</ele>
        <time>2014-04-27T06:49:54.000Z</time>
      </trkpt>
      <trkpt lat="48.98976" lon="1.12025">
        <ele>193.60000610352</ele>
        <time>2014-04-27T06:49:59.000Z</time>
      </trkpt>
      <trkpt lat="48.98972" lon="1.12008">
        <ele>193.80000305176</ele>
        <time>2014-04-27T06:50:02.000Z</time>
      </trkpt>
      <trkpt lat="48.98965" lon="1.11992">
        <ele>193.80000305176</ele>
        <time>2014-04-27T06:50:06.000Z</time>
      </trkpt>
      <trkpt lat="48.98955" lon="1.11985">
        <ele>193.39999389648</ele>
        <time>2014-04-27T06:50:10.000Z</time>
      </trkpt>
      <trkpt lat="48.98939" lon="1.11982">
        <ele>193.80000305176</ele>
        <time>2014-04-27T06:50:15.000Z</time>
      </trkpt>
      <trkpt lat="48.98936" lon="1.11983">
        <ele>194.19999694824</ele>
        <time>2014-04-27T06:50:16.000Z</time>
      </trkpt>
      <trkpt lat="48.98934" lon="1.11985">
        <ele>194.19999694824</ele>
        <time>2014-04-27T06:50:17.000Z</time>
      </trkpt>
      <trkpt lat="48.9893" lon="1.11989">
        <ele>194.39999389648</ele>
        <time>2014-04-27T06:50:19.000Z</time>
      </trkpt>
      <trkpt lat="48.98922" lon="1.11987">
        <ele>194.60000610352</ele>
        <time>2014-04-27T06:50:22.000Z</time>
      </trkpt>
      <trkpt lat="48.98918" lon="1.11986">
        <ele>195</ele>
        <time>2014-04-27T06:50:24.000Z</time>
      </trkpt>
      <trkpt lat="48.98915" lon="1.11985">
        <ele>195.19999694824</ele>
        <time>2014-04-27T06:50:25.000Z</time>
      </trkpt>
      <trkpt lat="48.98909" lon="1.11983">
        <ele>195.19999694824</ele>
        <time>2014-04-27T06:50:28.000Z</time>
      </trkpt>
      <trkpt lat="48.98896" lon="1.11989">
        <ele>194.60000610352</ele>
        <time>2014-04-27T06:50:33.000Z</time>
      </trkpt>
      <trkpt lat="48.98894" lon="1.11993">
        <ele>194.60000610352</ele>
        <time>2014-04-27T06:50:34.000Z</time>
      </trkpt>
      <trkpt lat="48.98889" lon="1.12">
        <ele>195</ele>
        <time>2014-04-27T06:50:37.000Z</time>
      </trkpt>
      <trkpt lat="48.98888" lon="1.12002">
        <ele>195</ele>
        <time>2014-04-27T06:50:38.000Z</time>
      </trkpt>
      <trkpt lat="48.98885" lon="1.12012">
        <ele>195.39999389648</ele>
        <time>2014-04-27T06:50:41.000Z</time>
      </trkpt>
      <trkpt lat="48.98883" lon="1.12019">
        <ele>195.60000610352</ele>
        <time>2014-04-27T06:50:43.000Z</time>
      </trkpt>
      <trkpt lat="48.98882" lon="1.12022">
        <ele>195.80000305176</ele>
        <time>2014-04-27T06:50:44.000Z</time>
      </trkpt>
      <trkpt lat="48.98878" lon="1.12027">
        <ele>196</ele>
        <time>2014-04-27T06:50:46.000Z</time>
      </trkpt>
      <trkpt lat="48.98871" lon="1.12033">
        <ele>196</ele>
        <time>2014-04-27T06:50:50.000Z</time>
      </trkpt>
      <trkpt lat="48.98866" lon="1.12036">
        <ele>196</ele>
        <time>2014-04-27T06:50:52.000Z</time>
      </trkpt>
      <trkpt lat="48.98862" lon="1.12036">
        <ele>196</ele>
        <time>2014-04-27T06:50:54.000Z</time>
      </trkpt>
      <trkpt lat="48.9886" lon="1.12037">
        <ele>196</ele>
        <time>2014-04-27T06:50:55.000Z</time>
      </trkpt>
      <trkpt lat="48.98856" lon="1.12037">
        <ele>195.39999389648</ele>
        <time>2014-04-27T06:51:01.000Z</time>
      </trkpt>
      <trkpt lat="48.98855" lon="1.12038">
        <ele>195.80000305176</ele>
        <time>2014-04-27T06:51:08.000Z</time>
      </trkpt>
      <trkpt lat="48.98853" lon="1.12033">
        <ele>195.39999389648</ele>
        <time>2014-04-27T06:51:14.000Z</time>
      </trkpt>
      <trkpt lat="48.9885" lon="1.12031">
        <ele>194.80000305176</ele>
        <time>2014-04-27T06:51:19.000Z</time>
      </trkpt>
      <trkpt lat="48.98848" lon="1.12032">
        <ele>194</ele>
        <time>2014-04-27T06:51:22.000Z</time>
      </trkpt>
      <trkpt lat="48.98848" lon="1.12032">
        <ele>193.80000305176</ele>
        <time>2014-04-27T06:51:24.000Z</time>
      </trkpt>
      <trkpt lat="48.98846" lon="1.12035">
        <ele>193.39999389648</ele>
        <time>2014-04-27T06:51:37.000Z</time>
      </trkpt>
      <trkpt lat="48.98842" lon="1.12037">
        <ele>193.39999389648</ele>
        <time>2014-04-27T06:51:43.000Z</time>
      </trkpt>
      <trkpt lat="48.9884" lon="1.12038">
        <ele>193.19999694824</ele>
        <time>2014-04-27T06:51:48.000Z</time>
      </trkpt>
      <trkpt lat="48.98837" lon="1.12042">
        <ele>193.39999389648</ele>
        <time>2014-04-27T06:51:53.000Z</time>
      </trkpt>
      <trkpt lat="48.98836" lon="1.12049">
        <ele>194.39999389648</ele>
        <time>2014-04-27T06:52:00.000Z</time>
      </trkpt>
      <trkpt lat="48.98834" lon="1.12052">
        <ele>194.80000305176</ele>
        <time>2014-04-27T06:52:06.000Z</time>
      </trkpt>
      <trkpt lat="48.98833" lon="1.12052">
        <ele>195</ele>
        <time>2014-04-27T06:52:11.000Z</time>
      </trkpt>
      <trkpt lat="48.98832" lon="1.1205">
        <ele>195</ele>
        <time>2014-04-27T06:52:13.000Z</time>
      </trkpt>
      <trkpt lat="48.98832" lon="1.12049">
        <ele>194.80000305176</ele>
        <time>2014-04-27T06:52:14.000Z</time>
      </trkpt>
      <trkpt lat="48.98832" lon="1.12046">
        <ele>194.60000610352</ele>
        <time>2014-04-27T06:52:16.000Z</time>
      </trkpt>
      <trkpt lat="48.98831" lon="1.12041">
        <ele>193.80000305176</ele>
        <time>2014-04-27T06:52:20.000Z</time>
      </trkpt>
      <trkpt lat="48.9883" lon="1.12039">
        <ele>193.19999694824</ele>
        <time>2014-04-27T06:52:25.000Z</time>
      </trkpt>
      <trkpt lat="48.9883" lon="1.12038">
        <ele>193</ele>
        <time>2014-04-27T06:52:26.000Z</time>
      </trkpt>
      <trkpt lat="48.98828" lon="1.12038">
        <ele>191.80000305176</ele>
        <time>2014-04-27T06:52:30.000Z</time>
      </trkpt>
      <trkpt lat="48.98826" lon="1.12039">
        <ele>191.39999389648</ele>
        <time>2014-04-27T06:52:32.000Z</time>
      </trkpt>
      <trkpt lat="48.98826" lon="1.12039">
        <ele>191.19999694824</ele>
        <time>2014-04-27T06:52:33.000Z</time>
      </trkpt>
      <trkpt lat="48.98823" lon="1.1204">
        <ele>190.60000610352</ele>
        <time>2014-04-27T06:52:36.000Z</time>
      </trkpt>
      <trkpt lat="48.98821" lon="1.1204">
        <ele>190</ele>
        <time>2014-04-27T06:52:39.000Z</time>
      </trkpt>
      <trkpt lat="48.98818" lon="1.12039">
        <ele>189.80000305176</ele>
        <time>2014-04-27T06:52:43.000Z</time>
      </trkpt>
      <trkpt lat="48.98818" lon="1.12039">
        <ele>189.39999389648</ele>
        <time>2014-04-27T06:52:44.000Z</time>
      </trkpt>
      <trkpt lat="48.98815" lon="1.12038">
        <ele>188.39999389648</ele>
        <time>2014-04-27T06:52:46.000Z</time>
      </trkpt>
      <trkpt lat="48.98811" lon="1.12041">
        <ele>187.60000610352</ele>
        <time>2014-04-27T06:52:48.000Z</time>
      </trkpt>
      <trkpt lat="48.98809" lon="1.12042">
        <ele>187.19999694824</ele>
        <time>2014-04-27T06:52:49.000Z</time>
      </trkpt>
      <trkpt lat="48.98807" lon="1.12043">
        <ele>186.80000305176</ele>
        <time>2014-04-27T06:52:50.000Z</time>
      </trkpt>
      <trkpt lat="48.98804" lon="1.12045">
        <ele>186</ele>
        <time>2014-04-27T06:52:52.000Z</time>
      </trkpt>
      <trkpt lat="48.98803" lon="1.12046">
        <ele>185.60000610352</ele>
        <time>2014-04-27T06:52:53.000Z</time>
      </trkpt>
      <trkpt lat="48.98801" lon="1.12046">
        <ele>185.19999694824</ele>
        <time>2014-04-27T06:52:55.000Z</time>
      </trkpt>
      <trkpt lat="48.988" lon="1.12045">
        <ele>184.60000610352</ele>
        <time>2014-04-27T06:52:56.000Z</time>
      </trkpt>
      <trkpt lat="48.98797" lon="1.12045">
        <ele>183.80000305176</ele>
        <time>2014-04-27T06:52:58.000Z</time>
      </trkpt>
      <trkpt lat="48.98796" lon="1.12046">
        <ele>183.39999389648</ele>
        <time>2014-04-27T06:52:59.000Z</time>
      </trkpt>
      <trkpt lat="48.98795" lon="1.12047">
        <ele>182</ele>
        <time>2014-04-27T06:53:01.000Z</time>
      </trkpt>
      <trkpt lat="48.98794" lon="1.12047">
        <ele>181.60000610352</ele>
        <time>2014-04-27T06:53:02.000Z</time>
      </trkpt>
      <trkpt lat="48.98794" lon="1.12048">
        <ele>180.80000305176</ele>
        <time>2014-04-27T06:53:04.000Z</time>
      </trkpt>
      <trkpt lat="48.98792" lon="1.12048">
        <ele>180.19999694824</ele>
        <time>2014-04-27T06:53:10.000Z</time>
      </trkpt>
      <trkpt lat="48.98788" lon="1.12048">
        <ele>180</ele>
        <time>2014-04-27T06:53:18.000Z</time>
      </trkpt>
      <trkpt lat="48.98786" lon="1.12049">
        <ele>179.80000305176</ele>
        <time>2014-04-27T06:53:20.000Z</time>
      </trkpt>
      <trkpt lat="48.98782" lon="1.12049">
        <ele>179.60000610352</ele>
        <time>2014-04-27T06:53:24.000Z</time>
      </trkpt>
      <trkpt lat="48.9878" lon="1.12049">
        <ele>179.39999389648</ele>
        <time>2014-04-27T06:53:25.000Z</time>
      </trkpt>
      <trkpt lat="48.98776" lon="1.12049">
        <ele>178.60000610352</ele>
        <time>2014-04-27T06:53:29.000Z</time>
      </trkpt>
      <trkpt lat="48.98777" lon="1.12049">
        <ele>178.19999694824</ele>
        <time>2014-04-27T06:53:30.000Z</time>
      </trkpt>
      <trkpt lat="48.98774" lon="1.12048">
        <ele>177.39999389648</ele>
        <time>2014-04-27T06:53:33.000Z</time>
      </trkpt>
      <trkpt lat="48.98772" lon="1.12048">
        <ele>177</ele>
        <time>2014-04-27T06:53:38.000Z</time>
      </trkpt>
      <trkpt lat="48.98769" lon="1.12048">
        <ele>176.39999389648</ele>
        <time>2014-04-27T06:53:43.000Z</time>
      </trkpt>
      <trkpt lat="48.98767" lon="1.12048">
        <ele>176.19999694824</ele>
        <time>2014-04-27T06:53:45.000Z</time>
      </trkpt>
      <trkpt lat="48.98764" lon="1.12048">
        <ele>175.19999694824</ele>
        <time>2014-04-27T06:53:52.000Z</time>
      </trkpt>
      <trkpt lat="48.98761" lon="1.12049">
        <ele>176.19999694824</ele>
        <time>2014-04-27T06:54:03.000Z</time>
      </trkpt>
      <trkpt lat="48.98754" lon="1.12049">
        <ele>175.80000305176</ele>
        <time>2014-04-27T06:54:20.000Z</time>
      </trkpt>
      <trkpt lat="48.98753" lon="1.12049">
        <ele>175.60000610352</ele>
        <time>2014-04-27T06:54:33.000Z</time>
      </trkpt>
      <trkpt lat="48.98753" lon="1.1205">
        <ele>175.60000610352</ele>
        <time>2014-04-27T06:54:42.000Z</time>
      </trkpt>
      <trkpt lat="48.98753" lon="1.12051">
        <ele>175.80000305176</ele>
        <time>2014-04-27T06:54:53.000Z</time>
      </trkpt>
      <trkpt lat="48.98752" lon="1.12052">
        <ele>175.80000305176</ele>
        <time>2014-04-27T06:55:09.000Z</time>
      </trkpt>
      <trkpt lat="48.9875" lon="1.12051">
        <ele>175.60000610352</ele>
        <time>2014-04-27T06:55:20.000Z</time>
      </trkpt>
      <trkpt lat="48.9875" lon="1.12051">
        <ele>176</ele>
        <time>2014-04-27T06:55:30.000Z</time>
      </trkpt>
      <trkpt lat="48.9875" lon="1.1205">
        <ele>176.39999389648</ele>
        <time>2014-04-27T06:55:41.000Z</time>
      </trkpt>
      <trkpt lat="48.98749" lon="1.1205">
        <ele>176.39999389648</ele>
        <time>2014-04-27T06:55:44.000Z</time>
      </trkpt>
      <trkpt lat="48.98749" lon="1.12049">
        <ele>176.60000610352</ele>
        <time>2014-04-27T06:55:55.000Z</time>
      </trkpt>
      <trkpt lat="48.98749" lon="1.12048">
        <ele>176.80000305176</ele>
        <time>2014-04-27T06:56:05.000Z</time>
      </trkpt>
      <trkpt lat="48.9875" lon="1.12049">
        <ele>177</ele>
        <time>2014-04-27T06:56:17.000Z</time>
      </trkpt>
      <trkpt lat="48.9875" lon="1.12049">
        <ele>177.39999389648</ele>
        <time>2014-04-27T06:56:21.000Z</time>
      </trkpt>
      <trkpt lat="48.98749" lon="1.1205">
        <ele>177</ele>
        <time>2014-04-27T06:56:29.000Z</time>
      </trkpt>
      <trkpt lat="48.98749" lon="1.12051">
        <ele>176.39999389648</ele>
        <time>2014-04-27T06:56:35.000Z</time>
      </trkpt>
      <trkpt lat="48.98749" lon="1.12052">
        <ele>176</ele>
        <time>2014-04-27T06:56:40.000Z</time>
      </trkpt>
      <trkpt lat="48.98748" lon="1.1205">
        <ele>175.39999389648</ele>
        <time>2014-04-27T06:56:51.000Z</time>
      </trkpt>
      <trkpt lat="48.98748" lon="1.1205">
        <ele>174</ele>
        <time>2014-04-27T06:56:57.000Z</time>
      </trkpt>
      <trkpt lat="48.98749" lon="1.1205">
        <ele>172.80000305176</ele>
        <time>2014-04-27T06:57:06.000Z</time>
      </trkpt>
      <trkpt lat="48.98749" lon="1.12049">
        <ele>172.80000305176</ele>
        <time>2014-04-27T06:57:07.000Z</time>
      </trkpt>
      <trkpt lat="48.98749" lon="1.1205">
        <ele>172</ele>
        <time>2014-04-27T06:57:17.000Z</time>
      </trkpt>
      <trkpt lat="48.98749" lon="1.1205">
        <ele>171.80000305176</ele>
        <time>2014-04-27T06:57:18.000Z</time>
      </trkpt>
      <trkpt lat="48.9875" lon="1.1205">
        <ele>171.19999694824</ele>
        <time>2014-04-27T06:57:25.000Z</time>
      </trkpt>
      <trkpt lat="48.9875" lon="1.12051">
        <ele>170.80000305176</ele>
        <time>2014-04-27T06:57:30.000Z</time>
      </trkpt>
      <trkpt lat="48.9875" lon="1.12051">
        <ele>170.80000305176</ele>
        <time>2014-04-27T06:57:33.000Z</time>
      </trkpt>
      <trkpt lat="48.9875" lon="1.1205">
        <ele>170.60000610352</ele>
        <time>2014-04-27T06:57:45.000Z</time>
      </trkpt>
      <trkpt lat="48.98749" lon="1.1205">
        <ele>170.80000305176</ele>
        <time>2014-04-27T06:57:56.000Z</time>
      </trkpt>
      <trkpt lat="48.98748" lon="1.12049">
        <ele>170.60000610352</ele>
        <time>2014-04-27T06:58:10.000Z</time>
      </trkpt>
      <trkpt lat="48.98746" lon="1.1205">
        <ele>170.39999389648</ele>
        <time>2014-04-27T06:58:30.000Z</time>
      </trkpt>
      <trkpt lat="48.98747" lon="1.12052">
        <ele>170.39999389648</ele>
        <time>2014-04-27T06:58:46.000Z</time>
      </trkpt>
      <trkpt lat="48.98747" lon="1.12052">
        <ele>170.39999389648</ele>
        <time>2014-04-27T06:58:59.000Z</time>
      </trkpt>
      <trkpt lat="48.98747" lon="1.12051">
        <ele>170.60000610352</ele>
        <time>2014-04-27T06:59:07.000Z</time>
      </trkpt>
      <trkpt lat="48.98747" lon="1.1205">
        <ele>170.60000610352</ele>
        <time>2014-04-27T06:59:24.000Z</time>
      </trkpt>
      <trkpt lat="48.98748" lon="1.12052">
        <ele>170.60000610352</ele>
        <time>2014-04-27T06:59:42.000Z</time>
      </trkpt>
      <trkpt lat="48.98748" lon="1.1205">
        <ele>170.60000610352</ele>
        <time>2014-04-27T06:59:58.000Z</time>
      </trkpt>
      <trkpt lat="48.98748" lon="1.1205">
        <ele>171</ele>
        <time>2014-04-27T07:00:06.000Z</time>
      </trkpt>
      <trkpt lat="48.98748" lon="1.12047">
        <ele>170.80000305176</ele>
        <time>2014-04-27T07:00:18.000Z</time>
      </trkpt>
      <trkpt lat="48.98747" lon="1.12047">
        <ele>170.80000305176</ele>
        <time>2014-04-27T07:00:33.000Z</time>
      </trkpt>
      <trkpt lat="48.98747" lon="1.12047">
        <ele>170.80000305176</ele>
        <time>2014-04-27T07:00:42.000Z</time>
      </trkpt>
      <trkpt lat="48.98748" lon="1.12048">
        <ele>170</ele>
        <time>2014-04-27T07:00:48.000Z</time>
      </trkpt>
      <trkpt lat="48.98749" lon="1.12049">
        <ele>170.39999389648</ele>
        <time>2014-04-27T07:00:56.000Z</time>
      </trkpt>
      <trkpt lat="48.9875" lon="1.12051">
        <ele>170.39999389648</ele>
        <time>2014-04-27T07:01:02.000Z</time>
      </trkpt>
      <trkpt lat="48.98751" lon="1.12052">
        <ele>170</ele>
        <time>2014-04-27T07:01:06.000Z</time>
      </trkpt>
      <trkpt lat="48.98749" lon="1.12052">
        <ele>170.19999694824</ele>
        <time>2014-04-27T07:01:13.000Z</time>
      </trkpt>
      <trkpt lat="48.98748" lon="1.12054">
        <ele>170.39999389648</ele>
        <time>2014-04-27T07:01:20.000Z</time>
      </trkpt>
      <trkpt lat="48.98746" lon="1.12054">
        <ele>170.39999389648</ele>
        <time>2014-04-27T07:01:25.000Z</time>
      </trkpt>
      <trkpt lat="48.98744" lon="1.12054">
        <ele>170.19999694824</ele>
        <time>2014-04-27T07:01:32.000Z</time>
      </trkpt>
      <trkpt lat="48.98743" lon="1.12055">
        <ele>170.19999694824</ele>
        <time>2014-04-27T07:01:33.000Z</time>
      </trkpt>
      <trkpt lat="48.98735" lon="1.12057">
        <ele>169.60000610352</ele>
        <time>2014-04-27T07:01:38.000Z</time>
      </trkpt>
      <trkpt lat="48.98726" lon="1.1206">
        <ele>168.80000305176</ele>
        <time>2014-04-27T07:01:43.000Z</time>
      </trkpt>
      <trkpt lat="48.98724" lon="1.12061">
        <ele>168.60000610352</ele>
        <time>2014-04-27T07:01:44.000Z</time>
      </trkpt>
      <trkpt lat="48.98715" lon="1.12061">
        <ele>167.60000610352</ele>
        <time>2014-04-27T07:01:48.000Z</time>
      </trkpt>
      <trkpt lat="48.9871" lon="1.12059">
        <ele>167</ele>
        <time>2014-04-27T07:01:50.000Z</time>
      </trkpt>
      <trkpt lat="48.98708" lon="1.12057">
        <ele>166.39999389648</ele>
        <time>2014-04-27T07:01:51.000Z</time>
      </trkpt>
      <trkpt lat="48.98705" lon="1.12057">
        <ele>166</ele>
        <time>2014-04-27T07:01:52.000Z</time>
      </trkpt>
      <trkpt lat="48.98701" lon="1.12058">
        <ele>165.39999389648</ele>
        <time>2014-04-27T07:01:54.000Z</time>
      </trkpt>
      <trkpt lat="48.987" lon="1.12058">
        <ele>164.60000610352</ele>
        <time>2014-04-27T07:01:56.000Z</time>
      </trkpt>
      <trkpt lat="48.987" lon="1.12058">
        <ele>164.39999389648</ele>
        <time>2014-04-27T07:01:58.000Z</time>
      </trkpt>
      <trkpt lat="48.98698" lon="1.12059">
        <ele>164.80000305176</ele>
        <time>2014-04-27T07:02:03.000Z</time>
      </trkpt>
      <trkpt lat="48.98689" lon="1.12064">
        <ele>163.80000305176</ele>
        <time>2014-04-27T07:02:10.000Z</time>
      </trkpt>
      <trkpt lat="48.98687" lon="1.12065">
        <ele>163.19999694824</ele>
        <time>2014-04-27T07:02:13.000Z</time>
      </trkpt>
      <trkpt lat="48.98686" lon="1.12065">
        <ele>163</ele>
        <time>2014-04-27T07:02:16.000Z</time>
      </trkpt>
      <trkpt lat="48.98682" lon="1.12064">
        <ele>162</ele>
        <time>2014-04-27T07:02:22.000Z</time>
      </trkpt>
      <trkpt lat="48.98681" lon="1.12063">
        <ele>162</ele>
        <time>2014-04-27T07:02:23.000Z</time>
      </trkpt>
      <trkpt lat="48.98675" lon="1.1206">
        <ele>161</ele>
        <time>2014-04-27T07:02:26.000Z</time>
      </trkpt>
      <trkpt lat="48.98673" lon="1.1206">
        <ele>160.39999389648</ele>
        <time>2014-04-27T07:02:27.000Z</time>
      </trkpt>
      <trkpt lat="48.9867" lon="1.12061">
        <ele>159.60000610352</ele>
        <time>2014-04-27T07:02:29.000Z</time>
      </trkpt>
      <trkpt lat="48.98669" lon="1.12061">
        <ele>158.39999389648</ele>
        <time>2014-04-27T07:02:31.000Z</time>
      </trkpt>
      <trkpt lat="48.98667" lon="1.12062">
        <ele>157.19999694824</ele>
        <time>2014-04-27T07:02:36.000Z</time>
      </trkpt>
      <trkpt lat="48.98667" lon="1.12062">
        <ele>157</ele>
        <time>2014-04-27T07:02:37.000Z</time>
      </trkpt>
      <trkpt lat="48.98664" lon="1.12063">
        <ele>156.80000305176</ele>
        <time>2014-04-27T07:02:46.000Z</time>
      </trkpt>
      <trkpt lat="48.98655" lon="1.1206">
        <ele>156.80000305176</ele>
        <time>2014-04-27T07:02:51.000Z</time>
      </trkpt>
      <trkpt lat="48.98653" lon="1.1206">
        <ele>156.19999694824</ele>
        <time>2014-04-27T07:02:56.000Z</time>
      </trkpt>
      <trkpt lat="48.98652" lon="1.1206">
        <ele>156</ele>
        <time>2014-04-27T07:02:57.000Z</time>
      </trkpt>
      <trkpt lat="48.9865" lon="1.12059">
        <ele>155.80000305176</ele>
        <time>2014-04-27T07:03:02.000Z</time>
      </trkpt>
      <trkpt lat="48.98647" lon="1.12058">
        <ele>155.60000610352</ele>
        <time>2014-04-27T07:03:09.000Z</time>
      </trkpt>
      <trkpt lat="48.98645" lon="1.12058">
        <ele>155.60000610352</ele>
        <time>2014-04-27T07:03:10.000Z</time>
      </trkpt>
      <trkpt lat="48.98639" lon="1.12057">
        <ele>155</ele>
        <time>2014-04-27T07:03:13.000Z</time>
      </trkpt>
      <trkpt lat="48.98638" lon="1.12058">
        <ele>154.80000305176</ele>
        <time>2014-04-27T07:03:14.000Z</time>
      </trkpt>
      <trkpt lat="48.98635" lon="1.12057">
        <ele>153.80000305176</ele>
        <time>2014-04-27T07:03:16.000Z</time>
      </trkpt>
      <trkpt lat="48.98635" lon="1.12058">
        <ele>153.39999389648</ele>
        <time>2014-04-27T07:03:17.000Z</time>
      </trkpt>
      <trkpt lat="48.98633" lon="1.12058">
        <ele>152.60000610352</ele>
        <time>2014-04-27T07:03:20.000Z</time>
      </trkpt>
      <trkpt lat="48.98631" lon="1.12059">
        <ele>152.60000610352</ele>
        <time>2014-04-27T07:03:22.000Z</time>
      </trkpt>
      <trkpt lat="48.98628" lon="1.12059">
        <ele>152.60000610352</ele>
        <time>2014-04-27T07:03:24.000Z</time>
      </trkpt>
      <trkpt lat="48.98625" lon="1.12058">
        <ele>153.19999694824</ele>
        <time>2014-04-27T07:03:27.000Z</time>
      </trkpt>
      <trkpt lat="48.98621" lon="1.12056">
        <ele>153.39999389648</ele>
        <time>2014-04-27T07:03:33.000Z</time>
      </trkpt>
      <trkpt lat="48.98619" lon="1.12056">
        <ele>153.80000305176</ele>
        <time>2014-04-27T07:03:35.000Z</time>
      </trkpt>
      <trkpt lat="48.98618" lon="1.12056">
        <ele>154.39999389648</ele>
        <time>2014-04-27T07:03:37.000Z</time>
      </trkpt>
      <trkpt lat="48.98616" lon="1.12057">
        <ele>154.39999389648</ele>
        <time>2014-04-27T07:03:39.000Z</time>
      </trkpt>
      <trkpt lat="48.98611" lon="1.12057">
        <ele>154</ele>
        <time>2014-04-27T07:03:45.000Z</time>
      </trkpt>
      <trkpt lat="48.98606" lon="1.12056">
        <ele>152.80000305176</ele>
        <time>2014-04-27T07:03:50.000Z</time>
      </trkpt>
      <trkpt lat="48.98605" lon="1.12055">
        <ele>152.39999389648</ele>
        <time>2014-04-27T07:03:52.000Z</time>
      </trkpt>
      <trkpt lat="48.98605" lon="1.12054">
        <ele>152.19999694824</ele>
        <time>2014-04-27T07:03:53.000Z</time>
      </trkpt>
      <trkpt lat="48.98602" lon="1.12048">
        <ele>151.60000610352</ele>
        <time>2014-04-27T07:03:56.000Z</time>
      </trkpt>
      <trkpt lat="48.986" lon="1.12045">
        <ele>150.60000610352</ele>
        <time>2014-04-27T07:03:59.000Z</time>
      </trkpt>
      <trkpt lat="48.98597" lon="1.12042">
        <ele>150</ele>
        <time>2014-04-27T07:04:01.000Z</time>
      </trkpt>
      <trkpt lat="48.98588" lon="1.12044">
        <ele>150.19999694824</ele>
        <time>2014-04-27T07:04:06.000Z</time>
      </trkpt>
      <trkpt lat="48.98583" lon="1.12045">
        <ele>150.19999694824</ele>
        <time>2014-04-27T07:04:08.000Z</time>
      </trkpt>
      <trkpt lat="48.98575" lon="1.1205">
        <ele>150.19999694824</ele>
        <time>2014-04-27T07:04:11.000Z</time>
      </trkpt>
      <trkpt lat="48.98562" lon="1.12059">
        <ele>150.19999694824</ele>
        <time>2014-04-27T07:04:16.000Z</time>
      </trkpt>
      <trkpt lat="48.98559" lon="1.12061">
        <ele>150.19999694824</ele>
        <time>2014-04-27T07:04:18.000Z</time>
      </trkpt>
      <trkpt lat="48.98555" lon="1.12064">
        <ele>150.19999694824</ele>
        <time>2014-04-27T07:04:20.000Z</time>
      </trkpt>
      <trkpt lat="48.98547" lon="1.12073">
        <ele>150.19999694824</ele>
        <time>2014-04-27T07:04:25.000Z</time>
      </trkpt>
      <trkpt lat="48.9854" lon="1.12081">
        <ele>150.39999389648</ele>
        <time>2014-04-27T07:04:28.000Z</time>
      </trkpt>
      <trkpt lat="48.98535" lon="1.12087">
        <ele>150.60000610352</ele>
        <time>2014-04-27T07:04:30.000Z</time>
      </trkpt>
      <trkpt lat="48.98523" lon="1.12103">
        <ele>150.39999389648</ele>
        <time>2014-04-27T07:04:34.000Z</time>
      </trkpt>
      <trkpt lat="48.98521" lon="1.12107">
        <ele>150.39999389648</ele>
        <time>2014-04-27T07:04:35.000Z</time>
      </trkpt>
      <trkpt lat="48.98512" lon="1.12122">
        <ele>150.80000305176</ele>
        <time>2014-04-27T07:04:38.000Z</time>
      </trkpt>
      <trkpt lat="48.98509" lon="1.12129">
        <ele>150.80000305176</ele>
        <time>2014-04-27T07:04:39.000Z</time>
      </trkpt>
      <trkpt lat="48.98501" lon="1.12147">
        <ele>151</ele>
        <time>2014-04-27T07:04:42.000Z</time>
      </trkpt>
      <trkpt lat="48.98497" lon="1.12158">
        <ele>151.19999694824</ele>
        <time>2014-04-27T07:04:44.000Z</time>
      </trkpt>
      <trkpt lat="48.98491" lon="1.12175">
        <ele>151.60000610352</ele>
        <time>2014-04-27T07:04:47.000Z</time>
      </trkpt>
      <trkpt lat="48.98488" lon="1.12191">
        <ele>152.19999694824</ele>
        <time>2014-04-27T07:04:50.000Z</time>
      </trkpt>
      <trkpt lat="48.98484" lon="1.12212">
        <ele>152</ele>
        <time>2014-04-27T07:04:54.000Z</time>
      </trkpt>
      <trkpt lat="48.98482" lon="1.12233">
        <ele>152.39999389648</ele>
        <time>2014-04-27T07:04:58.000Z</time>
      </trkpt>
      <trkpt lat="48.9848" lon="1.12238">
        <ele>152.39999389648</ele>
        <time>2014-04-27T07:04:59.000Z</time>
      </trkpt>
      <trkpt lat="48.98476" lon="1.12247">
        <ele>152.60000610352</ele>
        <time>2014-04-27T07:05:01.000Z</time>
      </trkpt>
      <trkpt lat="48.98471" lon="1.12257">
        <ele>152.80000305176</ele>
        <time>2014-04-27T07:05:04.000Z</time>
      </trkpt>
      <trkpt lat="48.98468" lon="1.12262">
        <ele>153.19999694824</ele>
        <time>2014-04-27T07:05:06.000Z</time>
      </trkpt>
      <trkpt lat="48.98465" lon="1.12268">
        <ele>153.80000305176</ele>
        <time>2014-04-27T07:05:08.000Z</time>
      </trkpt>
      <trkpt lat="48.98462" lon="1.12273">
        <ele>154.19999694824</ele>
        <time>2014-04-27T07:05:10.000Z</time>
      </trkpt>
      <trkpt lat="48.98458" lon="1.12277">
        <ele>154.80000305176</ele>
        <time>2014-04-27T07:05:13.000Z</time>
      </trkpt>
      <trkpt lat="48.98457" lon="1.12279">
        <ele>155</ele>
        <time>2014-04-27T07:05:14.000Z</time>
      </trkpt>
      <trkpt lat="48.98455" lon="1.12283">
        <ele>155.80000305176</ele>
        <time>2014-04-27T07:05:16.000Z</time>
      </trkpt>
      <trkpt lat="48.98451" lon="1.12289">
        <ele>157.19999694824</ele>
        <time>2014-04-27T07:05:19.000Z</time>
      </trkpt>
      <trkpt lat="48.98447" lon="1.12295">
        <ele>158</ele>
        <time>2014-04-27T07:05:22.000Z</time>
      </trkpt>
      <trkpt lat="48.98446" lon="1.12297">
        <ele>158.19999694824</ele>
        <time>2014-04-27T07:05:23.000Z</time>
      </trkpt>
      <trkpt lat="48.98446" lon="1.12299">
        <ele>158.39999389648</ele>
        <time>2014-04-27T07:05:24.000Z</time>
      </trkpt>
      <trkpt lat="48.98447" lon="1.12305">
        <ele>159.19999694824</ele>
        <time>2014-04-27T07:05:27.000Z</time>
      </trkpt>
      <trkpt lat="48.98448" lon="1.12309">
        <ele>159.19999694824</ele>
        <time>2014-04-27T07:05:28.000Z</time>
      </trkpt>
      <trkpt lat="48.98445" lon="1.12316">
        <ele>159.39999389648</ele>
        <time>2014-04-27T07:05:31.000Z</time>
      </trkpt>
      <trkpt lat="48.98439" lon="1.12317">
        <ele>159.80000305176</ele>
        <time>2014-04-27T07:05:35.000Z</time>
      </trkpt>
      <trkpt lat="48.98437" lon="1.12317">
        <ele>160.39999389648</ele>
        <time>2014-04-27T07:05:36.000Z</time>
      </trkpt>
      <trkpt lat="48.98433" lon="1.12323">
        <ele>161.60000610352</ele>
        <time>2014-04-27T07:05:40.000Z</time>
      </trkpt>
      <trkpt lat="48.98432" lon="1.12326">
        <ele>161.60000610352</ele>
        <time>2014-04-27T07:05:41.000Z</time>
      </trkpt>
      <trkpt lat="48.98425" lon="1.12333">
        <ele>162.39999389648</ele>
        <time>2014-04-27T07:05:46.000Z</time>
      </trkpt>
      <trkpt lat="48.98424" lon="1.12334">
        <ele>162.80000305176</ele>
        <time>2014-04-27T07:05:47.000Z</time>
      </trkpt>
      <trkpt lat="48.98422" lon="1.12333">
        <ele>163</ele>
        <time>2014-04-27T07:05:48.000Z</time>
      </trkpt>
      <trkpt lat="48.98418" lon="1.12329">
        <ele>164.19999694824</ele>
        <time>2014-04-27T07:05:51.000Z</time>
      </trkpt>
      <trkpt lat="48.98417" lon="1.12326">
        <ele>164.60000610352</ele>
        <time>2014-04-27T07:05:53.000Z</time>
      </trkpt>
      <trkpt lat="48.98414" lon="1.12319">
        <ele>165</ele>
        <time>2014-04-27T07:05:56.000Z</time>
      </trkpt>
      <trkpt lat="48.98412" lon="1.12315">
        <ele>165.19999694824</ele>
        <time>2014-04-27T07:05:58.000Z</time>
      </trkpt>
      <trkpt lat="48.98408" lon="1.12306">
        <ele>165.80000305176</ele>
        <time>2014-04-27T07:06:03.000Z</time>
      </trkpt>
      <trkpt lat="48.98407" lon="1.12301">
        <ele>166.60000610352</ele>
        <time>2014-04-27T07:06:05.000Z</time>
      </trkpt>
      <trkpt lat="48.98407" lon="1.12298">
        <ele>168</ele>
        <time>2014-04-27T07:06:08.000Z</time>
      </trkpt>
      <trkpt lat="48.98404" lon="1.1229">
        <ele>169.19999694824</ele>
        <time>2014-04-27T07:06:12.000Z</time>
      </trkpt>
      <trkpt lat="48.98403" lon="1.12287">
        <ele>169.80000305176</ele>
        <time>2014-04-27T07:06:14.000Z</time>
      </trkpt>
      <trkpt lat="48.98401" lon="1.12283">
        <ele>170.39999389648</ele>
        <time>2014-04-27T07:06:16.000Z</time>
      </trkpt>
      <trkpt lat="48.98398" lon="1.12274">
        <ele>170.80000305176</ele>
        <time>2014-04-27T07:06:20.000Z</time>
      </trkpt>
      <trkpt lat="48.98396" lon="1.12268">
        <ele>171.39999389648</ele>
        <time>2014-04-27T07:06:23.000Z</time>
      </trkpt>
      <trkpt lat="48.98395" lon="1.12263">
        <ele>172.19999694824</ele>
        <time>2014-04-27T07:06:25.000Z</time>
      </trkpt>
      <trkpt lat="48.98393" lon="1.12257">
        <ele>172.60000610352</ele>
        <time>2014-04-27T07:06:27.000Z</time>
      </trkpt>
      <trkpt lat="48.98391" lon="1.12249">
        <ele>173.39999389648</ele>
        <time>2014-04-27T07:06:30.000Z</time>
      </trkpt>
      <trkpt lat="48.9839" lon="1.12246">
        <ele>173.80000305176</ele>
        <time>2014-04-27T07:06:31.000Z</time>
      </trkpt>
      <trkpt lat="48.98388" lon="1.12234">
        <ele>174.39999389648</ele>
        <time>2014-04-27T07:06:36.000Z</time>
      </trkpt>
      <trkpt lat="48.98386" lon="1.12227">
        <ele>174.80000305176</ele>
        <time>2014-04-27T07:06:39.000Z</time>
      </trkpt>
      <trkpt lat="48.98386" lon="1.12225">
        <ele>175</ele>
        <time>2014-04-27T07:06:40.000Z</time>
      </trkpt>
      <trkpt lat="48.98386" lon="1.1222">
        <ele>175.60000610352</ele>
        <time>2014-04-27T07:06:42.000Z</time>
      </trkpt>
      <trkpt lat="48.98385" lon="1.12218">
        <ele>176</ele>
        <time>2014-04-27T07:06:43.000Z</time>
      </trkpt>
      <trkpt lat="48.98385" lon="1.1221">
        <ele>177</ele>
        <time>2014-04-27T07:06:46.000Z</time>
      </trkpt>
      <trkpt lat="48.98385" lon="1.12207">
        <ele>177.19999694824</ele>
        <time>2014-04-27T07:06:47.000Z</time>
      </trkpt>
      <trkpt lat="48.98385" lon="1.12201">
        <ele>177.60000610352</ele>
        <time>2014-04-27T07:06:49.000Z</time>
      </trkpt>
      <trkpt lat="48.98383" lon="1.12192">
        <ele>178.39999389648</ele>
        <time>2014-04-27T07:06:53.000Z</time>
      </trkpt>
      <trkpt lat="48.98382" lon="1.12186">
        <ele>178.60000610352</ele>
        <time>2014-04-27T07:06:55.000Z</time>
      </trkpt>
      <trkpt lat="48.98381" lon="1.12178">
        <ele>179.19999694824</ele>
        <time>2014-04-27T07:06:59.000Z</time>
      </trkpt>
      <trkpt lat="48.9838" lon="1.12176">
        <ele>179.39999389648</ele>
        <time>2014-04-27T07:07:00.000Z</time>
      </trkpt>
      <trkpt lat="48.98378" lon="1.12169">
        <ele>180.60000610352</ele>
        <time>2014-04-27T07:07:03.000Z</time>
      </trkpt>
      <trkpt lat="48.98378" lon="1.12166">
        <ele>180.80000305176</ele>
        <time>2014-04-27T07:07:04.000Z</time>
      </trkpt>
      <trkpt lat="48.98376" lon="1.12158">
        <ele>181.19999694824</ele>
        <time>2014-04-27T07:07:07.000Z</time>
      </trkpt>
      <trkpt lat="48.98376" lon="1.12154">
        <ele>181.60000610352</ele>
        <time>2014-04-27T07:07:09.000Z</time>
      </trkpt>
      <trkpt lat="48.98374" lon="1.12147">
        <ele>182.19999694824</ele>
        <time>2014-04-27T07:07:12.000Z</time>
      </trkpt>
      <trkpt lat="48.98374" lon="1.12143">
        <ele>182.60000610352</ele>
        <time>2014-04-27T07:07:14.000Z</time>
      </trkpt>
      <trkpt lat="48.98373" lon="1.12141">
        <ele>182.80000305176</ele>
        <time>2014-04-27T07:07:15.000Z</time>
      </trkpt>
      <trkpt lat="48.9837" lon="1.12133">
        <ele>183.60000610352</ele>
        <time>2014-04-27T07:07:19.000Z</time>
      </trkpt>
      <trkpt lat="48.98367" lon="1.12122">
        <ele>184.80000305176</ele>
        <time>2014-04-27T07:07:24.000Z</time>
      </trkpt>
      <trkpt lat="48.98365" lon="1.12117">
        <ele>185.19999694824</ele>
        <time>2014-04-27T07:07:26.000Z</time>
      </trkpt>
      <trkpt lat="48.98361" lon="1.12109">
        <ele>185.80000305176</ele>
        <time>2014-04-27T07:07:30.000Z</time>
      </trkpt>
      <trkpt lat="48.98359" lon="1.12106">
        <ele>186</ele>
        <time>2014-04-27T07:07:32.000Z</time>
      </trkpt>
      <trkpt lat="48.98356" lon="1.12098">
        <ele>187</ele>
        <time>2014-04-27T07:07:36.000Z</time>
      </trkpt>
      <trkpt lat="48.98351" lon="1.12088">
        <ele>188</ele>
        <time>2014-04-27T07:07:41.000Z</time>
      </trkpt>
      <trkpt lat="48.98349" lon="1.12086">
        <ele>188.19999694824</ele>
        <time>2014-04-27T07:07:42.000Z</time>
      </trkpt>
      <trkpt lat="48.98344" lon="1.12075">
        <ele>189</ele>
        <time>2014-04-27T07:07:47.000Z</time>
      </trkpt>
      <trkpt lat="48.98342" lon="1.12072">
        <ele>189.19999694824</ele>
        <time>2014-04-27T07:07:48.000Z</time>
      </trkpt>
      <trkpt lat="48.98339" lon="1.12067">
        <ele>189.39999389648</ele>
        <time>2014-04-27T07:07:50.000Z</time>
      </trkpt>
      <trkpt lat="48.98336" lon="1.12062">
        <ele>189.60000610352</ele>
        <time>2014-04-27T07:07:52.000Z</time>
      </trkpt>
      <trkpt lat="48.98332" lon="1.12054">
        <ele>190.19999694824</ele>
        <time>2014-04-27T07:07:55.000Z</time>
      </trkpt>
      <trkpt lat="48.98327" lon="1.12044">
        <ele>191</ele>
        <time>2014-04-27T07:07:59.000Z</time>
      </trkpt>
      <trkpt lat="48.98321" lon="1.12042">
        <ele>191.39999389648</ele>
        <time>2014-04-27T07:08:02.000Z</time>
      </trkpt>
      <trkpt lat="48.98316" lon="1.12042">
        <ele>191.39999389648</ele>
        <time>2014-04-27T07:08:04.000Z</time>
      </trkpt>
      <trkpt lat="48.98303" lon="1.12042">
        <ele>191.80000305176</ele>
        <time>2014-04-27T07:08:09.000Z</time>
      </trkpt>
      <trkpt lat="48.98292" lon="1.12033">
        <ele>191.80000305176</ele>
        <time>2014-04-27T07:08:13.000Z</time>
      </trkpt>
      <trkpt lat="48.98278" lon="1.12016">
        <ele>191.19999694824</ele>
        <time>2014-04-27T07:08:18.000Z</time>
      </trkpt>
      <trkpt lat="48.98274" lon="1.12013">
        <ele>191</ele>
        <time>2014-04-27T07:08:19.000Z</time>
      </trkpt>
      <trkpt lat="48.98266" lon="1.12002">
        <ele>191.39999389648</ele>
        <time>2014-04-27T07:08:22.000Z</time>
      </trkpt>
      <trkpt lat="48.98257" lon="1.11981">
        <ele>191.19999694824</ele>
        <time>2014-04-27T07:08:27.000Z</time>
      </trkpt>
      <trkpt lat="48.98256" lon="1.11977">
        <ele>191</ele>
        <time>2014-04-27T07:08:28.000Z</time>
      </trkpt>
      <trkpt lat="48.98248" lon="1.11957">
        <ele>192.19999694824</ele>
        <time>2014-04-27T07:08:33.000Z</time>
      </trkpt>
      <trkpt lat="48.98245" lon="1.11954">
        <ele>192.39999389648</ele>
        <time>2014-04-27T07:08:34.000Z</time>
      </trkpt>
      <trkpt lat="48.98232" lon="1.11933">
        <ele>192.60000610352</ele>
        <time>2014-04-27T07:08:39.000Z</time>
      </trkpt>
      <trkpt lat="48.98221" lon="1.11907">
        <ele>193</ele>
        <time>2014-04-27T07:08:45.000Z</time>
      </trkpt>
      <trkpt lat="48.98213" lon="1.1188">
        <ele>193.80000305176</ele>
        <time>2014-04-27T07:08:51.000Z</time>
      </trkpt>
      <trkpt lat="48.98207" lon="1.11861">
        <ele>194</ele>
        <time>2014-04-27T07:08:55.000Z</time>
      </trkpt>
      <trkpt lat="48.98202" lon="1.11839">
        <ele>193.80000305176</ele>
        <time>2014-04-27T07:09:00.000Z</time>
      </trkpt>
      <trkpt lat="48.98199" lon="1.11818">
        <ele>194.60000610352</ele>
        <time>2014-04-27T07:09:05.000Z</time>
      </trkpt>
      <trkpt lat="48.98198" lon="1.11814">
        <ele>194.80000305176</ele>
        <time>2014-04-27T07:09:06.000Z</time>
      </trkpt>
      <trkpt lat="48.98196" lon="1.11801">
        <ele>195.39999389648</ele>
        <time>2014-04-27T07:09:09.000Z</time>
      </trkpt>
      <trkpt lat="48.98193" lon="1.11785">
        <ele>195.60000610352</ele>
        <time>2014-04-27T07:09:13.000Z</time>
      </trkpt>
      <trkpt lat="48.98196" lon="1.11776">
        <ele>195.80000305176</ele>
        <time>2014-04-27T07:09:16.000Z</time>
      </trkpt>
      <trkpt lat="48.98195" lon="1.11773">
        <ele>195.80000305176</ele>
        <time>2014-04-27T07:09:17.000Z</time>
      </trkpt>
      <trkpt lat="48.98189" lon="1.11762">
        <ele>196</ele>
        <time>2014-04-27T07:09:21.000Z</time>
      </trkpt>
      <trkpt lat="48.98187" lon="1.1176">
        <ele>196.19999694824</ele>
        <time>2014-04-27T07:09:22.000Z</time>
      </trkpt>
      <trkpt lat="48.98184" lon="1.11753">
        <ele>196.19999694824</ele>
        <time>2014-04-27T07:09:26.000Z</time>
      </trkpt>
      <trkpt lat="48.98184" lon="1.11748">
        <ele>196</ele>
        <time>2014-04-27T07:09:28.000Z</time>
      </trkpt>
      <trkpt lat="48.98186" lon="1.11737">
        <ele>196.39999389648</ele>
        <time>2014-04-27T07:09:32.000Z</time>
      </trkpt>
      <trkpt lat="48.98188" lon="1.1173">
        <ele>196.39999389648</ele>
        <time>2014-04-27T07:09:34.000Z</time>
      </trkpt>
      <trkpt lat="48.98191" lon="1.11719">
        <ele>196.80000305176</ele>
        <time>2014-04-27T07:09:37.000Z</time>
      </trkpt>
      <trkpt lat="48.98194" lon="1.1171">
        <ele>197.19999694824</ele>
        <time>2014-04-27T07:09:40.000Z</time>
      </trkpt>
      <trkpt lat="48.98197" lon="1.11701">
        <ele>197.60000610352</ele>
        <time>2014-04-27T07:09:43.000Z</time>
      </trkpt>
      <trkpt lat="48.98198" lon="1.11697">
        <ele>197.80000305176</ele>
        <time>2014-04-27T07:09:44.000Z</time>
      </trkpt>
      <trkpt lat="48.98199" lon="1.11692">
        <ele>198</ele>
        <time>2014-04-27T07:09:45.000Z</time>
      </trkpt>
      <trkpt lat="48.98202" lon="1.11674">
        <ele>198.39999389648</ele>
        <time>2014-04-27T07:09:49.000Z</time>
      </trkpt>
      <trkpt lat="48.98205" lon="1.11658">
        <ele>198.60000610352</ele>
        <time>2014-04-27T07:09:53.000Z</time>
      </trkpt>
      <trkpt lat="48.98207" lon="1.1165">
        <ele>198.80000305176</ele>
        <time>2014-04-27T07:09:55.000Z</time>
      </trkpt>
      <trkpt lat="48.98208" lon="1.11647">
        <ele>199</ele>
        <time>2014-04-27T07:09:56.000Z</time>
      </trkpt>
      <trkpt lat="48.98209" lon="1.11643">
        <ele>199.19999694824</ele>
        <time>2014-04-27T07:09:57.000Z</time>
      </trkpt>
      <trkpt lat="48.98211" lon="1.11633">
        <ele>199.60000610352</ele>
        <time>2014-04-27T07:10:00.000Z</time>
      </trkpt>
      <trkpt lat="48.98214" lon="1.1162">
        <ele>200</ele>
        <time>2014-04-27T07:10:03.000Z</time>
      </trkpt>
      <trkpt lat="48.98221" lon="1.11597">
        <ele>200</ele>
        <time>2014-04-27T07:10:08.000Z</time>
      </trkpt>
      <trkpt lat="48.98227" lon="1.11576">
        <ele>200.39999389648</ele>
        <time>2014-04-27T07:10:13.000Z</time>
      </trkpt>
      <trkpt lat="48.98232" lon="1.11561">
        <ele>201</ele>
        <time>2014-04-27T07:10:17.000Z</time>
      </trkpt>
      <trkpt lat="48.98234" lon="1.11552">
        <ele>201</ele>
        <time>2014-04-27T07:10:19.000Z</time>
      </trkpt>
      <trkpt lat="48.9824" lon="1.11523">
        <ele>201.19999694824</ele>
        <time>2014-04-27T07:10:25.000Z</time>
      </trkpt>
      <trkpt lat="48.98243" lon="1.11505">
        <ele>201.39999389648</ele>
        <time>2014-04-27T07:10:29.000Z</time>
      </trkpt>
      <trkpt lat="48.98244" lon="1.115">
        <ele>201.39999389648</ele>
        <time>2014-04-27T07:10:30.000Z</time>
      </trkpt>
      <trkpt lat="48.98247" lon="1.11477">
        <ele>202</ele>
        <time>2014-04-27T07:10:35.000Z</time>
      </trkpt>
      <trkpt lat="48.98249" lon="1.11469">
        <ele>202</ele>
        <time>2014-04-27T07:10:37.000Z</time>
      </trkpt>
      <trkpt lat="48.98254" lon="1.11456">
        <ele>202</ele>
        <time>2014-04-27T07:10:40.000Z</time>
      </trkpt>
      <trkpt lat="48.98259" lon="1.1144">
        <ele>202.39999389648</ele>
        <time>2014-04-27T07:10:44.000Z</time>
      </trkpt>
      <trkpt lat="48.98266" lon="1.11415">
        <ele>202.60000610352</ele>
        <time>2014-04-27T07:10:49.000Z</time>
      </trkpt>
      <trkpt lat="48.9827" lon="1.11393">
        <ele>202.80000305176</ele>
        <time>2014-04-27T07:10:54.000Z</time>
      </trkpt>
      <trkpt lat="48.98273" lon="1.11376">
        <ele>202.80000305176</ele>
        <time>2014-04-27T07:10:58.000Z</time>
      </trkpt>
      <trkpt lat="48.98272" lon="1.11373">
        <ele>202.60000610352</ele>
        <time>2014-04-27T07:10:59.000Z</time>
      </trkpt>
      <trkpt lat="48.98268" lon="1.11366">
        <ele>202.80000305176</ele>
        <time>2014-04-27T07:11:01.000Z</time>
      </trkpt>
      <trkpt lat="48.9825" lon="1.11351">
        <ele>203.19999694824</ele>
        <time>2014-04-27T07:11:08.000Z</time>
      </trkpt>
      <trkpt lat="48.98238" lon="1.11346">
        <ele>203.19999694824</ele>
        <time>2014-04-27T07:11:12.000Z</time>
      </trkpt>
      <trkpt lat="48.98226" lon="1.11332">
        <ele>203.39999389648</ele>
        <time>2014-04-27T07:11:17.000Z</time>
      </trkpt>
      <trkpt lat="48.98211" lon="1.11311">
        <ele>203.19999694824</ele>
        <time>2014-04-27T07:11:23.000Z</time>
      </trkpt>
      <trkpt lat="48.98193" lon="1.11286">
        <ele>203.19999694824</ele>
        <time>2014-04-27T07:11:29.000Z</time>
      </trkpt>
      <trkpt lat="48.98169" lon="1.11265">
        <ele>203</ele>
        <time>2014-04-27T07:11:36.000Z</time>
      </trkpt>
      <trkpt lat="48.98151" lon="1.11256">
        <ele>202.80000305176</ele>
        <time>2014-04-27T07:11:41.000Z</time>
      </trkpt>
      <trkpt lat="48.98144" lon="1.11252">
        <ele>202.60000610352</ele>
        <time>2014-04-27T07:11:43.000Z</time>
      </trkpt>
      <trkpt lat="48.98138" lon="1.11248">
        <ele>202.19999694824</ele>
        <time>2014-04-27T07:11:45.000Z</time>
      </trkpt>
      <trkpt lat="48.98135" lon="1.11246">
        <ele>202</ele>
        <time>2014-04-27T07:11:46.000Z</time>
      </trkpt>
      <trkpt lat="48.98126" lon="1.11235">
        <ele>201.39999389648</ele>
        <time>2014-04-27T07:11:49.000Z</time>
      </trkpt>
      <trkpt lat="48.98112" lon="1.11215">
        <ele>202.19999694824</ele>
        <time>2014-04-27T07:11:54.000Z</time>
      </trkpt>
      <trkpt lat="48.98088" lon="1.1119">
        <ele>201.60000610352</ele>
        <time>2014-04-27T07:12:01.000Z</time>
      </trkpt>
      <trkpt lat="48.98085" lon="1.11186">
        <ele>201.39999389648</ele>
        <time>2014-04-27T07:12:02.000Z</time>
      </trkpt>
      <trkpt lat="48.98072" lon="1.11171">
        <ele>201</ele>
        <time>2014-04-27T07:12:06.000Z</time>
      </trkpt>
      <trkpt lat="48.9807" lon="1.11168">
        <ele>201</ele>
        <time>2014-04-27T07:12:07.000Z</time>
      </trkpt>
      <trkpt lat="48.98053" lon="1.1115">
        <ele>201</ele>
        <time>2014-04-27T07:12:12.000Z</time>
      </trkpt>
      <trkpt lat="48.98044" lon="1.11135">
        <ele>200.80000305176</ele>
        <time>2014-04-27T07:12:15.000Z</time>
      </trkpt>
      <trkpt lat="48.98039" lon="1.11124">
        <ele>200.39999389648</ele>
        <time>2014-04-27T07:12:17.000Z</time>
      </trkpt>
      <trkpt lat="48.98035" lon="1.11113">
        <ele>200</ele>
        <time>2014-04-27T07:12:19.000Z</time>
      </trkpt>
      <trkpt lat="48.98028" lon="1.11098">
        <ele>199.80000305176</ele>
        <time>2014-04-27T07:12:22.000Z</time>
      </trkpt>
      <trkpt lat="48.9801" lon="1.11069">
        <ele>199.19999694824</ele>
        <time>2014-04-27T07:12:29.000Z</time>
      </trkpt>
      <trkpt lat="48.97988" lon="1.11051">
        <ele>198.80000305176</ele>
        <time>2014-04-27T07:12:35.000Z</time>
      </trkpt>
      <trkpt lat="48.97984" lon="1.11049">
        <ele>198.60000610352</ele>
        <time>2014-04-27T07:12:36.000Z</time>
      </trkpt>
      <trkpt lat="48.97972" lon="1.11044">
        <ele>198.19999694824</ele>
        <time>2014-04-27T07:12:39.000Z</time>
      </trkpt>
      <trkpt lat="48.97957" lon="1.1103">
        <ele>197.80000305176</ele>
        <time>2014-04-27T07:12:44.000Z</time>
      </trkpt>
      <trkpt lat="48.97945" lon="1.11021">
        <ele>197.60000610352</ele>
        <time>2014-04-27T07:12:48.000Z</time>
      </trkpt>
      <trkpt lat="48.97932" lon="1.1101">
        <ele>197.39999389648</ele>
        <time>2014-04-27T07:12:53.000Z</time>
      </trkpt>
      <trkpt lat="48.97912" lon="1.11007">
        <ele>197.19999694824</ele>
        <time>2014-04-27T07:12:59.000Z</time>
      </trkpt>
      <trkpt lat="48.97888" lon="1.11005">
        <ele>197</ele>
        <time>2014-04-27T07:13:05.000Z</time>
      </trkpt>
      <trkpt lat="48.97845" lon="1.11009">
        <ele>197</ele>
        <time>2014-04-27T07:13:14.000Z</time>
      </trkpt>
      <trkpt lat="48.97802" lon="1.11016">
        <ele>197</ele>
        <time>2014-04-27T07:13:23.000Z</time>
      </trkpt>
      <trkpt lat="48.97777" lon="1.11021">
        <ele>196.80000305176</ele>
        <time>2014-04-27T07:13:28.000Z</time>
      </trkpt>
      <trkpt lat="48.97761" lon="1.11022">
        <ele>196.80000305176</ele>
        <time>2014-04-27T07:13:31.000Z</time>
      </trkpt>
      <trkpt lat="48.9775" lon="1.11022">
        <ele>196.60000610352</ele>
        <time>2014-04-27T07:13:33.000Z</time>
      </trkpt>
      <trkpt lat="48.97727" lon="1.11021">
        <ele>195.80000305176</ele>
        <time>2014-04-27T07:13:37.000Z</time>
      </trkpt>
      <trkpt lat="48.97721" lon="1.1102">
        <ele>195.60000610352</ele>
        <time>2014-04-27T07:13:38.000Z</time>
      </trkpt>
      <trkpt lat="48.97714" lon="1.1102">
        <ele>195.39999389648</ele>
        <time>2014-04-27T07:13:39.000Z</time>
      </trkpt>
      <trkpt lat="48.97695" lon="1.11016">
        <ele>194.39999389648</ele>
        <time>2014-04-27T07:13:42.000Z</time>
      </trkpt>
      <trkpt lat="48.97679" lon="1.11012">
        <ele>193.80000305176</ele>
        <time>2014-04-27T07:13:45.000Z</time>
      </trkpt>
      <trkpt lat="48.97675" lon="1.1101">
        <ele>193.39999389648</ele>
        <time>2014-04-27T07:13:46.000Z</time>
      </trkpt>
      <trkpt lat="48.97669" lon="1.11002">
        <ele>192.39999389648</ele>
        <time>2014-04-27T07:13:48.000Z</time>
      </trkpt>
      <trkpt lat="48.97669" lon="1.10998">
        <ele>191.80000305176</ele>
        <time>2014-04-27T07:13:49.000Z</time>
      </trkpt>
      <trkpt lat="48.9767" lon="1.10991">
        <ele>191.39999389648</ele>
        <time>2014-04-27T07:13:51.000Z</time>
      </trkpt>
      <trkpt lat="48.97672" lon="1.10982">
        <ele>191.60000610352</ele>
        <time>2014-04-27T07:13:53.000Z</time>
      </trkpt>
      <trkpt lat="48.97679" lon="1.10965">
        <ele>193.19999694824</ele>
        <time>2014-04-27T07:13:57.000Z</time>
      </trkpt>
      <trkpt lat="48.97685" lon="1.10944">
        <ele>194.39999389648</ele>
        <time>2014-04-27T07:14:01.000Z</time>
      </trkpt>
      <trkpt lat="48.97686" lon="1.1094">
        <ele>194.80000305176</ele>
        <time>2014-04-27T07:14:02.000Z</time>
      </trkpt>
      <trkpt lat="48.97691" lon="1.10927">
        <ele>196</ele>
        <time>2014-04-27T07:14:05.000Z</time>
      </trkpt>
      <trkpt lat="48.97693" lon="1.10917">
        <ele>196</ele>
        <time>2014-04-27T07:14:07.000Z</time>
      </trkpt>
      <trkpt lat="48.97697" lon="1.10896">
        <ele>196.39999389648</ele>
        <time>2014-04-27T07:14:11.000Z</time>
      </trkpt>
      <trkpt lat="48.97706" lon="1.1087">
        <ele>196.80000305176</ele>
        <time>2014-04-27T07:14:16.000Z</time>
      </trkpt>
      <trkpt lat="48.97707" lon="1.10865">
        <ele>197</ele>
        <time>2014-04-27T07:14:17.000Z</time>
      </trkpt>
      <trkpt lat="48.97713" lon="1.10842">
        <ele>197.80000305176</ele>
        <time>2014-04-27T07:14:22.000Z</time>
      </trkpt>
      <trkpt lat="48.97718" lon="1.10825">
        <ele>198</ele>
        <time>2014-04-27T07:14:26.000Z</time>
      </trkpt>
      <trkpt lat="48.97727" lon="1.10801">
        <ele>198.60000610352</ele>
        <time>2014-04-27T07:14:32.000Z</time>
      </trkpt>
      <trkpt lat="48.97735" lon="1.1078">
        <ele>198.80000305176</ele>
        <time>2014-04-27T07:14:38.000Z</time>
      </trkpt>
      <trkpt lat="48.97738" lon="1.10772">
        <ele>199</ele>
        <time>2014-04-27T07:14:40.000Z</time>
      </trkpt>
      <trkpt lat="48.97746" lon="1.10748">
        <ele>199.80000305176</ele>
        <time>2014-04-27T07:14:46.000Z</time>
      </trkpt>
      <trkpt lat="48.97754" lon="1.10726">
        <ele>200.19999694824</ele>
        <time>2014-04-27T07:14:51.000Z</time>
      </trkpt>
      <trkpt lat="48.97758" lon="1.10712">
        <ele>200.39999389648</ele>
        <time>2014-04-27T07:14:54.000Z</time>
      </trkpt>
      <trkpt lat="48.97767" lon="1.10683">
        <ele>201</ele>
        <time>2014-04-27T07:15:01.000Z</time>
      </trkpt>
      <trkpt lat="48.97773" lon="1.10662">
        <ele>201</ele>
        <time>2014-04-27T07:15:06.000Z</time>
      </trkpt>
      <trkpt lat="48.97776" lon="1.10653">
        <ele>201.19999694824</ele>
        <time>2014-04-27T07:15:08.000Z</time>
      </trkpt>
      <trkpt lat="48.97785" lon="1.10625">
        <ele>201.60000610352</ele>
        <time>2014-04-27T07:15:14.000Z</time>
      </trkpt>
      <trkpt lat="48.97792" lon="1.10602">
        <ele>201.60000610352</ele>
        <time>2014-04-27T07:15:19.000Z</time>
      </trkpt>
      <trkpt lat="48.97799" lon="1.10579">
        <ele>201.60000610352</ele>
        <time>2014-04-27T07:15:24.000Z</time>
      </trkpt>
      <trkpt lat="48.97811" lon="1.10539">
        <ele>202</ele>
        <time>2014-04-27T07:15:33.000Z</time>
      </trkpt>
      <trkpt lat="48.97814" lon="1.1053">
        <ele>202.39999389648</ele>
        <time>2014-04-27T07:15:35.000Z</time>
      </trkpt>
      <trkpt lat="48.9782" lon="1.10512">
        <ele>202.60000610352</ele>
        <time>2014-04-27T07:15:39.000Z</time>
      </trkpt>
      <trkpt lat="48.97829" lon="1.1049">
        <ele>202.80000305176</ele>
        <time>2014-04-27T07:15:44.000Z</time>
      </trkpt>
      <trkpt lat="48.9784" lon="1.10457">
        <ele>202.60000610352</ele>
        <time>2014-04-27T07:15:51.000Z</time>
      </trkpt>
      <trkpt lat="48.97853" lon="1.10418">
        <ele>203</ele>
        <time>2014-04-27T07:15:59.000Z</time>
      </trkpt>
      <trkpt lat="48.97867" lon="1.10376">
        <ele>203.19999694824</ele>
        <time>2014-04-27T07:16:07.000Z</time>
      </trkpt>
      <trkpt lat="48.97871" lon="1.10366">
        <ele>203.39999389648</ele>
        <time>2014-04-27T07:16:09.000Z</time>
      </trkpt>
      <trkpt lat="48.97884" lon="1.10328">
        <ele>203.19999694824</ele>
        <time>2014-04-27T07:16:16.000Z</time>
      </trkpt>
      <trkpt lat="48.97896" lon="1.10289">
        <ele>203</ele>
        <time>2014-04-27T07:16:24.000Z</time>
      </trkpt>
      <trkpt lat="48.97906" lon="1.10254">
        <ele>203.19999694824</ele>
        <time>2014-04-27T07:16:31.000Z</time>
      </trkpt>
      <trkpt lat="48.97915" lon="1.10218">
        <ele>203.39999389648</ele>
        <time>2014-04-27T07:16:38.000Z</time>
      </trkpt>
      <trkpt lat="48.97924" lon="1.10188">
        <ele>203.39999389648</ele>
        <time>2014-04-27T07:16:44.000Z</time>
      </trkpt>
      <trkpt lat="48.97932" lon="1.10163">
        <ele>203.39999389648</ele>
        <time>2014-04-27T07:16:49.000Z</time>
      </trkpt>
      <trkpt lat="48.9794" lon="1.10144">
        <ele>203.39999389648</ele>
        <time>2014-04-27T07:16:54.000Z</time>
      </trkpt>
      <trkpt lat="48.97946" lon="1.10128">
        <ele>203.80000305176</ele>
        <time>2014-04-27T07:16:59.000Z</time>
      </trkpt>
      <trkpt lat="48.97956" lon="1.101">
        <ele>203.80000305176</ele>
        <time>2014-04-27T07:17:05.000Z</time>
      </trkpt>
      <trkpt lat="48.97964" lon="1.10072">
        <ele>203.80000305176</ele>
        <time>2014-04-27T07:17:12.000Z</time>
      </trkpt>
      <trkpt lat="48.97976" lon="1.10038">
        <ele>204.19999694824</ele>
        <time>2014-04-27T07:17:20.000Z</time>
      </trkpt>
      <trkpt lat="48.97978" lon="1.10029">
        <ele>204.39999389648</ele>
        <time>2014-04-27T07:17:22.000Z</time>
      </trkpt>
      <trkpt lat="48.97982" lon="1.10015">
        <ele>204.60000610352</ele>
        <time>2014-04-27T07:17:25.000Z</time>
      </trkpt>
      <trkpt lat="48.97991" lon="1.09985">
        <ele>204.19999694824</ele>
        <time>2014-04-27T07:17:31.000Z</time>
      </trkpt>
      <trkpt lat="48.98" lon="1.09955">
        <ele>204.60000610352</ele>
        <time>2014-04-27T07:17:37.000Z</time>
      </trkpt>
      <trkpt lat="48.98011" lon="1.09918">
        <ele>204.19999694824</ele>
        <time>2014-04-27T07:17:44.000Z</time>
      </trkpt>
      <trkpt lat="48.98019" lon="1.09894">
        <ele>204.80000305176</ele>
        <time>2014-04-27T07:17:49.000Z</time>
      </trkpt>
      <trkpt lat="48.98026" lon="1.09871">
        <ele>205</ele>
        <time>2014-04-27T07:17:55.000Z</time>
      </trkpt>
      <trkpt lat="48.98036" lon="1.09843">
        <ele>205</ele>
        <time>2014-04-27T07:18:02.000Z</time>
      </trkpt>
      <trkpt lat="48.98041" lon="1.0983">
        <ele>205.39999389648</ele>
        <time>2014-04-27T07:18:05.000Z</time>
      </trkpt>
      <trkpt lat="48.98045" lon="1.09819">
        <ele>205.19999694824</ele>
        <time>2014-04-27T07:18:07.000Z</time>
      </trkpt>
      <trkpt lat="48.98052" lon="1.09791">
        <ele>205.19999694824</ele>
        <time>2014-04-27T07:18:13.000Z</time>
      </trkpt>
      <trkpt lat="48.98062" lon="1.09761">
        <ele>205.39999389648</ele>
        <time>2014-04-27T07:18:19.000Z</time>
      </trkpt>
      <trkpt lat="48.98072" lon="1.09737">
        <ele>205.60000610352</ele>
        <time>2014-04-27T07:18:24.000Z</time>
      </trkpt>
      <trkpt lat="48.9808" lon="1.09712">
        <ele>206</ele>
        <time>2014-04-27T07:18:29.000Z</time>
      </trkpt>
      <trkpt lat="48.98088" lon="1.09689">
        <ele>206</ele>
        <time>2014-04-27T07:18:34.000Z</time>
      </trkpt>
      <trkpt lat="48.98097" lon="1.09664">
        <ele>206.39999389648</ele>
        <time>2014-04-27T07:18:40.000Z</time>
      </trkpt>
      <trkpt lat="48.98109" lon="1.09631">
        <ele>206.80000305176</ele>
        <time>2014-04-27T07:18:47.000Z</time>
      </trkpt>
      <trkpt lat="48.98116" lon="1.09607">
        <ele>206.80000305176</ele>
        <time>2014-04-27T07:18:52.000Z</time>
      </trkpt>
      <trkpt lat="48.98126" lon="1.09576">
        <ele>206.80000305176</ele>
        <time>2014-04-27T07:18:59.000Z</time>
      </trkpt>
      <trkpt lat="48.98134" lon="1.0955">
        <ele>207</ele>
        <time>2014-04-27T07:19:05.000Z</time>
      </trkpt>
      <trkpt lat="48.98143" lon="1.09523">
        <ele>207.39999389648</ele>
        <time>2014-04-27T07:19:11.000Z</time>
      </trkpt>
      <trkpt lat="48.98152" lon="1.09498">
        <ele>207.19999694824</ele>
        <time>2014-04-27T07:19:16.000Z</time>
      </trkpt>
      <trkpt lat="48.98162" lon="1.09472">
        <ele>207.39999389648</ele>
        <time>2014-04-27T07:19:22.000Z</time>
      </trkpt>
      <trkpt lat="48.98175" lon="1.09441">
        <ele>207.19999694824</ele>
        <time>2014-04-27T07:19:29.000Z</time>
      </trkpt>
      <trkpt lat="48.98185" lon="1.09406">
        <ele>207.80000305176</ele>
        <time>2014-04-27T07:19:36.000Z</time>
      </trkpt>
      <trkpt lat="48.98195" lon="1.09375">
        <ele>207.39999389648</ele>
        <time>2014-04-27T07:19:42.000Z</time>
      </trkpt>
      <trkpt lat="48.98205" lon="1.0935">
        <ele>207</ele>
        <time>2014-04-27T07:19:47.000Z</time>
      </trkpt>
      <trkpt lat="48.98212" lon="1.09325">
        <ele>207</ele>
        <time>2014-04-27T07:19:52.000Z</time>
      </trkpt>
      <trkpt lat="48.9822" lon="1.09305">
        <ele>207.19999694824</ele>
        <time>2014-04-27T07:19:57.000Z</time>
      </trkpt>
      <trkpt lat="48.98225" lon="1.09295">
        <ele>207</ele>
        <time>2014-04-27T07:20:00.000Z</time>
      </trkpt>
      <trkpt lat="48.98224" lon="1.09284">
        <ele>206.80000305176</ele>
        <time>2014-04-27T07:20:03.000Z</time>
      </trkpt>
      <trkpt lat="48.98222" lon="1.09281">
        <ele>206.80000305176</ele>
        <time>2014-04-27T07:20:04.000Z</time>
      </trkpt>
      <trkpt lat="48.98208" lon="1.09267">
        <ele>207</ele>
        <time>2014-04-27T07:20:09.000Z</time>
      </trkpt>
      <trkpt lat="48.9818" lon="1.09242">
        <ele>207.80000305176</ele>
        <time>2014-04-27T07:20:17.000Z</time>
      </trkpt>
      <trkpt lat="48.98152" lon="1.09219">
        <ele>208.39999389648</ele>
        <time>2014-04-27T07:20:24.000Z</time>
      </trkpt>
      <trkpt lat="48.9814" lon="1.09209">
        <ele>208.60000610352</ele>
        <time>2014-04-27T07:20:27.000Z</time>
      </trkpt>
      <trkpt lat="48.98118" lon="1.09191">
        <ele>208.80000305176</ele>
        <time>2014-04-27T07:20:32.000Z</time>
      </trkpt>
      <trkpt lat="48.98091" lon="1.09169">
        <ele>209.19999694824</ele>
        <time>2014-04-27T07:20:39.000Z</time>
      </trkpt>
      <trkpt lat="48.98058" lon="1.09141">
        <ele>209.39999389648</ele>
        <time>2014-04-27T07:20:47.000Z</time>
      </trkpt>
      <trkpt lat="48.9804" lon="1.09125">
        <ele>209.80000305176</ele>
        <time>2014-04-27T07:20:51.000Z</time>
      </trkpt>
      <trkpt lat="48.98035" lon="1.09121">
        <ele>209.60000610352</ele>
        <time>2014-04-27T07:20:52.000Z</time>
      </trkpt>
      <trkpt lat="48.98026" lon="1.09114">
        <ele>210</ele>
        <time>2014-04-27T07:20:54.000Z</time>
      </trkpt>
      <trkpt lat="48.97989" lon="1.09084">
        <ele>210</ele>
        <time>2014-04-27T07:21:02.000Z</time>
      </trkpt>
      <trkpt lat="48.97961" lon="1.09062">
        <ele>210.80000305176</ele>
        <time>2014-04-27T07:21:08.000Z</time>
      </trkpt>
      <trkpt lat="48.97947" lon="1.0905">
        <ele>210.80000305176</ele>
        <time>2014-04-27T07:21:11.000Z</time>
      </trkpt>
      <trkpt lat="48.97909" lon="1.09021">
        <ele>210.39999389648</ele>
        <time>2014-04-27T07:21:19.000Z</time>
      </trkpt>
      <trkpt lat="48.97871" lon="1.08991">
        <ele>210.39999389648</ele>
        <time>2014-04-27T07:21:27.000Z</time>
      </trkpt>
      <trkpt lat="48.97832" lon="1.08959">
        <ele>210.19999694824</ele>
        <time>2014-04-27T07:21:35.000Z</time>
      </trkpt>
      <trkpt lat="48.9779" lon="1.08926">
        <ele>210.39999389648</ele>
        <time>2014-04-27T07:21:43.000Z</time>
      </trkpt>
      <trkpt lat="48.97754" lon="1.08899">
        <ele>210.19999694824</ele>
        <time>2014-04-27T07:21:50.000Z</time>
      </trkpt>
      <trkpt lat="48.97741" lon="1.08888">
        <ele>209.60000610352</ele>
        <time>2014-04-27T07:21:53.000Z</time>
      </trkpt>
      <trkpt lat="48.97728" lon="1.08879">
        <ele>209.19999694824</ele>
        <time>2014-04-27T07:21:56.000Z</time>
      </trkpt>
      <trkpt lat="48.97698" lon="1.08856">
        <ele>208.80000305176</ele>
        <time>2014-04-27T07:22:04.000Z</time>
      </trkpt>
      <trkpt lat="48.97683" lon="1.08844">
        <ele>208.60000610352</ele>
        <time>2014-04-27T07:22:09.000Z</time>
      </trkpt>
      <trkpt lat="48.97679" lon="1.08838">
        <ele>208.60000610352</ele>
        <time>2014-04-27T07:22:11.000Z</time>
      </trkpt>
      <trkpt lat="48.97678" lon="1.08832">
        <ele>208.19999694824</ele>
        <time>2014-04-27T07:22:15.000Z</time>
      </trkpt>
      <trkpt lat="48.97678" lon="1.0883">
        <ele>208.39999389648</ele>
        <time>2014-04-27T07:22:20.000Z</time>
      </trkpt>
      <trkpt lat="48.97678" lon="1.08828">
        <ele>208.39999389648</ele>
        <time>2014-04-27T07:22:27.000Z</time>
      </trkpt>
      <trkpt lat="48.97679" lon="1.08817">
        <ele>208.80000305176</ele>
        <time>2014-04-27T07:22:34.000Z</time>
      </trkpt>
      <trkpt lat="48.9768" lon="1.08806">
        <ele>208.60000610352</ele>
        <time>2014-04-27T07:22:43.000Z</time>
      </trkpt>
      <trkpt lat="48.9768" lon="1.08804">
        <ele>208.80000305176</ele>
        <time>2014-04-27T07:22:48.000Z</time>
      </trkpt>
      <trkpt lat="48.9768" lon="1.08804">
        <ele>209</ele>
        <time>2014-04-27T07:22:53.000Z</time>
      </trkpt>
      <trkpt lat="48.9768" lon="1.08807">
        <ele>208.80000305176</ele>
        <time>2014-04-27T07:22:57.000Z</time>
      </trkpt>
      <trkpt lat="48.97679" lon="1.08808">
        <ele>208.60000610352</ele>
        <time>2014-04-27T07:22:58.000Z</time>
      </trkpt>
      <trkpt lat="48.97679" lon="1.08812">
        <ele>208.60000610352</ele>
        <time>2014-04-27T07:23:00.000Z</time>
      </trkpt>
      <trkpt lat="48.97679" lon="1.08814">
        <ele>208.60000610352</ele>
        <time>2014-04-27T07:23:01.000Z</time>
      </trkpt>
      <trkpt lat="48.97679" lon="1.08828">
        <ele>208.80000305176</ele>
        <time>2014-04-27T07:23:07.000Z</time>
      </trkpt>
      <trkpt lat="48.97681" lon="1.08834">
        <ele>208.80000305176</ele>
        <time>2014-04-27T07:23:10.000Z</time>
      </trkpt>
      <trkpt lat="48.97682" lon="1.08835">
        <ele>208.80000305176</ele>
        <time>2014-04-27T07:23:12.000Z</time>
      </trkpt>
      <trkpt lat="48.97679" lon="1.08841">
        <ele>209</ele>
        <time>2014-04-27T07:23:18.000Z</time>
      </trkpt>
      <trkpt lat="48.97674" lon="1.08844">
        <ele>209</ele>
        <time>2014-04-27T07:23:21.000Z</time>
      </trkpt>
      <trkpt lat="48.9767" lon="1.08843">
        <ele>208.80000305176</ele>
        <time>2014-04-27T07:23:23.000Z</time>
      </trkpt>
      <trkpt lat="48.97662" lon="1.08837">
        <ele>208.39999389648</ele>
        <time>2014-04-27T07:23:26.000Z</time>
      </trkpt>
      <trkpt lat="48.97656" lon="1.08832">
        <ele>208.39999389648</ele>
        <time>2014-04-27T07:23:28.000Z</time>
      </trkpt>
      <trkpt lat="48.97634" lon="1.08814">
        <ele>208.60000610352</ele>
        <time>2014-04-27T07:23:34.000Z</time>
      </trkpt>
      <trkpt lat="48.97597" lon="1.08785">
        <ele>208.19999694824</ele>
        <time>2014-04-27T07:23:43.000Z</time>
      </trkpt>
      <trkpt lat="48.97564" lon="1.08758">
        <ele>208.19999694824</ele>
        <time>2014-04-27T07:23:50.000Z</time>
      </trkpt>
      <trkpt lat="48.97521" lon="1.08724">
        <ele>207.39999389648</ele>
        <time>2014-04-27T07:23:59.000Z</time>
      </trkpt>
      <trkpt lat="48.97477" lon="1.0869">
        <ele>206.39999389648</ele>
        <time>2014-04-27T07:24:08.000Z</time>
      </trkpt>
      <trkpt lat="48.97473" lon="1.08686">
        <ele>206.19999694824</ele>
        <time>2014-04-27T07:24:09.000Z</time>
      </trkpt>
      <trkpt lat="48.97465" lon="1.0867">
        <ele>205.60000610352</ele>
        <time>2014-04-27T07:24:13.000Z</time>
      </trkpt>
      <trkpt lat="48.97468" lon="1.08648">
        <ele>205.39999389648</ele>
        <time>2014-04-27T07:24:16.000Z</time>
      </trkpt>
      <trkpt lat="48.97471" lon="1.0864">
        <ele>205.39999389648</ele>
        <time>2014-04-27T07:24:17.000Z</time>
      </trkpt>
      <trkpt lat="48.97476" lon="1.08625">
        <ele>205.19999694824</ele>
        <time>2014-04-27T07:24:19.000Z</time>
      </trkpt>
      <trkpt lat="48.97484" lon="1.0861">
        <ele>205.39999389648</ele>
        <time>2014-04-27T07:24:21.000Z</time>
      </trkpt>
      <trkpt lat="48.97514" lon="1.08555">
        <ele>206.60000610352</ele>
        <time>2014-04-27T07:24:29.000Z</time>
      </trkpt>
      <trkpt lat="48.97539" lon="1.08506">
        <ele>207.80000305176</ele>
        <time>2014-04-27T07:24:37.000Z</time>
      </trkpt>
      <trkpt lat="48.97541" lon="1.08501">
        <ele>207.80000305176</ele>
        <time>2014-04-27T07:24:38.000Z</time>
      </trkpt>
      <trkpt lat="48.97543" lon="1.08495">
        <ele>208</ele>
        <time>2014-04-27T07:24:39.000Z</time>
      </trkpt>
      <trkpt lat="48.97543" lon="1.08482">
        <ele>208.19999694824</ele>
        <time>2014-04-27T07:24:42.000Z</time>
      </trkpt>
      <trkpt lat="48.97542" lon="1.0848">
        <ele>208.19999694824</ele>
        <time>2014-04-27T07:24:43.000Z</time>
      </trkpt>
      <trkpt lat="48.9754" lon="1.08478">
        <ele>208</ele>
        <time>2014-04-27T07:24:44.000Z</time>
      </trkpt>
      <trkpt lat="48.97535" lon="1.08475">
        <ele>208</ele>
        <time>2014-04-27T07:24:47.000Z</time>
      </trkpt>
      <trkpt lat="48.97533" lon="1.08471">
        <ele>208</ele>
        <time>2014-04-27T07:24:50.000Z</time>
      </trkpt>
      <trkpt lat="48.97533" lon="1.08472">
        <ele>208</ele>
        <time>2014-04-27T07:24:52.000Z</time>
      </trkpt>
      <trkpt lat="48.9753" lon="1.08472">
        <ele>207.80000305176</ele>
        <time>2014-04-27T07:24:54.000Z</time>
      </trkpt>
      <trkpt lat="48.97527" lon="1.08471">
        <ele>207.60000610352</ele>
        <time>2014-04-27T07:24:56.000Z</time>
      </trkpt>
      <trkpt lat="48.97515" lon="1.08463">
        <ele>208.19999694824</ele>
        <time>2014-04-27T07:25:01.000Z</time>
      </trkpt>
      <trkpt lat="48.97495" lon="1.08448">
        <ele>208</ele>
        <time>2014-04-27T07:25:08.000Z</time>
      </trkpt>
      <trkpt lat="48.97473" lon="1.0843">
        <ele>208.19999694824</ele>
        <time>2014-04-27T07:25:14.000Z</time>
      </trkpt>
      <trkpt lat="48.97463" lon="1.0842">
        <ele>208.19999694824</ele>
        <time>2014-04-27T07:25:17.000Z</time>
      </trkpt>
      <trkpt lat="48.97452" lon="1.08411">
        <ele>208.19999694824</ele>
        <time>2014-04-27T07:25:20.000Z</time>
      </trkpt>
      <trkpt lat="48.97423" lon="1.08387">
        <ele>207.80000305176</ele>
        <time>2014-04-27T07:25:27.000Z</time>
      </trkpt>
      <trkpt lat="48.9739" lon="1.08362">
        <ele>207.39999389648</ele>
        <time>2014-04-27T07:25:35.000Z</time>
      </trkpt>
      <trkpt lat="48.97347" lon="1.08329">
        <ele>207</ele>
        <time>2014-04-27T07:25:45.000Z</time>
      </trkpt>
      <trkpt lat="48.97322" lon="1.0831">
        <ele>207.19999694824</ele>
        <time>2014-04-27T07:25:51.000Z</time>
      </trkpt>
      <trkpt lat="48.97318" lon="1.08306">
        <ele>207</ele>
        <time>2014-04-27T07:25:52.000Z</time>
      </trkpt>
      <trkpt lat="48.97311" lon="1.08293">
        <ele>206.80000305176</ele>
        <time>2014-04-27T07:25:55.000Z</time>
      </trkpt>
      <trkpt lat="48.97312" lon="1.08289">
        <ele>206.80000305176</ele>
        <time>2014-04-27T07:25:56.000Z</time>
      </trkpt>
      <trkpt lat="48.97317" lon="1.08275">
        <ele>206.80000305176</ele>
        <time>2014-04-27T07:25:59.000Z</time>
      </trkpt>
      <trkpt lat="48.9732" lon="1.08263">
        <ele>206.80000305176</ele>
        <time>2014-04-27T07:26:01.000Z</time>
      </trkpt>
      <trkpt lat="48.97328" lon="1.08234">
        <ele>207.19999694824</ele>
        <time>2014-04-27T07:26:06.000Z</time>
      </trkpt>
      <trkpt lat="48.9733" lon="1.08227">
        <ele>207.19999694824</ele>
        <time>2014-04-27T07:26:07.000Z</time>
      </trkpt>
      <trkpt lat="48.97334" lon="1.08216">
        <ele>207.60000610352</ele>
        <time>2014-04-27T07:26:09.000Z</time>
      </trkpt>
      <trkpt lat="48.97337" lon="1.08204">
        <ele>208</ele>
        <time>2014-04-27T07:26:11.000Z</time>
      </trkpt>
      <trkpt lat="48.9734" lon="1.08191">
        <ele>208</ele>
        <time>2014-04-27T07:26:13.000Z</time>
      </trkpt>
      <trkpt lat="48.97342" lon="1.08184">
        <ele>208.19999694824</ele>
        <time>2014-04-27T07:26:14.000Z</time>
      </trkpt>
      <trkpt lat="48.97352" lon="1.0815">
        <ele>208.39999389648</ele>
        <time>2014-04-27T07:26:19.000Z</time>
      </trkpt>
      <trkpt lat="48.97356" lon="1.08133">
        <ele>208.60000610352</ele>
        <time>2014-04-27T07:26:22.000Z</time>
      </trkpt>
      <trkpt lat="48.97358" lon="1.08128">
        <ele>208.80000305176</ele>
        <time>2014-04-27T07:26:23.000Z</time>
      </trkpt>
      <trkpt lat="48.9736" lon="1.08122">
        <ele>209</ele>
        <time>2014-04-27T07:26:24.000Z</time>
      </trkpt>
      <trkpt lat="48.97362" lon="1.08116">
        <ele>209.19999694824</ele>
        <time>2014-04-27T07:26:25.000Z</time>
      </trkpt>
      <trkpt lat="48.97368" lon="1.08097">
        <ele>209</ele>
        <time>2014-04-27T07:26:28.000Z</time>
      </trkpt>
      <trkpt lat="48.97369" lon="1.0809">
        <ele>209.19999694824</ele>
        <time>2014-04-27T07:26:29.000Z</time>
      </trkpt>
      <trkpt lat="48.97374" lon="1.08065">
        <ele>209.39999389648</ele>
        <time>2014-04-27T07:26:33.000Z</time>
      </trkpt>
      <trkpt lat="48.97382" lon="1.08039">
        <ele>209.60000610352</ele>
        <time>2014-04-27T07:26:37.000Z</time>
      </trkpt>
      <trkpt lat="48.97387" lon="1.08026">
        <ele>209.80000305176</ele>
        <time>2014-04-27T07:26:39.000Z</time>
      </trkpt>
      <trkpt lat="48.97391" lon="1.08015">
        <ele>209.80000305176</ele>
        <time>2014-04-27T07:26:41.000Z</time>
      </trkpt>
      <trkpt lat="48.97393" lon="1.08009">
        <ele>209.80000305176</ele>
        <time>2014-04-27T07:26:42.000Z</time>
      </trkpt>
      <trkpt lat="48.97401" lon="1.07987">
        <ele>209.80000305176</ele>
        <time>2014-04-27T07:26:46.000Z</time>
      </trkpt>
      <trkpt lat="48.97403" lon="1.07981">
        <ele>209.80000305176</ele>
        <time>2014-04-27T07:26:47.000Z</time>
      </trkpt>
      <trkpt lat="48.97409" lon="1.07963">
        <ele>210</ele>
        <time>2014-04-27T07:26:50.000Z</time>
      </trkpt>
      <trkpt lat="48.97412" lon="1.07955">
        <ele>210</ele>
        <time>2014-04-27T07:26:52.000Z</time>
      </trkpt>
      <trkpt lat="48.97412" lon="1.07953">
        <ele>210</ele>
        <time>2014-04-27T07:26:53.000Z</time>
      </trkpt>
      <trkpt lat="48.97414" lon="1.07945">
        <ele>210</ele>
        <time>2014-04-27T07:26:56.000Z</time>
      </trkpt>
      <trkpt lat="48.9742" lon="1.0793">
        <ele>210.19999694824</ele>
        <time>2014-04-27T07:27:00.000Z</time>
      </trkpt>
      <trkpt lat="48.97423" lon="1.07923">
        <ele>210.19999694824</ele>
        <time>2014-04-27T07:27:02.000Z</time>
      </trkpt>
      <trkpt lat="48.97424" lon="1.07919">
        <ele>210.19999694824</ele>
        <time>2014-04-27T07:27:03.000Z</time>
      </trkpt>
      <trkpt lat="48.97426" lon="1.07911">
        <ele>210.39999389648</ele>
        <time>2014-04-27T07:27:05.000Z</time>
      </trkpt>
      <trkpt lat="48.97434" lon="1.07888">
        <ele>210.39999389648</ele>
        <time>2014-04-27T07:27:10.000Z</time>
      </trkpt>
      <trkpt lat="48.97446" lon="1.07848">
        <ele>210.39999389648</ele>
        <time>2014-04-27T07:27:17.000Z</time>
      </trkpt>
      <trkpt lat="48.97453" lon="1.07821">
        <ele>210</ele>
        <time>2014-04-27T07:27:22.000Z</time>
      </trkpt>
      <trkpt lat="48.97458" lon="1.07806">
        <ele>210.39999389648</ele>
        <time>2014-04-27T07:27:25.000Z</time>
      </trkpt>
      <trkpt lat="48.97466" lon="1.07785">
        <ele>210.60000610352</ele>
        <time>2014-04-27T07:27:29.000Z</time>
      </trkpt>
      <trkpt lat="48.97472" lon="1.07761">
        <ele>210.39999389648</ele>
        <time>2014-04-27T07:27:33.000Z</time>
      </trkpt>
      <trkpt lat="48.97479" lon="1.07739">
        <ele>210.60000610352</ele>
        <time>2014-04-27T07:27:37.000Z</time>
      </trkpt>
      <trkpt lat="48.97488" lon="1.07709">
        <ele>210.39999389648</ele>
        <time>2014-04-27T07:27:42.000Z</time>
      </trkpt>
      <trkpt lat="48.97497" lon="1.07682">
        <ele>210.19999694824</ele>
        <time>2014-04-27T07:27:47.000Z</time>
      </trkpt>
      <trkpt lat="48.97505" lon="1.07652">
        <ele>210.60000610352</ele>
        <time>2014-04-27T07:27:52.000Z</time>
      </trkpt>
      <trkpt lat="48.97509" lon="1.07641">
        <ele>210.80000305176</ele>
        <time>2014-04-27T07:27:54.000Z</time>
      </trkpt>
      <trkpt lat="48.97513" lon="1.07628">
        <ele>210.39999389648</ele>
        <time>2014-04-27T07:27:56.000Z</time>
      </trkpt>
      <trkpt lat="48.97521" lon="1.076">
        <ele>210</ele>
        <time>2014-04-27T07:28:01.000Z</time>
      </trkpt>
      <trkpt lat="48.97528" lon="1.07579">
        <ele>209.60000610352</ele>
        <time>2014-04-27T07:28:05.000Z</time>
      </trkpt>
      <trkpt lat="48.97538" lon="1.07549">
        <ele>210</ele>
        <time>2014-04-27T07:28:10.000Z</time>
      </trkpt>
      <trkpt lat="48.97548" lon="1.07519">
        <ele>209.80000305176</ele>
        <time>2014-04-27T07:28:15.000Z</time>
      </trkpt>
      <trkpt lat="48.97555" lon="1.07495">
        <ele>209.60000610352</ele>
        <time>2014-04-27T07:28:19.000Z</time>
      </trkpt>
      <trkpt lat="48.97562" lon="1.07471">
        <ele>209</ele>
        <time>2014-04-27T07:28:23.000Z</time>
      </trkpt>
      <trkpt lat="48.97564" lon="1.07464">
        <ele>209</ele>
        <time>2014-04-27T07:28:24.000Z</time>
      </trkpt>
      <trkpt lat="48.97566" lon="1.07457">
        <ele>209</ele>
        <time>2014-04-27T07:28:25.000Z</time>
      </trkpt>
      <trkpt lat="48.97571" lon="1.07443">
        <ele>209</ele>
        <time>2014-04-27T07:28:28.000Z</time>
      </trkpt>
      <trkpt lat="48.97573" lon="1.07427">
        <ele>209</ele>
        <time>2014-04-27T07:28:32.000Z</time>
      </trkpt>
      <trkpt lat="48.97565" lon="1.07415">
        <ele>208.60000610352</ele>
        <time>2014-04-27T07:28:36.000Z</time>
      </trkpt>
      <trkpt lat="48.97562" lon="1.07413">
        <ele>208.60000610352</ele>
        <time>2014-04-27T07:28:37.000Z</time>
      </trkpt>
      <trkpt lat="48.97547" lon="1.07398">
        <ele>208.60000610352</ele>
        <time>2014-04-27T07:28:42.000Z</time>
      </trkpt>
      <trkpt lat="48.97528" lon="1.07382">
        <ele>208.39999389648</ele>
        <time>2014-04-27T07:28:48.000Z</time>
      </trkpt>
      <trkpt lat="48.97515" lon="1.07373">
        <ele>208.39999389648</ele>
        <time>2014-04-27T07:28:53.000Z</time>
      </trkpt>
      <trkpt lat="48.97507" lon="1.07367">
        <ele>207.80000305176</ele>
        <time>2014-04-27T07:28:57.000Z</time>
      </trkpt>
      <trkpt lat="48.97505" lon="1.07364">
        <ele>207.60000610352</ele>
        <time>2014-04-27T07:28:58.000Z</time>
      </trkpt>
      <trkpt lat="48.97497" lon="1.07357">
        <ele>207.60000610352</ele>
        <time>2014-04-27T07:29:01.000Z</time>
      </trkpt>
      <trkpt lat="48.97491" lon="1.07351">
        <ele>207.80000305176</ele>
        <time>2014-04-27T07:29:03.000Z</time>
      </trkpt>
      <trkpt lat="48.97473" lon="1.07337">
        <ele>207.60000610352</ele>
        <time>2014-04-27T07:29:08.000Z</time>
      </trkpt>
      <trkpt lat="48.97456" lon="1.07325">
        <ele>207.60000610352</ele>
        <time>2014-04-27T07:29:13.000Z</time>
      </trkpt>
      <trkpt lat="48.97451" lon="1.07322">
        <ele>207.60000610352</ele>
        <time>2014-04-27T07:29:14.000Z</time>
      </trkpt>
      <trkpt lat="48.97437" lon="1.0731">
        <ele>207.19999694824</ele>
        <time>2014-04-27T07:29:18.000Z</time>
      </trkpt>
      <trkpt lat="48.97425" lon="1.07301">
        <ele>206.80000305176</ele>
        <time>2014-04-27T07:29:21.000Z</time>
      </trkpt>
      <trkpt lat="48.97421" lon="1.07298">
        <ele>206.80000305176</ele>
        <time>2014-04-27T07:29:22.000Z</time>
      </trkpt>
      <trkpt lat="48.97418" lon="1.07295">
        <ele>206.80000305176</ele>
        <time>2014-04-27T07:29:23.000Z</time>
      </trkpt>
      <trkpt lat="48.97407" lon="1.07286">
        <ele>206.39999389648</ele>
        <time>2014-04-27T07:29:26.000Z</time>
      </trkpt>
      <trkpt lat="48.97399" lon="1.0728">
        <ele>206.39999389648</ele>
        <time>2014-04-27T07:29:28.000Z</time>
      </trkpt>
      <trkpt lat="48.97391" lon="1.07273">
        <ele>206.39999389648</ele>
        <time>2014-04-27T07:29:30.000Z</time>
      </trkpt>
      <trkpt lat="48.97387" lon="1.0727">
        <ele>206.39999389648</ele>
        <time>2014-04-27T07:29:31.000Z</time>
      </trkpt>
      <trkpt lat="48.97362" lon="1.07252">
        <ele>205.80000305176</ele>
        <time>2014-04-27T07:29:37.000Z</time>
      </trkpt>
      <trkpt lat="48.97358" lon="1.0725">
        <ele>205.80000305176</ele>
        <time>2014-04-27T07:29:38.000Z</time>
      </trkpt>
      <trkpt lat="48.97354" lon="1.07246">
        <ele>205.60000610352</ele>
        <time>2014-04-27T07:29:39.000Z</time>
      </trkpt>
      <trkpt lat="48.97346" lon="1.07241">
        <ele>205.39999389648</ele>
        <time>2014-04-27T07:29:41.000Z</time>
      </trkpt>
      <trkpt lat="48.97338" lon="1.07229">
        <ele>205</ele>
        <time>2014-04-27T07:29:44.000Z</time>
      </trkpt>
      <trkpt lat="48.97336" lon="1.07224">
        <ele>204.80000305176</ele>
        <time>2014-04-27T07:29:45.000Z</time>
      </trkpt>
      <trkpt lat="48.97334" lon="1.0722">
        <ele>204.60000610352</ele>
        <time>2014-04-27T07:29:46.000Z</time>
      </trkpt>
      <trkpt lat="48.97328" lon="1.07213">
        <ele>204.19999694824</ele>
        <time>2014-04-27T07:29:49.000Z</time>
      </trkpt>
      <trkpt lat="48.97318" lon="1.07204">
        <ele>203.60000610352</ele>
        <time>2014-04-27T07:29:52.000Z</time>
      </trkpt>
      <trkpt lat="48.97315" lon="1.07202">
        <ele>203.19999694824</ele>
        <time>2014-04-27T07:29:53.000Z</time>
      </trkpt>
      <trkpt lat="48.9731" lon="1.07196">
        <ele>202.60000610352</ele>
        <time>2014-04-27T07:29:55.000Z</time>
      </trkpt>
      <trkpt lat="48.97309" lon="1.07192">
        <ele>202.39999389648</ele>
        <time>2014-04-27T07:29:56.000Z</time>
      </trkpt>
      <trkpt lat="48.97307" lon="1.07189">
        <ele>202.60000610352</ele>
        <time>2014-04-27T07:29:57.000Z</time>
      </trkpt>
      <trkpt lat="48.97302" lon="1.0718">
        <ele>201.60000610352</ele>
        <time>2014-04-27T07:30:01.000Z</time>
      </trkpt>
      <trkpt lat="48.97301" lon="1.07178">
        <ele>201.19999694824</ele>
        <time>2014-04-27T07:30:02.000Z</time>
      </trkpt>
      <trkpt lat="48.97296" lon="1.07169">
        <ele>200.60000610352</ele>
        <time>2014-04-27T07:30:05.000Z</time>
      </trkpt>
      <trkpt lat="48.97294" lon="1.07164">
        <ele>200.19999694824</ele>
        <time>2014-04-27T07:30:07.000Z</time>
      </trkpt>
      <trkpt lat="48.97291" lon="1.07157">
        <ele>199.19999694824</ele>
        <time>2014-04-27T07:30:10.000Z</time>
      </trkpt>
      <trkpt lat="48.97291" lon="1.07155">
        <ele>198.60000610352</ele>
        <time>2014-04-27T07:30:11.000Z</time>
      </trkpt>
      <trkpt lat="48.97291" lon="1.0715">
        <ele>197.39999389648</ele>
        <time>2014-04-27T07:30:13.000Z</time>
      </trkpt>
      <trkpt lat="48.9729" lon="1.07144">
        <ele>196.60000610352</ele>
        <time>2014-04-27T07:30:15.000Z</time>
      </trkpt>
      <trkpt lat="48.9729" lon="1.07141">
        <ele>196</ele>
        <time>2014-04-27T07:30:16.000Z</time>
      </trkpt>
      <trkpt lat="48.9729" lon="1.07132">
        <ele>194.80000305176</ele>
        <time>2014-04-27T07:30:19.000Z</time>
      </trkpt>
      <trkpt lat="48.97289" lon="1.07129">
        <ele>194.19999694824</ele>
        <time>2014-04-27T07:30:20.000Z</time>
      </trkpt>
      <trkpt lat="48.97288" lon="1.07122">
        <ele>193.39999389648</ele>
        <time>2014-04-27T07:30:22.000Z</time>
      </trkpt>
      <trkpt lat="48.97287" lon="1.07117">
        <ele>193</ele>
        <time>2014-04-27T07:30:24.000Z</time>
      </trkpt>
      <trkpt lat="48.97286" lon="1.07112">
        <ele>192.19999694824</ele>
        <time>2014-04-27T07:30:26.000Z</time>
      </trkpt>
      <trkpt lat="48.97284" lon="1.07108">
        <ele>191.60000610352</ele>
        <time>2014-04-27T07:30:28.000Z</time>
      </trkpt>
      <trkpt lat="48.97283" lon="1.07107">
        <ele>191.19999694824</ele>
        <time>2014-04-27T07:30:29.000Z</time>
      </trkpt>
      <trkpt lat="48.97282" lon="1.07101">
        <ele>190.19999694824</ele>
        <time>2014-04-27T07:30:32.000Z</time>
      </trkpt>
      <trkpt lat="48.97281" lon="1.07096">
        <ele>189.60000610352</ele>
        <time>2014-04-27T07:30:34.000Z</time>
      </trkpt>
      <trkpt lat="48.97279" lon="1.07091">
        <ele>189</ele>
        <time>2014-04-27T07:30:36.000Z</time>
      </trkpt>
      <trkpt lat="48.97275" lon="1.07083">
        <ele>188.60000610352</ele>
        <time>2014-04-27T07:30:38.000Z</time>
      </trkpt>
      <trkpt lat="48.97267" lon="1.07071">
        <ele>187.80000305176</ele>
        <time>2014-04-27T07:30:41.000Z</time>
      </trkpt>
      <trkpt lat="48.97264" lon="1.07067">
        <ele>187.39999389648</ele>
        <time>2014-04-27T07:30:42.000Z</time>
      </trkpt>
      <trkpt lat="48.97261" lon="1.07064">
        <ele>187.19999694824</ele>
        <time>2014-04-27T07:30:43.000Z</time>
      </trkpt>
      <trkpt lat="48.97258" lon="1.0706">
        <ele>186.80000305176</ele>
        <time>2014-04-27T07:30:44.000Z</time>
      </trkpt>
      <trkpt lat="48.9725" lon="1.07046">
        <ele>185.60000610352</ele>
        <time>2014-04-27T07:30:47.000Z</time>
      </trkpt>
      <trkpt lat="48.97247" lon="1.0704">
        <ele>184.19999694824</ele>
        <time>2014-04-27T07:30:49.000Z</time>
      </trkpt>
      <trkpt lat="48.97245" lon="1.07038">
        <ele>183.60000610352</ele>
        <time>2014-04-27T07:30:50.000Z</time>
      </trkpt>
      <trkpt lat="48.97245" lon="1.07036">
        <ele>183.19999694824</ele>
        <time>2014-04-27T07:30:51.000Z</time>
      </trkpt>
      <trkpt lat="48.97244" lon="1.07034">
        <ele>182.60000610352</ele>
        <time>2014-04-27T07:30:52.000Z</time>
      </trkpt>
      <trkpt lat="48.97244" lon="1.07032">
        <ele>182.60000610352</ele>
        <time>2014-04-27T07:30:53.000Z</time>
      </trkpt>
      <trkpt lat="48.97242" lon="1.07026">
        <ele>182.19999694824</ele>
        <time>2014-04-27T07:30:55.000Z</time>
      </trkpt>
      <trkpt lat="48.97239" lon="1.07023">
        <ele>181.80000305176</ele>
        <time>2014-04-27T07:30:57.000Z</time>
      </trkpt>
      <trkpt lat="48.97235" lon="1.0702">
        <ele>181.39999389648</ele>
        <time>2014-04-27T07:31:01.000Z</time>
      </trkpt>
      <trkpt lat="48.97228" lon="1.07013">
        <ele>182</ele>
        <time>2014-04-27T07:31:07.000Z</time>
      </trkpt>
      <trkpt lat="48.97222" lon="1.07009">
        <ele>182.80000305176</ele>
        <time>2014-04-27T07:31:14.000Z</time>
      </trkpt>
      <trkpt lat="48.9722" lon="1.07008">
        <ele>183.19999694824</ele>
        <time>2014-04-27T07:31:16.000Z</time>
      </trkpt>
      <trkpt lat="48.97215" lon="1.07003">
        <ele>183.60000610352</ele>
        <time>2014-04-27T07:31:21.000Z</time>
      </trkpt>
      <trkpt lat="48.97213" lon="1.07001">
        <ele>183.60000610352</ele>
        <time>2014-04-27T07:31:23.000Z</time>
      </trkpt>
      <trkpt lat="48.97211" lon="1.06998">
        <ele>183.60000610352</ele>
        <time>2014-04-27T07:31:26.000Z</time>
      </trkpt>
      <trkpt lat="48.97209" lon="1.06995">
        <ele>183.39999389648</ele>
        <time>2014-04-27T07:31:32.000Z</time>
      </trkpt>
      <trkpt lat="48.97208" lon="1.06995">
        <ele>183.60000610352</ele>
        <time>2014-04-27T07:31:36.000Z</time>
      </trkpt>
      <trkpt lat="48.97207" lon="1.06995">
        <ele>184</ele>
        <time>2014-04-27T07:31:44.000Z</time>
      </trkpt>
      <trkpt lat="48.97205" lon="1.06994">
        <ele>183.60000610352</ele>
        <time>2014-04-27T07:31:51.000Z</time>
      </trkpt>
      <trkpt lat="48.97203" lon="1.06992">
        <ele>183.39999389648</ele>
        <time>2014-04-27T07:32:06.000Z</time>
      </trkpt>
      <trkpt lat="48.97202" lon="1.06979">
        <ele>183</ele>
        <time>2014-04-27T07:32:10.000Z</time>
      </trkpt>
      <trkpt lat="48.97202" lon="1.06971">
        <ele>182</ele>
        <time>2014-04-27T07:32:12.000Z</time>
      </trkpt>
      <trkpt lat="48.97201" lon="1.0697">
        <ele>180.80000305176</ele>
        <time>2014-04-27T07:32:14.000Z</time>
      </trkpt>
      <trkpt lat="48.97201" lon="1.06966">
        <ele>179.80000305176</ele>
        <time>2014-04-27T07:32:16.000Z</time>
      </trkpt>
      <trkpt lat="48.97201" lon="1.06963">
        <ele>179.19999694824</ele>
        <time>2014-04-27T07:32:19.000Z</time>
      </trkpt>
      <trkpt lat="48.972" lon="1.06959">
        <ele>179</ele>
        <time>2014-04-27T07:32:25.000Z</time>
      </trkpt>
      <trkpt lat="48.97197" lon="1.06957">
        <ele>178.80000305176</ele>
        <time>2014-04-27T07:32:28.000Z</time>
      </trkpt>
      <trkpt lat="48.97193" lon="1.06955">
        <ele>178.80000305176</ele>
        <time>2014-04-27T07:32:30.000Z</time>
      </trkpt>
      <trkpt lat="48.97186" lon="1.06951">
        <ele>179</ele>
        <time>2014-04-27T07:32:35.000Z</time>
      </trkpt>
      <trkpt lat="48.97174" lon="1.06948">
        <ele>179.19999694824</ele>
        <time>2014-04-27T07:32:41.000Z</time>
      </trkpt>
      <trkpt lat="48.97161" lon="1.06948">
        <ele>179.60000610352</ele>
        <time>2014-04-27T07:32:47.000Z</time>
      </trkpt>
      <trkpt lat="48.97152" lon="1.06952">
        <ele>179.19999694824</ele>
        <time>2014-04-27T07:32:53.000Z</time>
      </trkpt>
      <trkpt lat="48.97142" lon="1.06963">
        <ele>178.39999389648</ele>
        <time>2014-04-27T07:32:59.000Z</time>
      </trkpt>
      <trkpt lat="48.9714" lon="1.06968">
        <ele>177.60000610352</ele>
        <time>2014-04-27T07:33:03.000Z</time>
      </trkpt>
      <trkpt lat="48.9714" lon="1.0697">
        <ele>177.60000610352</ele>
        <time>2014-04-27T07:33:04.000Z</time>
      </trkpt>
      <trkpt lat="48.9714" lon="1.06974">
        <ele>177.60000610352</ele>
        <time>2014-04-27T07:33:06.000Z</time>
      </trkpt>
      <trkpt lat="48.97138" lon="1.06983">
        <ele>177.60000610352</ele>
        <time>2014-04-27T07:33:09.000Z</time>
      </trkpt>
      <trkpt lat="48.97138" lon="1.06989">
        <ele>177.60000610352</ele>
        <time>2014-04-27T07:33:11.000Z</time>
      </trkpt>
      <trkpt lat="48.97137" lon="1.06996">
        <ele>177.60000610352</ele>
        <time>2014-04-27T07:33:14.000Z</time>
      </trkpt>
      <trkpt lat="48.97137" lon="1.07008">
        <ele>177.19999694824</ele>
        <time>2014-04-27T07:33:20.000Z</time>
      </trkpt>
      <trkpt lat="48.97136" lon="1.07015">
        <ele>177.19999694824</ele>
        <time>2014-04-27T07:33:23.000Z</time>
      </trkpt>
      <trkpt lat="48.97134" lon="1.07017">
        <ele>177.19999694824</ele>
        <time>2014-04-27T07:33:25.000Z</time>
      </trkpt>
      <trkpt lat="48.9713" lon="1.0702">
        <ele>178</ele>
        <time>2014-04-27T07:33:28.000Z</time>
      </trkpt>
      <trkpt lat="48.97126" lon="1.07023">
        <ele>178.39999389648</ele>
        <time>2014-04-27T07:33:31.000Z</time>
      </trkpt>
      <trkpt lat="48.97125" lon="1.07024">
        <ele>178.39999389648</ele>
        <time>2014-04-27T07:33:32.000Z</time>
      </trkpt>
      <trkpt lat="48.97119" lon="1.07028">
        <ele>178.39999389648</ele>
        <time>2014-04-27T07:33:36.000Z</time>
      </trkpt>
      <trkpt lat="48.97114" lon="1.07029">
        <ele>178.60000610352</ele>
        <time>2014-04-27T07:33:40.000Z</time>
      </trkpt>
      <trkpt lat="48.97113" lon="1.07027">
        <ele>178.80000305176</ele>
        <time>2014-04-27T07:33:41.000Z</time>
      </trkpt>
      <trkpt lat="48.97111" lon="1.07024">
        <ele>178.60000610352</ele>
        <time>2014-04-27T07:33:46.000Z</time>
      </trkpt>
      <trkpt lat="48.97109" lon="1.07021">
        <ele>179</ele>
        <time>2014-04-27T07:33:50.000Z</time>
      </trkpt>
      <trkpt lat="48.97105" lon="1.07009">
        <ele>178.60000610352</ele>
        <time>2014-04-27T07:33:55.000Z</time>
      </trkpt>
      <trkpt lat="48.97096" lon="1.06986">
        <ele>178.60000610352</ele>
        <time>2014-04-27T07:34:04.000Z</time>
      </trkpt>
      <trkpt lat="48.97089" lon="1.0697">
        <ele>178.60000610352</ele>
        <time>2014-04-27T07:34:10.000Z</time>
      </trkpt>
      <trkpt lat="48.97077" lon="1.0695">
        <ele>178.39999389648</ele>
        <time>2014-04-27T07:34:17.000Z</time>
      </trkpt>
      <trkpt lat="48.97066" lon="1.06948">
        <ele>179</ele>
        <time>2014-04-27T07:34:22.000Z</time>
      </trkpt>
      <trkpt lat="48.97056" lon="1.06957">
        <ele>179.80000305176</ele>
        <time>2014-04-27T07:34:27.000Z</time>
      </trkpt>
      <trkpt lat="48.97055" lon="1.06959">
        <ele>180</ele>
        <time>2014-04-27T07:34:28.000Z</time>
      </trkpt>
      <trkpt lat="48.97048" lon="1.06971">
        <ele>180.80000305176</ele>
        <time>2014-04-27T07:34:33.000Z</time>
      </trkpt>
      <trkpt lat="48.97045" lon="1.06976">
        <ele>181</ele>
        <time>2014-04-27T07:34:35.000Z</time>
      </trkpt>
      <trkpt lat="48.97036" lon="1.06995">
        <ele>182</ele>
        <time>2014-04-27T07:34:42.000Z</time>
      </trkpt>
      <trkpt lat="48.97035" lon="1.06998">
        <ele>182.19999694824</ele>
        <time>2014-04-27T07:34:43.000Z</time>
      </trkpt>
      <trkpt lat="48.9703" lon="1.07009">
        <ele>183.19999694824</ele>
        <time>2014-04-27T07:34:47.000Z</time>
      </trkpt>
      <trkpt lat="48.97026" lon="1.0702">
        <ele>183.80000305176</ele>
        <time>2014-04-27T07:34:51.000Z</time>
      </trkpt>
      <trkpt lat="48.97021" lon="1.07034">
        <ele>184.39999389648</ele>
        <time>2014-04-27T07:34:56.000Z</time>
      </trkpt>
      <trkpt lat="48.97018" lon="1.07039">
        <ele>184.80000305176</ele>
        <time>2014-04-27T07:34:58.000Z</time>
      </trkpt>
      <trkpt lat="48.97015" lon="1.07046">
        <ele>185.39999389648</ele>
        <time>2014-04-27T07:35:01.000Z</time>
      </trkpt>
      <trkpt lat="48.97009" lon="1.07054">
        <ele>186.80000305176</ele>
        <time>2014-04-27T07:35:05.000Z</time>
      </trkpt>
      <trkpt lat="48.97008" lon="1.07056">
        <ele>186.80000305176</ele>
        <time>2014-04-27T07:35:06.000Z</time>
      </trkpt>
      <trkpt lat="48.96994" lon="1.07066">
        <ele>187.80000305176</ele>
        <time>2014-04-27T07:35:14.000Z</time>
      </trkpt>
      <trkpt lat="48.96992" lon="1.07067">
        <ele>187.80000305176</ele>
        <time>2014-04-27T07:35:15.000Z</time>
      </trkpt>
      <trkpt lat="48.96985" lon="1.07068">
        <ele>189</ele>
        <time>2014-04-27T07:35:19.000Z</time>
      </trkpt>
      <trkpt lat="48.96981" lon="1.07068">
        <ele>189.60000610352</ele>
        <time>2014-04-27T07:35:21.000Z</time>
      </trkpt>
      <trkpt lat="48.9698" lon="1.07067">
        <ele>189.80000305176</ele>
        <time>2014-04-27T07:35:22.000Z</time>
      </trkpt>
      <trkpt lat="48.96979" lon="1.07065">
        <ele>190</ele>
        <time>2014-04-27T07:35:23.000Z</time>
      </trkpt>
      <trkpt lat="48.96976" lon="1.07059">
        <ele>190.80000305176</ele>
        <time>2014-04-27T07:35:26.000Z</time>
      </trkpt>
      <trkpt lat="48.96975" lon="1.07055">
        <ele>191</ele>
        <time>2014-04-27T07:35:28.000Z</time>
      </trkpt>
      <trkpt lat="48.96974" lon="1.07048">
        <ele>191.60000610352</ele>
        <time>2014-04-27T07:35:31.000Z</time>
      </trkpt>
      <trkpt lat="48.96974" lon="1.07046">
        <ele>191.80000305176</ele>
        <time>2014-04-27T07:35:32.000Z</time>
      </trkpt>
      <trkpt lat="48.96974" lon="1.07038">
        <ele>192.19999694824</ele>
        <time>2014-04-27T07:35:35.000Z</time>
      </trkpt>
      <trkpt lat="48.96974" lon="1.07033">
        <ele>192.60000610352</ele>
        <time>2014-04-27T07:35:37.000Z</time>
      </trkpt>
      <trkpt lat="48.96974" lon="1.07025">
        <ele>193.19999694824</ele>
        <time>2014-04-27T07:35:40.000Z</time>
      </trkpt>
      <trkpt lat="48.96974" lon="1.07009">
        <ele>194</ele>
        <time>2014-04-27T07:35:45.000Z</time>
      </trkpt>
      <trkpt lat="48.96973" lon="1.07003">
        <ele>194.19999694824</ele>
        <time>2014-04-27T07:35:47.000Z</time>
      </trkpt>
      <trkpt lat="48.96971" lon="1.06988">
        <ele>194.80000305176</ele>
        <time>2014-04-27T07:35:53.000Z</time>
      </trkpt>
      <trkpt lat="48.96969" lon="1.06974">
        <ele>195.39999389648</ele>
        <time>2014-04-27T07:35:58.000Z</time>
      </trkpt>
      <trkpt lat="48.96968" lon="1.06968">
        <ele>195.80000305176</ele>
        <time>2014-04-27T07:36:00.000Z</time>
      </trkpt>
      <trkpt lat="48.96965" lon="1.06946">
        <ele>196.39999389648</ele>
        <time>2014-04-27T07:36:07.000Z</time>
      </trkpt>
      <trkpt lat="48.96964" lon="1.06943">
        <ele>196.60000610352</ele>
        <time>2014-04-27T07:36:08.000Z</time>
      </trkpt>
      <trkpt lat="48.96961" lon="1.06925">
        <ele>197.19999694824</ele>
        <time>2014-04-27T07:36:13.000Z</time>
      </trkpt>
      <trkpt lat="48.96958" lon="1.06911">
        <ele>197.80000305176</ele>
        <time>2014-04-27T07:36:17.000Z</time>
      </trkpt>
      <trkpt lat="48.96955" lon="1.06896">
        <ele>198.39999389648</ele>
        <time>2014-04-27T07:36:21.000Z</time>
      </trkpt>
      <trkpt lat="48.96951" lon="1.06877">
        <ele>199</ele>
        <time>2014-04-27T07:36:26.000Z</time>
      </trkpt>
      <trkpt lat="48.96949" lon="1.06865">
        <ele>199</ele>
        <time>2014-04-27T07:36:29.000Z</time>
      </trkpt>
      <trkpt lat="48.96942" lon="1.06833">
        <ele>199.60000610352</ele>
        <time>2014-04-27T07:36:37.000Z</time>
      </trkpt>
      <trkpt lat="48.96939" lon="1.06816">
        <ele>200</ele>
        <time>2014-04-27T07:36:41.000Z</time>
      </trkpt>
      <trkpt lat="48.96936" lon="1.06797">
        <ele>200.39999389648</ele>
        <time>2014-04-27T07:36:45.000Z</time>
      </trkpt>
      <trkpt lat="48.96928" lon="1.06761">
        <ele>200.60000610352</ele>
        <time>2014-04-27T07:36:53.000Z</time>
      </trkpt>
      <trkpt lat="48.96925" lon="1.06747">
        <ele>201</ele>
        <time>2014-04-27T07:36:56.000Z</time>
      </trkpt>
      <trkpt lat="48.96921" lon="1.06725">
        <ele>201.39999389648</ele>
        <time>2014-04-27T07:37:01.000Z</time>
      </trkpt>
      <trkpt lat="48.96916" lon="1.06695">
        <ele>201.60000610352</ele>
        <time>2014-04-27T07:37:08.000Z</time>
      </trkpt>
      <trkpt lat="48.96909" lon="1.06668">
        <ele>202.19999694824</ele>
        <time>2014-04-27T07:37:15.000Z</time>
      </trkpt>
      <trkpt lat="48.96908" lon="1.06664">
        <ele>202.19999694824</ele>
        <time>2014-04-27T07:37:16.000Z</time>
      </trkpt>
      <trkpt lat="48.96907" lon="1.06658">
        <ele>202.39999389648</ele>
        <time>2014-04-27T07:37:18.000Z</time>
      </trkpt>
      <trkpt lat="48.9691" lon="1.06652">
        <ele>202.19999694824</ele>
        <time>2014-04-27T07:37:20.000Z</time>
      </trkpt>
      <trkpt lat="48.96915" lon="1.06646">
        <ele>202.39999389648</ele>
        <time>2014-04-27T07:37:22.000Z</time>
      </trkpt>
      <trkpt lat="48.96925" lon="1.0663">
        <ele>202.39999389648</ele>
        <time>2014-04-27T07:37:26.000Z</time>
      </trkpt>
      <trkpt lat="48.96942" lon="1.06603">
        <ele>202.39999389648</ele>
        <time>2014-04-27T07:37:32.000Z</time>
      </trkpt>
      <trkpt lat="48.9696" lon="1.06577">
        <ele>202.39999389648</ele>
        <time>2014-04-27T07:37:38.000Z</time>
      </trkpt>
      <trkpt lat="48.96982" lon="1.06546">
        <ele>202.60000610352</ele>
        <time>2014-04-27T07:37:45.000Z</time>
      </trkpt>
      <trkpt lat="48.97006" lon="1.06513">
        <ele>202.39999389648</ele>
        <time>2014-04-27T07:37:52.000Z</time>
      </trkpt>
      <trkpt lat="48.97033" lon="1.06476">
        <ele>202.19999694824</ele>
        <time>2014-04-27T07:38:00.000Z</time>
      </trkpt>
      <trkpt lat="48.97054" lon="1.06442">
        <ele>202.19999694824</ele>
        <time>2014-04-27T07:38:08.000Z</time>
      </trkpt>
      <trkpt lat="48.97062" lon="1.06425">
        <ele>202.19999694824</ele>
        <time>2014-04-27T07:38:13.000Z</time>
      </trkpt>
      <trkpt lat="48.9707" lon="1.06414">
        <ele>202.19999694824</ele>
        <time>2014-04-27T07:38:18.000Z</time>
      </trkpt>
      <trkpt lat="48.97081" lon="1.06398">
        <ele>202.39999389648</ele>
        <time>2014-04-27T07:38:23.000Z</time>
      </trkpt>
      <trkpt lat="48.9709" lon="1.06388">
        <ele>202.19999694824</ele>
        <time>2014-04-27T07:38:27.000Z</time>
      </trkpt>
      <trkpt lat="48.97099" lon="1.06381">
        <ele>202</ele>
        <time>2014-04-27T07:38:32.000Z</time>
      </trkpt>
      <trkpt lat="48.97101" lon="1.06377">
        <ele>202.19999694824</ele>
        <time>2014-04-27T07:38:34.000Z</time>
      </trkpt>
      <trkpt lat="48.97106" lon="1.06368">
        <ele>202</ele>
        <time>2014-04-27T07:38:37.000Z</time>
      </trkpt>
      <trkpt lat="48.97114" lon="1.06351">
        <ele>201.80000305176</ele>
        <time>2014-04-27T07:38:41.000Z</time>
      </trkpt>
      <trkpt lat="48.97115" lon="1.06347">
        <ele>202</ele>
        <time>2014-04-27T07:38:42.000Z</time>
      </trkpt>
      <trkpt lat="48.97121" lon="1.06336">
        <ele>201.80000305176</ele>
        <time>2014-04-27T07:38:45.000Z</time>
      </trkpt>
      <trkpt lat="48.97122" lon="1.06332">
        <ele>201.60000610352</ele>
        <time>2014-04-27T07:38:46.000Z</time>
      </trkpt>
      <trkpt lat="48.97127" lon="1.06316">
        <ele>201.39999389648</ele>
        <time>2014-04-27T07:38:50.000Z</time>
      </trkpt>
      <trkpt lat="48.97128" lon="1.06313">
        <ele>201.39999389648</ele>
        <time>2014-04-27T07:38:51.000Z</time>
      </trkpt>
      <trkpt lat="48.97137" lon="1.06287">
        <ele>201.19999694824</ele>
        <time>2014-04-27T07:38:57.000Z</time>
      </trkpt>
      <trkpt lat="48.97142" lon="1.06272">
        <ele>201.60000610352</ele>
        <time>2014-04-27T07:39:01.000Z</time>
      </trkpt>
      <trkpt lat="48.97144" lon="1.06269">
        <ele>201.60000610352</ele>
        <time>2014-04-27T07:39:02.000Z</time>
      </trkpt>
      <trkpt lat="48.97149" lon="1.06258">
        <ele>201.80000305176</ele>
        <time>2014-04-27T07:39:05.000Z</time>
      </trkpt>
      <trkpt lat="48.97151" lon="1.06254">
        <ele>201.80000305176</ele>
        <time>2014-04-27T07:39:06.000Z</time>
      </trkpt>
      <trkpt lat="48.97159" lon="1.06234">
        <ele>201.19999694824</ele>
        <time>2014-04-27T07:39:11.000Z</time>
      </trkpt>
      <trkpt lat="48.97159" lon="1.06229">
        <ele>201.19999694824</ele>
        <time>2014-04-27T07:39:12.000Z</time>
      </trkpt>
      <trkpt lat="48.97161" lon="1.06218">
        <ele>201</ele>
        <time>2014-04-27T07:39:14.000Z</time>
      </trkpt>
      <trkpt lat="48.97162" lon="1.06213">
        <ele>200.60000610352</ele>
        <time>2014-04-27T07:39:15.000Z</time>
      </trkpt>
      <trkpt lat="48.97167" lon="1.06184">
        <ele>200.60000610352</ele>
        <time>2014-04-27T07:39:20.000Z</time>
      </trkpt>
      <trkpt lat="48.97169" lon="1.06149">
        <ele>200.39999389648</ele>
        <time>2014-04-27T07:39:26.000Z</time>
      </trkpt>
      <trkpt lat="48.9717" lon="1.06144">
        <ele>200.39999389648</ele>
        <time>2014-04-27T07:39:27.000Z</time>
      </trkpt>
      <trkpt lat="48.97171" lon="1.06127">
        <ele>200.60000610352</ele>
        <time>2014-04-27T07:39:30.000Z</time>
      </trkpt>
      <trkpt lat="48.97173" lon="1.06123">
        <ele>200.60000610352</ele>
        <time>2014-04-27T07:39:31.000Z</time>
      </trkpt>
      <trkpt lat="48.97174" lon="1.06113">
        <ele>200.39999389648</ele>
        <time>2014-04-27T07:39:33.000Z</time>
      </trkpt>
      <trkpt lat="48.97176" lon="1.06098">
        <ele>200</ele>
        <time>2014-04-27T07:39:36.000Z</time>
      </trkpt>
      <trkpt lat="48.97178" lon="1.06088">
        <ele>200</ele>
        <time>2014-04-27T07:39:38.000Z</time>
      </trkpt>
      <trkpt lat="48.97183" lon="1.06055">
        <ele>200</ele>
        <time>2014-04-27T07:39:43.000Z</time>
      </trkpt>
      <trkpt lat="48.97186" lon="1.06043">
        <ele>200</ele>
        <time>2014-04-27T07:39:45.000Z</time>
      </trkpt>
      <trkpt lat="48.97189" lon="1.06029">
        <ele>199.80000305176</ele>
        <time>2014-04-27T07:39:47.000Z</time>
      </trkpt>
      <trkpt lat="48.97193" lon="1.06001">
        <ele>199.60000610352</ele>
        <time>2014-04-27T07:39:51.000Z</time>
      </trkpt>
      <trkpt lat="48.97197" lon="1.05973">
        <ele>199.80000305176</ele>
        <time>2014-04-27T07:39:55.000Z</time>
      </trkpt>
      <trkpt lat="48.97201" lon="1.05949">
        <ele>199.60000610352</ele>
        <time>2014-04-27T07:39:59.000Z</time>
      </trkpt>
      <trkpt lat="48.97205" lon="1.05929">
        <ele>199.60000610352</ele>
        <time>2014-04-27T07:40:02.000Z</time>
      </trkpt>
      <trkpt lat="48.97207" lon="1.05908">
        <ele>199.39999389648</ele>
        <time>2014-04-27T07:40:05.000Z</time>
      </trkpt>
      <trkpt lat="48.97208" lon="1.05901">
        <ele>199.60000610352</ele>
        <time>2014-04-27T07:40:06.000Z</time>
      </trkpt>
      <trkpt lat="48.97213" lon="1.05869">
        <ele>200</ele>
        <time>2014-04-27T07:40:11.000Z</time>
      </trkpt>
      <trkpt lat="48.97218" lon="1.05834">
        <ele>200.19999694824</ele>
        <time>2014-04-27T07:40:16.000Z</time>
      </trkpt>
      <trkpt lat="48.97219" lon="1.05821">
        <ele>200.39999389648</ele>
        <time>2014-04-27T07:40:18.000Z</time>
      </trkpt>
      <trkpt lat="48.97222" lon="1.05799">
        <ele>200.39999389648</ele>
        <time>2014-04-27T07:40:21.000Z</time>
      </trkpt>
      <trkpt lat="48.97224" lon="1.05787">
        <ele>200.39999389648</ele>
        <time>2014-04-27T07:40:23.000Z</time>
      </trkpt>
      <trkpt lat="48.97228" lon="1.05767">
        <ele>200.39999389648</ele>
        <time>2014-04-27T07:40:26.000Z</time>
      </trkpt>
      <trkpt lat="48.97231" lon="1.05747">
        <ele>200.19999694824</ele>
        <time>2014-04-27T07:40:29.000Z</time>
      </trkpt>
      <trkpt lat="48.97231" lon="1.05741">
        <ele>200</ele>
        <time>2014-04-27T07:40:30.000Z</time>
      </trkpt>
      <trkpt lat="48.9723" lon="1.05709">
        <ele>199.80000305176</ele>
        <time>2014-04-27T07:40:35.000Z</time>
      </trkpt>
      <trkpt lat="48.97233" lon="1.05696">
        <ele>199.80000305176</ele>
        <time>2014-04-27T07:40:39.000Z</time>
      </trkpt>
      <trkpt lat="48.97234" lon="1.05693">
        <ele>199.39999389648</ele>
        <time>2014-04-27T07:40:45.000Z</time>
      </trkpt>
      <trkpt lat="48.97235" lon="1.05687">
        <ele>199.60000610352</ele>
        <time>2014-04-27T07:40:57.000Z</time>
      </trkpt>
      <trkpt lat="48.97241" lon="1.05678">
        <ele>199.60000610352</ele>
        <time>2014-04-27T07:41:03.000Z</time>
      </trkpt>
      <trkpt lat="48.9725" lon="1.05665">
        <ele>199.60000610352</ele>
        <time>2014-04-27T07:41:07.000Z</time>
      </trkpt>
      <trkpt lat="48.9726" lon="1.05654">
        <ele>199.60000610352</ele>
        <time>2014-04-27T07:41:10.000Z</time>
      </trkpt>
      <trkpt lat="48.97263" lon="1.0565">
        <ele>199.39999389648</ele>
        <time>2014-04-27T07:41:11.000Z</time>
      </trkpt>
      <trkpt lat="48.9727" lon="1.05638">
        <ele>199.39999389648</ele>
        <time>2014-04-27T07:41:14.000Z</time>
      </trkpt>
      <trkpt lat="48.97274" lon="1.05634">
        <ele>199.39999389648</ele>
        <time>2014-04-27T07:41:15.000Z</time>
      </trkpt>
      <trkpt lat="48.9728" lon="1.05623">
        <ele>199.19999694824</ele>
        <time>2014-04-27T07:41:18.000Z</time>
      </trkpt>
      <trkpt lat="48.97282" lon="1.05619">
        <ele>199</ele>
        <time>2014-04-27T07:41:19.000Z</time>
      </trkpt>
      <trkpt lat="48.97287" lon="1.05613">
        <ele>198.80000305176</ele>
        <time>2014-04-27T07:41:21.000Z</time>
      </trkpt>
      <trkpt lat="48.9729" lon="1.05611">
        <ele>198.80000305176</ele>
        <time>2014-04-27T07:41:22.000Z</time>
      </trkpt>
      <trkpt lat="48.97307" lon="1.05593">
        <ele>198.80000305176</ele>
        <time>2014-04-27T07:41:25.000Z</time>
      </trkpt>
      <trkpt lat="48.97311" lon="1.05588">
        <ele>198.80000305176</ele>
        <time>2014-04-27T07:41:26.000Z</time>
      </trkpt>
      <trkpt lat="48.9733" lon="1.05558">
        <ele>198.19999694824</ele>
        <time>2014-04-27T07:41:32.000Z</time>
      </trkpt>
      <trkpt lat="48.97334" lon="1.05552">
        <ele>198</ele>
        <time>2014-04-27T07:41:34.000Z</time>
      </trkpt>
      <trkpt lat="48.97337" lon="1.05546">
        <ele>197.80000305176</ele>
        <time>2014-04-27T07:41:37.000Z</time>
      </trkpt>
      <trkpt lat="48.97341" lon="1.05535">
        <ele>197.80000305176</ele>
        <time>2014-04-27T07:41:41.000Z</time>
      </trkpt>
      <trkpt lat="48.97343" lon="1.05531">
        <ele>197.80000305176</ele>
        <time>2014-04-27T07:41:42.000Z</time>
      </trkpt>
      <trkpt lat="48.97355" lon="1.05507">
        <ele>198</ele>
        <time>2014-04-27T07:41:48.000Z</time>
      </trkpt>
      <trkpt lat="48.9737" lon="1.05482">
        <ele>198</ele>
        <time>2014-04-27T07:41:55.000Z</time>
      </trkpt>
      <trkpt lat="48.97381" lon="1.05463">
        <ele>197.80000305176</ele>
        <time>2014-04-27T07:42:00.000Z</time>
      </trkpt>
      <trkpt lat="48.97394" lon="1.0544">
        <ele>198.19999694824</ele>
        <time>2014-04-27T07:42:06.000Z</time>
      </trkpt>
      <trkpt lat="48.97406" lon="1.05421">
        <ele>197.80000305176</ele>
        <time>2014-04-27T07:42:11.000Z</time>
      </trkpt>
      <trkpt lat="48.97419" lon="1.05404">
        <ele>197.19999694824</ele>
        <time>2014-04-27T07:42:16.000Z</time>
      </trkpt>
      <trkpt lat="48.97429" lon="1.05389">
        <ele>197.19999694824</ele>
        <time>2014-04-27T07:42:21.000Z</time>
      </trkpt>
      <trkpt lat="48.97436" lon="1.05378">
        <ele>197.19999694824</ele>
        <time>2014-04-27T07:42:26.000Z</time>
      </trkpt>
      <trkpt lat="48.97439" lon="1.05375">
        <ele>197.39999389648</ele>
        <time>2014-04-27T07:42:31.000Z</time>
      </trkpt>
      <trkpt lat="48.97441" lon="1.05376">
        <ele>197.19999694824</ele>
        <time>2014-04-27T07:42:35.000Z</time>
      </trkpt>
      <trkpt lat="48.97443" lon="1.05376">
        <ele>197.39999389648</ele>
        <time>2014-04-27T07:42:36.000Z</time>
      </trkpt>
      <trkpt lat="48.97443" lon="1.05377">
        <ele>197.39999389648</ele>
        <time>2014-04-27T07:42:38.000Z</time>
      </trkpt>
      <trkpt lat="48.97443" lon="1.05377">
        <ele>197.39999389648</ele>
        <time>2014-04-27T07:42:39.000Z</time>
      </trkpt>
      <trkpt lat="48.97443" lon="1.05376">
        <ele>197.60000610352</ele>
        <time>2014-04-27T07:42:46.000Z</time>
      </trkpt>
      <trkpt lat="48.97443" lon="1.05374">
        <ele>197.19999694824</ele>
        <time>2014-04-27T07:42:52.000Z</time>
      </trkpt>
      <trkpt lat="48.97443" lon="1.05372">
        <ele>197.19999694824</ele>
        <time>2014-04-27T07:42:59.000Z</time>
      </trkpt>
      <trkpt lat="48.97442" lon="1.05369">
        <ele>197</ele>
        <time>2014-04-27T07:43:07.000Z</time>
      </trkpt>
      <trkpt lat="48.97442" lon="1.05369">
        <ele>196.80000305176</ele>
        <time>2014-04-27T07:43:08.000Z</time>
      </trkpt>
      <trkpt lat="48.97441" lon="1.05367">
        <ele>196.39999389648</ele>
        <time>2014-04-27T07:43:15.000Z</time>
      </trkpt>
      <trkpt lat="48.97442" lon="1.0537">
        <ele>196.60000610352</ele>
        <time>2014-04-27T07:43:19.000Z</time>
      </trkpt>
      <trkpt lat="48.97442" lon="1.05369">
        <ele>197.39999389648</ele>
        <time>2014-04-27T07:43:25.000Z</time>
      </trkpt>
      <trkpt lat="48.97441" lon="1.05369">
        <ele>197.19999694824</ele>
        <time>2014-04-27T07:43:32.000Z</time>
      </trkpt>
      <trkpt lat="48.97439" lon="1.05367">
        <ele>196.39999389648</ele>
        <time>2014-04-27T07:43:42.000Z</time>
      </trkpt>
      <trkpt lat="48.97439" lon="1.05365">
        <ele>196</ele>
        <time>2014-04-27T07:43:54.000Z</time>
      </trkpt>
      <trkpt lat="48.97439" lon="1.05366">
        <ele>196</ele>
        <time>2014-04-27T07:44:06.000Z</time>
      </trkpt>
      <trkpt lat="48.9744" lon="1.05368">
        <ele>196.80000305176</ele>
        <time>2014-04-27T07:44:16.000Z</time>
      </trkpt>
      <trkpt lat="48.9744" lon="1.05368">
        <ele>197</ele>
        <time>2014-04-27T07:44:22.000Z</time>
      </trkpt>
      <trkpt lat="48.97439" lon="1.05367">
        <ele>197</ele>
        <time>2014-04-27T07:44:23.000Z</time>
      </trkpt>
      <trkpt lat="48.97439" lon="1.05366">
        <ele>197</ele>
        <time>2014-04-27T07:44:26.000Z</time>
      </trkpt>
      <trkpt lat="48.9744" lon="1.05368">
        <ele>197.80000305176</ele>
        <time>2014-04-27T07:44:34.000Z</time>
      </trkpt>
      <trkpt lat="48.9744" lon="1.05368">
        <ele>197.80000305176</ele>
        <time>2014-04-27T07:44:35.000Z</time>
      </trkpt>
      <trkpt lat="48.9744" lon="1.05368">
        <ele>197.80000305176</ele>
        <time>2014-04-27T07:44:41.000Z</time>
      </trkpt>
      <trkpt lat="48.9744" lon="1.05365">
        <ele>197.19999694824</ele>
        <time>2014-04-27T07:44:51.000Z</time>
      </trkpt>
      <trkpt lat="48.97439" lon="1.05364">
        <ele>197.19999694824</ele>
        <time>2014-04-27T07:44:57.000Z</time>
      </trkpt>
      <trkpt lat="48.97439" lon="1.05363">
        <ele>197.60000610352</ele>
        <time>2014-04-27T07:45:05.000Z</time>
      </trkpt>
      <trkpt lat="48.97439" lon="1.05364">
        <ele>197.39999389648</ele>
        <time>2014-04-27T07:45:11.000Z</time>
      </trkpt>
      <trkpt lat="48.9744" lon="1.05363">
        <ele>197.60000610352</ele>
        <time>2014-04-27T07:45:13.000Z</time>
      </trkpt>
      <trkpt lat="48.9744" lon="1.05363">
        <ele>197.80000305176</ele>
        <time>2014-04-27T07:45:15.000Z</time>
      </trkpt>
      <trkpt lat="48.9744" lon="1.05362">
        <ele>197.80000305176</ele>
        <time>2014-04-27T07:45:22.000Z</time>
      </trkpt>
      <trkpt lat="48.9744" lon="1.0536">
        <ele>197.60000610352</ele>
        <time>2014-04-27T07:45:33.000Z</time>
      </trkpt>
      <trkpt lat="48.97439" lon="1.05358">
        <ele>197.80000305176</ele>
        <time>2014-04-27T07:45:35.000Z</time>
      </trkpt>
      <trkpt lat="48.97438" lon="1.05356">
        <ele>197.60000610352</ele>
        <time>2014-04-27T07:45:39.000Z</time>
      </trkpt>
      <trkpt lat="48.97436" lon="1.05355">
        <ele>197.19999694824</ele>
        <time>2014-04-27T07:45:49.000Z</time>
      </trkpt>
      <trkpt lat="48.97436" lon="1.05353">
        <ele>197.39999389648</ele>
        <time>2014-04-27T07:45:50.000Z</time>
      </trkpt>
      <trkpt lat="48.97435" lon="1.05346">
        <ele>198.19999694824</ele>
        <time>2014-04-27T07:45:54.000Z</time>
      </trkpt>
      <trkpt lat="48.97433" lon="1.05334">
        <ele>199</ele>
        <time>2014-04-27T07:45:59.000Z</time>
      </trkpt>
      <trkpt lat="48.97432" lon="1.05331">
        <ele>199.19999694824</ele>
        <time>2014-04-27T07:46:00.000Z</time>
      </trkpt>
      <trkpt lat="48.97431" lon="1.05323">
        <ele>200</ele>
        <time>2014-04-27T07:46:03.000Z</time>
      </trkpt>
      <trkpt lat="48.97428" lon="1.05314">
        <ele>200.19999694824</ele>
        <time>2014-04-27T07:46:06.000Z</time>
      </trkpt>
      <trkpt lat="48.97423" lon="1.0529">
        <ele>201.19999694824</ele>
        <time>2014-04-27T07:46:13.000Z</time>
      </trkpt>
      <trkpt lat="48.9742" lon="1.05278">
        <ele>201.80000305176</ele>
        <time>2014-04-27T07:46:18.000Z</time>
      </trkpt>
      <trkpt lat="48.97418" lon="1.05273">
        <ele>202.19999694824</ele>
        <time>2014-04-27T07:46:21.000Z</time>
      </trkpt>
      <trkpt lat="48.97416" lon="1.05265">
        <ele>202.39999389648</ele>
        <time>2014-04-27T07:46:24.000Z</time>
      </trkpt>
      <trkpt lat="48.97414" lon="1.05252">
        <ele>202.60000610352</ele>
        <time>2014-04-27T07:46:29.000Z</time>
      </trkpt>
      <trkpt lat="48.97412" lon="1.05241">
        <ele>203</ele>
        <time>2014-04-27T07:46:33.000Z</time>
      </trkpt>
      <trkpt lat="48.97411" lon="1.05237">
        <ele>203.19999694824</ele>
        <time>2014-04-27T07:46:34.000Z</time>
      </trkpt>
      <trkpt lat="48.97408" lon="1.05224">
        <ele>203.39999389648</ele>
        <time>2014-04-27T07:46:38.000Z</time>
      </trkpt>
      <trkpt lat="48.97408" lon="1.0522">
        <ele>203.60000610352</ele>
        <time>2014-04-27T07:46:39.000Z</time>
      </trkpt>
      <trkpt lat="48.97408" lon="1.05214">
        <ele>203.80000305176</ele>
        <time>2014-04-27T07:46:41.000Z</time>
      </trkpt>
      <trkpt lat="48.97407" lon="1.05208">
        <ele>203.60000610352</ele>
        <time>2014-04-27T07:46:43.000Z</time>
      </trkpt>
      <trkpt lat="48.97406" lon="1.05202">
        <ele>203.80000305176</ele>
        <time>2014-04-27T07:46:45.000Z</time>
      </trkpt>
      <trkpt lat="48.97404" lon="1.05193">
        <ele>204.19999694824</ele>
        <time>2014-04-27T07:46:48.000Z</time>
      </trkpt>
      <trkpt lat="48.97403" lon="1.05189">
        <ele>204.19999694824</ele>
        <time>2014-04-27T07:46:49.000Z</time>
      </trkpt>
      <trkpt lat="48.97401" lon="1.05175">
        <ele>204.80000305176</ele>
        <time>2014-04-27T07:46:53.000Z</time>
      </trkpt>
      <trkpt lat="48.97398" lon="1.0516">
        <ele>205</ele>
        <time>2014-04-27T07:46:58.000Z</time>
      </trkpt>
      <trkpt lat="48.97394" lon="1.05147">
        <ele>205.39999389648</ele>
        <time>2014-04-27T07:47:02.000Z</time>
      </trkpt>
      <trkpt lat="48.97393" lon="1.05143">
        <ele>205.39999389648</ele>
        <time>2014-04-27T07:47:03.000Z</time>
      </trkpt>
      <trkpt lat="48.97392" lon="1.05138">
        <ele>205.60000610352</ele>
        <time>2014-04-27T07:47:05.000Z</time>
      </trkpt>
      <trkpt lat="48.9739" lon="1.05136">
        <ele>205.60000610352</ele>
        <time>2014-04-27T07:47:07.000Z</time>
      </trkpt>
      <trkpt lat="48.97388" lon="1.05131">
        <ele>205.80000305176</ele>
        <time>2014-04-27T07:47:14.000Z</time>
      </trkpt>
      <trkpt lat="48.97387" lon="1.05127">
        <ele>206.19999694824</ele>
        <time>2014-04-27T07:47:22.000Z</time>
      </trkpt>
      <trkpt lat="48.97385" lon="1.05123">
        <ele>205.80000305176</ele>
        <time>2014-04-27T07:47:32.000Z</time>
      </trkpt>
      <trkpt lat="48.97384" lon="1.05124">
        <ele>205.80000305176</ele>
        <time>2014-04-27T07:47:33.000Z</time>
      </trkpt>
      <trkpt lat="48.97382" lon="1.0513">
        <ele>205.80000305176</ele>
        <time>2014-04-27T07:47:36.000Z</time>
      </trkpt>
      <trkpt lat="48.97378" lon="1.05134">
        <ele>205.80000305176</ele>
        <time>2014-04-27T07:47:38.000Z</time>
      </trkpt>
      <trkpt lat="48.97374" lon="1.05141">
        <ele>205.80000305176</ele>
        <time>2014-04-27T07:47:41.000Z</time>
      </trkpt>
      <trkpt lat="48.97364" lon="1.05159">
        <ele>205.80000305176</ele>
        <time>2014-04-27T07:47:47.000Z</time>
      </trkpt>
      <trkpt lat="48.97358" lon="1.05172">
        <ele>205.80000305176</ele>
        <time>2014-04-27T07:47:52.000Z</time>
      </trkpt>
      <trkpt lat="48.97352" lon="1.05179">
        <ele>205.39999389648</ele>
        <time>2014-04-27T07:47:56.000Z</time>
      </trkpt>
      <trkpt lat="48.9735" lon="1.05179">
        <ele>205.39999389648</ele>
        <time>2014-04-27T07:47:57.000Z</time>
      </trkpt>
      <trkpt lat="48.97346" lon="1.05172">
        <ele>205.60000610352</ele>
        <time>2014-04-27T07:48:01.000Z</time>
      </trkpt>
      <trkpt lat="48.97339" lon="1.0516">
        <ele>206.19999694824</ele>
        <time>2014-04-27T07:48:06.000Z</time>
      </trkpt>
      <trkpt lat="48.97332" lon="1.05148">
        <ele>206.39999389648</ele>
        <time>2014-04-27T07:48:11.000Z</time>
      </trkpt>
      <trkpt lat="48.97323" lon="1.05134">
        <ele>206.60000610352</ele>
        <time>2014-04-27T07:48:16.000Z</time>
      </trkpt>
      <trkpt lat="48.97315" lon="1.0512">
        <ele>206.60000610352</ele>
        <time>2014-04-27T07:48:22.000Z</time>
      </trkpt>
      <trkpt lat="48.97306" lon="1.05106">
        <ele>206.80000305176</ele>
        <time>2014-04-27T07:48:28.000Z</time>
      </trkpt>
      <trkpt lat="48.97298" lon="1.05092">
        <ele>207.19999694824</ele>
        <time>2014-04-27T07:48:34.000Z</time>
      </trkpt>
      <trkpt lat="48.97289" lon="1.05073">
        <ele>206.80000305176</ele>
        <time>2014-04-27T07:48:39.000Z</time>
      </trkpt>
      <trkpt lat="48.97275" lon="1.05047">
        <ele>207.19999694824</ele>
        <time>2014-04-27T07:48:46.000Z</time>
      </trkpt>
      <trkpt lat="48.97262" lon="1.05025">
        <ele>207</ele>
        <time>2014-04-27T07:48:52.000Z</time>
      </trkpt>
      <trkpt lat="48.97259" lon="1.05022">
        <ele>207</ele>
        <time>2014-04-27T07:48:53.000Z</time>
      </trkpt>
      <trkpt lat="48.97256" lon="1.05015">
        <ele>206.80000305176</ele>
        <time>2014-04-27T07:48:55.000Z</time>
      </trkpt>
      <trkpt lat="48.97249" lon="1.05004">
        <ele>206.60000610352</ele>
        <time>2014-04-27T07:48:59.000Z</time>
      </trkpt>
      <trkpt lat="48.97238" lon="1.04983">
        <ele>206.60000610352</ele>
        <time>2014-04-27T07:49:06.000Z</time>
      </trkpt>
      <trkpt lat="48.9723" lon="1.04968">
        <ele>206.60000610352</ele>
        <time>2014-04-27T07:49:11.000Z</time>
      </trkpt>
      <trkpt lat="48.97217" lon="1.04949">
        <ele>206.19999694824</ele>
        <time>2014-04-27T07:49:16.000Z</time>
      </trkpt>
      <trkpt lat="48.97203" lon="1.04921">
        <ele>206.39999389648</ele>
        <time>2014-04-27T07:49:22.000Z</time>
      </trkpt>
      <trkpt lat="48.972" lon="1.04915">
        <ele>206.39999389648</ele>
        <time>2014-04-27T07:49:23.000Z</time>
      </trkpt>
      <trkpt lat="48.97189" lon="1.04896">
        <ele>206.60000610352</ele>
        <time>2014-04-27T07:49:26.000Z</time>
      </trkpt>
      <trkpt lat="48.97185" lon="1.04891">
        <ele>206.39999389648</ele>
        <time>2014-04-27T07:49:27.000Z</time>
      </trkpt>
      <trkpt lat="48.97173" lon="1.04869">
        <ele>206.19999694824</ele>
        <time>2014-04-27T07:49:30.000Z</time>
      </trkpt>
      <trkpt lat="48.97157" lon="1.04842">
        <ele>206.19999694824</ele>
        <time>2014-04-27T07:49:34.000Z</time>
      </trkpt>
      <trkpt lat="48.97147" lon="1.04825">
        <ele>205.60000610352</ele>
        <time>2014-04-27T07:49:37.000Z</time>
      </trkpt>
      <trkpt lat="48.97141" lon="1.04815">
        <ele>205.19999694824</ele>
        <time>2014-04-27T07:49:39.000Z</time>
      </trkpt>
      <trkpt lat="48.97137" lon="1.04805">
        <ele>205</ele>
        <time>2014-04-27T07:49:41.000Z</time>
      </trkpt>
      <trkpt lat="48.97125" lon="1.04784">
        <ele>204</ele>
        <time>2014-04-27T07:49:46.000Z</time>
      </trkpt>
      <trkpt lat="48.97123" lon="1.04781">
        <ele>203.80000305176</ele>
        <time>2014-04-27T07:49:47.000Z</time>
      </trkpt>
      <trkpt lat="48.97109" lon="1.04759">
        <ele>204.39999389648</ele>
        <time>2014-04-27T07:49:52.000Z</time>
      </trkpt>
      <trkpt lat="48.97093" lon="1.04731">
        <ele>203.80000305176</ele>
        <time>2014-04-27T07:49:58.000Z</time>
      </trkpt>
      <trkpt lat="48.97077" lon="1.04705">
        <ele>203.19999694824</ele>
        <time>2014-04-27T07:50:04.000Z</time>
      </trkpt>
      <trkpt lat="48.97065" lon="1.04688">
        <ele>203.19999694824</ele>
        <time>2014-04-27T07:50:09.000Z</time>
      </trkpt>
      <trkpt lat="48.97056" lon="1.04673">
        <ele>203.39999389648</ele>
        <time>2014-04-27T07:50:13.000Z</time>
      </trkpt>
      <trkpt lat="48.97053" lon="1.04667">
        <ele>203.39999389648</ele>
        <time>2014-04-27T07:50:15.000Z</time>
      </trkpt>
      <trkpt lat="48.97049" lon="1.04659">
        <ele>203.39999389648</ele>
        <time>2014-04-27T07:50:17.000Z</time>
      </trkpt>
      <trkpt lat="48.97036" lon="1.04636">
        <ele>203.39999389648</ele>
        <time>2014-04-27T07:50:22.000Z</time>
      </trkpt>
      <trkpt lat="48.97026" lon="1.0462">
        <ele>203.39999389648</ele>
        <time>2014-04-27T07:50:26.000Z</time>
      </trkpt>
      <trkpt lat="48.97017" lon="1.04601">
        <ele>203</ele>
        <time>2014-04-27T07:50:31.000Z</time>
      </trkpt>
      <trkpt lat="48.97009" lon="1.04587">
        <ele>203</ele>
        <time>2014-04-27T07:50:35.000Z</time>
      </trkpt>
      <trkpt lat="48.96999" lon="1.0457">
        <ele>202.80000305176</ele>
        <time>2014-04-27T07:50:40.000Z</time>
      </trkpt>
      <trkpt lat="48.96993" lon="1.04557">
        <ele>202.60000610352</ele>
        <time>2014-04-27T07:50:45.000Z</time>
      </trkpt>
      <trkpt lat="48.96986" lon="1.04545">
        <ele>202.60000610352</ele>
        <time>2014-04-27T07:50:51.000Z</time>
      </trkpt>
      <trkpt lat="48.96979" lon="1.04532">
        <ele>202.60000610352</ele>
        <time>2014-04-27T07:50:57.000Z</time>
      </trkpt>
      <trkpt lat="48.96971" lon="1.04517">
        <ele>202.39999389648</ele>
        <time>2014-04-27T07:51:01.000Z</time>
      </trkpt>
      <trkpt lat="48.9696" lon="1.04498">
        <ele>202.80000305176</ele>
        <time>2014-04-27T07:51:07.000Z</time>
      </trkpt>
      <trkpt lat="48.9695" lon="1.04481">
        <ele>203</ele>
        <time>2014-04-27T07:51:12.000Z</time>
      </trkpt>
      <trkpt lat="48.96938" lon="1.0446">
        <ele>202.80000305176</ele>
        <time>2014-04-27T07:51:17.000Z</time>
      </trkpt>
      <trkpt lat="48.96925" lon="1.04436">
        <ele>202.60000610352</ele>
        <time>2014-04-27T07:51:22.000Z</time>
      </trkpt>
      <trkpt lat="48.96915" lon="1.04418">
        <ele>202.19999694824</ele>
        <time>2014-04-27T07:51:26.000Z</time>
      </trkpt>
      <trkpt lat="48.96907" lon="1.04403">
        <ele>202</ele>
        <time>2014-04-27T07:51:29.000Z</time>
      </trkpt>
      <trkpt lat="48.96899" lon="1.04389">
        <ele>201.80000305176</ele>
        <time>2014-04-27T07:51:32.000Z</time>
      </trkpt>
      <trkpt lat="48.96885" lon="1.04361">
        <ele>201.19999694824</ele>
        <time>2014-04-27T07:51:37.000Z</time>
      </trkpt>
      <trkpt lat="48.96871" lon="1.04337">
        <ele>200.80000305176</ele>
        <time>2014-04-27T07:51:42.000Z</time>
      </trkpt>
      <trkpt lat="48.96866" lon="1.04328">
        <ele>199.60000610352</ele>
        <time>2014-04-27T07:51:44.000Z</time>
      </trkpt>
      <trkpt lat="48.9685" lon="1.043">
        <ele>199.19999694824</ele>
        <time>2014-04-27T07:51:50.000Z</time>
      </trkpt>
      <trkpt lat="48.96842" lon="1.04286">
        <ele>198.60000610352</ele>
        <time>2014-04-27T07:51:53.000Z</time>
      </trkpt>
      <trkpt lat="48.9684" lon="1.04281">
        <ele>198.60000610352</ele>
        <time>2014-04-27T07:51:54.000Z</time>
      </trkpt>
      <trkpt lat="48.96825" lon="1.04257">
        <ele>197.39999389648</ele>
        <time>2014-04-27T07:52:00.000Z</time>
      </trkpt>
      <trkpt lat="48.96823" lon="1.04253">
        <ele>197.19999694824</ele>
        <time>2014-04-27T07:52:01.000Z</time>
      </trkpt>
      <trkpt lat="48.96807" lon="1.04227">
        <ele>197.19999694824</ele>
        <time>2014-04-27T07:52:07.000Z</time>
      </trkpt>
      <trkpt lat="48.96789" lon="1.04196">
        <ele>196.39999389648</ele>
        <time>2014-04-27T07:52:14.000Z</time>
      </trkpt>
      <trkpt lat="48.96786" lon="1.04191">
        <ele>196.60000610352</ele>
        <time>2014-04-27T07:52:15.000Z</time>
      </trkpt>
      <trkpt lat="48.96776" lon="1.04173">
        <ele>195</ele>
        <time>2014-04-27T07:52:19.000Z</time>
      </trkpt>
      <trkpt lat="48.96771" lon="1.04164">
        <ele>194.39999389648</ele>
        <time>2014-04-27T07:52:21.000Z</time>
      </trkpt>
      <trkpt lat="48.96766" lon="1.04155">
        <ele>193.80000305176</ele>
        <time>2014-04-27T07:52:23.000Z</time>
      </trkpt>
      <trkpt lat="48.9676" lon="1.04146">
        <ele>193.60000610352</ele>
        <time>2014-04-27T07:52:25.000Z</time>
      </trkpt>
      <trkpt lat="48.96743" lon="1.04116">
        <ele>192.80000305176</ele>
        <time>2014-04-27T07:52:31.000Z</time>
      </trkpt>
      <trkpt lat="48.96728" lon="1.0409">
        <ele>192</ele>
        <time>2014-04-27T07:52:35.000Z</time>
      </trkpt>
      <trkpt lat="48.96724" lon="1.04083">
        <ele>191.80000305176</ele>
        <time>2014-04-27T07:52:36.000Z</time>
      </trkpt>
      <trkpt lat="48.96719" lon="1.04075">
        <ele>191</ele>
        <time>2014-04-27T07:52:37.000Z</time>
      </trkpt>
      <trkpt lat="48.96705" lon="1.0405">
        <ele>189.19999694824</ele>
        <time>2014-04-27T07:52:40.000Z</time>
      </trkpt>
      <trkpt lat="48.96694" lon="1.0403">
        <ele>187.39999389648</ele>
        <time>2014-04-27T07:52:42.000Z</time>
      </trkpt>
      <trkpt lat="48.96684" lon="1.04012">
        <ele>185.60000610352</ele>
        <time>2014-04-27T07:52:44.000Z</time>
      </trkpt>
      <trkpt lat="48.96679" lon="1.04004">
        <ele>185.39999389648</ele>
        <time>2014-04-27T07:52:45.000Z</time>
      </trkpt>
      <trkpt lat="48.96663" lon="1.03971">
        <ele>184.39999389648</ele>
        <time>2014-04-27T07:52:49.000Z</time>
      </trkpt>
      <trkpt lat="48.9666" lon="1.03962">
        <ele>184</ele>
        <time>2014-04-27T07:52:50.000Z</time>
      </trkpt>
      <trkpt lat="48.96657" lon="1.03952">
        <ele>183.19999694824</ele>
        <time>2014-04-27T07:52:51.000Z</time>
      </trkpt>
      <trkpt lat="48.96652" lon="1.03935">
        <ele>182</ele>
        <time>2014-04-27T07:52:53.000Z</time>
      </trkpt>
      <trkpt lat="48.96649" lon="1.03927">
        <ele>181.60000610352</ele>
        <time>2014-04-27T07:52:54.000Z</time>
      </trkpt>
      <trkpt lat="48.96645" lon="1.03923">
        <ele>180.80000305176</ele>
        <time>2014-04-27T07:52:55.000Z</time>
      </trkpt>
      <trkpt lat="48.96637" lon="1.03913">
        <ele>178.80000305176</ele>
        <time>2014-04-27T07:52:57.000Z</time>
      </trkpt>
      <trkpt lat="48.96634" lon="1.03907">
        <ele>177.80000305176</ele>
        <time>2014-04-27T07:52:58.000Z</time>
      </trkpt>
      <trkpt lat="48.96631" lon="1.039">
        <ele>176.60000610352</ele>
        <time>2014-04-27T07:52:59.000Z</time>
      </trkpt>
      <trkpt lat="48.96626" lon="1.03888">
        <ele>174.39999389648</ele>
        <time>2014-04-27T07:53:01.000Z</time>
      </trkpt>
      <trkpt lat="48.96623" lon="1.03884">
        <ele>173.80000305176</ele>
        <time>2014-04-27T07:53:02.000Z</time>
      </trkpt>
      <trkpt lat="48.9662" lon="1.0388">
        <ele>173</ele>
        <time>2014-04-27T07:53:03.000Z</time>
      </trkpt>
      <trkpt lat="48.96617" lon="1.03875">
        <ele>171.80000305176</ele>
        <time>2014-04-27T07:53:04.000Z</time>
      </trkpt>
      <trkpt lat="48.96614" lon="1.03871">
        <ele>170.60000610352</ele>
        <time>2014-04-27T07:53:05.000Z</time>
      </trkpt>
      <trkpt lat="48.96609" lon="1.03864">
        <ele>169</ele>
        <time>2014-04-27T07:53:07.000Z</time>
      </trkpt>
      <trkpt lat="48.96605" lon="1.03861">
        <ele>168</ele>
        <time>2014-04-27T07:53:09.000Z</time>
      </trkpt>
      <trkpt lat="48.96605" lon="1.0386">
        <ele>167.19999694824</ele>
        <time>2014-04-27T07:53:11.000Z</time>
      </trkpt>
      <trkpt lat="48.96605" lon="1.0386">
        <ele>166.80000305176</ele>
        <time>2014-04-27T07:53:12.000Z</time>
      </trkpt>
      <trkpt lat="48.96604" lon="1.0386">
        <ele>165.80000305176</ele>
        <time>2014-04-27T07:53:17.000Z</time>
      </trkpt>
      <trkpt lat="48.96599" lon="1.03857">
        <ele>165.60000610352</ele>
        <time>2014-04-27T07:53:23.000Z</time>
      </trkpt>
      <trkpt lat="48.96598" lon="1.03855">
        <ele>165.19999694824</ele>
        <time>2014-04-27T07:53:28.000Z</time>
      </trkpt>
      <trkpt lat="48.96597" lon="1.03852">
        <ele>165.19999694824</ele>
        <time>2014-04-27T07:53:38.000Z</time>
      </trkpt>
      <trkpt lat="48.96595" lon="1.03849">
        <ele>165.19999694824</ele>
        <time>2014-04-27T07:53:46.000Z</time>
      </trkpt>
      <trkpt lat="48.96596" lon="1.03838">
        <ele>165</ele>
        <time>2014-04-27T07:53:51.000Z</time>
      </trkpt>
      <trkpt lat="48.966" lon="1.03818">
        <ele>164.39999389648</ele>
        <time>2014-04-27T07:53:56.000Z</time>
      </trkpt>
      <trkpt lat="48.9661" lon="1.03787">
        <ele>164.19999694824</ele>
        <time>2014-04-27T07:54:01.000Z</time>
      </trkpt>
      <trkpt lat="48.96619" lon="1.03768">
        <ele>163.39999389648</ele>
        <time>2014-04-27T07:54:04.000Z</time>
      </trkpt>
      <trkpt lat="48.96626" lon="1.03743">
        <ele>162.60000610352</ele>
        <time>2014-04-27T07:54:07.000Z</time>
      </trkpt>
      <trkpt lat="48.96631" lon="1.03724">
        <ele>162.19999694824</ele>
        <time>2014-04-27T07:54:09.000Z</time>
      </trkpt>
      <trkpt lat="48.96638" lon="1.03684">
        <ele>161.19999694824</ele>
        <time>2014-04-27T07:54:13.000Z</time>
      </trkpt>
      <trkpt lat="48.9664" lon="1.03673">
        <ele>160.80000305176</ele>
        <time>2014-04-27T07:54:14.000Z</time>
      </trkpt>
      <trkpt lat="48.96645" lon="1.03638">
        <ele>159.80000305176</ele>
        <time>2014-04-27T07:54:17.000Z</time>
      </trkpt>
      <trkpt lat="48.96651" lon="1.03602">
        <ele>159.19999694824</ele>
        <time>2014-04-27T07:54:20.000Z</time>
      </trkpt>
      <trkpt lat="48.96656" lon="1.03567">
        <ele>158.39999389648</ele>
        <time>2014-04-27T07:54:23.000Z</time>
      </trkpt>
      <trkpt lat="48.96663" lon="1.03531">
        <ele>157.19999694824</ele>
        <time>2014-04-27T07:54:26.000Z</time>
      </trkpt>
      <trkpt lat="48.96665" lon="1.0352">
        <ele>157</ele>
        <time>2014-04-27T07:54:27.000Z</time>
      </trkpt>
      <trkpt lat="48.96678" lon="1.03442">
        <ele>156.19999694824</ele>
        <time>2014-04-27T07:54:34.000Z</time>
      </trkpt>
      <trkpt lat="48.96681" lon="1.0342">
        <ele>155.80000305176</ele>
        <time>2014-04-27T07:54:36.000Z</time>
      </trkpt>
      <trkpt lat="48.96693" lon="1.03351">
        <ele>155.60000610352</ele>
        <time>2014-04-27T07:54:43.000Z</time>
      </trkpt>
      <trkpt lat="48.96702" lon="1.03293">
        <ele>155.19999694824</ele>
        <time>2014-04-27T07:54:49.000Z</time>
      </trkpt>
      <trkpt lat="48.96707" lon="1.03266">
        <ele>155.39999389648</ele>
        <time>2014-04-27T07:54:52.000Z</time>
      </trkpt>
      <trkpt lat="48.96719" lon="1.03187">
        <ele>155.39999389648</ele>
        <time>2014-04-27T07:55:01.000Z</time>
      </trkpt>
      <trkpt lat="48.96728" lon="1.03138">
        <ele>155</ele>
        <time>2014-04-27T07:55:07.000Z</time>
      </trkpt>
      <trkpt lat="48.9673" lon="1.0313">
        <ele>155</ele>
        <time>2014-04-27T07:55:08.000Z</time>
      </trkpt>
      <trkpt lat="48.96735" lon="1.03103">
        <ele>154.80000305176</ele>
        <time>2014-04-27T07:55:11.000Z</time>
      </trkpt>
      <trkpt lat="48.96748" lon="1.03038">
        <ele>154.19999694824</ele>
        <time>2014-04-27T07:55:18.000Z</time>
      </trkpt>
      <trkpt lat="48.9675" lon="1.03019">
        <ele>154.19999694824</ele>
        <time>2014-04-27T07:55:20.000Z</time>
      </trkpt>
      <trkpt lat="48.96754" lon="1.02983">
        <ele>154.19999694824</ele>
        <time>2014-04-27T07:55:24.000Z</time>
      </trkpt>
      <trkpt lat="48.96771" lon="1.02898">
        <ele>153.80000305176</ele>
        <time>2014-04-27T07:55:34.000Z</time>
      </trkpt>
      <trkpt lat="48.96772" lon="1.02891">
        <ele>153.80000305176</ele>
        <time>2014-04-27T07:55:35.000Z</time>
      </trkpt>
      <trkpt lat="48.96786" lon="1.02832">
        <ele>153.39999389648</ele>
        <time>2014-04-27T07:55:42.000Z</time>
      </trkpt>
      <trkpt lat="48.9679" lon="1.02812">
        <ele>153</ele>
        <time>2014-04-27T07:55:45.000Z</time>
      </trkpt>
      <trkpt lat="48.96794" lon="1.02788">
        <ele>152.80000305176</ele>
        <time>2014-04-27T07:55:49.000Z</time>
      </trkpt>
      <trkpt lat="48.968" lon="1.02757">
        <ele>153.39999389648</ele>
        <time>2014-04-27T07:55:55.000Z</time>
      </trkpt>
      <trkpt lat="48.96806" lon="1.0274">
        <ele>153</ele>
        <time>2014-04-27T07:56:00.000Z</time>
      </trkpt>
      <trkpt lat="48.96807" lon="1.0272">
        <ele>153.19999694824</ele>
        <time>2014-04-27T07:56:04.000Z</time>
      </trkpt>
      <trkpt lat="48.96811" lon="1.0269">
        <ele>153.39999389648</ele>
        <time>2014-04-27T07:56:09.000Z</time>
      </trkpt>
      <trkpt lat="48.96812" lon="1.02685">
        <ele>153.39999389648</ele>
        <time>2014-04-27T07:56:10.000Z</time>
      </trkpt>
      <trkpt lat="48.96816" lon="1.02661">
        <ele>153.60000610352</ele>
        <time>2014-04-27T07:56:15.000Z</time>
      </trkpt>
      <trkpt lat="48.96818" lon="1.02648">
        <ele>154</ele>
        <time>2014-04-27T07:56:19.000Z</time>
      </trkpt>
      <trkpt lat="48.96819" lon="1.02643">
        <ele>154.19999694824</ele>
        <time>2014-04-27T07:56:20.000Z</time>
      </trkpt>
      <trkpt lat="48.96822" lon="1.02626">
        <ele>154</ele>
        <time>2014-04-27T07:56:23.000Z</time>
      </trkpt>
      <trkpt lat="48.96823" lon="1.02619">
        <ele>154</ele>
        <time>2014-04-27T07:56:24.000Z</time>
      </trkpt>
      <trkpt lat="48.96829" lon="1.0258">
        <ele>154.39999389648</ele>
        <time>2014-04-27T07:56:30.000Z</time>
      </trkpt>
      <trkpt lat="48.96835" lon="1.02547">
        <ele>154.80000305176</ele>
        <time>2014-04-27T07:56:36.000Z</time>
      </trkpt>
      <trkpt lat="48.96843" lon="1.02519">
        <ele>155.19999694824</ele>
        <time>2014-04-27T07:56:41.000Z</time>
      </trkpt>
      <trkpt lat="48.96846" lon="1.02513">
        <ele>155.39999389648</ele>
        <time>2014-04-27T07:56:42.000Z</time>
      </trkpt>
      <trkpt lat="48.9686" lon="1.02487">
        <ele>155.80000305176</ele>
        <time>2014-04-27T07:56:47.000Z</time>
      </trkpt>
      <trkpt lat="48.96869" lon="1.02474">
        <ele>156.19999694824</ele>
        <time>2014-04-27T07:56:50.000Z</time>
      </trkpt>
      <trkpt lat="48.96883" lon="1.02459">
        <ele>157.19999694824</ele>
        <time>2014-04-27T07:56:54.000Z</time>
      </trkpt>
      <trkpt lat="48.96889" lon="1.02452">
        <ele>157.39999389648</ele>
        <time>2014-04-27T07:56:56.000Z</time>
      </trkpt>
      <trkpt lat="48.969" lon="1.02439">
        <ele>157.60000610352</ele>
        <time>2014-04-27T07:57:00.000Z</time>
      </trkpt>
      <trkpt lat="48.96907" lon="1.0243">
        <ele>157.80000305176</ele>
        <time>2014-04-27T07:57:04.000Z</time>
      </trkpt>
      <trkpt lat="48.96906" lon="1.02429">
        <ele>157.80000305176</ele>
        <time>2014-04-27T07:57:05.000Z</time>
      </trkpt>
      <trkpt lat="48.96903" lon="1.02432">
        <ele>157.80000305176</ele>
        <time>2014-04-27T07:57:08.000Z</time>
      </trkpt>
      <trkpt lat="48.969" lon="1.02437">
        <ele>157.80000305176</ele>
        <time>2014-04-27T07:57:10.000Z</time>
      </trkpt>
      <trkpt lat="48.96891" lon="1.02448">
        <ele>157.80000305176</ele>
        <time>2014-04-27T07:57:14.000Z</time>
      </trkpt>
      <trkpt lat="48.9688" lon="1.02463">
        <ele>157.80000305176</ele>
        <time>2014-04-27T07:57:18.000Z</time>
      </trkpt>
      <trkpt lat="48.96876" lon="1.02468">
        <ele>157.60000610352</ele>
        <time>2014-04-27T07:57:19.000Z</time>
      </trkpt>
      <trkpt lat="48.96852" lon="1.02503">
        <ele>157.39999389648</ele>
        <time>2014-04-27T07:57:26.000Z</time>
      </trkpt>
      <trkpt lat="48.96846" lon="1.02515">
        <ele>157.19999694824</ele>
        <time>2014-04-27T07:57:28.000Z</time>
      </trkpt>
      <trkpt lat="48.96844" lon="1.02522">
        <ele>157.19999694824</ele>
        <time>2014-04-27T07:57:29.000Z</time>
      </trkpt>
      <trkpt lat="48.96839" lon="1.02536">
        <ele>156.80000305176</ele>
        <time>2014-04-27T07:57:31.000Z</time>
      </trkpt>
      <trkpt lat="48.96835" lon="1.0255">
        <ele>156.39999389648</ele>
        <time>2014-04-27T07:57:33.000Z</time>
      </trkpt>
      <trkpt lat="48.96829" lon="1.02571">
        <ele>155.19999694824</ele>
        <time>2014-04-27T07:57:36.000Z</time>
      </trkpt>
      <trkpt lat="48.96826" lon="1.02585">
        <ele>155</ele>
        <time>2014-04-27T07:57:38.000Z</time>
      </trkpt>
      <trkpt lat="48.9682" lon="1.0262">
        <ele>155</ele>
        <time>2014-04-27T07:57:43.000Z</time>
      </trkpt>
      <trkpt lat="48.96818" lon="1.02633">
        <ele>155</ele>
        <time>2014-04-27T07:57:45.000Z</time>
      </trkpt>
      <trkpt lat="48.96809" lon="1.02663">
        <ele>154.19999694824</ele>
        <time>2014-04-27T07:57:51.000Z</time>
      </trkpt>
      <trkpt lat="48.96809" lon="1.02666">
        <ele>154.19999694824</ele>
        <time>2014-04-27T07:57:52.000Z</time>
      </trkpt>
      <trkpt lat="48.96811" lon="1.02672">
        <ele>154.19999694824</ele>
        <time>2014-04-27T07:57:55.000Z</time>
      </trkpt>
      <trkpt lat="48.96814" lon="1.02666">
        <ele>154.19999694824</ele>
        <time>2014-04-27T07:57:58.000Z</time>
      </trkpt>
      <trkpt lat="48.96812" lon="1.02658">
        <ele>154</ele>
        <time>2014-04-27T07:58:04.000Z</time>
      </trkpt>
      <trkpt lat="48.96809" lon="1.02669">
        <ele>154.19999694824</ele>
        <time>2014-04-27T07:58:09.000Z</time>
      </trkpt>
      <trkpt lat="48.96807" lon="1.0269">
        <ele>154.19999694824</ele>
        <time>2014-04-27T07:58:13.000Z</time>
      </trkpt>
      <trkpt lat="48.96799" lon="1.02745">
        <ele>154</ele>
        <time>2014-04-27T07:58:21.000Z</time>
      </trkpt>
      <trkpt lat="48.96789" lon="1.02799">
        <ele>153.80000305176</ele>
        <time>2014-04-27T07:58:27.000Z</time>
      </trkpt>
      <trkpt lat="48.96782" lon="1.02835">
        <ele>153.19999694824</ele>
        <time>2014-04-27T07:58:31.000Z</time>
      </trkpt>
      <trkpt lat="48.96776" lon="1.0286">
        <ele>153.39999389648</ele>
        <time>2014-04-27T07:58:34.000Z</time>
      </trkpt>
      <trkpt lat="48.96761" lon="1.02927">
        <ele>153.80000305176</ele>
        <time>2014-04-27T07:58:42.000Z</time>
      </trkpt>
      <trkpt lat="48.9675" lon="1.02991">
        <ele>154.39999389648</ele>
        <time>2014-04-27T07:58:50.000Z</time>
      </trkpt>
      <trkpt lat="48.96745" lon="1.03004">
        <ele>154.19999694824</ele>
        <time>2014-04-27T07:58:53.000Z</time>
      </trkpt>
      <trkpt lat="48.96742" lon="1.03005">
        <ele>154</ele>
        <time>2014-04-27T07:58:54.000Z</time>
      </trkpt>
      <trkpt lat="48.96727" lon="1.03004">
        <ele>153.80000305176</ele>
        <time>2014-04-27T07:58:58.000Z</time>
      </trkpt>
      <trkpt lat="48.96713" lon="1.03001">
        <ele>154.39999389648</ele>
        <time>2014-04-27T07:59:03.000Z</time>
      </trkpt>
      <trkpt lat="48.96712" lon="1.03002">
        <ele>154</ele>
        <time>2014-04-27T07:59:07.000Z</time>
      </trkpt>
      <trkpt lat="48.96711" lon="1.03002">
        <ele>154</ele>
        <time>2014-04-27T07:59:13.000Z</time>
      </trkpt>
      <trkpt lat="48.96715" lon="1.03003">
        <ele>154.19999694824</ele>
        <time>2014-04-27T07:59:19.000Z</time>
      </trkpt>
      <trkpt lat="48.96725" lon="1.03004">
        <ele>154.39999389648</ele>
        <time>2014-04-27T07:59:24.000Z</time>
      </trkpt>
      <trkpt lat="48.96736" lon="1.03004">
        <ele>154.39999389648</ele>
        <time>2014-04-27T07:59:27.000Z</time>
      </trkpt>
      <trkpt lat="48.96744" lon="1.03007">
        <ele>154.19999694824</ele>
        <time>2014-04-27T07:59:29.000Z</time>
      </trkpt>
      <trkpt lat="48.96749" lon="1.03014">
        <ele>154.19999694824</ele>
        <time>2014-04-27T07:59:31.000Z</time>
      </trkpt>
      <trkpt lat="48.9675" lon="1.0302">
        <ele>154.19999694824</ele>
        <time>2014-04-27T07:59:32.000Z</time>
      </trkpt>
      <trkpt lat="48.96746" lon="1.03047">
        <ele>153.80000305176</ele>
        <time>2014-04-27T07:59:36.000Z</time>
      </trkpt>
      <trkpt lat="48.96741" lon="1.03079">
        <ele>154.19999694824</ele>
        <time>2014-04-27T07:59:40.000Z</time>
      </trkpt>
      <trkpt lat="48.96738" lon="1.03097">
        <ele>154.19999694824</ele>
        <time>2014-04-27T07:59:42.000Z</time>
      </trkpt>
      <trkpt lat="48.96727" lon="1.03158">
        <ele>155</ele>
        <time>2014-04-27T07:59:49.000Z</time>
      </trkpt>
      <trkpt lat="48.9672" lon="1.0318">
        <ele>154.80000305176</ele>
        <time>2014-04-27T07:59:52.000Z</time>
      </trkpt>
      <trkpt lat="48.96715" lon="1.03183">
        <ele>154.80000305176</ele>
        <time>2014-04-27T07:59:53.000Z</time>
      </trkpt>
      <trkpt lat="48.96692" lon="1.03201">
        <ele>155.39999389648</ele>
        <time>2014-04-27T07:59:58.000Z</time>
      </trkpt>
      <trkpt lat="48.96688" lon="1.03205">
        <ele>155.39999389648</ele>
        <time>2014-04-27T07:59:59.000Z</time>
      </trkpt>
      <trkpt lat="48.9668" lon="1.03216">
        <ele>155.60000610352</ele>
        <time>2014-04-27T08:00:01.000Z</time>
      </trkpt>
      <trkpt lat="48.96674" lon="1.03228">
        <ele>156</ele>
        <time>2014-04-27T08:00:03.000Z</time>
      </trkpt>
      <trkpt lat="48.96671" lon="1.03234">
        <ele>156</ele>
        <time>2014-04-27T08:00:04.000Z</time>
      </trkpt>
      <trkpt lat="48.96668" lon="1.03242">
        <ele>156</ele>
        <time>2014-04-27T08:00:05.000Z</time>
      </trkpt>
      <trkpt lat="48.96663" lon="1.03266">
        <ele>155.80000305176</ele>
        <time>2014-04-27T08:00:08.000Z</time>
      </trkpt>
      <trkpt lat="48.96655" lon="1.03327">
        <ele>155.80000305176</ele>
        <time>2014-04-27T08:00:15.000Z</time>
      </trkpt>
      <trkpt lat="48.96643" lon="1.03377">
        <ele>155.60000610352</ele>
        <time>2014-04-27T08:00:21.000Z</time>
      </trkpt>
      <trkpt lat="48.96633" lon="1.03431">
        <ele>155.39999389648</ele>
        <time>2014-04-27T08:00:28.000Z</time>
      </trkpt>
      <trkpt lat="48.96626" lon="1.0348">
        <ele>155.60000610352</ele>
        <time>2014-04-27T08:00:34.000Z</time>
      </trkpt>
      <trkpt lat="48.96623" lon="1.03539">
        <ele>156.19999694824</ele>
        <time>2014-04-27T08:00:41.000Z</time>
      </trkpt>
      <trkpt lat="48.96615" lon="1.03589">
        <ele>155.80000305176</ele>
        <time>2014-04-27T08:00:47.000Z</time>
      </trkpt>
      <trkpt lat="48.96613" lon="1.03605">
        <ele>155.80000305176</ele>
        <time>2014-04-27T08:00:49.000Z</time>
      </trkpt>
      <trkpt lat="48.96613" lon="1.03628">
        <ele>155.80000305176</ele>
        <time>2014-04-27T08:00:52.000Z</time>
      </trkpt>
      <trkpt lat="48.96619" lon="1.03651">
        <ele>155.80000305176</ele>
        <time>2014-04-27T08:00:55.000Z</time>
      </trkpt>
      <trkpt lat="48.96626" lon="1.03669">
        <ele>156.19999694824</ele>
        <time>2014-04-27T08:00:58.000Z</time>
      </trkpt>
      <trkpt lat="48.96627" lon="1.03677">
        <ele>156.19999694824</ele>
        <time>2014-04-27T08:00:59.000Z</time>
      </trkpt>
      <trkpt lat="48.96625" lon="1.03698">
        <ele>156.39999389648</ele>
        <time>2014-04-27T08:01:02.000Z</time>
      </trkpt>
      <trkpt lat="48.96624" lon="1.03704">
        <ele>156.39999389648</ele>
        <time>2014-04-27T08:01:03.000Z</time>
      </trkpt>
      <trkpt lat="48.96619" lon="1.03724">
        <ele>156.80000305176</ele>
        <time>2014-04-27T08:01:06.000Z</time>
      </trkpt>
      <trkpt lat="48.96611" lon="1.03743">
        <ele>157.19999694824</ele>
        <time>2014-04-27T08:01:09.000Z</time>
      </trkpt>
      <trkpt lat="48.96602" lon="1.03761">
        <ele>157.60000610352</ele>
        <time>2014-04-27T08:01:12.000Z</time>
      </trkpt>
      <trkpt lat="48.96592" lon="1.03777">
        <ele>157.60000610352</ele>
        <time>2014-04-27T08:01:15.000Z</time>
      </trkpt>
      <trkpt lat="48.96584" lon="1.03785">
        <ele>157.39999389648</ele>
        <time>2014-04-27T08:01:17.000Z</time>
      </trkpt>
      <trkpt lat="48.9657" lon="1.03795">
        <ele>157.39999389648</ele>
        <time>2014-04-27T08:01:20.000Z</time>
      </trkpt>
      <trkpt lat="48.96536" lon="1.03811">
        <ele>156.39999389648</ele>
        <time>2014-04-27T08:01:27.000Z</time>
      </trkpt>
      <trkpt lat="48.96516" lon="1.03821">
        <ele>156</ele>
        <time>2014-04-27T08:01:33.000Z</time>
      </trkpt>
      <trkpt lat="48.96514" lon="1.03822">
        <ele>155.39999389648</ele>
        <time>2014-04-27T08:01:37.000Z</time>
      </trkpt>
      <trkpt lat="48.96513" lon="1.03822">
        <ele>155.19999694824</ele>
        <time>2014-04-27T08:01:38.000Z</time>
      </trkpt>
      <trkpt lat="48.96512" lon="1.03823">
        <ele>155.19999694824</ele>
        <time>2014-04-27T08:01:39.000Z</time>
      </trkpt>
      <trkpt lat="48.96507" lon="1.03825">
        <ele>155</ele>
        <time>2014-04-27T08:01:42.000Z</time>
      </trkpt>
      <trkpt lat="48.965" lon="1.03835">
        <ele>155</ele>
        <time>2014-04-27T08:01:47.000Z</time>
      </trkpt>
      <trkpt lat="48.96495" lon="1.03855">
        <ele>155</ele>
        <time>2014-04-27T08:01:52.000Z</time>
      </trkpt>
      <trkpt lat="48.9649" lon="1.03877">
        <ele>155.39999389648</ele>
        <time>2014-04-27T08:01:59.000Z</time>
      </trkpt>
      <trkpt lat="48.96489" lon="1.03906">
        <ele>155.80000305176</ele>
        <time>2014-04-27T08:02:04.000Z</time>
      </trkpt>
      <trkpt lat="48.96486" lon="1.03955">
        <ele>156.19999694824</ele>
        <time>2014-04-27T08:02:11.000Z</time>
      </trkpt>
      <trkpt lat="48.96484" lon="1.03984">
        <ele>156.39999389648</ele>
        <time>2014-04-27T08:02:15.000Z</time>
      </trkpt>
      <trkpt lat="48.9648" lon="1.04013">
        <ele>156.60000610352</ele>
        <time>2014-04-27T08:02:19.000Z</time>
      </trkpt>
      <trkpt lat="48.96468" lon="1.04072">
        <ele>157.19999694824</ele>
        <time>2014-04-27T08:02:27.000Z</time>
      </trkpt>
      <trkpt lat="48.96465" lon="1.04087">
        <ele>157.39999389648</ele>
        <time>2014-04-27T08:02:29.000Z</time>
      </trkpt>
      <trkpt lat="48.96454" lon="1.04131">
        <ele>157.60000610352</ele>
        <time>2014-04-27T08:02:35.000Z</time>
      </trkpt>
      <trkpt lat="48.96433" lon="1.04204">
        <ele>158</ele>
        <time>2014-04-27T08:02:45.000Z</time>
      </trkpt>
      <trkpt lat="48.96415" lon="1.0426">
        <ele>158</ele>
        <time>2014-04-27T08:02:53.000Z</time>
      </trkpt>
      <trkpt lat="48.96406" lon="1.0428">
        <ele>158.19999694824</ele>
        <time>2014-04-27T08:02:56.000Z</time>
      </trkpt>
      <trkpt lat="48.96394" lon="1.04295">
        <ele>158.19999694824</ele>
        <time>2014-04-27T08:02:59.000Z</time>
      </trkpt>
      <trkpt lat="48.96382" lon="1.04308">
        <ele>158.60000610352</ele>
        <time>2014-04-27T08:03:02.000Z</time>
      </trkpt>
      <trkpt lat="48.96361" lon="1.04327">
        <ele>158.80000305176</ele>
        <time>2014-04-27T08:03:07.000Z</time>
      </trkpt>
      <trkpt lat="48.96323" lon="1.04353">
        <ele>159.19999694824</ele>
        <time>2014-04-27T08:03:16.000Z</time>
      </trkpt>
      <trkpt lat="48.96293" lon="1.0437">
        <ele>159.39999389648</ele>
        <time>2014-04-27T08:03:24.000Z</time>
      </trkpt>
      <trkpt lat="48.96278" lon="1.04384">
        <ele>159.39999389648</ele>
        <time>2014-04-27T08:03:30.000Z</time>
      </trkpt>
      <trkpt lat="48.96272" lon="1.04407">
        <ele>159.19999694824</ele>
        <time>2014-04-27T08:03:36.000Z</time>
      </trkpt>
      <trkpt lat="48.96265" lon="1.04439">
        <ele>158.60000610352</ele>
        <time>2014-04-27T08:03:43.000Z</time>
      </trkpt>
      <trkpt lat="48.96262" lon="1.04457">
        <ele>158.60000610352</ele>
        <time>2014-04-27T08:03:46.000Z</time>
      </trkpt>
      <trkpt lat="48.96259" lon="1.0447">
        <ele>158.39999389648</ele>
        <time>2014-04-27T08:03:48.000Z</time>
      </trkpt>
      <trkpt lat="48.96258" lon="1.04484">
        <ele>158.39999389648</ele>
        <time>2014-04-27T08:03:51.000Z</time>
      </trkpt>
      <trkpt lat="48.9626" lon="1.04494">
        <ele>157.39999389648</ele>
        <time>2014-04-27T08:03:54.000Z</time>
      </trkpt>
      <trkpt lat="48.96261" lon="1.04501">
        <ele>157</ele>
        <time>2014-04-27T08:03:56.000Z</time>
      </trkpt>
      <trkpt lat="48.96262" lon="1.04516">
        <ele>157.19999694824</ele>
        <time>2014-04-27T08:04:02.000Z</time>
      </trkpt>
      <trkpt lat="48.96261" lon="1.04524">
        <ele>157.19999694824</ele>
        <time>2014-04-27T08:04:06.000Z</time>
      </trkpt>
      <trkpt lat="48.9626" lon="1.04543">
        <ele>157.80000305176</ele>
        <time>2014-04-27T08:04:13.000Z</time>
      </trkpt>
      <trkpt lat="48.96255" lon="1.04561">
        <ele>158.19999694824</ele>
        <time>2014-04-27T08:04:19.000Z</time>
      </trkpt>
      <trkpt lat="48.96243" lon="1.04568">
        <ele>158.39999389648</ele>
        <time>2014-04-27T08:04:24.000Z</time>
      </trkpt>
      <trkpt lat="48.96225" lon="1.04571">
        <ele>157.80000305176</ele>
        <time>2014-04-27T08:04:31.000Z</time>
      </trkpt>
      <trkpt lat="48.96207" lon="1.04574">
        <ele>158.39999389648</ele>
        <time>2014-04-27T08:04:37.000Z</time>
      </trkpt>
      <trkpt lat="48.96181" lon="1.04576">
        <ele>158.39999389648</ele>
        <time>2014-04-27T08:04:45.000Z</time>
      </trkpt>
      <trkpt lat="48.96171" lon="1.04577">
        <ele>158.39999389648</ele>
        <time>2014-04-27T08:04:48.000Z</time>
      </trkpt>
      <trkpt lat="48.96149" lon="1.04578">
        <ele>159.19999694824</ele>
        <time>2014-04-27T08:04:54.000Z</time>
      </trkpt>
      <trkpt lat="48.96142" lon="1.04578">
        <ele>159.39999389648</ele>
        <time>2014-04-27T08:04:56.000Z</time>
      </trkpt>
      <trkpt lat="48.96124" lon="1.04572">
        <ele>160</ele>
        <time>2014-04-27T08:05:01.000Z</time>
      </trkpt>
      <trkpt lat="48.96096" lon="1.04555">
        <ele>159.60000610352</ele>
        <time>2014-04-27T08:05:09.000Z</time>
      </trkpt>
      <trkpt lat="48.96066" lon="1.04527">
        <ele>159.60000610352</ele>
        <time>2014-04-27T08:05:18.000Z</time>
      </trkpt>
      <trkpt lat="48.96042" lon="1.04498">
        <ele>159.39999389648</ele>
        <time>2014-04-27T08:05:25.000Z</time>
      </trkpt>
      <trkpt lat="48.96035" lon="1.04492">
        <ele>159.39999389648</ele>
        <time>2014-04-27T08:05:27.000Z</time>
      </trkpt>
      <trkpt lat="48.96018" lon="1.04484">
        <ele>159.60000610352</ele>
        <time>2014-04-27T08:05:31.000Z</time>
      </trkpt>
      <trkpt lat="48.95986" lon="1.04472">
        <ele>159</ele>
        <time>2014-04-27T08:05:39.000Z</time>
      </trkpt>
      <trkpt lat="48.95962" lon="1.04463">
        <ele>159.39999389648</ele>
        <time>2014-04-27T08:05:45.000Z</time>
      </trkpt>
      <trkpt lat="48.9593" lon="1.04459">
        <ele>159.39999389648</ele>
        <time>2014-04-27T08:05:53.000Z</time>
      </trkpt>
      <trkpt lat="48.95889" lon="1.04452">
        <ele>159.60000610352</ele>
        <time>2014-04-27T08:06:03.000Z</time>
      </trkpt>
      <trkpt lat="48.95862" lon="1.04444">
        <ele>160</ele>
        <time>2014-04-27T08:06:10.000Z</time>
      </trkpt>
      <trkpt lat="48.95836" lon="1.04433">
        <ele>160.80000305176</ele>
        <time>2014-04-27T08:06:17.000Z</time>
      </trkpt>
      <trkpt lat="48.95821" lon="1.04426">
        <ele>160.60000610352</ele>
        <time>2014-04-27T08:06:21.000Z</time>
      </trkpt>
      <trkpt lat="48.95804" lon="1.04419">
        <ele>162</ele>
        <time>2014-04-27T08:06:26.000Z</time>
      </trkpt>
      <trkpt lat="48.9579" lon="1.04413">
        <ele>162.19999694824</ele>
        <time>2014-04-27T08:06:30.000Z</time>
      </trkpt>
      <trkpt lat="48.95758" lon="1.04399">
        <ele>162.39999389648</ele>
        <time>2014-04-27T08:06:39.000Z</time>
      </trkpt>
      <trkpt lat="48.95738" lon="1.04389">
        <ele>162.19999694824</ele>
        <time>2014-04-27T08:06:46.000Z</time>
      </trkpt>
      <trkpt lat="48.95722" lon="1.04383">
        <ele>161.80000305176</ele>
        <time>2014-04-27T08:06:53.000Z</time>
      </trkpt>
      <trkpt lat="48.95706" lon="1.0438">
        <ele>161.39999389648</ele>
        <time>2014-04-27T08:06:59.000Z</time>
      </trkpt>
      <trkpt lat="48.95689" lon="1.04381">
        <ele>160.80000305176</ele>
        <time>2014-04-27T08:07:05.000Z</time>
      </trkpt>
      <trkpt lat="48.95686" lon="1.04382">
        <ele>160.60000610352</ele>
        <time>2014-04-27T08:07:06.000Z</time>
      </trkpt>
      <trkpt lat="48.95665" lon="1.04384">
        <ele>160.60000610352</ele>
        <time>2014-04-27T08:07:12.000Z</time>
      </trkpt>
      <trkpt lat="48.9564" lon="1.04388">
        <ele>160.39999389648</ele>
        <time>2014-04-27T08:07:20.000Z</time>
      </trkpt>
      <trkpt lat="48.95627" lon="1.04398">
        <ele>160</ele>
        <time>2014-04-27T08:07:26.000Z</time>
      </trkpt>
      <trkpt lat="48.95622" lon="1.04419">
        <ele>161</ele>
        <time>2014-04-27T08:07:32.000Z</time>
      </trkpt>
      <trkpt lat="48.95619" lon="1.04431">
        <ele>161.80000305176</ele>
        <time>2014-04-27T08:07:36.000Z</time>
      </trkpt>
      <trkpt lat="48.95616" lon="1.04442">
        <ele>162.39999389648</ele>
        <time>2014-04-27T08:07:39.000Z</time>
      </trkpt>
      <trkpt lat="48.95614" lon="1.0445">
        <ele>162.80000305176</ele>
        <time>2014-04-27T08:07:41.000Z</time>
      </trkpt>
      <trkpt lat="48.95611" lon="1.04464">
        <ele>164.39999389648</ele>
        <time>2014-04-27T08:07:45.000Z</time>
      </trkpt>
      <trkpt lat="48.95606" lon="1.04484">
        <ele>164.80000305176</ele>
        <time>2014-04-27T08:07:50.000Z</time>
      </trkpt>
      <trkpt lat="48.95599" lon="1.04505">
        <ele>165.39999389648</ele>
        <time>2014-04-27T08:07:56.000Z</time>
      </trkpt>
      <trkpt lat="48.95593" lon="1.04523">
        <ele>166.60000610352</ele>
        <time>2014-04-27T08:08:01.000Z</time>
      </trkpt>
      <trkpt lat="48.95591" lon="1.04527">
        <ele>166.80000305176</ele>
        <time>2014-04-27T08:08:02.000Z</time>
      </trkpt>
      <trkpt lat="48.95585" lon="1.04546">
        <ele>167.60000610352</ele>
        <time>2014-04-27T08:08:08.000Z</time>
      </trkpt>
      <trkpt lat="48.95582" lon="1.04554">
        <ele>168</ele>
        <time>2014-04-27T08:08:10.000Z</time>
      </trkpt>
      <trkpt lat="48.95572" lon="1.04585">
        <ele>168.60000610352</ele>
        <time>2014-04-27T08:08:17.000Z</time>
      </trkpt>
      <trkpt lat="48.95564" lon="1.04613">
        <ele>168.60000610352</ele>
        <time>2014-04-27T08:08:23.000Z</time>
      </trkpt>
      <trkpt lat="48.95556" lon="1.04642">
        <ele>168.80000305176</ele>
        <time>2014-04-27T08:08:29.000Z</time>
      </trkpt>
      <trkpt lat="48.9555" lon="1.04664">
        <ele>169.19999694824</ele>
        <time>2014-04-27T08:08:35.000Z</time>
      </trkpt>
      <trkpt lat="48.95549" lon="1.04673">
        <ele>168.80000305176</ele>
        <time>2014-04-27T08:08:39.000Z</time>
      </trkpt>
      <trkpt lat="48.95549" lon="1.04674">
        <ele>168.80000305176</ele>
        <time>2014-04-27T08:08:40.000Z</time>
      </trkpt>
      <trkpt lat="48.95547" lon="1.04678">
        <ele>168.19999694824</ele>
        <time>2014-04-27T08:08:43.000Z</time>
      </trkpt>
      <trkpt lat="48.95546" lon="1.04679">
        <ele>168.19999694824</ele>
        <time>2014-04-27T08:08:44.000Z</time>
      </trkpt>
      <trkpt lat="48.95539" lon="1.04686">
        <ele>167.80000305176</ele>
        <time>2014-04-27T08:08:48.000Z</time>
      </trkpt>
      <trkpt lat="48.95536" lon="1.04689">
        <ele>167.60000610352</ele>
        <time>2014-04-27T08:08:49.000Z</time>
      </trkpt>
      <trkpt lat="48.95529" lon="1.04697">
        <ele>167</ele>
        <time>2014-04-27T08:08:51.000Z</time>
      </trkpt>
      <trkpt lat="48.95525" lon="1.04701">
        <ele>166.60000610352</ele>
        <time>2014-04-27T08:08:52.000Z</time>
      </trkpt>
      <trkpt lat="48.95517" lon="1.04708">
        <ele>165.19999694824</ele>
        <time>2014-04-27T08:08:54.000Z</time>
      </trkpt>
      <trkpt lat="48.95511" lon="1.0472">
        <ele>164.39999389648</ele>
        <time>2014-04-27T08:08:56.000Z</time>
      </trkpt>
      <trkpt lat="48.95509" lon="1.04727">
        <ele>163.80000305176</ele>
        <time>2014-04-27T08:08:57.000Z</time>
      </trkpt>
      <trkpt lat="48.95505" lon="1.0474">
        <ele>163.60000610352</ele>
        <time>2014-04-27T08:08:59.000Z</time>
      </trkpt>
      <trkpt lat="48.95503" lon="1.04749">
        <ele>163.39999389648</ele>
        <time>2014-04-27T08:09:00.000Z</time>
      </trkpt>
      <trkpt lat="48.95499" lon="1.04762">
        <ele>162.80000305176</ele>
        <time>2014-04-27T08:09:02.000Z</time>
      </trkpt>
      <trkpt lat="48.95494" lon="1.04774">
        <ele>163.19999694824</ele>
        <time>2014-04-27T08:09:04.000Z</time>
      </trkpt>
      <trkpt lat="48.9549" lon="1.04788">
        <ele>163.60000610352</ele>
        <time>2014-04-27T08:09:06.000Z</time>
      </trkpt>
      <trkpt lat="48.95483" lon="1.04808">
        <ele>163.39999389648</ele>
        <time>2014-04-27T08:09:09.000Z</time>
      </trkpt>
      <trkpt lat="48.95477" lon="1.04824">
        <ele>163.19999694824</ele>
        <time>2014-04-27T08:09:11.000Z</time>
      </trkpt>
      <trkpt lat="48.95466" lon="1.04846">
        <ele>162.60000610352</ele>
        <time>2014-04-27T08:09:14.000Z</time>
      </trkpt>
      <trkpt lat="48.95461" lon="1.0486">
        <ele>162.19999694824</ele>
        <time>2014-04-27T08:09:16.000Z</time>
      </trkpt>
      <trkpt lat="48.95449" lon="1.04895">
        <ele>162.39999389648</ele>
        <time>2014-04-27T08:09:21.000Z</time>
      </trkpt>
      <trkpt lat="48.95437" lon="1.04932">
        <ele>161.39999389648</ele>
        <time>2014-04-27T08:09:26.000Z</time>
      </trkpt>
      <trkpt lat="48.95434" lon="1.04939">
        <ele>161.39999389648</ele>
        <time>2014-04-27T08:09:27.000Z</time>
      </trkpt>
      <trkpt lat="48.95423" lon="1.04971">
        <ele>161.80000305176</ele>
        <time>2014-04-27T08:09:32.000Z</time>
      </trkpt>
      <trkpt lat="48.95421" lon="1.04977">
        <ele>162</ele>
        <time>2014-04-27T08:09:33.000Z</time>
      </trkpt>
      <trkpt lat="48.95418" lon="1.04984">
        <ele>162.19999694824</ele>
        <time>2014-04-27T08:09:34.000Z</time>
      </trkpt>
      <trkpt lat="48.9541" lon="1.05003">
        <ele>162.19999694824</ele>
        <time>2014-04-27T08:09:37.000Z</time>
      </trkpt>
      <trkpt lat="48.95408" lon="1.0501">
        <ele>162</ele>
        <time>2014-04-27T08:09:38.000Z</time>
      </trkpt>
      <trkpt lat="48.95397" lon="1.05051">
        <ele>161.60000610352</ele>
        <time>2014-04-27T08:09:44.000Z</time>
      </trkpt>
      <trkpt lat="48.95396" lon="1.05057">
        <ele>161.60000610352</ele>
        <time>2014-04-27T08:09:45.000Z</time>
      </trkpt>
      <trkpt lat="48.9539" lon="1.05081">
        <ele>162.39999389648</ele>
        <time>2014-04-27T08:09:49.000Z</time>
      </trkpt>
      <trkpt lat="48.95382" lon="1.05109">
        <ele>162.19999694824</ele>
        <time>2014-04-27T08:09:54.000Z</time>
      </trkpt>
      <trkpt lat="48.95376" lon="1.05137">
        <ele>162.39999389648</ele>
        <time>2014-04-27T08:09:59.000Z</time>
      </trkpt>
      <trkpt lat="48.95373" lon="1.05157">
        <ele>162</ele>
        <time>2014-04-27T08:10:02.000Z</time>
      </trkpt>
      <trkpt lat="48.95372" lon="1.05164">
        <ele>162.19999694824</ele>
        <time>2014-04-27T08:10:03.000Z</time>
      </trkpt>
      <trkpt lat="48.95367" lon="1.05184">
        <ele>161.80000305176</ele>
        <time>2014-04-27T08:10:06.000Z</time>
      </trkpt>
      <trkpt lat="48.95362" lon="1.05201">
        <ele>161.80000305176</ele>
        <time>2014-04-27T08:10:09.000Z</time>
      </trkpt>
      <trkpt lat="48.95351" lon="1.05231">
        <ele>161.60000610352</ele>
        <time>2014-04-27T08:10:14.000Z</time>
      </trkpt>
      <trkpt lat="48.95343" lon="1.05249">
        <ele>161.60000610352</ele>
        <time>2014-04-27T08:10:18.000Z</time>
      </trkpt>
      <trkpt lat="48.95337" lon="1.05265">
        <ele>161.39999389648</ele>
        <time>2014-04-27T08:10:21.000Z</time>
      </trkpt>
      <trkpt lat="48.95331" lon="1.05281">
        <ele>161.39999389648</ele>
        <time>2014-04-27T08:10:24.000Z</time>
      </trkpt>
      <trkpt lat="48.95318" lon="1.05311">
        <ele>161.39999389648</ele>
        <time>2014-04-27T08:10:30.000Z</time>
      </trkpt>
      <trkpt lat="48.95308" lon="1.0533">
        <ele>161</ele>
        <time>2014-04-27T08:10:35.000Z</time>
      </trkpt>
      <trkpt lat="48.95293" lon="1.05362">
        <ele>162</ele>
        <time>2014-04-27T08:10:42.000Z</time>
      </trkpt>
      <trkpt lat="48.95282" lon="1.05389">
        <ele>161.80000305176</ele>
        <time>2014-04-27T08:10:48.000Z</time>
      </trkpt>
      <trkpt lat="48.95276" lon="1.05404">
        <ele>161.60000610352</ele>
        <time>2014-04-27T08:10:53.000Z</time>
      </trkpt>
      <trkpt lat="48.95268" lon="1.05422">
        <ele>162</ele>
        <time>2014-04-27T08:10:59.000Z</time>
      </trkpt>
      <trkpt lat="48.95264" lon="1.05432">
        <ele>161.80000305176</ele>
        <time>2014-04-27T08:11:05.000Z</time>
      </trkpt>
      <trkpt lat="48.95264" lon="1.05434">
        <ele>162.39999389648</ele>
        <time>2014-04-27T08:11:15.000Z</time>
      </trkpt>
      <trkpt lat="48.95264" lon="1.05434">
        <ele>162.39999389648</ele>
        <time>2014-04-27T08:11:16.000Z</time>
      </trkpt>
      <trkpt lat="48.95263" lon="1.05438">
        <ele>162.60000610352</ele>
        <time>2014-04-27T08:11:31.000Z</time>
      </trkpt>
      <trkpt lat="48.95263" lon="1.05439">
        <ele>162.60000610352</ele>
        <time>2014-04-27T08:11:32.000Z</time>
      </trkpt>
      <trkpt lat="48.95261" lon="1.05445">
        <ele>162</ele>
        <time>2014-04-27T08:11:36.000Z</time>
      </trkpt>
      <trkpt lat="48.95261" lon="1.05446">
        <ele>162</ele>
        <time>2014-04-27T08:11:37.000Z</time>
      </trkpt>
      <trkpt lat="48.9526" lon="1.05456">
        <ele>162.39999389648</ele>
        <time>2014-04-27T08:11:42.000Z</time>
      </trkpt>
      <trkpt lat="48.95257" lon="1.0547">
        <ele>163</ele>
        <time>2014-04-27T08:11:47.000Z</time>
      </trkpt>
      <trkpt lat="48.95257" lon="1.05476">
        <ele>163.60000610352</ele>
        <time>2014-04-27T08:11:49.000Z</time>
      </trkpt>
      <trkpt lat="48.95255" lon="1.05489">
        <ele>164.39999389648</ele>
        <time>2014-04-27T08:11:52.000Z</time>
      </trkpt>
      <trkpt lat="48.95252" lon="1.05497">
        <ele>164.80000305176</ele>
        <time>2014-04-27T08:11:54.000Z</time>
      </trkpt>
      <trkpt lat="48.95249" lon="1.05509">
        <ele>166</ele>
        <time>2014-04-27T08:11:57.000Z</time>
      </trkpt>
      <trkpt lat="48.95248" lon="1.05513">
        <ele>167.19999694824</ele>
        <time>2014-04-27T08:11:59.000Z</time>
      </trkpt>
      <trkpt lat="48.95246" lon="1.05521">
        <ele>168.19999694824</ele>
        <time>2014-04-27T08:12:02.000Z</time>
      </trkpt>
      <trkpt lat="48.95241" lon="1.05532">
        <ele>169.19999694824</ele>
        <time>2014-04-27T08:12:07.000Z</time>
      </trkpt>
      <trkpt lat="48.95241" lon="1.05534">
        <ele>169.19999694824</ele>
        <time>2014-04-27T08:12:08.000Z</time>
      </trkpt>
      <trkpt lat="48.95238" lon="1.0554">
        <ele>169.60000610352</ele>
        <time>2014-04-27T08:12:12.000Z</time>
      </trkpt>
      <trkpt lat="48.95232" lon="1.05545">
        <ele>169.60000610352</ele>
        <time>2014-04-27T08:12:14.000Z</time>
      </trkpt>
      <trkpt lat="48.95224" lon="1.05551">
        <ele>169.39999389648</ele>
        <time>2014-04-27T08:12:16.000Z</time>
      </trkpt>
      <trkpt lat="48.95214" lon="1.05558">
        <ele>168.80000305176</ele>
        <time>2014-04-27T08:12:18.000Z</time>
      </trkpt>
      <trkpt lat="48.95208" lon="1.05565">
        <ele>168.19999694824</ele>
        <time>2014-04-27T08:12:19.000Z</time>
      </trkpt>
      <trkpt lat="48.95203" lon="1.0557">
        <ele>167.19999694824</ele>
        <time>2014-04-27T08:12:20.000Z</time>
      </trkpt>
      <trkpt lat="48.95197" lon="1.05575">
        <ele>166.19999694824</ele>
        <time>2014-04-27T08:12:21.000Z</time>
      </trkpt>
      <trkpt lat="48.95192" lon="1.0558">
        <ele>165.60000610352</ele>
        <time>2014-04-27T08:12:22.000Z</time>
      </trkpt>
      <trkpt lat="48.95187" lon="1.05584">
        <ele>165.19999694824</ele>
        <time>2014-04-27T08:12:23.000Z</time>
      </trkpt>
      <trkpt lat="48.95173" lon="1.05594">
        <ele>164.19999694824</ele>
        <time>2014-04-27T08:12:26.000Z</time>
      </trkpt>
      <trkpt lat="48.95163" lon="1.05605">
        <ele>163</ele>
        <time>2014-04-27T08:12:29.000Z</time>
      </trkpt>
      <trkpt lat="48.9516" lon="1.05609">
        <ele>163</ele>
        <time>2014-04-27T08:12:30.000Z</time>
      </trkpt>
      <trkpt lat="48.95147" lon="1.05621">
        <ele>163.60000610352</ele>
        <time>2014-04-27T08:12:35.000Z</time>
      </trkpt>
      <trkpt lat="48.95131" lon="1.05631">
        <ele>163.19999694824</ele>
        <time>2014-04-27T08:12:41.000Z</time>
      </trkpt>
      <trkpt lat="48.95117" lon="1.05638">
        <ele>163.39999389648</ele>
        <time>2014-04-27T08:12:46.000Z</time>
      </trkpt>
      <trkpt lat="48.95103" lon="1.05639">
        <ele>164.19999694824</ele>
        <time>2014-04-27T08:12:51.000Z</time>
      </trkpt>
      <trkpt lat="48.95083" lon="1.05639">
        <ele>164</ele>
        <time>2014-04-27T08:12:58.000Z</time>
      </trkpt>
      <trkpt lat="48.95064" lon="1.05635">
        <ele>163.60000610352</ele>
        <time>2014-04-27T08:13:03.000Z</time>
      </trkpt>
      <trkpt lat="48.95059" lon="1.05634">
        <ele>163.60000610352</ele>
        <time>2014-04-27T08:13:04.000Z</time>
      </trkpt>
      <trkpt lat="48.95042" lon="1.05634">
        <ele>163.60000610352</ele>
        <time>2014-04-27T08:13:08.000Z</time>
      </trkpt>
      <trkpt lat="48.95034" lon="1.05636">
        <ele>163.19999694824</ele>
        <time>2014-04-27T08:13:10.000Z</time>
      </trkpt>
      <trkpt lat="48.95024" lon="1.05635">
        <ele>162.39999389648</ele>
        <time>2014-04-27T08:13:13.000Z</time>
      </trkpt>
      <trkpt lat="48.9501" lon="1.0563">
        <ele>163.19999694824</ele>
        <time>2014-04-27T08:13:18.000Z</time>
      </trkpt>
      <trkpt lat="48.94996" lon="1.05625">
        <ele>164.19999694824</ele>
        <time>2014-04-27T08:13:23.000Z</time>
      </trkpt>
      <trkpt lat="48.94993" lon="1.05624">
        <ele>164.19999694824</ele>
        <time>2014-04-27T08:13:24.000Z</time>
      </trkpt>
      <trkpt lat="48.94984" lon="1.05621">
        <ele>163.80000305176</ele>
        <time>2014-04-27T08:13:29.000Z</time>
      </trkpt>
      <trkpt lat="48.94973" lon="1.05616">
        <ele>164.39999389648</ele>
        <time>2014-04-27T08:13:34.000Z</time>
      </trkpt>
      <trkpt lat="48.94966" lon="1.05614">
        <ele>165.19999694824</ele>
        <time>2014-04-27T08:13:37.000Z</time>
      </trkpt>
      <trkpt lat="48.9496" lon="1.05612">
        <ele>165.39999389648</ele>
        <time>2014-04-27T08:13:40.000Z</time>
      </trkpt>
      <trkpt lat="48.94948" lon="1.05611">
        <ele>166</ele>
        <time>2014-04-27T08:13:46.000Z</time>
      </trkpt>
      <trkpt lat="48.94945" lon="1.05611">
        <ele>166.39999389648</ele>
        <time>2014-04-27T08:13:48.000Z</time>
      </trkpt>
      <trkpt lat="48.94941" lon="1.05611">
        <ele>167.60000610352</ele>
        <time>2014-04-27T08:13:51.000Z</time>
      </trkpt>
      <trkpt lat="48.94935" lon="1.05611">
        <ele>168.60000610352</ele>
        <time>2014-04-27T08:13:54.000Z</time>
      </trkpt>
      <trkpt lat="48.94934" lon="1.05611">
        <ele>168.80000305176</ele>
        <time>2014-04-27T08:13:55.000Z</time>
      </trkpt>
      <trkpt lat="48.94928" lon="1.05612">
        <ele>170</ele>
        <time>2014-04-27T08:13:58.000Z</time>
      </trkpt>
      <trkpt lat="48.94917" lon="1.05611">
        <ele>171</ele>
        <time>2014-04-27T08:14:04.000Z</time>
      </trkpt>
      <trkpt lat="48.94915" lon="1.0561">
        <ele>171.19999694824</ele>
        <time>2014-04-27T08:14:05.000Z</time>
      </trkpt>
      <trkpt lat="48.94907" lon="1.0561">
        <ele>172.39999389648</ele>
        <time>2014-04-27T08:14:09.000Z</time>
      </trkpt>
      <trkpt lat="48.94903" lon="1.05609">
        <ele>173</ele>
        <time>2014-04-27T08:14:11.000Z</time>
      </trkpt>
      <trkpt lat="48.949" lon="1.05609">
        <ele>173.39999389648</ele>
        <time>2014-04-27T08:14:12.000Z</time>
      </trkpt>
      <trkpt lat="48.94888" lon="1.05603">
        <ele>173.80000305176</ele>
        <time>2014-04-27T08:14:17.000Z</time>
      </trkpt>
      <trkpt lat="48.94876" lon="1.05597">
        <ele>174</ele>
        <time>2014-04-27T08:14:23.000Z</time>
      </trkpt>
      <trkpt lat="48.94874" lon="1.05597">
        <ele>174</ele>
        <time>2014-04-27T08:14:24.000Z</time>
      </trkpt>
      <trkpt lat="48.94869" lon="1.05593">
        <ele>174.19999694824</ele>
        <time>2014-04-27T08:14:27.000Z</time>
      </trkpt>
      <trkpt lat="48.94865" lon="1.05589">
        <ele>174.39999389648</ele>
        <time>2014-04-27T08:14:29.000Z</time>
      </trkpt>
      <trkpt lat="48.94855" lon="1.05579">
        <ele>174.80000305176</ele>
        <time>2014-04-27T08:14:34.000Z</time>
      </trkpt>
      <trkpt lat="48.94841" lon="1.05566">
        <ele>175</ele>
        <time>2014-04-27T08:14:39.000Z</time>
      </trkpt>
      <trkpt lat="48.94826" lon="1.05554">
        <ele>175.19999694824</ele>
        <time>2014-04-27T08:14:44.000Z</time>
      </trkpt>
      <trkpt lat="48.9482" lon="1.05547">
        <ele>175.39999389648</ele>
        <time>2014-04-27T08:14:46.000Z</time>
      </trkpt>
      <trkpt lat="48.94816" lon="1.05544">
        <ele>175.39999389648</ele>
        <time>2014-04-27T08:14:48.000Z</time>
      </trkpt>
      <trkpt lat="48.94811" lon="1.05538">
        <ele>175</ele>
        <time>2014-04-27T08:14:53.000Z</time>
      </trkpt>
      <trkpt lat="48.94798" lon="1.05527">
        <ele>175.39999389648</ele>
        <time>2014-04-27T08:14:59.000Z</time>
      </trkpt>
      <trkpt lat="48.94785" lon="1.05515">
        <ele>175.19999694824</ele>
        <time>2014-04-27T08:15:04.000Z</time>
      </trkpt>
      <trkpt lat="48.94778" lon="1.05504">
        <ele>175.60000610352</ele>
        <time>2014-04-27T08:15:08.000Z</time>
      </trkpt>
      <trkpt lat="48.94769" lon="1.05489">
        <ele>175.60000610352</ele>
        <time>2014-04-27T08:15:12.000Z</time>
      </trkpt>
      <trkpt lat="48.94753" lon="1.05472">
        <ele>175</ele>
        <time>2014-04-27T08:15:18.000Z</time>
      </trkpt>
      <trkpt lat="48.94739" lon="1.05461">
        <ele>175</ele>
        <time>2014-04-27T08:15:23.000Z</time>
      </trkpt>
      <trkpt lat="48.94727" lon="1.0545">
        <ele>174.80000305176</ele>
        <time>2014-04-27T08:15:28.000Z</time>
      </trkpt>
      <trkpt lat="48.94716" lon="1.05441">
        <ele>175.19999694824</ele>
        <time>2014-04-27T08:15:34.000Z</time>
      </trkpt>
      <trkpt lat="48.94703" lon="1.05428">
        <ele>175.39999389648</ele>
        <time>2014-04-27T08:15:41.000Z</time>
      </trkpt>
      <trkpt lat="48.94693" lon="1.05417">
        <ele>175.19999694824</ele>
        <time>2014-04-27T08:15:45.000Z</time>
      </trkpt>
      <trkpt lat="48.94682" lon="1.054">
        <ele>175.80000305176</ele>
        <time>2014-04-27T08:15:49.000Z</time>
      </trkpt>
      <trkpt lat="48.94667" lon="1.05377">
        <ele>175.19999694824</ele>
        <time>2014-04-27T08:15:54.000Z</time>
      </trkpt>
      <trkpt lat="48.94661" lon="1.05367">
        <ele>175</ele>
        <time>2014-04-27T08:15:56.000Z</time>
      </trkpt>
      <trkpt lat="48.94656" lon="1.05354">
        <ele>175</ele>
        <time>2014-04-27T08:15:59.000Z</time>
      </trkpt>
      <trkpt lat="48.94647" lon="1.05338">
        <ele>174.80000305176</ele>
        <time>2014-04-27T08:16:04.000Z</time>
      </trkpt>
      <trkpt lat="48.94634" lon="1.0531">
        <ele>175.19999694824</ele>
        <time>2014-04-27T08:16:11.000Z</time>
      </trkpt>
      <trkpt lat="48.94623" lon="1.0529">
        <ele>176</ele>
        <time>2014-04-27T08:16:16.000Z</time>
      </trkpt>
      <trkpt lat="48.9461" lon="1.05264">
        <ele>176.39999389648</ele>
        <time>2014-04-27T08:16:23.000Z</time>
      </trkpt>
      <trkpt lat="48.94607" lon="1.05255">
        <ele>176.60000610352</ele>
        <time>2014-04-27T08:16:25.000Z</time>
      </trkpt>
      <trkpt lat="48.94601" lon="1.05238">
        <ele>176.60000610352</ele>
        <time>2014-04-27T08:16:29.000Z</time>
      </trkpt>
      <trkpt lat="48.94594" lon="1.05218">
        <ele>176.80000305176</ele>
        <time>2014-04-27T08:16:35.000Z</time>
      </trkpt>
      <trkpt lat="48.9459" lon="1.05214">
        <ele>177.60000610352</ele>
        <time>2014-04-27T08:16:39.000Z</time>
      </trkpt>
      <trkpt lat="48.9459" lon="1.05214">
        <ele>177.60000610352</ele>
        <time>2014-04-27T08:16:40.000Z</time>
      </trkpt>
      <trkpt lat="48.94589" lon="1.05214">
        <ele>178.19999694824</ele>
        <time>2014-04-27T08:16:48.000Z</time>
      </trkpt>
      <trkpt lat="48.94587" lon="1.05216">
        <ele>178.39999389648</ele>
        <time>2014-04-27T08:17:00.000Z</time>
      </trkpt>
      <trkpt lat="48.94585" lon="1.05215">
        <ele>178.60000610352</ele>
        <time>2014-04-27T08:17:08.000Z</time>
      </trkpt>
      <trkpt lat="48.94584" lon="1.05216">
        <ele>178.39999389648</ele>
        <time>2014-04-27T08:17:19.000Z</time>
      </trkpt>
      <trkpt lat="48.94584" lon="1.05216">
        <ele>178.60000610352</ele>
        <time>2014-04-27T08:17:28.000Z</time>
      </trkpt>
      <trkpt lat="48.94583" lon="1.05216">
        <ele>178.60000610352</ele>
        <time>2014-04-27T08:17:30.000Z</time>
      </trkpt>
      <trkpt lat="48.94582" lon="1.05217">
        <ele>178.39999389648</ele>
        <time>2014-04-27T08:17:39.000Z</time>
      </trkpt>
      <trkpt lat="48.94582" lon="1.05217">
        <ele>178</ele>
        <time>2014-04-27T08:17:48.000Z</time>
      </trkpt>
      <trkpt lat="48.94582" lon="1.05216">
        <ele>178</ele>
        <time>2014-04-27T08:17:51.000Z</time>
      </trkpt>
      <trkpt lat="48.94582" lon="1.05217">
        <ele>178</ele>
        <time>2014-04-27T08:17:54.000Z</time>
      </trkpt>
      <trkpt lat="48.94579" lon="1.05221">
        <ele>177.80000305176</ele>
        <time>2014-04-27T08:18:03.000Z</time>
      </trkpt>
      <trkpt lat="48.94578" lon="1.05222">
        <ele>178.39999389648</ele>
        <time>2014-04-27T08:18:09.000Z</time>
      </trkpt>
      <trkpt lat="48.94578" lon="1.0522">
        <ele>178.60000610352</ele>
        <time>2014-04-27T08:18:16.000Z</time>
      </trkpt>
      <trkpt lat="48.94575" lon="1.0521">
        <ele>178.39999389648</ele>
        <time>2014-04-27T08:18:20.000Z</time>
      </trkpt>
      <trkpt lat="48.94574" lon="1.05207">
        <ele>178.39999389648</ele>
        <time>2014-04-27T08:18:21.000Z</time>
      </trkpt>
      <trkpt lat="48.94569" lon="1.05186">
        <ele>178.19999694824</ele>
        <time>2014-04-27T08:18:27.000Z</time>
      </trkpt>
      <trkpt lat="48.94569" lon="1.05179">
        <ele>178.19999694824</ele>
        <time>2014-04-27T08:18:29.000Z</time>
      </trkpt>
      <trkpt lat="48.94567" lon="1.0517">
        <ele>178</ele>
        <time>2014-04-27T08:18:32.000Z</time>
      </trkpt>
      <trkpt lat="48.94564" lon="1.05172">
        <ele>178</ele>
        <time>2014-04-27T08:18:35.000Z</time>
      </trkpt>
      <trkpt lat="48.94563" lon="1.05177">
        <ele>178</ele>
        <time>2014-04-27T08:18:37.000Z</time>
      </trkpt>
      <trkpt lat="48.94563" lon="1.05184">
        <ele>178</ele>
        <time>2014-04-27T08:18:40.000Z</time>
      </trkpt>
      <trkpt lat="48.94563" lon="1.05197">
        <ele>179</ele>
        <time>2014-04-27T08:18:44.000Z</time>
      </trkpt>
      <trkpt lat="48.94563" lon="1.05207">
        <ele>179.60000610352</ele>
        <time>2014-04-27T08:18:47.000Z</time>
      </trkpt>
      <trkpt lat="48.94563" lon="1.05213">
        <ele>179.39999389648</ele>
        <time>2014-04-27T08:18:49.000Z</time>
      </trkpt>
      <trkpt lat="48.94562" lon="1.05217">
        <ele>179.80000305176</ele>
        <time>2014-04-27T08:18:51.000Z</time>
      </trkpt>
      <trkpt lat="48.94562" lon="1.05219">
        <ele>180</ele>
        <time>2014-04-27T08:18:52.000Z</time>
      </trkpt>
      <trkpt lat="48.94562" lon="1.05222">
        <ele>180.39999389648</ele>
        <time>2014-04-27T08:18:53.000Z</time>
      </trkpt>
      <trkpt lat="48.94563" lon="1.05228">
        <ele>180.80000305176</ele>
        <time>2014-04-27T08:18:55.000Z</time>
      </trkpt>
      <trkpt lat="48.94562" lon="1.05239">
        <ele>182</ele>
        <time>2014-04-27T08:18:59.000Z</time>
      </trkpt>
      <trkpt lat="48.94562" lon="1.05257">
        <ele>182.80000305176</ele>
        <time>2014-04-27T08:19:06.000Z</time>
      </trkpt>
      <trkpt lat="48.94562" lon="1.05264">
        <ele>183</ele>
        <time>2014-04-27T08:19:09.000Z</time>
      </trkpt>
      <trkpt lat="48.94563" lon="1.05273">
        <ele>183.60000610352</ele>
        <time>2014-04-27T08:19:12.000Z</time>
      </trkpt>
      <trkpt lat="48.94563" lon="1.0528">
        <ele>184</ele>
        <time>2014-04-27T08:19:14.000Z</time>
      </trkpt>
      <trkpt lat="48.94563" lon="1.0529">
        <ele>184.80000305176</ele>
        <time>2014-04-27T08:19:17.000Z</time>
      </trkpt>
      <trkpt lat="48.94563" lon="1.05293">
        <ele>185.19999694824</ele>
        <time>2014-04-27T08:19:18.000Z</time>
      </trkpt>
      <trkpt lat="48.94564" lon="1.05296">
        <ele>185.19999694824</ele>
        <time>2014-04-27T08:19:19.000Z</time>
      </trkpt>
      <trkpt lat="48.94565" lon="1.05302">
        <ele>185.39999389648</ele>
        <time>2014-04-27T08:19:21.000Z</time>
      </trkpt>
      <trkpt lat="48.94566" lon="1.05312">
        <ele>185.80000305176</ele>
        <time>2014-04-27T08:19:24.000Z</time>
      </trkpt>
      <trkpt lat="48.94566" lon="1.0532">
        <ele>186.19999694824</ele>
        <time>2014-04-27T08:19:27.000Z</time>
      </trkpt>
      <trkpt lat="48.94567" lon="1.05337">
        <ele>187.39999389648</ele>
        <time>2014-04-27T08:19:33.000Z</time>
      </trkpt>
      <trkpt lat="48.94569" lon="1.05348">
        <ele>188.60000610352</ele>
        <time>2014-04-27T08:19:37.000Z</time>
      </trkpt>
      <trkpt lat="48.94569" lon="1.05353">
        <ele>189</ele>
        <time>2014-04-27T08:19:39.000Z</time>
      </trkpt>
      <trkpt lat="48.94569" lon="1.05358">
        <ele>189.60000610352</ele>
        <time>2014-04-27T08:19:41.000Z</time>
      </trkpt>
      <trkpt lat="48.9457" lon="1.05368">
        <ele>190.39999389648</ele>
        <time>2014-04-27T08:19:45.000Z</time>
      </trkpt>
      <trkpt lat="48.9457" lon="1.05375">
        <ele>190.80000305176</ele>
        <time>2014-04-27T08:19:48.000Z</time>
      </trkpt>
      <trkpt lat="48.9457" lon="1.05377">
        <ele>190.80000305176</ele>
        <time>2014-04-27T08:19:49.000Z</time>
      </trkpt>
      <trkpt lat="48.94572" lon="1.05389">
        <ele>192</ele>
        <time>2014-04-27T08:19:54.000Z</time>
      </trkpt>
      <trkpt lat="48.94572" lon="1.05392">
        <ele>192.19999694824</ele>
        <time>2014-04-27T08:19:55.000Z</time>
      </trkpt>
      <trkpt lat="48.94574" lon="1.05406">
        <ele>192.80000305176</ele>
        <time>2014-04-27T08:20:01.000Z</time>
      </trkpt>
      <trkpt lat="48.94574" lon="1.05409">
        <ele>193</ele>
        <time>2014-04-27T08:20:02.000Z</time>
      </trkpt>
      <trkpt lat="48.94577" lon="1.05422">
        <ele>193.60000610352</ele>
        <time>2014-04-27T08:20:07.000Z</time>
      </trkpt>
      <trkpt lat="48.94579" lon="1.05432">
        <ele>194</ele>
        <time>2014-04-27T08:20:10.000Z</time>
      </trkpt>
      <trkpt lat="48.9458" lon="1.05436">
        <ele>194.19999694824</ele>
        <time>2014-04-27T08:20:11.000Z</time>
      </trkpt>
      <trkpt lat="48.94584" lon="1.05452">
        <ele>195.19999694824</ele>
        <time>2014-04-27T08:20:16.000Z</time>
      </trkpt>
      <trkpt lat="48.94585" lon="1.05456">
        <ele>195.39999389648</ele>
        <time>2014-04-27T08:20:17.000Z</time>
      </trkpt>
      <trkpt lat="48.94584" lon="1.05477">
        <ele>195.80000305176</ele>
        <time>2014-04-27T08:20:22.000Z</time>
      </trkpt>
      <trkpt lat="48.94579" lon="1.055">
        <ele>196.19999694824</ele>
        <time>2014-04-27T08:20:27.000Z</time>
      </trkpt>
      <trkpt lat="48.94575" lon="1.05516">
        <ele>196.19999694824</ele>
        <time>2014-04-27T08:20:30.000Z</time>
      </trkpt>
      <trkpt lat="48.94574" lon="1.0552">
        <ele>196.39999389648</ele>
        <time>2014-04-27T08:20:31.000Z</time>
      </trkpt>
      <trkpt lat="48.94568" lon="1.05539">
        <ele>197</ele>
        <time>2014-04-27T08:20:35.000Z</time>
      </trkpt>
      <trkpt lat="48.94562" lon="1.05568">
        <ele>196.80000305176</ele>
        <time>2014-04-27T08:20:40.000Z</time>
      </trkpt>
      <trkpt lat="48.94558" lon="1.05595">
        <ele>197.19999694824</ele>
        <time>2014-04-27T08:20:45.000Z</time>
      </trkpt>
      <trkpt lat="48.94553" lon="1.0562">
        <ele>197.19999694824</ele>
        <time>2014-04-27T08:20:50.000Z</time>
      </trkpt>
      <trkpt lat="48.94549" lon="1.05641">
        <ele>197.19999694824</ele>
        <time>2014-04-27T08:20:54.000Z</time>
      </trkpt>
      <trkpt lat="48.94547" lon="1.05652">
        <ele>197.19999694824</ele>
        <time>2014-04-27T08:20:56.000Z</time>
      </trkpt>
      <trkpt lat="48.94546" lon="1.05658">
        <ele>197.39999389648</ele>
        <time>2014-04-27T08:20:57.000Z</time>
      </trkpt>
      <trkpt lat="48.94545" lon="1.05663">
        <ele>197.39999389648</ele>
        <time>2014-04-27T08:20:58.000Z</time>
      </trkpt>
      <trkpt lat="48.9454" lon="1.05689">
        <ele>198</ele>
        <time>2014-04-27T08:21:03.000Z</time>
      </trkpt>
      <trkpt lat="48.94536" lon="1.05715">
        <ele>198.19999694824</ele>
        <time>2014-04-27T08:21:08.000Z</time>
      </trkpt>
      <trkpt lat="48.94536" lon="1.0572">
        <ele>198.39999389648</ele>
        <time>2014-04-27T08:21:09.000Z</time>
      </trkpt>
      <trkpt lat="48.94534" lon="1.05734">
        <ele>198.80000305176</ele>
        <time>2014-04-27T08:21:12.000Z</time>
      </trkpt>
      <trkpt lat="48.94532" lon="1.05746">
        <ele>198.80000305176</ele>
        <time>2014-04-27T08:21:14.000Z</time>
      </trkpt>
      <trkpt lat="48.94529" lon="1.05763">
        <ele>199.19999694824</ele>
        <time>2014-04-27T08:21:17.000Z</time>
      </trkpt>
      <trkpt lat="48.94527" lon="1.05777">
        <ele>199.60000610352</ele>
        <time>2014-04-27T08:21:20.000Z</time>
      </trkpt>
      <trkpt lat="48.94527" lon="1.05786">
        <ele>199.80000305176</ele>
        <time>2014-04-27T08:21:22.000Z</time>
      </trkpt>
      <trkpt lat="48.94526" lon="1.05805">
        <ele>200.19999694824</ele>
        <time>2014-04-27T08:21:26.000Z</time>
      </trkpt>
      <trkpt lat="48.94526" lon="1.05822">
        <ele>200.60000610352</ele>
        <time>2014-04-27T08:21:30.000Z</time>
      </trkpt>
      <trkpt lat="48.94527" lon="1.05836">
        <ele>201.60000610352</ele>
        <time>2014-04-27T08:21:34.000Z</time>
      </trkpt>
      <trkpt lat="48.94527" lon="1.05857">
        <ele>202.39999389648</ele>
        <time>2014-04-27T08:21:40.000Z</time>
      </trkpt>
      <trkpt lat="48.94527" lon="1.05864">
        <ele>202.39999389648</ele>
        <time>2014-04-27T08:21:42.000Z</time>
      </trkpt>
      <trkpt lat="48.94528" lon="1.05871">
        <ele>202.39999389648</ele>
        <time>2014-04-27T08:21:44.000Z</time>
      </trkpt>
      <trkpt lat="48.9453" lon="1.05888">
        <ele>202.60000610352</ele>
        <time>2014-04-27T08:21:49.000Z</time>
      </trkpt>
      <trkpt lat="48.9453" lon="1.05891">
        <ele>202.80000305176</ele>
        <time>2014-04-27T08:21:50.000Z</time>
      </trkpt>
      <trkpt lat="48.9453" lon="1.05895">
        <ele>203</ele>
        <time>2014-04-27T08:21:51.000Z</time>
      </trkpt>
      <trkpt lat="48.94531" lon="1.0592">
        <ele>203.39999389648</ele>
        <time>2014-04-27T08:21:57.000Z</time>
      </trkpt>
      <trkpt lat="48.94531" lon="1.05928">
        <ele>203.80000305176</ele>
        <time>2014-04-27T08:21:59.000Z</time>
      </trkpt>
      <trkpt lat="48.9453" lon="1.05937">
        <ele>204</ele>
        <time>2014-04-27T08:22:01.000Z</time>
      </trkpt>
      <trkpt lat="48.94531" lon="1.05955">
        <ele>204.39999389648</ele>
        <time>2014-04-27T08:22:05.000Z</time>
      </trkpt>
      <trkpt lat="48.94531" lon="1.05972">
        <ele>204.80000305176</ele>
        <time>2014-04-27T08:22:10.000Z</time>
      </trkpt>
      <trkpt lat="48.9453" lon="1.0598">
        <ele>205</ele>
        <time>2014-04-27T08:22:12.000Z</time>
      </trkpt>
      <trkpt lat="48.94528" lon="1.05999">
        <ele>205.80000305176</ele>
        <time>2014-04-27T08:22:17.000Z</time>
      </trkpt>
      <trkpt lat="48.94528" lon="1.06006">
        <ele>206.19999694824</ele>
        <time>2014-04-27T08:22:19.000Z</time>
      </trkpt>
      <trkpt lat="48.94526" lon="1.0602">
        <ele>206.80000305176</ele>
        <time>2014-04-27T08:22:23.000Z</time>
      </trkpt>
      <trkpt lat="48.94527" lon="1.06036">
        <ele>207.19999694824</ele>
        <time>2014-04-27T08:22:27.000Z</time>
      </trkpt>
      <trkpt lat="48.94527" lon="1.06039">
        <ele>207.19999694824</ele>
        <time>2014-04-27T08:22:28.000Z</time>
      </trkpt>
      <trkpt lat="48.94529" lon="1.0606">
        <ele>208.39999389648</ele>
        <time>2014-04-27T08:22:33.000Z</time>
      </trkpt>
      <trkpt lat="48.94529" lon="1.06064">
        <ele>208.60000610352</ele>
        <time>2014-04-27T08:22:34.000Z</time>
      </trkpt>
      <trkpt lat="48.94529" lon="1.06081">
        <ele>209.39999389648</ele>
        <time>2014-04-27T08:22:38.000Z</time>
      </trkpt>
      <trkpt lat="48.94529" lon="1.0609">
        <ele>209.80000305176</ele>
        <time>2014-04-27T08:22:40.000Z</time>
      </trkpt>
      <trkpt lat="48.94528" lon="1.06111">
        <ele>210</ele>
        <time>2014-04-27T08:22:45.000Z</time>
      </trkpt>
      <trkpt lat="48.94528" lon="1.06128">
        <ele>210.39999389648</ele>
        <time>2014-04-27T08:22:49.000Z</time>
      </trkpt>
      <trkpt lat="48.94528" lon="1.06133">
        <ele>210.60000610352</ele>
        <time>2014-04-27T08:22:50.000Z</time>
      </trkpt>
      <trkpt lat="48.94526" lon="1.06156">
        <ele>211.39999389648</ele>
        <time>2014-04-27T08:22:55.000Z</time>
      </trkpt>
      <trkpt lat="48.94525" lon="1.06161">
        <ele>211.39999389648</ele>
        <time>2014-04-27T08:22:56.000Z</time>
      </trkpt>
      <trkpt lat="48.94522" lon="1.0618">
        <ele>211.39999389648</ele>
        <time>2014-04-27T08:23:01.000Z</time>
      </trkpt>
      <trkpt lat="48.94519" lon="1.06198">
        <ele>211.60000610352</ele>
        <time>2014-04-27T08:23:06.000Z</time>
      </trkpt>
      <trkpt lat="48.94518" lon="1.06202">
        <ele>211.80000305176</ele>
        <time>2014-04-27T08:23:08.000Z</time>
      </trkpt>
      <trkpt lat="48.94515" lon="1.06206">
        <ele>211.80000305176</ele>
        <time>2014-04-27T08:23:10.000Z</time>
      </trkpt>
      <trkpt lat="48.94513" lon="1.06207">
        <ele>211.80000305176</ele>
        <time>2014-04-27T08:23:11.000Z</time>
      </trkpt>
      <trkpt lat="48.94506" lon="1.06213">
        <ele>212</ele>
        <time>2014-04-27T08:23:15.000Z</time>
      </trkpt>
      <trkpt lat="48.94496" lon="1.06221">
        <ele>211.80000305176</ele>
        <time>2014-04-27T08:23:19.000Z</time>
      </trkpt>
      <trkpt lat="48.94493" lon="1.06223">
        <ele>212</ele>
        <time>2014-04-27T08:23:20.000Z</time>
      </trkpt>
      <trkpt lat="48.94476" lon="1.06236">
        <ele>211.60000610352</ele>
        <time>2014-04-27T08:23:26.000Z</time>
      </trkpt>
      <trkpt lat="48.94455" lon="1.06253">
        <ele>211.60000610352</ele>
        <time>2014-04-27T08:23:33.000Z</time>
      </trkpt>
      <trkpt lat="48.94435" lon="1.06269">
        <ele>211.60000610352</ele>
        <time>2014-04-27T08:23:39.000Z</time>
      </trkpt>
      <trkpt lat="48.94414" lon="1.06286">
        <ele>211.60000610352</ele>
        <time>2014-04-27T08:23:45.000Z</time>
      </trkpt>
      <trkpt lat="48.94397" lon="1.06298">
        <ele>211</ele>
        <time>2014-04-27T08:23:50.000Z</time>
      </trkpt>
      <trkpt lat="48.94383" lon="1.06307">
        <ele>210.60000610352</ele>
        <time>2014-04-27T08:23:54.000Z</time>
      </trkpt>
      <trkpt lat="48.94378" lon="1.0631">
        <ele>210.39999389648</ele>
        <time>2014-04-27T08:23:55.000Z</time>
      </trkpt>
      <trkpt lat="48.94354" lon="1.06329">
        <ele>209.80000305176</ele>
        <time>2014-04-27T08:24:01.000Z</time>
      </trkpt>
      <trkpt lat="48.9435" lon="1.06332">
        <ele>209.60000610352</ele>
        <time>2014-04-27T08:24:02.000Z</time>
      </trkpt>
      <trkpt lat="48.94346" lon="1.06335">
        <ele>209.39999389648</ele>
        <time>2014-04-27T08:24:03.000Z</time>
      </trkpt>
      <trkpt lat="48.94316" lon="1.06356">
        <ele>208.80000305176</ele>
        <time>2014-04-27T08:24:10.000Z</time>
      </trkpt>
      <trkpt lat="48.94302" lon="1.06366">
        <ele>208.19999694824</ele>
        <time>2014-04-27T08:24:13.000Z</time>
      </trkpt>
      <trkpt lat="48.94293" lon="1.06373">
        <ele>208</ele>
        <time>2014-04-27T08:24:15.000Z</time>
      </trkpt>
      <trkpt lat="48.94284" lon="1.06379">
        <ele>208</ele>
        <time>2014-04-27T08:24:17.000Z</time>
      </trkpt>
      <trkpt lat="48.94275" lon="1.06386">
        <ele>208</ele>
        <time>2014-04-27T08:24:19.000Z</time>
      </trkpt>
      <trkpt lat="48.94262" lon="1.06396">
        <ele>207.60000610352</ele>
        <time>2014-04-27T08:24:22.000Z</time>
      </trkpt>
      <trkpt lat="48.94252" lon="1.06403">
        <ele>207.39999389648</ele>
        <time>2014-04-27T08:24:24.000Z</time>
      </trkpt>
      <trkpt lat="48.94243" lon="1.06409">
        <ele>206.80000305176</ele>
        <time>2014-04-27T08:24:26.000Z</time>
      </trkpt>
      <trkpt lat="48.94235" lon="1.06414">
        <ele>206.60000610352</ele>
        <time>2014-04-27T08:24:28.000Z</time>
      </trkpt>
      <trkpt lat="48.94211" lon="1.0643">
        <ele>205.80000305176</ele>
        <time>2014-04-27T08:24:34.000Z</time>
      </trkpt>
      <trkpt lat="48.94202" lon="1.06436">
        <ele>205.39999389648</ele>
        <time>2014-04-27T08:24:36.000Z</time>
      </trkpt>
      <trkpt lat="48.94188" lon="1.06443">
        <ele>205.19999694824</ele>
        <time>2014-04-27T08:24:40.000Z</time>
      </trkpt>
      <trkpt lat="48.94179" lon="1.06452">
        <ele>204.60000610352</ele>
        <time>2014-04-27T08:24:43.000Z</time>
      </trkpt>
      <trkpt lat="48.94175" lon="1.06456">
        <ele>204.19999694824</ele>
        <time>2014-04-27T08:24:45.000Z</time>
      </trkpt>
      <trkpt lat="48.94174" lon="1.0646">
        <ele>204</ele>
        <time>2014-04-27T08:24:47.000Z</time>
      </trkpt>
      <trkpt lat="48.94175" lon="1.06469">
        <ele>204.39999389648</ele>
        <time>2014-04-27T08:24:51.000Z</time>
      </trkpt>
      <trkpt lat="48.94175" lon="1.06471">
        <ele>204.39999389648</ele>
        <time>2014-04-27T08:24:52.000Z</time>
      </trkpt>
      <trkpt lat="48.94176" lon="1.06487">
        <ele>205.19999694824</ele>
        <time>2014-04-27T08:24:58.000Z</time>
      </trkpt>
      <trkpt lat="48.94179" lon="1.06499">
        <ele>205.60000610352</ele>
        <time>2014-04-27T08:25:02.000Z</time>
      </trkpt>
      <trkpt lat="48.94179" lon="1.06503">
        <ele>205.80000305176</ele>
        <time>2014-04-27T08:25:03.000Z</time>
      </trkpt>
      <trkpt lat="48.94182" lon="1.06516">
        <ele>206.60000610352</ele>
        <time>2014-04-27T08:25:07.000Z</time>
      </trkpt>
      <trkpt lat="48.94183" lon="1.0652">
        <ele>206.80000305176</ele>
        <time>2014-04-27T08:25:08.000Z</time>
      </trkpt>
      <trkpt lat="48.94183" lon="1.06523">
        <ele>206.80000305176</ele>
        <time>2014-04-27T08:25:09.000Z</time>
      </trkpt>
      <trkpt lat="48.94188" lon="1.06543">
        <ele>207.60000610352</ele>
        <time>2014-04-27T08:25:13.000Z</time>
      </trkpt>
      <trkpt lat="48.94191" lon="1.06559">
        <ele>207.39999389648</ele>
        <time>2014-04-27T08:25:17.000Z</time>
      </trkpt>
      <trkpt lat="48.94194" lon="1.06573">
        <ele>207.60000610352</ele>
        <time>2014-04-27T08:25:20.000Z</time>
      </trkpt>
      <trkpt lat="48.94197" lon="1.06581">
        <ele>208.19999694824</ele>
        <time>2014-04-27T08:25:22.000Z</time>
      </trkpt>
      <trkpt lat="48.942" lon="1.06589">
        <ele>208.19999694824</ele>
        <time>2014-04-27T08:25:24.000Z</time>
      </trkpt>
      <trkpt lat="48.94202" lon="1.06594">
        <ele>208.39999389648</ele>
        <time>2014-04-27T08:25:25.000Z</time>
      </trkpt>
      <trkpt lat="48.94211" lon="1.06623">
        <ele>208.19999694824</ele>
        <time>2014-04-27T08:25:31.000Z</time>
      </trkpt>
      <trkpt lat="48.9422" lon="1.06653">
        <ele>208</ele>
        <time>2014-04-27T08:25:36.000Z</time>
      </trkpt>
      <trkpt lat="48.94225" lon="1.06671">
        <ele>208</ele>
        <time>2014-04-27T08:25:39.000Z</time>
      </trkpt>
      <trkpt lat="48.94226" lon="1.06676">
        <ele>208</ele>
        <time>2014-04-27T08:25:40.000Z</time>
      </trkpt>
      <trkpt lat="48.94228" lon="1.06697">
        <ele>208</ele>
        <time>2014-04-27T08:25:45.000Z</time>
      </trkpt>
      <trkpt lat="48.9422" lon="1.06705">
        <ele>208</ele>
        <time>2014-04-27T08:25:49.000Z</time>
      </trkpt>
      <trkpt lat="48.94206" lon="1.06716">
        <ele>208</ele>
        <time>2014-04-27T08:25:53.000Z</time>
      </trkpt>
      <trkpt lat="48.94183" lon="1.06733">
        <ele>207.60000610352</ele>
        <time>2014-04-27T08:25:59.000Z</time>
      </trkpt>
      <trkpt lat="48.94169" lon="1.06744">
        <ele>207</ele>
        <time>2014-04-27T08:26:03.000Z</time>
      </trkpt>
      <trkpt lat="48.94162" lon="1.06749">
        <ele>206.60000610352</ele>
        <time>2014-04-27T08:26:05.000Z</time>
      </trkpt>
      <trkpt lat="48.94146" lon="1.0676">
        <ele>207.39999389648</ele>
        <time>2014-04-27T08:26:10.000Z</time>
      </trkpt>
      <trkpt lat="48.9413" lon="1.06771">
        <ele>206.80000305176</ele>
        <time>2014-04-27T08:26:15.000Z</time>
      </trkpt>
      <trkpt lat="48.94114" lon="1.06784">
        <ele>206.80000305176</ele>
        <time>2014-04-27T08:26:20.000Z</time>
      </trkpt>
      <trkpt lat="48.94096" lon="1.06795">
        <ele>206.60000610352</ele>
        <time>2014-04-27T08:26:25.000Z</time>
      </trkpt>
      <trkpt lat="48.94081" lon="1.06807">
        <ele>206.80000305176</ele>
        <time>2014-04-27T08:26:29.000Z</time>
      </trkpt>
      <trkpt lat="48.94058" lon="1.06822">
        <ele>206.39999389648</ele>
        <time>2014-04-27T08:26:35.000Z</time>
      </trkpt>
      <trkpt lat="48.94039" lon="1.06839">
        <ele>206.39999389648</ele>
        <time>2014-04-27T08:26:40.000Z</time>
      </trkpt>
      <trkpt lat="48.94027" lon="1.06847">
        <ele>206</ele>
        <time>2014-04-27T08:26:43.000Z</time>
      </trkpt>
      <trkpt lat="48.94016" lon="1.06854">
        <ele>205.80000305176</ele>
        <time>2014-04-27T08:26:46.000Z</time>
      </trkpt>
      <trkpt lat="48.93999" lon="1.06865">
        <ele>205.60000610352</ele>
        <time>2014-04-27T08:26:51.000Z</time>
      </trkpt>
      <trkpt lat="48.93981" lon="1.06876">
        <ele>205.80000305176</ele>
        <time>2014-04-27T08:26:56.000Z</time>
      </trkpt>
      <trkpt lat="48.93968" lon="1.06885">
        <ele>206</ele>
        <time>2014-04-27T08:27:00.000Z</time>
      </trkpt>
      <trkpt lat="48.93955" lon="1.06893">
        <ele>205.80000305176</ele>
        <time>2014-04-27T08:27:04.000Z</time>
      </trkpt>
      <trkpt lat="48.93937" lon="1.06906">
        <ele>205.80000305176</ele>
        <time>2014-04-27T08:27:09.000Z</time>
      </trkpt>
      <trkpt lat="48.93918" lon="1.06919">
        <ele>205.80000305176</ele>
        <time>2014-04-27T08:27:14.000Z</time>
      </trkpt>
      <trkpt lat="48.93894" lon="1.06938">
        <ele>205.60000610352</ele>
        <time>2014-04-27T08:27:21.000Z</time>
      </trkpt>
      <trkpt lat="48.93884" lon="1.06945">
        <ele>205</ele>
        <time>2014-04-27T08:27:24.000Z</time>
      </trkpt>
      <trkpt lat="48.93877" lon="1.06951">
        <ele>204</ele>
        <time>2014-04-27T08:27:27.000Z</time>
      </trkpt>
      <trkpt lat="48.93875" lon="1.06953">
        <ele>203.80000305176</ele>
        <time>2014-04-27T08:27:28.000Z</time>
      </trkpt>
      <trkpt lat="48.93864" lon="1.06959">
        <ele>202.80000305176</ele>
        <time>2014-04-27T08:27:33.000Z</time>
      </trkpt>
      <trkpt lat="48.93863" lon="1.06959">
        <ele>202.60000610352</ele>
        <time>2014-04-27T08:27:34.000Z</time>
      </trkpt>
      <trkpt lat="48.93857" lon="1.06961">
        <ele>202</ele>
        <time>2014-04-27T08:27:37.000Z</time>
      </trkpt>
      <trkpt lat="48.93855" lon="1.06963">
        <ele>201.80000305176</ele>
        <time>2014-04-27T08:27:38.000Z</time>
      </trkpt>
      <trkpt lat="48.93849" lon="1.0697">
        <ele>201.19999694824</ele>
        <time>2014-04-27T08:27:41.000Z</time>
      </trkpt>
      <trkpt lat="48.93839" lon="1.06977">
        <ele>201.80000305176</ele>
        <time>2014-04-27T08:27:45.000Z</time>
      </trkpt>
      <trkpt lat="48.93831" lon="1.06983">
        <ele>203</ele>
        <time>2014-04-27T08:27:49.000Z</time>
      </trkpt>
      <trkpt lat="48.93829" lon="1.06987">
        <ele>203.60000610352</ele>
        <time>2014-04-27T08:27:50.000Z</time>
      </trkpt>
      <trkpt lat="48.93824" lon="1.0699">
        <ele>204.19999694824</ele>
        <time>2014-04-27T08:27:52.000Z</time>
      </trkpt>
      <trkpt lat="48.93821" lon="1.06991">
        <ele>204.39999389648</ele>
        <time>2014-04-27T08:27:53.000Z</time>
      </trkpt>
      <trkpt lat="48.93818" lon="1.06994">
        <ele>204.60000610352</ele>
        <time>2014-04-27T08:27:54.000Z</time>
      </trkpt>
      <trkpt lat="48.93806" lon="1.07003">
        <ele>205.19999694824</ele>
        <time>2014-04-27T08:27:59.000Z</time>
      </trkpt>
      <trkpt lat="48.93793" lon="1.07012">
        <ele>206</ele>
        <time>2014-04-27T08:28:04.000Z</time>
      </trkpt>
      <trkpt lat="48.93775" lon="1.07023">
        <ele>206</ele>
        <time>2014-04-27T08:28:09.000Z</time>
      </trkpt>
      <trkpt lat="48.93758" lon="1.07034">
        <ele>206</ele>
        <time>2014-04-27T08:28:14.000Z</time>
      </trkpt>
      <trkpt lat="48.93755" lon="1.07034">
        <ele>205.80000305176</ele>
        <time>2014-04-27T08:28:15.000Z</time>
      </trkpt>
      <trkpt lat="48.93745" lon="1.07042">
        <ele>205.80000305176</ele>
        <time>2014-04-27T08:28:18.000Z</time>
      </trkpt>
      <trkpt lat="48.93741" lon="1.07045">
        <ele>205.80000305176</ele>
        <time>2014-04-27T08:28:19.000Z</time>
      </trkpt>
      <trkpt lat="48.93726" lon="1.07056">
        <ele>205.80000305176</ele>
        <time>2014-04-27T08:28:23.000Z</time>
      </trkpt>
      <trkpt lat="48.93709" lon="1.07069">
        <ele>205.80000305176</ele>
        <time>2014-04-27T08:28:28.000Z</time>
      </trkpt>
      <trkpt lat="48.93693" lon="1.07077">
        <ele>205.19999694824</ele>
        <time>2014-04-27T08:28:33.000Z</time>
      </trkpt>
      <trkpt lat="48.93677" lon="1.07089">
        <ele>204.60000610352</ele>
        <time>2014-04-27T08:28:37.000Z</time>
      </trkpt>
      <trkpt lat="48.93664" lon="1.07097">
        <ele>203.80000305176</ele>
        <time>2014-04-27T08:28:40.000Z</time>
      </trkpt>
      <trkpt lat="48.93648" lon="1.07107">
        <ele>203.80000305176</ele>
        <time>2014-04-27T08:28:43.000Z</time>
      </trkpt>
      <trkpt lat="48.93628" lon="1.0712">
        <ele>203.80000305176</ele>
        <time>2014-04-27T08:28:47.000Z</time>
      </trkpt>
      <trkpt lat="48.93623" lon="1.07125">
        <ele>203.60000610352</ele>
        <time>2014-04-27T08:28:48.000Z</time>
      </trkpt>
      <trkpt lat="48.93601" lon="1.07142">
        <ele>203.80000305176</ele>
        <time>2014-04-27T08:28:53.000Z</time>
      </trkpt>
      <trkpt lat="48.93583" lon="1.07154">
        <ele>204.39999389648</ele>
        <time>2014-04-27T08:28:58.000Z</time>
      </trkpt>
      <trkpt lat="48.9357" lon="1.07163">
        <ele>204</ele>
        <time>2014-04-27T08:29:03.000Z</time>
      </trkpt>
      <trkpt lat="48.93554" lon="1.07174">
        <ele>204.19999694824</ele>
        <time>2014-04-27T08:29:08.000Z</time>
      </trkpt>
      <trkpt lat="48.9354" lon="1.07185">
        <ele>204.39999389648</ele>
        <time>2014-04-27T08:29:12.000Z</time>
      </trkpt>
      <trkpt lat="48.93529" lon="1.07191">
        <ele>205</ele>
        <time>2014-04-27T08:29:15.000Z</time>
      </trkpt>
      <trkpt lat="48.93525" lon="1.07194">
        <ele>204.80000305176</ele>
        <time>2014-04-27T08:29:16.000Z</time>
      </trkpt>
      <trkpt lat="48.93508" lon="1.07207">
        <ele>204.60000610352</ele>
        <time>2014-04-27T08:29:20.000Z</time>
      </trkpt>
      <trkpt lat="48.93489" lon="1.07218">
        <ele>204.60000610352</ele>
        <time>2014-04-27T08:29:25.000Z</time>
      </trkpt>
      <trkpt lat="48.93465" lon="1.07235">
        <ele>204.39999389648</ele>
        <time>2014-04-27T08:29:31.000Z</time>
      </trkpt>
      <trkpt lat="48.93461" lon="1.07238">
        <ele>204.39999389648</ele>
        <time>2014-04-27T08:29:32.000Z</time>
      </trkpt>
      <trkpt lat="48.93449" lon="1.07245">
        <ele>204.19999694824</ele>
        <time>2014-04-27T08:29:35.000Z</time>
      </trkpt>
      <trkpt lat="48.93445" lon="1.07248">
        <ele>204.39999389648</ele>
        <time>2014-04-27T08:29:36.000Z</time>
      </trkpt>
      <trkpt lat="48.93441" lon="1.0725">
        <ele>204.60000610352</ele>
        <time>2014-04-27T08:29:37.000Z</time>
      </trkpt>
      <trkpt lat="48.9343" lon="1.07257">
        <ele>204.19999694824</ele>
        <time>2014-04-27T08:29:40.000Z</time>
      </trkpt>
      <trkpt lat="48.93418" lon="1.07265">
        <ele>204</ele>
        <time>2014-04-27T08:29:44.000Z</time>
      </trkpt>
      <trkpt lat="48.93415" lon="1.07267">
        <ele>203.80000305176</ele>
        <time>2014-04-27T08:29:45.000Z</time>
      </trkpt>
      <trkpt lat="48.93407" lon="1.07271">
        <ele>203.80000305176</ele>
        <time>2014-04-27T08:29:49.000Z</time>
      </trkpt>
      <trkpt lat="48.93393" lon="1.07279">
        <ele>203.80000305176</ele>
        <time>2014-04-27T08:29:54.000Z</time>
      </trkpt>
      <trkpt lat="48.9339" lon="1.07284">
        <ele>203.60000610352</ele>
        <time>2014-04-27T08:29:58.000Z</time>
      </trkpt>
      <trkpt lat="48.93389" lon="1.07296">
        <ele>204</ele>
        <time>2014-04-27T08:30:05.000Z</time>
      </trkpt>
      <trkpt lat="48.93394" lon="1.07309">
        <ele>204</ele>
        <time>2014-04-27T08:30:09.000Z</time>
      </trkpt>
      <trkpt lat="48.93395" lon="1.07314">
        <ele>204</ele>
        <time>2014-04-27T08:30:10.000Z</time>
      </trkpt>
      <trkpt lat="48.934" lon="1.07324">
        <ele>204</ele>
        <time>2014-04-27T08:30:13.000Z</time>
      </trkpt>
      <trkpt lat="48.93408" lon="1.07346">
        <ele>204.19999694824</ele>
        <time>2014-04-27T08:30:18.000Z</time>
      </trkpt>
      <trkpt lat="48.93411" lon="1.0735">
        <ele>204.19999694824</ele>
        <time>2014-04-27T08:30:19.000Z</time>
      </trkpt>
      <trkpt lat="48.93419" lon="1.07376">
        <ele>204.19999694824</ele>
        <time>2014-04-27T08:30:25.000Z</time>
      </trkpt>
      <trkpt lat="48.93426" lon="1.07407">
        <ele>204.80000305176</ele>
        <time>2014-04-27T08:30:32.000Z</time>
      </trkpt>
      <trkpt lat="48.93427" lon="1.07412">
        <ele>205</ele>
        <time>2014-04-27T08:30:33.000Z</time>
      </trkpt>
      <trkpt lat="48.93433" lon="1.07447">
        <ele>205.60000610352</ele>
        <time>2014-04-27T08:30:39.000Z</time>
      </trkpt>
      <trkpt lat="48.93435" lon="1.07459">
        <ele>206</ele>
        <time>2014-04-27T08:30:41.000Z</time>
      </trkpt>
      <trkpt lat="48.93439" lon="1.07488">
        <ele>206.39999389648</ele>
        <time>2014-04-27T08:30:46.000Z</time>
      </trkpt>
      <trkpt lat="48.93448" lon="1.07546">
        <ele>206.80000305176</ele>
        <time>2014-04-27T08:30:55.000Z</time>
      </trkpt>
      <trkpt lat="48.93457" lon="1.076">
        <ele>207</ele>
        <time>2014-04-27T08:31:03.000Z</time>
      </trkpt>
      <trkpt lat="48.93458" lon="1.07606">
        <ele>207</ele>
        <time>2014-04-27T08:31:04.000Z</time>
      </trkpt>
      <trkpt lat="48.93462" lon="1.07632">
        <ele>207.80000305176</ele>
        <time>2014-04-27T08:31:08.000Z</time>
      </trkpt>
      <trkpt lat="48.93465" lon="1.07645">
        <ele>208</ele>
        <time>2014-04-27T08:31:10.000Z</time>
      </trkpt>
      <trkpt lat="48.93467" lon="1.07659">
        <ele>208.19999694824</ele>
        <time>2014-04-27T08:31:12.000Z</time>
      </trkpt>
      <trkpt lat="48.93479" lon="1.07723">
        <ele>209.39999389648</ele>
        <time>2014-04-27T08:31:21.000Z</time>
      </trkpt>
      <trkpt lat="48.93489" lon="1.07785">
        <ele>209.19999694824</ele>
        <time>2014-04-27T08:31:29.000Z</time>
      </trkpt>
      <trkpt lat="48.93502" lon="1.07865">
        <ele>209.60000610352</ele>
        <time>2014-04-27T08:31:39.000Z</time>
      </trkpt>
      <trkpt lat="48.9351" lon="1.07917">
        <ele>210.39999389648</ele>
        <time>2014-04-27T08:31:46.000Z</time>
      </trkpt>
      <trkpt lat="48.93512" lon="1.07925">
        <ele>210.39999389648</ele>
        <time>2014-04-27T08:31:47.000Z</time>
      </trkpt>
      <trkpt lat="48.9352" lon="1.07979">
        <ele>211</ele>
        <time>2014-04-27T08:31:55.000Z</time>
      </trkpt>
      <trkpt lat="48.93532" lon="1.08005">
        <ele>211.39999389648</ele>
        <time>2014-04-27T08:32:01.000Z</time>
      </trkpt>
      <trkpt lat="48.93539" lon="1.08005">
        <ele>211.60000610352</ele>
        <time>2014-04-27T08:32:03.000Z</time>
      </trkpt>
      <trkpt lat="48.93547" lon="1.08001">
        <ele>211.60000610352</ele>
        <time>2014-04-27T08:32:05.000Z</time>
      </trkpt>
      <trkpt lat="48.9357" lon="1.07982">
        <ele>211.80000305176</ele>
        <time>2014-04-27T08:32:11.000Z</time>
      </trkpt>
      <trkpt lat="48.93578" lon="1.07976">
        <ele>212</ele>
        <time>2014-04-27T08:32:13.000Z</time>
      </trkpt>
      <trkpt lat="48.93595" lon="1.07965">
        <ele>212.60000610352</ele>
        <time>2014-04-27T08:32:17.000Z</time>
      </trkpt>
      <trkpt lat="48.93599" lon="1.07962">
        <ele>212.80000305176</ele>
        <time>2014-04-27T08:32:18.000Z</time>
      </trkpt>
      <trkpt lat="48.9363" lon="1.07944">
        <ele>213.19999694824</ele>
        <time>2014-04-27T08:32:25.000Z</time>
      </trkpt>
      <trkpt lat="48.93658" lon="1.07931">
        <ele>213.19999694824</ele>
        <time>2014-04-27T08:32:31.000Z</time>
      </trkpt>
      <trkpt lat="48.93686" lon="1.07917">
        <ele>213.39999389648</ele>
        <time>2014-04-27T08:32:37.000Z</time>
      </trkpt>
      <trkpt lat="48.93713" lon="1.07903">
        <ele>213.60000610352</ele>
        <time>2014-04-27T08:32:43.000Z</time>
      </trkpt>
      <trkpt lat="48.93723" lon="1.07898">
        <ele>213.60000610352</ele>
        <time>2014-04-27T08:32:45.000Z</time>
      </trkpt>
      <trkpt lat="48.93765" lon="1.07877">
        <ele>213.80000305176</ele>
        <time>2014-04-27T08:32:54.000Z</time>
      </trkpt>
      <trkpt lat="48.93804" lon="1.07858">
        <ele>213.80000305176</ele>
        <time>2014-04-27T08:33:02.000Z</time>
      </trkpt>
      <trkpt lat="48.93828" lon="1.07846">
        <ele>213.39999389648</ele>
        <time>2014-04-27T08:33:07.000Z</time>
      </trkpt>
      <trkpt lat="48.93839" lon="1.0784">
        <ele>213.39999389648</ele>
        <time>2014-04-27T08:33:09.000Z</time>
      </trkpt>
      <trkpt lat="48.93882" lon="1.0782">
        <ele>212.80000305176</ele>
        <time>2014-04-27T08:33:17.000Z</time>
      </trkpt>
      <trkpt lat="48.93903" lon="1.07809">
        <ele>212.39999389648</ele>
        <time>2014-04-27T08:33:21.000Z</time>
      </trkpt>
      <trkpt lat="48.9393" lon="1.07796">
        <ele>212.60000610352</ele>
        <time>2014-04-27T08:33:26.000Z</time>
      </trkpt>
      <trkpt lat="48.93975" lon="1.07775">
        <ele>212.80000305176</ele>
        <time>2014-04-27T08:33:34.000Z</time>
      </trkpt>
      <trkpt lat="48.94007" lon="1.07758">
        <ele>213.60000610352</ele>
        <time>2014-04-27T08:33:40.000Z</time>
      </trkpt>
      <trkpt lat="48.94012" lon="1.07756">
        <ele>213.60000610352</ele>
        <time>2014-04-27T08:33:41.000Z</time>
      </trkpt>
      <trkpt lat="48.94036" lon="1.07748">
        <ele>213.60000610352</ele>
        <time>2014-04-27T08:33:45.000Z</time>
      </trkpt>
      <trkpt lat="48.94042" lon="1.07746">
        <ele>213.39999389648</ele>
        <time>2014-04-27T08:33:46.000Z</time>
      </trkpt>
      <trkpt lat="48.94083" lon="1.07728">
        <ele>213.60000610352</ele>
        <time>2014-04-27T08:33:53.000Z</time>
      </trkpt>
      <trkpt lat="48.94134" lon="1.07705">
        <ele>213.19999694824</ele>
        <time>2014-04-27T08:34:01.000Z</time>
      </trkpt>
      <trkpt lat="48.94183" lon="1.07683">
        <ele>213.39999389648</ele>
        <time>2014-04-27T08:34:09.000Z</time>
      </trkpt>
      <trkpt lat="48.94235" lon="1.0766">
        <ele>213.60000610352</ele>
        <time>2014-04-27T08:34:18.000Z</time>
      </trkpt>
      <trkpt lat="48.9428" lon="1.07639">
        <ele>213.60000610352</ele>
        <time>2014-04-27T08:34:26.000Z</time>
      </trkpt>
      <trkpt lat="48.94311" lon="1.07623">
        <ele>214.60000610352</ele>
        <time>2014-04-27T08:34:32.000Z</time>
      </trkpt>
      <trkpt lat="48.94321" lon="1.07617">
        <ele>214.80000305176</ele>
        <time>2014-04-27T08:34:34.000Z</time>
      </trkpt>
      <trkpt lat="48.94361" lon="1.07598">
        <ele>214.80000305176</ele>
        <time>2014-04-27T08:34:42.000Z</time>
      </trkpt>
      <trkpt lat="48.94365" lon="1.07596">
        <ele>214.80000305176</ele>
        <time>2014-04-27T08:34:43.000Z</time>
      </trkpt>
      <trkpt lat="48.94383" lon="1.07587">
        <ele>215</ele>
        <time>2014-04-27T08:34:47.000Z</time>
      </trkpt>
      <trkpt lat="48.94396" lon="1.0758">
        <ele>215</ele>
        <time>2014-04-27T08:34:50.000Z</time>
      </trkpt>
      <trkpt lat="48.94405" lon="1.07575">
        <ele>215.19999694824</ele>
        <time>2014-04-27T08:34:52.000Z</time>
      </trkpt>
      <trkpt lat="48.94445" lon="1.07556">
        <ele>215</ele>
        <time>2014-04-27T08:35:00.000Z</time>
      </trkpt>
      <trkpt lat="48.94485" lon="1.07534">
        <ele>214.39999389648</ele>
        <time>2014-04-27T08:35:08.000Z</time>
      </trkpt>
      <trkpt lat="48.94526" lon="1.07513">
        <ele>214</ele>
        <time>2014-04-27T08:35:16.000Z</time>
      </trkpt>
      <trkpt lat="48.94566" lon="1.07494">
        <ele>213.80000305176</ele>
        <time>2014-04-27T08:35:24.000Z</time>
      </trkpt>
      <trkpt lat="48.94576" lon="1.0749">
        <ele>213.39999389648</ele>
        <time>2014-04-27T08:35:26.000Z</time>
      </trkpt>
      <trkpt lat="48.94598" lon="1.07484">
        <ele>213.19999694824</ele>
        <time>2014-04-27T08:35:30.000Z</time>
      </trkpt>
      <trkpt lat="48.94603" lon="1.07486">
        <ele>213.19999694824</ele>
        <time>2014-04-27T08:35:31.000Z</time>
      </trkpt>
      <trkpt lat="48.94613" lon="1.07503">
        <ele>213</ele>
        <time>2014-04-27T08:35:34.000Z</time>
      </trkpt>
      <trkpt lat="48.94618" lon="1.07517">
        <ele>212.80000305176</ele>
        <time>2014-04-27T08:35:36.000Z</time>
      </trkpt>
      <trkpt lat="48.94629" lon="1.07555">
        <ele>212.80000305176</ele>
        <time>2014-04-27T08:35:41.000Z</time>
      </trkpt>
      <trkpt lat="48.94647" lon="1.07624">
        <ele>213</ele>
        <time>2014-04-27T08:35:49.000Z</time>
      </trkpt>
      <trkpt lat="48.9467" lon="1.07697">
        <ele>212.60000610352</ele>
        <time>2014-04-27T08:35:57.000Z</time>
      </trkpt>
      <trkpt lat="48.94678" lon="1.07727">
        <ele>212.39999389648</ele>
        <time>2014-04-27T08:36:00.000Z</time>
      </trkpt>
      <trkpt lat="48.94687" lon="1.07757">
        <ele>212.19999694824</ele>
        <time>2014-04-27T08:36:03.000Z</time>
      </trkpt>
      <trkpt lat="48.94707" lon="1.07832">
        <ele>211.39999389648</ele>
        <time>2014-04-27T08:36:10.000Z</time>
      </trkpt>
      <trkpt lat="48.94709" lon="1.07838">
        <ele>211.39999389648</ele>
        <time>2014-04-27T08:36:11.000Z</time>
      </trkpt>
      <trkpt lat="48.94731" lon="1.07914">
        <ele>211</ele>
        <time>2014-04-27T08:36:18.000Z</time>
      </trkpt>
      <trkpt lat="48.94737" lon="1.07935">
        <ele>211</ele>
        <time>2014-04-27T08:36:20.000Z</time>
      </trkpt>
      <trkpt lat="48.94761" lon="1.08017">
        <ele>210.60000610352</ele>
        <time>2014-04-27T08:36:28.000Z</time>
      </trkpt>
      <trkpt lat="48.94784" lon="1.08099">
        <ele>210.60000610352</ele>
        <time>2014-04-27T08:36:36.000Z</time>
      </trkpt>
      <trkpt lat="48.94787" lon="1.08109">
        <ele>210.60000610352</ele>
        <time>2014-04-27T08:36:37.000Z</time>
      </trkpt>
      <trkpt lat="48.94796" lon="1.0814">
        <ele>210.39999389648</ele>
        <time>2014-04-27T08:36:40.000Z</time>
      </trkpt>
      <trkpt lat="48.94812" lon="1.082">
        <ele>209.80000305176</ele>
        <time>2014-04-27T08:36:46.000Z</time>
      </trkpt>
      <trkpt lat="48.94828" lon="1.08256">
        <ele>209.19999694824</ele>
        <time>2014-04-27T08:36:51.000Z</time>
      </trkpt>
      <trkpt lat="48.9484" lon="1.08297">
        <ele>209</ele>
        <time>2014-04-27T08:36:55.000Z</time>
      </trkpt>
      <trkpt lat="48.94855" lon="1.08349">
        <ele>208</ele>
        <time>2014-04-27T08:37:00.000Z</time>
      </trkpt>
      <trkpt lat="48.94878" lon="1.08428">
        <ele>207.80000305176</ele>
        <time>2014-04-27T08:37:08.000Z</time>
      </trkpt>
      <trkpt lat="48.94894" lon="1.08482">
        <ele>207</ele>
        <time>2014-04-27T08:37:14.000Z</time>
      </trkpt>
      <trkpt lat="48.94898" lon="1.08494">
        <ele>207.19999694824</ele>
        <time>2014-04-27T08:37:16.000Z</time>
      </trkpt>
      <trkpt lat="48.94926" lon="1.08564">
        <ele>207.80000305176</ele>
        <time>2014-04-27T08:37:25.000Z</time>
      </trkpt>
      <trkpt lat="48.94948" lon="1.08605">
        <ele>207.60000610352</ele>
        <time>2014-04-27T08:37:32.000Z</time>
      </trkpt>
      <trkpt lat="48.94953" lon="1.08615">
        <ele>207.39999389648</ele>
        <time>2014-04-27T08:37:34.000Z</time>
      </trkpt>
      <trkpt lat="48.94959" lon="1.08633">
        <ele>207.19999694824</ele>
        <time>2014-04-27T08:37:37.000Z</time>
      </trkpt>
      <trkpt lat="48.94968" lon="1.08656">
        <ele>207.19999694824</ele>
        <time>2014-04-27T08:37:41.000Z</time>
      </trkpt>
      <trkpt lat="48.94973" lon="1.08672">
        <ele>207.39999389648</ele>
        <time>2014-04-27T08:37:44.000Z</time>
      </trkpt>
      <trkpt lat="48.94974" lon="1.08682">
        <ele>207.19999694824</ele>
        <time>2014-04-27T08:37:46.000Z</time>
      </trkpt>
      <trkpt lat="48.94972" lon="1.08686">
        <ele>207.19999694824</ele>
        <time>2014-04-27T08:37:47.000Z</time>
      </trkpt>
      <trkpt lat="48.9496" lon="1.08699">
        <ele>207.19999694824</ele>
        <time>2014-04-27T08:37:50.000Z</time>
      </trkpt>
      <trkpt lat="48.94956" lon="1.08703">
        <ele>207</ele>
        <time>2014-04-27T08:37:51.000Z</time>
      </trkpt>
      <trkpt lat="48.94929" lon="1.0873">
        <ele>206.60000610352</ele>
        <time>2014-04-27T08:37:57.000Z</time>
      </trkpt>
      <trkpt lat="48.94907" lon="1.08752">
        <ele>206</ele>
        <time>2014-04-27T08:38:02.000Z</time>
      </trkpt>
      <trkpt lat="48.94905" lon="1.08757">
        <ele>205.80000305176</ele>
        <time>2014-04-27T08:38:03.000Z</time>
      </trkpt>
      <trkpt lat="48.94904" lon="1.08765">
        <ele>206</ele>
        <time>2014-04-27T08:38:04.000Z</time>
      </trkpt>
      <trkpt lat="48.94909" lon="1.08783">
        <ele>205.39999389648</ele>
        <time>2014-04-27T08:38:07.000Z</time>
      </trkpt>
      <trkpt lat="48.94917" lon="1.08803">
        <ele>205.19999694824</ele>
        <time>2014-04-27T08:38:10.000Z</time>
      </trkpt>
      <trkpt lat="48.94923" lon="1.08823">
        <ele>205.39999389648</ele>
        <time>2014-04-27T08:38:13.000Z</time>
      </trkpt>
      <trkpt lat="48.94928" lon="1.08836">
        <ele>205.19999694824</ele>
        <time>2014-04-27T08:38:15.000Z</time>
      </trkpt>
      <trkpt lat="48.94935" lon="1.08852">
        <ele>205</ele>
        <time>2014-04-27T08:38:18.000Z</time>
      </trkpt>
      <trkpt lat="48.94936" lon="1.08855">
        <ele>204.80000305176</ele>
        <time>2014-04-27T08:38:19.000Z</time>
      </trkpt>
      <trkpt lat="48.94936" lon="1.08856">
        <ele>204.19999694824</ele>
        <time>2014-04-27T08:38:21.000Z</time>
      </trkpt>
      <trkpt lat="48.94936" lon="1.08859">
        <ele>204.39999389648</ele>
        <time>2014-04-27T08:38:26.000Z</time>
      </trkpt>
      <trkpt lat="48.9494" lon="1.08865">
        <ele>204.39999389648</ele>
        <time>2014-04-27T08:38:31.000Z</time>
      </trkpt>
      <trkpt lat="48.94947" lon="1.08886">
        <ele>204.80000305176</ele>
        <time>2014-04-27T08:38:36.000Z</time>
      </trkpt>
      <trkpt lat="48.94959" lon="1.08918">
        <ele>204</ele>
        <time>2014-04-27T08:38:43.000Z</time>
      </trkpt>
      <trkpt lat="48.94961" lon="1.08923">
        <ele>203.80000305176</ele>
        <time>2014-04-27T08:38:44.000Z</time>
      </trkpt>
      <trkpt lat="48.94976" lon="1.08964">
        <ele>203.19999694824</ele>
        <time>2014-04-27T08:38:52.000Z</time>
      </trkpt>
      <trkpt lat="48.94984" lon="1.08986">
        <ele>202.80000305176</ele>
        <time>2014-04-27T08:38:56.000Z</time>
      </trkpt>
      <trkpt lat="48.9499" lon="1.09001">
        <ele>202.39999389648</ele>
        <time>2014-04-27T08:38:59.000Z</time>
      </trkpt>
      <trkpt lat="48.95005" lon="1.09042">
        <ele>201.60000610352</ele>
        <time>2014-04-27T08:39:07.000Z</time>
      </trkpt>
      <trkpt lat="48.95012" lon="1.09061">
        <ele>201.19999694824</ele>
        <time>2014-04-27T08:39:10.000Z</time>
      </trkpt>
      <trkpt lat="48.95025" lon="1.09096">
        <ele>201</ele>
        <time>2014-04-27T08:39:15.000Z</time>
      </trkpt>
      <trkpt lat="48.95036" lon="1.09126">
        <ele>200.19999694824</ele>
        <time>2014-04-27T08:39:19.000Z</time>
      </trkpt>
      <trkpt lat="48.95045" lon="1.0915">
        <ele>199.19999694824</ele>
        <time>2014-04-27T08:39:22.000Z</time>
      </trkpt>
      <trkpt lat="48.95056" lon="1.09181">
        <ele>199.60000610352</ele>
        <time>2014-04-27T08:39:26.000Z</time>
      </trkpt>
      <trkpt lat="48.95081" lon="1.09249">
        <ele>198</ele>
        <time>2014-04-27T08:39:35.000Z</time>
      </trkpt>
      <trkpt lat="48.95087" lon="1.09266">
        <ele>197.19999694824</ele>
        <time>2014-04-27T08:39:37.000Z</time>
      </trkpt>
      <trkpt lat="48.95091" lon="1.09275">
        <ele>196.60000610352</ele>
        <time>2014-04-27T08:39:38.000Z</time>
      </trkpt>
      <trkpt lat="48.95098" lon="1.09296">
        <ele>195.19999694824</ele>
        <time>2014-04-27T08:39:40.000Z</time>
      </trkpt>
      <trkpt lat="48.95102" lon="1.09305">
        <ele>194.19999694824</ele>
        <time>2014-04-27T08:39:41.000Z</time>
      </trkpt>
      <trkpt lat="48.95106" lon="1.09316">
        <ele>193.60000610352</ele>
        <time>2014-04-27T08:39:42.000Z</time>
      </trkpt>
      <trkpt lat="48.95112" lon="1.09334">
        <ele>192.80000305176</ele>
        <time>2014-04-27T08:39:44.000Z</time>
      </trkpt>
      <trkpt lat="48.95117" lon="1.09347">
        <ele>192.39999389648</ele>
        <time>2014-04-27T08:39:46.000Z</time>
      </trkpt>
      <trkpt lat="48.95123" lon="1.09361">
        <ele>191.80000305176</ele>
        <time>2014-04-27T08:39:49.000Z</time>
      </trkpt>
      <trkpt lat="48.95124" lon="1.09363">
        <ele>191.80000305176</ele>
        <time>2014-04-27T08:39:50.000Z</time>
      </trkpt>
      <trkpt lat="48.95126" lon="1.09364">
        <ele>191.80000305176</ele>
        <time>2014-04-27T08:39:51.000Z</time>
      </trkpt>
      <trkpt lat="48.95132" lon="1.09361">
        <ele>191.80000305176</ele>
        <time>2014-04-27T08:39:53.000Z</time>
      </trkpt>
      <trkpt lat="48.9515" lon="1.09353">
        <ele>191.80000305176</ele>
        <time>2014-04-27T08:39:58.000Z</time>
      </trkpt>
      <trkpt lat="48.95183" lon="1.09337">
        <ele>191.80000305176</ele>
        <time>2014-04-27T08:40:07.000Z</time>
      </trkpt>
      <trkpt lat="48.95214" lon="1.09322">
        <ele>192</ele>
        <time>2014-04-27T08:40:15.000Z</time>
      </trkpt>
      <trkpt lat="48.95246" lon="1.09309">
        <ele>192</ele>
        <time>2014-04-27T08:40:23.000Z</time>
      </trkpt>
      <trkpt lat="48.95269" lon="1.09302">
        <ele>192.19999694824</ele>
        <time>2014-04-27T08:40:29.000Z</time>
      </trkpt>
      <trkpt lat="48.95294" lon="1.09293">
        <ele>192.19999694824</ele>
        <time>2014-04-27T08:40:36.000Z</time>
      </trkpt>
      <trkpt lat="48.95311" lon="1.09289">
        <ele>192.60000610352</ele>
        <time>2014-04-27T08:40:41.000Z</time>
      </trkpt>
      <trkpt lat="48.95315" lon="1.09291">
        <ele>192.60000610352</ele>
        <time>2014-04-27T08:40:42.000Z</time>
      </trkpt>
      <trkpt lat="48.95321" lon="1.09293">
        <ele>192.39999389648</ele>
        <time>2014-04-27T08:40:44.000Z</time>
      </trkpt>
      <trkpt lat="48.9533" lon="1.09294">
        <ele>193</ele>
        <time>2014-04-27T08:40:48.000Z</time>
      </trkpt>
      <trkpt lat="48.95343" lon="1.09298">
        <ele>193.80000305176</ele>
        <time>2014-04-27T08:40:53.000Z</time>
      </trkpt>
      <trkpt lat="48.95349" lon="1.09299">
        <ele>194.19999694824</ele>
        <time>2014-04-27T08:40:55.000Z</time>
      </trkpt>
      <trkpt lat="48.95352" lon="1.09302">
        <ele>194.60000610352</ele>
        <time>2014-04-27T08:40:57.000Z</time>
      </trkpt>
      <trkpt lat="48.95357" lon="1.09307">
        <ele>195.39999389648</ele>
        <time>2014-04-27T08:41:00.000Z</time>
      </trkpt>
      <trkpt lat="48.9536" lon="1.0931">
        <ele>196</ele>
        <time>2014-04-27T08:41:02.000Z</time>
      </trkpt>
      <trkpt lat="48.95363" lon="1.09314">
        <ele>196.39999389648</ele>
        <time>2014-04-27T08:41:04.000Z</time>
      </trkpt>
      <trkpt lat="48.95366" lon="1.09319">
        <ele>196.80000305176</ele>
        <time>2014-04-27T08:41:07.000Z</time>
      </trkpt>
      <trkpt lat="48.9537" lon="1.09326">
        <ele>197.60000610352</ele>
        <time>2014-04-27T08:41:11.000Z</time>
      </trkpt>
      <trkpt lat="48.95372" lon="1.09328">
        <ele>197.60000610352</ele>
        <time>2014-04-27T08:41:12.000Z</time>
      </trkpt>
      <trkpt lat="48.95379" lon="1.09339">
        <ele>198</ele>
        <time>2014-04-27T08:41:17.000Z</time>
      </trkpt>
      <trkpt lat="48.95381" lon="1.09341">
        <ele>198.19999694824</ele>
        <time>2014-04-27T08:41:18.000Z</time>
      </trkpt>
      <trkpt lat="48.95385" lon="1.09346">
        <ele>198.80000305176</ele>
        <time>2014-04-27T08:41:20.000Z</time>
      </trkpt>
      <trkpt lat="48.9539" lon="1.0935">
        <ele>199.19999694824</ele>
        <time>2014-04-27T08:41:22.000Z</time>
      </trkpt>
      <trkpt lat="48.95401" lon="1.09362">
        <ele>199.80000305176</ele>
        <time>2014-04-27T08:41:27.000Z</time>
      </trkpt>
      <trkpt lat="48.95403" lon="1.09364">
        <ele>200</ele>
        <time>2014-04-27T08:41:28.000Z</time>
      </trkpt>
      <trkpt lat="48.95416" lon="1.0937">
        <ele>200.19999694824</ele>
        <time>2014-04-27T08:41:33.000Z</time>
      </trkpt>
      <trkpt lat="48.95424" lon="1.09376">
        <ele>201</ele>
        <time>2014-04-27T08:41:37.000Z</time>
      </trkpt>
      <trkpt lat="48.95431" lon="1.09381">
        <ele>201.19999694824</ele>
        <time>2014-04-27T08:41:41.000Z</time>
      </trkpt>
      <trkpt lat="48.9544" lon="1.09386">
        <ele>201.80000305176</ele>
        <time>2014-04-27T08:41:46.000Z</time>
      </trkpt>
      <trkpt lat="48.95446" lon="1.09388">
        <ele>202</ele>
        <time>2014-04-27T08:41:49.000Z</time>
      </trkpt>
      <trkpt lat="48.95447" lon="1.09389">
        <ele>202</ele>
        <time>2014-04-27T08:41:50.000Z</time>
      </trkpt>
      <trkpt lat="48.95452" lon="1.09393">
        <ele>202.39999389648</ele>
        <time>2014-04-27T08:41:53.000Z</time>
      </trkpt>
      <trkpt lat="48.95463" lon="1.09401">
        <ele>202.60000610352</ele>
        <time>2014-04-27T08:41:58.000Z</time>
      </trkpt>
      <trkpt lat="48.95478" lon="1.09413">
        <ele>203</ele>
        <time>2014-04-27T08:42:04.000Z</time>
      </trkpt>
      <trkpt lat="48.95489" lon="1.09419">
        <ele>203</ele>
        <time>2014-04-27T08:42:09.000Z</time>
      </trkpt>
      <trkpt lat="48.95501" lon="1.09422">
        <ele>203</ele>
        <time>2014-04-27T08:42:13.000Z</time>
      </trkpt>
      <trkpt lat="48.95504" lon="1.09424">
        <ele>203.19999694824</ele>
        <time>2014-04-27T08:42:14.000Z</time>
      </trkpt>
      <trkpt lat="48.95519" lon="1.09428">
        <ele>203.19999694824</ele>
        <time>2014-04-27T08:42:19.000Z</time>
      </trkpt>
      <trkpt lat="48.95532" lon="1.09432">
        <ele>203</ele>
        <time>2014-04-27T08:42:24.000Z</time>
      </trkpt>
      <trkpt lat="48.95538" lon="1.09434">
        <ele>203</ele>
        <time>2014-04-27T08:42:26.000Z</time>
      </trkpt>
      <trkpt lat="48.95545" lon="1.09436">
        <ele>203</ele>
        <time>2014-04-27T08:42:28.000Z</time>
      </trkpt>
      <trkpt lat="48.95558" lon="1.09439">
        <ele>203.19999694824</ele>
        <time>2014-04-27T08:42:32.000Z</time>
      </trkpt>
      <trkpt lat="48.95577" lon="1.09444">
        <ele>203</ele>
        <time>2014-04-27T08:42:37.000Z</time>
      </trkpt>
      <trkpt lat="48.95596" lon="1.09444">
        <ele>203</ele>
        <time>2014-04-27T08:42:42.000Z</time>
      </trkpt>
      <trkpt lat="48.95612" lon="1.09446">
        <ele>203.39999389648</ele>
        <time>2014-04-27T08:42:47.000Z</time>
      </trkpt>
      <trkpt lat="48.95628" lon="1.09448">
        <ele>203.60000610352</ele>
        <time>2014-04-27T08:42:51.000Z</time>
      </trkpt>
      <trkpt lat="48.95637" lon="1.09453">
        <ele>204.19999694824</ele>
        <time>2014-04-27T08:42:54.000Z</time>
      </trkpt>
      <trkpt lat="48.95647" lon="1.09459">
        <ele>204.39999389648</ele>
        <time>2014-04-27T08:42:57.000Z</time>
      </trkpt>
      <trkpt lat="48.95657" lon="1.0947">
        <ele>205.39999389648</ele>
        <time>2014-04-27T08:43:01.000Z</time>
      </trkpt>
      <trkpt lat="48.9566" lon="1.09473">
        <ele>205.60000610352</ele>
        <time>2014-04-27T08:43:02.000Z</time>
      </trkpt>
      <trkpt lat="48.95671" lon="1.09486">
        <ele>206.39999389648</ele>
        <time>2014-04-27T08:43:07.000Z</time>
      </trkpt>
      <trkpt lat="48.95673" lon="1.09488">
        <ele>206.60000610352</ele>
        <time>2014-04-27T08:43:08.000Z</time>
      </trkpt>
      <trkpt lat="48.95681" lon="1.09498">
        <ele>207.39999389648</ele>
        <time>2014-04-27T08:43:13.000Z</time>
      </trkpt>
      <trkpt lat="48.95684" lon="1.09504">
        <ele>207.80000305176</ele>
        <time>2014-04-27T08:43:15.000Z</time>
      </trkpt>
      <trkpt lat="48.95687" lon="1.09512">
        <ele>208.19999694824</ele>
        <time>2014-04-27T08:43:18.000Z</time>
      </trkpt>
      <trkpt lat="48.95693" lon="1.09519">
        <ele>208.80000305176</ele>
        <time>2014-04-27T08:43:21.000Z</time>
      </trkpt>
      <trkpt lat="48.95695" lon="1.09521">
        <ele>209</ele>
        <time>2014-04-27T08:43:22.000Z</time>
      </trkpt>
      <trkpt lat="48.95697" lon="1.09522">
        <ele>209</ele>
        <time>2014-04-27T08:43:23.000Z</time>
      </trkpt>
      <trkpt lat="48.95704" lon="1.09529">
        <ele>210</ele>
        <time>2014-04-27T08:43:27.000Z</time>
      </trkpt>
      <trkpt lat="48.95706" lon="1.09531">
        <ele>210.19999694824</ele>
        <time>2014-04-27T08:43:28.000Z</time>
      </trkpt>
      <trkpt lat="48.95707" lon="1.09533">
        <ele>210.39999389648</ele>
        <time>2014-04-27T08:43:29.000Z</time>
      </trkpt>
      <trkpt lat="48.95712" lon="1.09539">
        <ele>211.19999694824</ele>
        <time>2014-04-27T08:43:32.000Z</time>
      </trkpt>
      <trkpt lat="48.95714" lon="1.09541">
        <ele>211.39999389648</ele>
        <time>2014-04-27T08:43:33.000Z</time>
      </trkpt>
      <trkpt lat="48.95719" lon="1.09544">
        <ele>212</ele>
        <time>2014-04-27T08:43:38.000Z</time>
      </trkpt>
      <trkpt lat="48.95722" lon="1.09546">
        <ele>212.19999694824</ele>
        <time>2014-04-27T08:43:43.000Z</time>
      </trkpt>
      <trkpt lat="48.95725" lon="1.09546">
        <ele>212.39999389648</ele>
        <time>2014-04-27T08:43:48.000Z</time>
      </trkpt>
      <trkpt lat="48.95727" lon="1.09547">
        <ele>212.19999694824</ele>
        <time>2014-04-27T08:43:52.000Z</time>
      </trkpt>
      <trkpt lat="48.95732" lon="1.09548">
        <ele>212</ele>
        <time>2014-04-27T08:44:06.000Z</time>
      </trkpt>
      <trkpt lat="48.95734" lon="1.09548">
        <ele>212.80000305176</ele>
        <time>2014-04-27T08:44:18.000Z</time>
      </trkpt>
      <trkpt lat="48.95735" lon="1.0955">
        <ele>212.60000610352</ele>
        <time>2014-04-27T08:44:30.000Z</time>
      </trkpt>
      <trkpt lat="48.95738" lon="1.09552">
        <ele>212.39999389648</ele>
        <time>2014-04-27T08:44:36.000Z</time>
      </trkpt>
      <trkpt lat="48.95749" lon="1.09556">
        <ele>212.80000305176</ele>
        <time>2014-04-27T08:44:43.000Z</time>
      </trkpt>
      <trkpt lat="48.95766" lon="1.09558">
        <ele>213.80000305176</ele>
        <time>2014-04-27T08:44:50.000Z</time>
      </trkpt>
      <trkpt lat="48.95775" lon="1.09562">
        <ele>214.39999389648</ele>
        <time>2014-04-27T08:44:54.000Z</time>
      </trkpt>
      <trkpt lat="48.95791" lon="1.09565">
        <ele>214.60000610352</ele>
        <time>2014-04-27T08:45:01.000Z</time>
      </trkpt>
      <trkpt lat="48.95794" lon="1.09565">
        <ele>214.80000305176</ele>
        <time>2014-04-27T08:45:02.000Z</time>
      </trkpt>
      <trkpt lat="48.95805" lon="1.09563">
        <ele>215.19999694824</ele>
        <time>2014-04-27T08:45:06.000Z</time>
      </trkpt>
      <trkpt lat="48.95825" lon="1.09555">
        <ele>215.60000610352</ele>
        <time>2014-04-27T08:45:13.000Z</time>
      </trkpt>
      <trkpt lat="48.95829" lon="1.09555">
        <ele>215.80000305176</ele>
        <time>2014-04-27T08:45:14.000Z</time>
      </trkpt>
      <trkpt lat="48.95841" lon="1.09549">
        <ele>215.80000305176</ele>
        <time>2014-04-27T08:45:19.000Z</time>
      </trkpt>
      <trkpt lat="48.9586" lon="1.09545">
        <ele>215.39999389648</ele>
        <time>2014-04-27T08:45:26.000Z</time>
      </trkpt>
      <trkpt lat="48.95873" lon="1.09543">
        <ele>215.39999389648</ele>
        <time>2014-04-27T08:45:30.000Z</time>
      </trkpt>
      <trkpt lat="48.95899" lon="1.09543">
        <ele>214.80000305176</ele>
        <time>2014-04-27T08:45:37.000Z</time>
      </trkpt>
      <trkpt lat="48.95909" lon="1.09545">
        <ele>214.80000305176</ele>
        <time>2014-04-27T08:45:39.000Z</time>
      </trkpt>
      <trkpt lat="48.95914" lon="1.09547">
        <ele>214.60000610352</ele>
        <time>2014-04-27T08:45:40.000Z</time>
      </trkpt>
      <trkpt lat="48.95919" lon="1.09549">
        <ele>214.60000610352</ele>
        <time>2014-04-27T08:45:41.000Z</time>
      </trkpt>
      <trkpt lat="48.95937" lon="1.09561">
        <ele>214</ele>
        <time>2014-04-27T08:45:44.000Z</time>
      </trkpt>
      <trkpt lat="48.9595" lon="1.09573">
        <ele>213.60000610352</ele>
        <time>2014-04-27T08:45:47.000Z</time>
      </trkpt>
      <trkpt lat="48.95955" lon="1.09577">
        <ele>213</ele>
        <time>2014-04-27T08:45:48.000Z</time>
      </trkpt>
      <trkpt lat="48.95967" lon="1.09586">
        <ele>212</ele>
        <time>2014-04-27T08:45:51.000Z</time>
      </trkpt>
      <trkpt lat="48.95971" lon="1.09588">
        <ele>211.80000305176</ele>
        <time>2014-04-27T08:45:52.000Z</time>
      </trkpt>
      <trkpt lat="48.95984" lon="1.096">
        <ele>210.60000610352</ele>
        <time>2014-04-27T08:45:55.000Z</time>
      </trkpt>
      <trkpt lat="48.95987" lon="1.09605">
        <ele>210.39999389648</ele>
        <time>2014-04-27T08:45:56.000Z</time>
      </trkpt>
      <trkpt lat="48.95991" lon="1.0961">
        <ele>210</ele>
        <time>2014-04-27T08:45:57.000Z</time>
      </trkpt>
      <trkpt lat="48.95996" lon="1.09619">
        <ele>209.60000610352</ele>
        <time>2014-04-27T08:45:59.000Z</time>
      </trkpt>
      <trkpt lat="48.96002" lon="1.09629">
        <ele>209.39999389648</ele>
        <time>2014-04-27T08:46:01.000Z</time>
      </trkpt>
      <trkpt lat="48.96009" lon="1.09638">
        <ele>209.80000305176</ele>
        <time>2014-04-27T08:46:03.000Z</time>
      </trkpt>
      <trkpt lat="48.96017" lon="1.09649">
        <ele>210.39999389648</ele>
        <time>2014-04-27T08:46:05.000Z</time>
      </trkpt>
      <trkpt lat="48.9603" lon="1.09666">
        <ele>210.60000610352</ele>
        <time>2014-04-27T08:46:08.000Z</time>
      </trkpt>
      <trkpt lat="48.96034" lon="1.09672">
        <ele>210.39999389648</ele>
        <time>2014-04-27T08:46:09.000Z</time>
      </trkpt>
      <trkpt lat="48.96039" lon="1.09676">
        <ele>210.39999389648</ele>
        <time>2014-04-27T08:46:10.000Z</time>
      </trkpt>
      <trkpt lat="48.96055" lon="1.09696">
        <ele>210.80000305176</ele>
        <time>2014-04-27T08:46:14.000Z</time>
      </trkpt>
      <trkpt lat="48.9606" lon="1.09701">
        <ele>210.80000305176</ele>
        <time>2014-04-27T08:46:15.000Z</time>
      </trkpt>
      <trkpt lat="48.96068" lon="1.09713">
        <ele>210.60000610352</ele>
        <time>2014-04-27T08:46:17.000Z</time>
      </trkpt>
      <trkpt lat="48.96077" lon="1.09724">
        <ele>210.60000610352</ele>
        <time>2014-04-27T08:46:19.000Z</time>
      </trkpt>
      <trkpt lat="48.96087" lon="1.09733">
        <ele>210.60000610352</ele>
        <time>2014-04-27T08:46:21.000Z</time>
      </trkpt>
      <trkpt lat="48.96091" lon="1.0974">
        <ele>210.60000610352</ele>
        <time>2014-04-27T08:46:22.000Z</time>
      </trkpt>
      <trkpt lat="48.96094" lon="1.09745">
        <ele>210.60000610352</ele>
        <time>2014-04-27T08:46:23.000Z</time>
      </trkpt>
      <trkpt lat="48.96111" lon="1.09773">
        <ele>210.19999694824</ele>
        <time>2014-04-27T08:46:27.000Z</time>
      </trkpt>
      <trkpt lat="48.96115" lon="1.09779">
        <ele>209.80000305176</ele>
        <time>2014-04-27T08:46:28.000Z</time>
      </trkpt>
      <trkpt lat="48.96122" lon="1.09792">
        <ele>209.39999389648</ele>
        <time>2014-04-27T08:46:30.000Z</time>
      </trkpt>
      <trkpt lat="48.96132" lon="1.09814">
        <ele>209.39999389648</ele>
        <time>2014-04-27T08:46:33.000Z</time>
      </trkpt>
      <trkpt lat="48.96144" lon="1.09837">
        <ele>208.19999694824</ele>
        <time>2014-04-27T08:46:36.000Z</time>
      </trkpt>
      <trkpt lat="48.96148" lon="1.09844">
        <ele>207.60000610352</ele>
        <time>2014-04-27T08:46:37.000Z</time>
      </trkpt>
      <trkpt lat="48.96154" lon="1.09857">
        <ele>207</ele>
        <time>2014-04-27T08:46:39.000Z</time>
      </trkpt>
      <trkpt lat="48.96159" lon="1.09869">
        <ele>207</ele>
        <time>2014-04-27T08:46:41.000Z</time>
      </trkpt>
      <trkpt lat="48.96164" lon="1.09874">
        <ele>207.39999389648</ele>
        <time>2014-04-27T08:46:42.000Z</time>
      </trkpt>
      <trkpt lat="48.96174" lon="1.09892">
        <ele>208</ele>
        <time>2014-04-27T08:46:46.000Z</time>
      </trkpt>
      <trkpt lat="48.96186" lon="1.09916">
        <ele>208.39999389648</ele>
        <time>2014-04-27T08:46:51.000Z</time>
      </trkpt>
      <trkpt lat="48.96191" lon="1.09925">
        <ele>208.80000305176</ele>
        <time>2014-04-27T08:46:53.000Z</time>
      </trkpt>
      <trkpt lat="48.96196" lon="1.09935">
        <ele>209.19999694824</ele>
        <time>2014-04-27T08:46:55.000Z</time>
      </trkpt>
      <trkpt lat="48.96198" lon="1.0994">
        <ele>209.19999694824</ele>
        <time>2014-04-27T08:46:56.000Z</time>
      </trkpt>
      <trkpt lat="48.96209" lon="1.09957">
        <ele>209.39999389648</ele>
        <time>2014-04-27T08:47:00.000Z</time>
      </trkpt>
      <trkpt lat="48.96221" lon="1.09979">
        <ele>209.39999389648</ele>
        <time>2014-04-27T08:47:05.000Z</time>
      </trkpt>
      <trkpt lat="48.96232" lon="1.1">
        <ele>209.60000610352</ele>
        <time>2014-04-27T08:47:10.000Z</time>
      </trkpt>
      <trkpt lat="48.96245" lon="1.10022">
        <ele>209.80000305176</ele>
        <time>2014-04-27T08:47:15.000Z</time>
      </trkpt>
      <trkpt lat="48.96258" lon="1.10046">
        <ele>209.80000305176</ele>
        <time>2014-04-27T08:47:20.000Z</time>
      </trkpt>
      <trkpt lat="48.96272" lon="1.10069">
        <ele>209.80000305176</ele>
        <time>2014-04-27T08:47:25.000Z</time>
      </trkpt>
      <trkpt lat="48.96284" lon="1.10085">
        <ele>209.60000610352</ele>
        <time>2014-04-27T08:47:29.000Z</time>
      </trkpt>
      <trkpt lat="48.96291" lon="1.10093">
        <ele>209.39999389648</ele>
        <time>2014-04-27T08:47:31.000Z</time>
      </trkpt>
      <trkpt lat="48.96295" lon="1.10097">
        <ele>209.39999389648</ele>
        <time>2014-04-27T08:47:32.000Z</time>
      </trkpt>
      <trkpt lat="48.96306" lon="1.10117">
        <ele>209.19999694824</ele>
        <time>2014-04-27T08:47:36.000Z</time>
      </trkpt>
      <trkpt lat="48.96312" lon="1.10134">
        <ele>209</ele>
        <time>2014-04-27T08:47:40.000Z</time>
      </trkpt>
      <trkpt lat="48.96316" lon="1.10136">
        <ele>208.80000305176</ele>
        <time>2014-04-27T08:47:44.000Z</time>
      </trkpt>
      <trkpt lat="48.96311" lon="1.1014">
        <ele>208.80000305176</ele>
        <time>2014-04-27T08:47:49.000Z</time>
      </trkpt>
      <trkpt lat="48.9631" lon="1.10147">
        <ele>209</ele>
        <time>2014-04-27T08:47:54.000Z</time>
      </trkpt>
      <trkpt lat="48.9631" lon="1.10164">
        <ele>209</ele>
        <time>2014-04-27T08:47:58.000Z</time>
      </trkpt>
      <trkpt lat="48.96312" lon="1.10185">
        <ele>208.19999694824</ele>
        <time>2014-04-27T08:48:02.000Z</time>
      </trkpt>
      <trkpt lat="48.96314" lon="1.10194">
        <ele>208.60000610352</ele>
        <time>2014-04-27T08:48:04.000Z</time>
      </trkpt>
      <trkpt lat="48.96319" lon="1.10211">
        <ele>208.80000305176</ele>
        <time>2014-04-27T08:48:08.000Z</time>
      </trkpt>
      <trkpt lat="48.96323" lon="1.10228">
        <ele>209</ele>
        <time>2014-04-27T08:48:13.000Z</time>
      </trkpt>
      <trkpt lat="48.96326" lon="1.10233">
        <ele>209.19999694824</ele>
        <time>2014-04-27T08:48:15.000Z</time>
      </trkpt>
      <trkpt lat="48.96329" lon="1.10234">
        <ele>209</ele>
        <time>2014-04-27T08:48:17.000Z</time>
      </trkpt>
      <trkpt lat="48.96331" lon="1.10233">
        <ele>209</ele>
        <time>2014-04-27T08:48:18.000Z</time>
      </trkpt>
      <trkpt lat="48.96338" lon="1.10226">
        <ele>209.19999694824</ele>
        <time>2014-04-27T08:48:22.000Z</time>
      </trkpt>
      <trkpt lat="48.9634" lon="1.10224">
        <ele>209.19999694824</ele>
        <time>2014-04-27T08:48:25.000Z</time>
      </trkpt>
      <trkpt lat="48.96341" lon="1.10224">
        <ele>209.19999694824</ele>
        <time>2014-04-27T08:48:26.000Z</time>
      </trkpt>
      <trkpt lat="48.96346" lon="1.10226">
        <ele>209.19999694824</ele>
        <time>2014-04-27T08:48:29.000Z</time>
      </trkpt>
      <trkpt lat="48.96347" lon="1.10226">
        <ele>209.19999694824</ele>
        <time>2014-04-27T08:48:30.000Z</time>
      </trkpt>
      <trkpt lat="48.96356" lon="1.10231">
        <ele>208.80000305176</ele>
        <time>2014-04-27T08:48:35.000Z</time>
      </trkpt>
      <trkpt lat="48.96358" lon="1.10235">
        <ele>208.39999389648</ele>
        <time>2014-04-27T08:48:36.000Z</time>
      </trkpt>
      <trkpt lat="48.96361" lon="1.10248">
        <ele>208.39999389648</ele>
        <time>2014-04-27T08:48:39.000Z</time>
      </trkpt>
      <trkpt lat="48.96372" lon="1.10296">
        <ele>208.80000305176</ele>
        <time>2014-04-27T08:48:49.000Z</time>
      </trkpt>
      <trkpt lat="48.96383" lon="1.10345">
        <ele>208.80000305176</ele>
        <time>2014-04-27T08:48:59.000Z</time>
      </trkpt>
      <trkpt lat="48.96393" lon="1.10383">
        <ele>208.80000305176</ele>
        <time>2014-04-27T08:49:07.000Z</time>
      </trkpt>
      <trkpt lat="48.96395" lon="1.10393">
        <ele>208.19999694824</ele>
        <time>2014-04-27T08:49:09.000Z</time>
      </trkpt>
      <trkpt lat="48.96404" lon="1.10431">
        <ele>208.39999389648</ele>
        <time>2014-04-27T08:49:18.000Z</time>
      </trkpt>
      <trkpt lat="48.96415" lon="1.10472">
        <ele>207.80000305176</ele>
        <time>2014-04-27T08:49:28.000Z</time>
      </trkpt>
      <trkpt lat="48.96424" lon="1.10509">
        <ele>207.80000305176</ele>
        <time>2014-04-27T08:49:37.000Z</time>
      </trkpt>
      <trkpt lat="48.96435" lon="1.10546">
        <ele>207.60000610352</ele>
        <time>2014-04-27T08:49:46.000Z</time>
      </trkpt>
      <trkpt lat="48.9644" lon="1.10565">
        <ele>207.60000610352</ele>
        <time>2014-04-27T08:49:51.000Z</time>
      </trkpt>
      <trkpt lat="48.9645" lon="1.10605">
        <ele>207.39999389648</ele>
        <time>2014-04-27T08:50:01.000Z</time>
      </trkpt>
      <trkpt lat="48.96461" lon="1.10647">
        <ele>207.60000610352</ele>
        <time>2014-04-27T08:50:12.000Z</time>
      </trkpt>
      <trkpt lat="48.96467" lon="1.10673">
        <ele>207</ele>
        <time>2014-04-27T08:50:19.000Z</time>
      </trkpt>
      <trkpt lat="48.96468" lon="1.10676">
        <ele>207</ele>
        <time>2014-04-27T08:50:20.000Z</time>
      </trkpt>
      <trkpt lat="48.96475" lon="1.10703">
        <ele>207</ele>
        <time>2014-04-27T08:50:27.000Z</time>
      </trkpt>
      <trkpt lat="48.96485" lon="1.10745">
        <ele>206.39999389648</ele>
        <time>2014-04-27T08:50:36.000Z</time>
      </trkpt>
      <trkpt lat="48.96494" lon="1.1077">
        <ele>206.80000305176</ele>
        <time>2014-04-27T08:50:43.000Z</time>
      </trkpt>
      <trkpt lat="48.96497" lon="1.10773">
        <ele>206.60000610352</ele>
        <time>2014-04-27T08:50:45.000Z</time>
      </trkpt>
      <trkpt lat="48.965" lon="1.10771">
        <ele>206.60000610352</ele>
        <time>2014-04-27T08:50:47.000Z</time>
      </trkpt>
      <trkpt lat="48.96502" lon="1.1077">
        <ele>206.60000610352</ele>
        <time>2014-04-27T08:50:51.000Z</time>
      </trkpt>
      <trkpt lat="48.96502" lon="1.1077">
        <ele>207.19999694824</ele>
        <time>2014-04-27T08:51:01.000Z</time>
      </trkpt>
      <trkpt lat="48.96502" lon="1.1077">
        <ele>207.19999694824</ele>
        <time>2014-04-27T08:51:07.000Z</time>
      </trkpt>
      <trkpt lat="48.96505" lon="1.10767">
        <ele>207</ele>
        <time>2014-04-27T08:51:12.000Z</time>
      </trkpt>
      <trkpt lat="48.96506" lon="1.10767">
        <ele>207.19999694824</ele>
        <time>2014-04-27T08:51:13.000Z</time>
      </trkpt>
      <trkpt lat="48.96518" lon="1.10761">
        <ele>206.60000610352</ele>
        <time>2014-04-27T08:51:19.000Z</time>
      </trkpt>
      <trkpt lat="48.96531" lon="1.10751">
        <ele>206.39999389648</ele>
        <time>2014-04-27T08:51:24.000Z</time>
      </trkpt>
      <trkpt lat="48.96554" lon="1.10734">
        <ele>206.19999694824</ele>
        <time>2014-04-27T08:51:31.000Z</time>
      </trkpt>
      <trkpt lat="48.96564" lon="1.10726">
        <ele>206.19999694824</ele>
        <time>2014-04-27T08:51:35.000Z</time>
      </trkpt>
      <trkpt lat="48.96566" lon="1.10724">
        <ele>206.19999694824</ele>
        <time>2014-04-27T08:51:36.000Z</time>
      </trkpt>
      <trkpt lat="48.96579" lon="1.10715">
        <ele>206.19999694824</ele>
        <time>2014-04-27T08:51:41.000Z</time>
      </trkpt>
      <trkpt lat="48.96593" lon="1.10706">
        <ele>206.19999694824</ele>
        <time>2014-04-27T08:51:45.000Z</time>
      </trkpt>
      <trkpt lat="48.96604" lon="1.10698">
        <ele>206</ele>
        <time>2014-04-27T08:51:48.000Z</time>
      </trkpt>
      <trkpt lat="48.9662" lon="1.10686">
        <ele>206</ele>
        <time>2014-04-27T08:51:53.000Z</time>
      </trkpt>
      <trkpt lat="48.96642" lon="1.10664">
        <ele>206</ele>
        <time>2014-04-27T08:52:00.000Z</time>
      </trkpt>
      <trkpt lat="48.96648" lon="1.10654">
        <ele>205.60000610352</ele>
        <time>2014-04-27T08:52:02.000Z</time>
      </trkpt>
      <trkpt lat="48.96653" lon="1.10635">
        <ele>205.39999389648</ele>
        <time>2014-04-27T08:52:05.000Z</time>
      </trkpt>
      <trkpt lat="48.96655" lon="1.10628">
        <ele>205.39999389648</ele>
        <time>2014-04-27T08:52:06.000Z</time>
      </trkpt>
      <trkpt lat="48.9666" lon="1.10608">
        <ele>205.60000610352</ele>
        <time>2014-04-27T08:52:09.000Z</time>
      </trkpt>
      <trkpt lat="48.96663" lon="1.10594">
        <ele>205.60000610352</ele>
        <time>2014-04-27T08:52:11.000Z</time>
      </trkpt>
      <trkpt lat="48.96671" lon="1.10559">
        <ele>205.39999389648</ele>
        <time>2014-04-27T08:52:16.000Z</time>
      </trkpt>
      <trkpt lat="48.96674" lon="1.10546">
        <ele>205.39999389648</ele>
        <time>2014-04-27T08:52:18.000Z</time>
      </trkpt>
      <trkpt lat="48.96684" lon="1.10504">
        <ele>205</ele>
        <time>2014-04-27T08:52:24.000Z</time>
      </trkpt>
      <trkpt lat="48.96687" lon="1.10489">
        <ele>204.80000305176</ele>
        <time>2014-04-27T08:52:26.000Z</time>
      </trkpt>
      <trkpt lat="48.96689" lon="1.10481">
        <ele>204.60000610352</ele>
        <time>2014-04-27T08:52:27.000Z</time>
      </trkpt>
      <trkpt lat="48.96695" lon="1.10452">
        <ele>204.80000305176</ele>
        <time>2014-04-27T08:52:31.000Z</time>
      </trkpt>
      <trkpt lat="48.96705" lon="1.10398">
        <ele>204.60000610352</ele>
        <time>2014-04-27T08:52:39.000Z</time>
      </trkpt>
      <trkpt lat="48.96719" lon="1.10392">
        <ele>204.80000305176</ele>
        <time>2014-04-27T08:52:42.000Z</time>
      </trkpt>
      <trkpt lat="48.96729" lon="1.10393">
        <ele>204.39999389648</ele>
        <time>2014-04-27T08:52:44.000Z</time>
      </trkpt>
      <trkpt lat="48.96755" lon="1.10395">
        <ele>204.19999694824</ele>
        <time>2014-04-27T08:52:49.000Z</time>
      </trkpt>
      <trkpt lat="48.96792" lon="1.10398">
        <ele>204</ele>
        <time>2014-04-27T08:52:56.000Z</time>
      </trkpt>
      <trkpt lat="48.96802" lon="1.10398">
        <ele>204</ele>
        <time>2014-04-27T08:52:58.000Z</time>
      </trkpt>
      <trkpt lat="48.96808" lon="1.10399">
        <ele>204</ele>
        <time>2014-04-27T08:52:59.000Z</time>
      </trkpt>
      <trkpt lat="48.96817" lon="1.10408">
        <ele>204</ele>
        <time>2014-04-27T08:53:01.000Z</time>
      </trkpt>
      <trkpt lat="48.96824" lon="1.10429">
        <ele>204</ele>
        <time>2014-04-27T08:53:04.000Z</time>
      </trkpt>
      <trkpt lat="48.96825" lon="1.10436">
        <ele>204</ele>
        <time>2014-04-27T08:53:05.000Z</time>
      </trkpt>
      <trkpt lat="48.96837" lon="1.10483">
        <ele>204.19999694824</ele>
        <time>2014-04-27T08:53:12.000Z</time>
      </trkpt>
      <trkpt lat="48.9685" lon="1.10534">
        <ele>204.39999389648</ele>
        <time>2014-04-27T08:53:20.000Z</time>
      </trkpt>
      <trkpt lat="48.9686" lon="1.10575">
        <ele>204.80000305176</ele>
        <time>2014-04-27T08:53:27.000Z</time>
      </trkpt>
      <trkpt lat="48.96862" lon="1.10586">
        <ele>205</ele>
        <time>2014-04-27T08:53:29.000Z</time>
      </trkpt>
      <trkpt lat="48.96867" lon="1.10608">
        <ele>204.80000305176</ele>
        <time>2014-04-27T08:53:33.000Z</time>
      </trkpt>
      <trkpt lat="48.96872" lon="1.10615">
        <ele>204.80000305176</ele>
        <time>2014-04-27T08:53:35.000Z</time>
      </trkpt>
      <trkpt lat="48.96877" lon="1.10616">
        <ele>204.80000305176</ele>
        <time>2014-04-27T08:53:36.000Z</time>
      </trkpt>
      <trkpt lat="48.96895" lon="1.10607">
        <ele>204.80000305176</ele>
        <time>2014-04-27T08:53:40.000Z</time>
      </trkpt>
      <trkpt lat="48.96905" lon="1.10599">
        <ele>204.80000305176</ele>
        <time>2014-04-27T08:53:42.000Z</time>
      </trkpt>
      <trkpt lat="48.96923" lon="1.10583">
        <ele>204.39999389648</ele>
        <time>2014-04-27T08:53:46.000Z</time>
      </trkpt>
      <trkpt lat="48.96941" lon="1.1058">
        <ele>204.19999694824</ele>
        <time>2014-04-27T08:53:50.000Z</time>
      </trkpt>
      <trkpt lat="48.96951" lon="1.10582">
        <ele>204.19999694824</ele>
        <time>2014-04-27T08:53:52.000Z</time>
      </trkpt>
      <trkpt lat="48.96957" lon="1.10583">
        <ele>204</ele>
        <time>2014-04-27T08:53:53.000Z</time>
      </trkpt>
      <trkpt lat="48.96962" lon="1.10584">
        <ele>204</ele>
        <time>2014-04-27T08:53:54.000Z</time>
      </trkpt>
      <trkpt lat="48.96967" lon="1.10585">
        <ele>203.80000305176</ele>
        <time>2014-04-27T08:53:55.000Z</time>
      </trkpt>
      <trkpt lat="48.96977" lon="1.10589">
        <ele>203.80000305176</ele>
        <time>2014-04-27T08:53:57.000Z</time>
      </trkpt>
      <trkpt lat="48.96986" lon="1.10592">
        <ele>203.80000305176</ele>
        <time>2014-04-27T08:53:59.000Z</time>
      </trkpt>
      <trkpt lat="48.97003" lon="1.10594">
        <ele>204</ele>
        <time>2014-04-27T08:54:03.000Z</time>
      </trkpt>
      <trkpt lat="48.97022" lon="1.106">
        <ele>204</ele>
        <time>2014-04-27T08:54:07.000Z</time>
      </trkpt>
      <trkpt lat="48.97038" lon="1.10607">
        <ele>204</ele>
        <time>2014-04-27T08:54:11.000Z</time>
      </trkpt>
      <trkpt lat="48.97043" lon="1.10609">
        <ele>204</ele>
        <time>2014-04-27T08:54:12.000Z</time>
      </trkpt>
      <trkpt lat="48.9706" lon="1.10616">
        <ele>203.80000305176</ele>
        <time>2014-04-27T08:54:15.000Z</time>
      </trkpt>
      <trkpt lat="48.97082" lon="1.10622">
        <ele>203.80000305176</ele>
        <time>2014-04-27T08:54:19.000Z</time>
      </trkpt>
      <trkpt lat="48.97095" lon="1.10624">
        <ele>203.60000610352</ele>
        <time>2014-04-27T08:54:21.000Z</time>
      </trkpt>
      <trkpt lat="48.97104" lon="1.10629">
        <ele>203.39999389648</ele>
        <time>2014-04-27T08:54:23.000Z</time>
      </trkpt>
      <trkpt lat="48.97121" lon="1.10636">
        <ele>203.39999389648</ele>
        <time>2014-04-27T08:54:26.000Z</time>
      </trkpt>
      <trkpt lat="48.97128" lon="1.10636">
        <ele>203.19999694824</ele>
        <time>2014-04-27T08:54:27.000Z</time>
      </trkpt>
      <trkpt lat="48.97144" lon="1.10641">
        <ele>203.19999694824</ele>
        <time>2014-04-27T08:54:30.000Z</time>
      </trkpt>
      <trkpt lat="48.97157" lon="1.10641">
        <ele>203.19999694824</ele>
        <time>2014-04-27T08:54:32.000Z</time>
      </trkpt>
      <trkpt lat="48.97167" lon="1.10639">
        <ele>203</ele>
        <time>2014-04-27T08:54:34.000Z</time>
      </trkpt>
      <trkpt lat="48.97171" lon="1.10639">
        <ele>202.80000305176</ele>
        <time>2014-04-27T08:54:35.000Z</time>
      </trkpt>
      <trkpt lat="48.97178" lon="1.1064">
        <ele>202.60000610352</ele>
        <time>2014-04-27T08:54:36.000Z</time>
      </trkpt>
      <trkpt lat="48.97188" lon="1.10641">
        <ele>202.39999389648</ele>
        <time>2014-04-27T08:54:38.000Z</time>
      </trkpt>
      <trkpt lat="48.97204" lon="1.10646">
        <ele>202</ele>
        <time>2014-04-27T08:54:41.000Z</time>
      </trkpt>
      <trkpt lat="48.97215" lon="1.1065">
        <ele>202</ele>
        <time>2014-04-27T08:54:43.000Z</time>
      </trkpt>
      <trkpt lat="48.97221" lon="1.10653">
        <ele>201.80000305176</ele>
        <time>2014-04-27T08:54:44.000Z</time>
      </trkpt>
      <trkpt lat="48.97233" lon="1.10661">
        <ele>201.60000610352</ele>
        <time>2014-04-27T08:54:47.000Z</time>
      </trkpt>
      <trkpt lat="48.97237" lon="1.10663">
        <ele>201.60000610352</ele>
        <time>2014-04-27T08:54:48.000Z</time>
      </trkpt>
      <trkpt lat="48.97257" lon="1.10675">
        <ele>201</ele>
        <time>2014-04-27T08:54:52.000Z</time>
      </trkpt>
      <trkpt lat="48.97274" lon="1.10691">
        <ele>201</ele>
        <time>2014-04-27T08:54:56.000Z</time>
      </trkpt>
      <trkpt lat="48.97276" lon="1.10693">
        <ele>201.19999694824</ele>
        <time>2014-04-27T08:54:57.000Z</time>
      </trkpt>
      <trkpt lat="48.97279" lon="1.10696">
        <ele>201</ele>
        <time>2014-04-27T08:54:59.000Z</time>
      </trkpt>
      <trkpt lat="48.97279" lon="1.10699">
        <ele>200.60000610352</ele>
        <time>2014-04-27T08:55:00.000Z</time>
      </trkpt>
      <trkpt lat="48.9728" lon="1.10703">
        <ele>200.39999389648</ele>
        <time>2014-04-27T08:55:02.000Z</time>
      </trkpt>
      <trkpt lat="48.9728" lon="1.10702">
        <ele>200.80000305176</ele>
        <time>2014-04-27T08:55:03.000Z</time>
      </trkpt>
      <trkpt lat="48.97278" lon="1.10708">
        <ele>201</ele>
        <time>2014-04-27T08:55:09.000Z</time>
      </trkpt>
      <trkpt lat="48.97273" lon="1.1071">
        <ele>201.19999694824</ele>
        <time>2014-04-27T08:55:14.000Z</time>
      </trkpt>
      <trkpt lat="48.97271" lon="1.10712">
        <ele>201.19999694824</ele>
        <time>2014-04-27T08:55:16.000Z</time>
      </trkpt>
      <trkpt lat="48.97271" lon="1.10714">
        <ele>201.60000610352</ele>
        <time>2014-04-27T08:55:19.000Z</time>
      </trkpt>
      <trkpt lat="48.97271" lon="1.10718">
        <ele>201.39999389648</ele>
        <time>2014-04-27T08:55:20.000Z</time>
      </trkpt>
      <trkpt lat="48.9727" lon="1.10722">
        <ele>201.60000610352</ele>
        <time>2014-04-27T08:55:22.000Z</time>
      </trkpt>
      <trkpt lat="48.97269" lon="1.10727">
        <ele>201.60000610352</ele>
        <time>2014-04-27T08:55:25.000Z</time>
      </trkpt>
      <trkpt lat="48.97264" lon="1.10745">
        <ele>201.60000610352</ele>
        <time>2014-04-27T08:55:30.000Z</time>
      </trkpt>
      <trkpt lat="48.97259" lon="1.10764">
        <ele>201.60000610352</ele>
        <time>2014-04-27T08:55:35.000Z</time>
      </trkpt>
      <trkpt lat="48.9725" lon="1.1079">
        <ele>202.39999389648</ele>
        <time>2014-04-27T08:55:41.000Z</time>
      </trkpt>
      <trkpt lat="48.97245" lon="1.10804">
        <ele>202.60000610352</ele>
        <time>2014-04-27T08:55:44.000Z</time>
      </trkpt>
      <trkpt lat="48.97243" lon="1.10809">
        <ele>202.80000305176</ele>
        <time>2014-04-27T08:55:45.000Z</time>
      </trkpt>
      <trkpt lat="48.97237" lon="1.10828">
        <ele>203</ele>
        <time>2014-04-27T08:55:50.000Z</time>
      </trkpt>
      <trkpt lat="48.97236" lon="1.10833">
        <ele>203</ele>
        <time>2014-04-27T08:55:51.000Z</time>
      </trkpt>
      <trkpt lat="48.97228" lon="1.10854">
        <ele>203.19999694824</ele>
        <time>2014-04-27T08:55:56.000Z</time>
      </trkpt>
      <trkpt lat="48.97215" lon="1.1089">
        <ele>202.80000305176</ele>
        <time>2014-04-27T08:56:03.000Z</time>
      </trkpt>
      <trkpt lat="48.97207" lon="1.10918">
        <ele>202.60000610352</ele>
        <time>2014-04-27T08:56:08.000Z</time>
      </trkpt>
      <trkpt lat="48.97197" lon="1.10949">
        <ele>202.80000305176</ele>
        <time>2014-04-27T08:56:14.000Z</time>
      </trkpt>
      <trkpt lat="48.9719" lon="1.10975">
        <ele>203.19999694824</ele>
        <time>2014-04-27T08:56:20.000Z</time>
      </trkpt>
      <trkpt lat="48.97185" lon="1.10999">
        <ele>203</ele>
        <time>2014-04-27T08:56:25.000Z</time>
      </trkpt>
      <trkpt lat="48.97179" lon="1.11022">
        <ele>203.39999389648</ele>
        <time>2014-04-27T08:56:30.000Z</time>
      </trkpt>
      <trkpt lat="48.97171" lon="1.11045">
        <ele>203.19999694824</ele>
        <time>2014-04-27T08:56:35.000Z</time>
      </trkpt>
      <trkpt lat="48.97163" lon="1.11071">
        <ele>203.39999389648</ele>
        <time>2014-04-27T08:56:40.000Z</time>
      </trkpt>
      <trkpt lat="48.97155" lon="1.11096">
        <ele>203</ele>
        <time>2014-04-27T08:56:45.000Z</time>
      </trkpt>
      <trkpt lat="48.97147" lon="1.11122">
        <ele>203.19999694824</ele>
        <time>2014-04-27T08:56:50.000Z</time>
      </trkpt>
      <trkpt lat="48.97139" lon="1.11149">
        <ele>203.39999389648</ele>
        <time>2014-04-27T08:56:56.000Z</time>
      </trkpt>
      <trkpt lat="48.97133" lon="1.11169">
        <ele>203.39999389648</ele>
        <time>2014-04-27T08:57:01.000Z</time>
      </trkpt>
      <trkpt lat="48.97128" lon="1.11189">
        <ele>203.60000610352</ele>
        <time>2014-04-27T08:57:06.000Z</time>
      </trkpt>
      <trkpt lat="48.97124" lon="1.112">
        <ele>203.60000610352</ele>
        <time>2014-04-27T08:57:09.000Z</time>
      </trkpt>
      <trkpt lat="48.97124" lon="1.11201">
        <ele>203.80000305176</ele>
        <time>2014-04-27T08:57:10.000Z</time>
      </trkpt>
      <trkpt lat="48.97123" lon="1.11203">
        <ele>203.80000305176</ele>
        <time>2014-04-27T08:57:11.000Z</time>
      </trkpt>
      <trkpt lat="48.9712" lon="1.11214">
        <ele>204.19999694824</ele>
        <time>2014-04-27T08:57:16.000Z</time>
      </trkpt>
      <trkpt lat="48.97116" lon="1.11226">
        <ele>204.39999389648</ele>
        <time>2014-04-27T08:57:20.000Z</time>
      </trkpt>
      <trkpt lat="48.9711" lon="1.11245">
        <ele>204.60000610352</ele>
        <time>2014-04-27T08:57:25.000Z</time>
      </trkpt>
      <trkpt lat="48.97106" lon="1.11262">
        <ele>204.60000610352</ele>
        <time>2014-04-27T08:57:30.000Z</time>
      </trkpt>
      <trkpt lat="48.97102" lon="1.11273">
        <ele>205</ele>
        <time>2014-04-27T08:57:33.000Z</time>
      </trkpt>
      <trkpt lat="48.97101" lon="1.11277">
        <ele>205</ele>
        <time>2014-04-27T08:57:34.000Z</time>
      </trkpt>
      <trkpt lat="48.97097" lon="1.11292">
        <ele>205</ele>
        <time>2014-04-27T08:57:39.000Z</time>
      </trkpt>
      <trkpt lat="48.97092" lon="1.11307">
        <ele>205</ele>
        <time>2014-04-27T08:57:43.000Z</time>
      </trkpt>
      <trkpt lat="48.97085" lon="1.11329">
        <ele>205.19999694824</ele>
        <time>2014-04-27T08:57:48.000Z</time>
      </trkpt>
      <trkpt lat="48.9708" lon="1.11345">
        <ele>205.39999389648</ele>
        <time>2014-04-27T08:57:52.000Z</time>
      </trkpt>
      <trkpt lat="48.97074" lon="1.11363">
        <ele>205.80000305176</ele>
        <time>2014-04-27T08:57:56.000Z</time>
      </trkpt>
      <trkpt lat="48.97066" lon="1.11394">
        <ele>205.80000305176</ele>
        <time>2014-04-27T08:58:03.000Z</time>
      </trkpt>
      <trkpt lat="48.97064" lon="1.11398">
        <ele>206</ele>
        <time>2014-04-27T08:58:04.000Z</time>
      </trkpt>
      <trkpt lat="48.97058" lon="1.11416">
        <ele>206.19999694824</ele>
        <time>2014-04-27T08:58:08.000Z</time>
      </trkpt>
      <trkpt lat="48.97052" lon="1.11439">
        <ele>206.60000610352</ele>
        <time>2014-04-27T08:58:13.000Z</time>
      </trkpt>
      <trkpt lat="48.97048" lon="1.11454">
        <ele>206.60000610352</ele>
        <time>2014-04-27T08:58:17.000Z</time>
      </trkpt>
      <trkpt lat="48.97041" lon="1.11476">
        <ele>206</ele>
        <time>2014-04-27T08:58:22.000Z</time>
      </trkpt>
      <trkpt lat="48.97035" lon="1.11489">
        <ele>206.60000610352</ele>
        <time>2014-04-27T08:58:26.000Z</time>
      </trkpt>
      <trkpt lat="48.97034" lon="1.11493">
        <ele>206.39999389648</ele>
        <time>2014-04-27T08:58:27.000Z</time>
      </trkpt>
      <trkpt lat="48.97028" lon="1.1151">
        <ele>206.60000610352</ele>
        <time>2014-04-27T08:58:31.000Z</time>
      </trkpt>
      <trkpt lat="48.9702" lon="1.11533">
        <ele>206.60000610352</ele>
        <time>2014-04-27T08:58:37.000Z</time>
      </trkpt>
      <trkpt lat="48.97015" lon="1.11553">
        <ele>206.80000305176</ele>
        <time>2014-04-27T08:58:42.000Z</time>
      </trkpt>
      <trkpt lat="48.97006" lon="1.11578">
        <ele>206.80000305176</ele>
        <time>2014-04-27T08:58:48.000Z</time>
      </trkpt>
      <trkpt lat="48.97004" lon="1.11589">
        <ele>207</ele>
        <time>2014-04-27T08:58:50.000Z</time>
      </trkpt>
      <trkpt lat="48.97" lon="1.116">
        <ele>206.60000610352</ele>
        <time>2014-04-27T08:58:53.000Z</time>
      </trkpt>
      <trkpt lat="48.96995" lon="1.11623">
        <ele>206.80000305176</ele>
        <time>2014-04-27T08:58:58.000Z</time>
      </trkpt>
      <trkpt lat="48.96988" lon="1.11645">
        <ele>206.39999389648</ele>
        <time>2014-04-27T08:59:03.000Z</time>
      </trkpt>
      <trkpt lat="48.96985" lon="1.1165">
        <ele>206.39999389648</ele>
        <time>2014-04-27T08:59:05.000Z</time>
      </trkpt>
      <trkpt lat="48.96981" lon="1.11658">
        <ele>206.39999389648</ele>
        <time>2014-04-27T08:59:07.000Z</time>
      </trkpt>
      <trkpt lat="48.96977" lon="1.11667">
        <ele>206.19999694824</ele>
        <time>2014-04-27T08:59:11.000Z</time>
      </trkpt>
      <trkpt lat="48.96976" lon="1.11672">
        <ele>206.19999694824</ele>
        <time>2014-04-27T08:59:12.000Z</time>
      </trkpt>
      <trkpt lat="48.96973" lon="1.11685">
        <ele>206.19999694824</ele>
        <time>2014-04-27T08:59:15.000Z</time>
      </trkpt>
      <trkpt lat="48.96964" lon="1.11715">
        <ele>206.39999389648</ele>
        <time>2014-04-27T08:59:21.000Z</time>
      </trkpt>
      <trkpt lat="48.96956" lon="1.11739">
        <ele>206.19999694824</ele>
        <time>2014-04-27T08:59:26.000Z</time>
      </trkpt>
      <trkpt lat="48.96952" lon="1.11759">
        <ele>206.39999389648</ele>
        <time>2014-04-27T08:59:31.000Z</time>
      </trkpt>
      <trkpt lat="48.96944" lon="1.11787">
        <ele>206</ele>
        <time>2014-04-27T08:59:38.000Z</time>
      </trkpt>
      <trkpt lat="48.96938" lon="1.118">
        <ele>206.19999694824</ele>
        <time>2014-04-27T08:59:42.000Z</time>
      </trkpt>
      <trkpt lat="48.96933" lon="1.11814">
        <ele>206.39999389648</ele>
        <time>2014-04-27T08:59:47.000Z</time>
      </trkpt>
      <trkpt lat="48.96927" lon="1.11831">
        <ele>206.60000610352</ele>
        <time>2014-04-27T08:59:51.000Z</time>
      </trkpt>
      <trkpt lat="48.96918" lon="1.11858">
        <ele>206.60000610352</ele>
        <time>2014-04-27T08:59:57.000Z</time>
      </trkpt>
      <trkpt lat="48.96912" lon="1.11878">
        <ele>206.39999389648</ele>
        <time>2014-04-27T09:00:02.000Z</time>
      </trkpt>
      <trkpt lat="48.96905" lon="1.11903">
        <ele>206.80000305176</ele>
        <time>2014-04-27T09:00:08.000Z</time>
      </trkpt>
      <trkpt lat="48.96898" lon="1.11921">
        <ele>206.80000305176</ele>
        <time>2014-04-27T09:00:12.000Z</time>
      </trkpt>
      <trkpt lat="48.9689" lon="1.11949">
        <ele>206.80000305176</ele>
        <time>2014-04-27T09:00:18.000Z</time>
      </trkpt>
      <trkpt lat="48.96886" lon="1.11964">
        <ele>207</ele>
        <time>2014-04-27T09:00:22.000Z</time>
      </trkpt>
      <trkpt lat="48.96877" lon="1.11984">
        <ele>207.19999694824</ele>
        <time>2014-04-27T09:00:28.000Z</time>
      </trkpt>
      <trkpt lat="48.96874" lon="1.11992">
        <ele>207.19999694824</ele>
        <time>2014-04-27T09:00:32.000Z</time>
      </trkpt>
      <trkpt lat="48.96878" lon="1.11997">
        <ele>207.19999694824</ele>
        <time>2014-04-27T09:00:36.000Z</time>
      </trkpt>
      <trkpt lat="48.96882" lon="1.12005">
        <ele>207.19999694824</ele>
        <time>2014-04-27T09:00:41.000Z</time>
      </trkpt>
      <trkpt lat="48.96888" lon="1.12019">
        <ele>207.39999389648</ele>
        <time>2014-04-27T09:00:47.000Z</time>
      </trkpt>
      <trkpt lat="48.96896" lon="1.12036">
        <ele>207</ele>
        <time>2014-04-27T09:00:53.000Z</time>
      </trkpt>
      <trkpt lat="48.96901" lon="1.12047">
        <ele>207.19999694824</ele>
        <time>2014-04-27T09:00:57.000Z</time>
      </trkpt>
      <trkpt lat="48.96906" lon="1.12054">
        <ele>207</ele>
        <time>2014-04-27T09:01:00.000Z</time>
      </trkpt>
      <trkpt lat="48.96908" lon="1.12058">
        <ele>207</ele>
        <time>2014-04-27T09:01:01.000Z</time>
      </trkpt>
      <trkpt lat="48.96915" lon="1.12068">
        <ele>206.80000305176</ele>
        <time>2014-04-27T09:01:06.000Z</time>
      </trkpt>
      <trkpt lat="48.96921" lon="1.1208">
        <ele>206.80000305176</ele>
        <time>2014-04-27T09:01:10.000Z</time>
      </trkpt>
      <trkpt lat="48.96922" lon="1.12082">
        <ele>206.39999389648</ele>
        <time>2014-04-27T09:01:14.000Z</time>
      </trkpt>
      <trkpt lat="48.96923" lon="1.12083">
        <ele>206.39999389648</ele>
        <time>2014-04-27T09:01:24.000Z</time>
      </trkpt>
      <trkpt lat="48.96917" lon="1.12081">
        <ele>206.80000305176</ele>
        <time>2014-04-27T09:01:32.000Z</time>
      </trkpt>
      <trkpt lat="48.96915" lon="1.12077">
        <ele>206.80000305176</ele>
        <time>2014-04-27T09:01:40.000Z</time>
      </trkpt>
      <trkpt lat="48.96915" lon="1.12078">
        <ele>207.19999694824</ele>
        <time>2014-04-27T09:01:50.000Z</time>
      </trkpt>
      <trkpt lat="48.96914" lon="1.12079">
        <ele>207.39999389648</ele>
        <time>2014-04-27T09:02:10.000Z</time>
      </trkpt>
      <trkpt lat="48.96914" lon="1.1208">
        <ele>207.39999389648</ele>
        <time>2014-04-27T09:02:22.000Z</time>
      </trkpt>
      <trkpt lat="48.96915" lon="1.12082">
        <ele>207.39999389648</ele>
        <time>2014-04-27T09:02:32.000Z</time>
      </trkpt>
      <trkpt lat="48.96916" lon="1.12085">
        <ele>207.39999389648</ele>
        <time>2014-04-27T09:02:40.000Z</time>
      </trkpt>
      <trkpt lat="48.96917" lon="1.12089">
        <ele>207.39999389648</ele>
        <time>2014-04-27T09:02:45.000Z</time>
      </trkpt>
      <trkpt lat="48.96918" lon="1.12089">
        <ele>207.19999694824</ele>
        <time>2014-04-27T09:02:46.000Z</time>
      </trkpt>
      <trkpt lat="48.96919" lon="1.12091">
        <ele>206.80000305176</ele>
        <time>2014-04-27T09:02:51.000Z</time>
      </trkpt>
      <trkpt lat="48.96921" lon="1.12094">
        <ele>206.60000610352</ele>
        <time>2014-04-27T09:02:59.000Z</time>
      </trkpt>
      <trkpt lat="48.96923" lon="1.12098">
        <ele>206.80000305176</ele>
        <time>2014-04-27T09:03:01.000Z</time>
      </trkpt>
      <trkpt lat="48.96931" lon="1.12114">
        <ele>206.80000305176</ele>
        <time>2014-04-27T09:03:06.000Z</time>
      </trkpt>
      <trkpt lat="48.96941" lon="1.12133">
        <ele>206.80000305176</ele>
        <time>2014-04-27T09:03:14.000Z</time>
      </trkpt>
      <trkpt lat="48.96942" lon="1.12135">
        <ele>206.80000305176</ele>
        <time>2014-04-27T09:03:18.000Z</time>
      </trkpt>
      <trkpt lat="48.96944" lon="1.12136">
        <ele>206.80000305176</ele>
        <time>2014-04-27T09:03:26.000Z</time>
      </trkpt>
      <trkpt lat="48.96946" lon="1.12137">
        <ele>206.80000305176</ele>
        <time>2014-04-27T09:03:40.000Z</time>
      </trkpt>
      <trkpt lat="48.96947" lon="1.1214">
        <ele>207.19999694824</ele>
        <time>2014-04-27T09:03:51.000Z</time>
      </trkpt>
      <trkpt lat="48.96949" lon="1.12145">
        <ele>207</ele>
        <time>2014-04-27T09:03:53.000Z</time>
      </trkpt>
      <trkpt lat="48.96953" lon="1.12153">
        <ele>206.39999389648</ele>
        <time>2014-04-27T09:03:56.000Z</time>
      </trkpt>
      <trkpt lat="48.96955" lon="1.12156">
        <ele>206.39999389648</ele>
        <time>2014-04-27T09:03:57.000Z</time>
      </trkpt>
      <trkpt lat="48.96963" lon="1.12174">
        <ele>206</ele>
        <time>2014-04-27T09:04:03.000Z</time>
      </trkpt>
      <trkpt lat="48.96972" lon="1.12192">
        <ele>206</ele>
        <time>2014-04-27T09:04:09.000Z</time>
      </trkpt>
      <trkpt lat="48.96983" lon="1.12214">
        <ele>205.39999389648</ele>
        <time>2014-04-27T09:04:16.000Z</time>
      </trkpt>
      <trkpt lat="48.96993" lon="1.12233">
        <ele>205.60000610352</ele>
        <time>2014-04-27T09:04:22.000Z</time>
      </trkpt>
      <trkpt lat="48.97" lon="1.12247">
        <ele>205</ele>
        <time>2014-04-27T09:04:27.000Z</time>
      </trkpt>
      <trkpt lat="48.97002" lon="1.12253">
        <ele>204.80000305176</ele>
        <time>2014-04-27T09:04:29.000Z</time>
      </trkpt>
      <trkpt lat="48.97011" lon="1.12272">
        <ele>204.60000610352</ele>
        <time>2014-04-27T09:04:37.000Z</time>
      </trkpt>
      <trkpt lat="48.97012" lon="1.12276">
        <ele>204.60000610352</ele>
        <time>2014-04-27T09:04:38.000Z</time>
      </trkpt>
      <trkpt lat="48.97017" lon="1.12286">
        <ele>204.39999389648</ele>
        <time>2014-04-27T09:04:41.000Z</time>
      </trkpt>
      <trkpt lat="48.97029" lon="1.12306">
        <ele>203.80000305176</ele>
        <time>2014-04-27T09:04:47.000Z</time>
      </trkpt>
      <trkpt lat="48.97037" lon="1.12323">
        <ele>204</ele>
        <time>2014-04-27T09:04:50.000Z</time>
      </trkpt>
      <trkpt lat="48.9704" lon="1.12329">
        <ele>204</ele>
        <time>2014-04-27T09:04:51.000Z</time>
      </trkpt>
      <trkpt lat="48.9706" lon="1.12362">
        <ele>203.60000610352</ele>
        <time>2014-04-27T09:04:57.000Z</time>
      </trkpt>
      <trkpt lat="48.97077" lon="1.12392">
        <ele>202.80000305176</ele>
        <time>2014-04-27T09:05:03.000Z</time>
      </trkpt>
      <trkpt lat="48.97083" lon="1.12403">
        <ele>202.39999389648</ele>
        <time>2014-04-27T09:05:05.000Z</time>
      </trkpt>
      <trkpt lat="48.97085" lon="1.12408">
        <ele>202.19999694824</ele>
        <time>2014-04-27T09:05:06.000Z</time>
      </trkpt>
      <trkpt lat="48.97091" lon="1.12418">
        <ele>202</ele>
        <time>2014-04-27T09:05:08.000Z</time>
      </trkpt>
      <trkpt lat="48.9711" lon="1.12451">
        <ele>201.60000610352</ele>
        <time>2014-04-27T09:05:14.000Z</time>
      </trkpt>
      <trkpt lat="48.97112" lon="1.12457">
        <ele>201.60000610352</ele>
        <time>2014-04-27T09:05:15.000Z</time>
      </trkpt>
      <trkpt lat="48.97119" lon="1.12476">
        <ele>201</ele>
        <time>2014-04-27T09:05:19.000Z</time>
      </trkpt>
      <trkpt lat="48.97126" lon="1.12492">
        <ele>200.80000305176</ele>
        <time>2014-04-27T09:05:22.000Z</time>
      </trkpt>
      <trkpt lat="48.97128" lon="1.12497">
        <ele>200.60000610352</ele>
        <time>2014-04-27T09:05:23.000Z</time>
      </trkpt>
      <trkpt lat="48.97138" lon="1.12509">
        <ele>200.19999694824</ele>
        <time>2014-04-27T09:05:26.000Z</time>
      </trkpt>
      <trkpt lat="48.97152" lon="1.12512">
        <ele>199.60000610352</ele>
        <time>2014-04-27T09:05:30.000Z</time>
      </trkpt>
      <trkpt lat="48.97155" lon="1.12512">
        <ele>199.39999389648</ele>
        <time>2014-04-27T09:05:31.000Z</time>
      </trkpt>
      <trkpt lat="48.97157" lon="1.12514">
        <ele>199.39999389648</ele>
        <time>2014-04-27T09:05:32.000Z</time>
      </trkpt>
      <trkpt lat="48.97157" lon="1.12519">
        <ele>199.39999389648</ele>
        <time>2014-04-27T09:05:34.000Z</time>
      </trkpt>
      <trkpt lat="48.97155" lon="1.1253">
        <ele>199.80000305176</ele>
        <time>2014-04-27T09:05:38.000Z</time>
      </trkpt>
      <trkpt lat="48.97158" lon="1.12534">
        <ele>199.39999389648</ele>
        <time>2014-04-27T09:05:42.000Z</time>
      </trkpt>
      <trkpt lat="48.97157" lon="1.12535">
        <ele>199.80000305176</ele>
        <time>2014-04-27T09:05:49.000Z</time>
      </trkpt>
      <trkpt lat="48.97157" lon="1.12541">
        <ele>199.80000305176</ele>
        <time>2014-04-27T09:05:54.000Z</time>
      </trkpt>
      <trkpt lat="48.97162" lon="1.12557">
        <ele>200</ele>
        <time>2014-04-27T09:05:59.000Z</time>
      </trkpt>
      <trkpt lat="48.9717" lon="1.12588">
        <ele>199.39999389648</ele>
        <time>2014-04-27T09:06:06.000Z</time>
      </trkpt>
      <trkpt lat="48.97175" lon="1.12616">
        <ele>198.39999389648</ele>
        <time>2014-04-27T09:06:11.000Z</time>
      </trkpt>
      <trkpt lat="48.97176" lon="1.12621">
        <ele>198.19999694824</ele>
        <time>2014-04-27T09:06:12.000Z</time>
      </trkpt>
      <trkpt lat="48.97183" lon="1.12649">
        <ele>197.60000610352</ele>
        <time>2014-04-27T09:06:18.000Z</time>
      </trkpt>
      <trkpt lat="48.97189" lon="1.1268">
        <ele>198</ele>
        <time>2014-04-27T09:06:23.000Z</time>
      </trkpt>
      <trkpt lat="48.97198" lon="1.12729">
        <ele>197</ele>
        <time>2014-04-27T09:06:30.000Z</time>
      </trkpt>
      <trkpt lat="48.972" lon="1.12736">
        <ele>197</ele>
        <time>2014-04-27T09:06:31.000Z</time>
      </trkpt>
      <trkpt lat="48.97206" lon="1.12772">
        <ele>196</ele>
        <time>2014-04-27T09:06:36.000Z</time>
      </trkpt>
      <trkpt lat="48.97214" lon="1.12808">
        <ele>195.39999389648</ele>
        <time>2014-04-27T09:06:41.000Z</time>
      </trkpt>
      <trkpt lat="48.97218" lon="1.12832">
        <ele>194.80000305176</ele>
        <time>2014-04-27T09:06:44.000Z</time>
      </trkpt>
      <trkpt lat="48.97228" lon="1.12883">
        <ele>194.19999694824</ele>
        <time>2014-04-27T09:06:51.000Z</time>
      </trkpt>
      <trkpt lat="48.97234" lon="1.12913">
        <ele>193.80000305176</ele>
        <time>2014-04-27T09:06:55.000Z</time>
      </trkpt>
      <trkpt lat="48.9724" lon="1.12943">
        <ele>193</ele>
        <time>2014-04-27T09:06:59.000Z</time>
      </trkpt>
      <trkpt lat="48.97243" lon="1.1296">
        <ele>192.60000610352</ele>
        <time>2014-04-27T09:07:01.000Z</time>
      </trkpt>
      <trkpt lat="48.97248" lon="1.12987">
        <ele>191.80000305176</ele>
        <time>2014-04-27T09:07:04.000Z</time>
      </trkpt>
      <trkpt lat="48.97249" lon="1.12995">
        <ele>191.19999694824</ele>
        <time>2014-04-27T09:07:05.000Z</time>
      </trkpt>
      <trkpt lat="48.97252" lon="1.13012">
        <ele>189.80000305176</ele>
        <time>2014-04-27T09:07:07.000Z</time>
      </trkpt>
      <trkpt lat="48.97257" lon="1.13037">
        <ele>188.80000305176</ele>
        <time>2014-04-27T09:07:10.000Z</time>
      </trkpt>
      <trkpt lat="48.9726" lon="1.13053">
        <ele>189</ele>
        <time>2014-04-27T09:07:12.000Z</time>
      </trkpt>
      <trkpt lat="48.97272" lon="1.13117">
        <ele>188</ele>
        <time>2014-04-27T09:07:20.000Z</time>
      </trkpt>
      <trkpt lat="48.97274" lon="1.13126">
        <ele>187.39999389648</ele>
        <time>2014-04-27T09:07:21.000Z</time>
      </trkpt>
      <trkpt lat="48.9728" lon="1.13155">
        <ele>186.19999694824</ele>
        <time>2014-04-27T09:07:25.000Z</time>
      </trkpt>
      <trkpt lat="48.97281" lon="1.13161">
        <ele>186.60000610352</ele>
        <time>2014-04-27T09:07:26.000Z</time>
      </trkpt>
      <trkpt lat="48.97288" lon="1.13207">
        <ele>185.80000305176</ele>
        <time>2014-04-27T09:07:33.000Z</time>
      </trkpt>
      <trkpt lat="48.9729" lon="1.13217">
        <ele>184.39999389648</ele>
        <time>2014-04-27T09:07:35.000Z</time>
      </trkpt>
      <trkpt lat="48.97293" lon="1.13236">
        <ele>183.80000305176</ele>
        <time>2014-04-27T09:07:38.000Z</time>
      </trkpt>
      <trkpt lat="48.97303" lon="1.13285">
        <ele>184.60000610352</ele>
        <time>2014-04-27T09:07:45.000Z</time>
      </trkpt>
      <trkpt lat="48.97307" lon="1.13307">
        <ele>183</ele>
        <time>2014-04-27T09:07:48.000Z</time>
      </trkpt>
      <trkpt lat="48.97313" lon="1.13337">
        <ele>183</ele>
        <time>2014-04-27T09:07:52.000Z</time>
      </trkpt>
      <trkpt lat="48.9732" lon="1.13376">
        <ele>182.19999694824</ele>
        <time>2014-04-27T09:07:59.000Z</time>
      </trkpt>
      <trkpt lat="48.97326" lon="1.13405">
        <ele>182</ele>
        <time>2014-04-27T09:08:03.000Z</time>
      </trkpt>
      <trkpt lat="48.97329" lon="1.1342">
        <ele>181.19999694824</ele>
        <time>2014-04-27T09:08:05.000Z</time>
      </trkpt>
      <trkpt lat="48.9733" lon="1.13428">
        <ele>180.60000610352</ele>
        <time>2014-04-27T09:08:06.000Z</time>
      </trkpt>
      <trkpt lat="48.97337" lon="1.13463">
        <ele>179.39999389648</ele>
        <time>2014-04-27T09:08:10.000Z</time>
      </trkpt>
      <trkpt lat="48.97339" lon="1.13473">
        <ele>178.39999389648</ele>
        <time>2014-04-27T09:08:11.000Z</time>
      </trkpt>
      <trkpt lat="48.97346" lon="1.13512">
        <ele>176.19999694824</ele>
        <time>2014-04-27T09:08:15.000Z</time>
      </trkpt>
      <trkpt lat="48.97349" lon="1.13527">
        <ele>174.60000610352</ele>
        <time>2014-04-27T09:08:17.000Z</time>
      </trkpt>
      <trkpt lat="48.97352" lon="1.1354">
        <ele>172.80000305176</ele>
        <time>2014-04-27T09:08:19.000Z</time>
      </trkpt>
      <trkpt lat="48.97355" lon="1.13554">
        <ele>173.60000610352</ele>
        <time>2014-04-27T09:08:22.000Z</time>
      </trkpt>
      <trkpt lat="48.97357" lon="1.13563">
        <ele>174</ele>
        <time>2014-04-27T09:08:24.000Z</time>
      </trkpt>
      <trkpt lat="48.97362" lon="1.13581">
        <ele>173.80000305176</ele>
        <time>2014-04-27T09:08:29.000Z</time>
      </trkpt>
      <trkpt lat="48.97372" lon="1.13587">
        <ele>173.80000305176</ele>
        <time>2014-04-27T09:08:34.000Z</time>
      </trkpt>
      <trkpt lat="48.97385" lon="1.13578">
        <ele>174.19999694824</ele>
        <time>2014-04-27T09:08:41.000Z</time>
      </trkpt>
      <trkpt lat="48.97391" lon="1.13573">
        <ele>175.19999694824</ele>
        <time>2014-04-27T09:08:46.000Z</time>
      </trkpt>
      <trkpt lat="48.97398" lon="1.13566">
        <ele>176.39999389648</ele>
        <time>2014-04-27T09:08:52.000Z</time>
      </trkpt>
      <trkpt lat="48.97399" lon="1.13566">
        <ele>176.60000610352</ele>
        <time>2014-04-27T09:08:53.000Z</time>
      </trkpt>
      <trkpt lat="48.97402" lon="1.13564">
        <ele>177.60000610352</ele>
        <time>2014-04-27T09:08:55.000Z</time>
      </trkpt>
      <trkpt lat="48.97402" lon="1.13563">
        <ele>177.80000305176</ele>
        <time>2014-04-27T09:08:56.000Z</time>
      </trkpt>
      <trkpt lat="48.97406" lon="1.13561">
        <ele>178.60000610352</ele>
        <time>2014-04-27T09:08:58.000Z</time>
      </trkpt>
      <trkpt lat="48.97407" lon="1.1356">
        <ele>179</ele>
        <time>2014-04-27T09:08:59.000Z</time>
      </trkpt>
      <trkpt lat="48.97412" lon="1.13557">
        <ele>179.80000305176</ele>
        <time>2014-04-27T09:09:03.000Z</time>
      </trkpt>
      <trkpt lat="48.97417" lon="1.13554">
        <ele>180.80000305176</ele>
        <time>2014-04-27T09:09:07.000Z</time>
      </trkpt>
      <trkpt lat="48.97423" lon="1.13551">
        <ele>181.80000305176</ele>
        <time>2014-04-27T09:09:11.000Z</time>
      </trkpt>
      <trkpt lat="48.97424" lon="1.1355">
        <ele>182.19999694824</ele>
        <time>2014-04-27T09:09:12.000Z</time>
      </trkpt>
      <trkpt lat="48.97425" lon="1.13549">
        <ele>182.60000610352</ele>
        <time>2014-04-27T09:09:13.000Z</time>
      </trkpt>
      <trkpt lat="48.97428" lon="1.13548">
        <ele>183.19999694824</ele>
        <time>2014-04-27T09:09:15.000Z</time>
      </trkpt>
      <trkpt lat="48.97431" lon="1.13546">
        <ele>184</ele>
        <time>2014-04-27T09:09:18.000Z</time>
      </trkpt>
      <trkpt lat="48.97433" lon="1.13546">
        <ele>184.39999389648</ele>
        <time>2014-04-27T09:09:19.000Z</time>
      </trkpt>
      <trkpt lat="48.97439" lon="1.13542">
        <ele>185.60000610352</ele>
        <time>2014-04-27T09:09:24.000Z</time>
      </trkpt>
      <trkpt lat="48.97445" lon="1.1354">
        <ele>186.60000610352</ele>
        <time>2014-04-27T09:09:29.000Z</time>
      </trkpt>
      <trkpt lat="48.97449" lon="1.13541">
        <ele>187.39999389648</ele>
        <time>2014-04-27T09:09:32.000Z</time>
      </trkpt>
      <trkpt lat="48.9745" lon="1.13541">
        <ele>187.80000305176</ele>
        <time>2014-04-27T09:09:33.000Z</time>
      </trkpt>
      <trkpt lat="48.97454" lon="1.13542">
        <ele>188.80000305176</ele>
        <time>2014-04-27T09:09:37.000Z</time>
      </trkpt>
      <trkpt lat="48.97454" lon="1.13542">
        <ele>188.80000305176</ele>
        <time>2014-04-27T09:09:38.000Z</time>
      </trkpt>
      <trkpt lat="48.97457" lon="1.13542">
        <ele>189.80000305176</ele>
        <time>2014-04-27T09:09:43.000Z</time>
      </trkpt>
      <trkpt lat="48.97463" lon="1.13541">
        <ele>190.60000610352</ele>
        <time>2014-04-27T09:09:49.000Z</time>
      </trkpt>
      <trkpt lat="48.97464" lon="1.13541">
        <ele>190.80000305176</ele>
        <time>2014-04-27T09:09:50.000Z</time>
      </trkpt>
      <trkpt lat="48.97467" lon="1.13541">
        <ele>192</ele>
        <time>2014-04-27T09:09:54.000Z</time>
      </trkpt>
      <trkpt lat="48.9747" lon="1.13542">
        <ele>192.60000610352</ele>
        <time>2014-04-27T09:09:57.000Z</time>
      </trkpt>
      <trkpt lat="48.97473" lon="1.13543">
        <ele>193</ele>
        <time>2014-04-27T09:10:00.000Z</time>
      </trkpt>
      <trkpt lat="48.97475" lon="1.13543">
        <ele>193.60000610352</ele>
        <time>2014-04-27T09:10:03.000Z</time>
      </trkpt>
      <trkpt lat="48.97477" lon="1.13542">
        <ele>194</ele>
        <time>2014-04-27T09:10:05.000Z</time>
      </trkpt>
      <trkpt lat="48.9748" lon="1.13542">
        <ele>194.80000305176</ele>
        <time>2014-04-27T09:10:09.000Z</time>
      </trkpt>
      <trkpt lat="48.9748" lon="1.13542">
        <ele>195.19999694824</ele>
        <time>2014-04-27T09:10:10.000Z</time>
      </trkpt>
      <trkpt lat="48.97483" lon="1.13542">
        <ele>195.60000610352</ele>
        <time>2014-04-27T09:10:15.000Z</time>
      </trkpt>
      <trkpt lat="48.97489" lon="1.13542">
        <ele>196.19999694824</ele>
        <time>2014-04-27T09:10:20.000Z</time>
      </trkpt>
      <trkpt lat="48.97494" lon="1.13541">
        <ele>197.19999694824</ele>
        <time>2014-04-27T09:10:25.000Z</time>
      </trkpt>
      <trkpt lat="48.97495" lon="1.13541">
        <ele>197.19999694824</ele>
        <time>2014-04-27T09:10:26.000Z</time>
      </trkpt>
      <trkpt lat="48.97501" lon="1.13541">
        <ele>198</ele>
        <time>2014-04-27T09:10:31.000Z</time>
      </trkpt>
      <trkpt lat="48.97503" lon="1.13541">
        <ele>198.39999389648</ele>
        <time>2014-04-27T09:10:33.000Z</time>
      </trkpt>
      <trkpt lat="48.97508" lon="1.13539">
        <ele>199</ele>
        <time>2014-04-27T09:10:38.000Z</time>
      </trkpt>
      <trkpt lat="48.9751" lon="1.13538">
        <ele>199.39999389648</ele>
        <time>2014-04-27T09:10:40.000Z</time>
      </trkpt>
      <trkpt lat="48.97517" lon="1.13535">
        <ele>200</ele>
        <time>2014-04-27T09:10:45.000Z</time>
      </trkpt>
      <trkpt lat="48.97524" lon="1.13535">
        <ele>200.19999694824</ele>
        <time>2014-04-27T09:10:50.000Z</time>
      </trkpt>
      <trkpt lat="48.97532" lon="1.1353">
        <ele>200.39999389648</ele>
        <time>2014-04-27T09:10:54.000Z</time>
      </trkpt>
      <trkpt lat="48.97534" lon="1.1353">
        <ele>200.39999389648</ele>
        <time>2014-04-27T09:10:55.000Z</time>
      </trkpt>
      <trkpt lat="48.97547" lon="1.13525">
        <ele>200.60000610352</ele>
        <time>2014-04-27T09:11:01.000Z</time>
      </trkpt>
      <trkpt lat="48.97555" lon="1.13524">
        <ele>200.60000610352</ele>
        <time>2014-04-27T09:11:06.000Z</time>
      </trkpt>
      <trkpt lat="48.97567" lon="1.13521">
        <ele>201.19999694824</ele>
        <time>2014-04-27T09:11:11.000Z</time>
      </trkpt>
      <trkpt lat="48.97568" lon="1.13519">
        <ele>201.19999694824</ele>
        <time>2014-04-27T09:11:12.000Z</time>
      </trkpt>
      <trkpt lat="48.97574" lon="1.13517">
        <ele>201.19999694824</ele>
        <time>2014-04-27T09:11:15.000Z</time>
      </trkpt>
      <trkpt lat="48.97578" lon="1.13516">
        <ele>201.39999389648</ele>
        <time>2014-04-27T09:11:18.000Z</time>
      </trkpt>
      <trkpt lat="48.9758" lon="1.13514">
        <ele>201.39999389648</ele>
        <time>2014-04-27T09:11:20.000Z</time>
      </trkpt>
      <trkpt lat="48.9759" lon="1.13512">
        <ele>201.39999389648</ele>
        <time>2014-04-27T09:11:24.000Z</time>
      </trkpt>
      <trkpt lat="48.97604" lon="1.1351">
        <ele>201.39999389648</ele>
        <time>2014-04-27T09:11:30.000Z</time>
      </trkpt>
      <trkpt lat="48.97605" lon="1.1351">
        <ele>201.39999389648</ele>
        <time>2014-04-27T09:11:31.000Z</time>
      </trkpt>
      <trkpt lat="48.97607" lon="1.13511">
        <ele>201.60000610352</ele>
        <time>2014-04-27T09:11:32.000Z</time>
      </trkpt>
      <trkpt lat="48.9761" lon="1.1351">
        <ele>201.60000610352</ele>
        <time>2014-04-27T09:11:34.000Z</time>
      </trkpt>
      <trkpt lat="48.97622" lon="1.13508">
        <ele>201.60000610352</ele>
        <time>2014-04-27T09:11:39.000Z</time>
      </trkpt>
      <trkpt lat="48.97641" lon="1.13503">
        <ele>201.80000305176</ele>
        <time>2014-04-27T09:11:45.000Z</time>
      </trkpt>
      <trkpt lat="48.97659" lon="1.13497">
        <ele>201.60000610352</ele>
        <time>2014-04-27T09:11:50.000Z</time>
      </trkpt>
      <trkpt lat="48.97671" lon="1.13494">
        <ele>201.19999694824</ele>
        <time>2014-04-27T09:11:54.000Z</time>
      </trkpt>
      <trkpt lat="48.97684" lon="1.13491">
        <ele>200.60000610352</ele>
        <time>2014-04-27T09:11:59.000Z</time>
      </trkpt>
      <trkpt lat="48.97696" lon="1.13485">
        <ele>200.60000610352</ele>
        <time>2014-04-27T09:12:04.000Z</time>
      </trkpt>
      <trkpt lat="48.977" lon="1.13485">
        <ele>200.39999389648</ele>
        <time>2014-04-27T09:12:05.000Z</time>
      </trkpt>
      <trkpt lat="48.97708" lon="1.13485">
        <ele>200.39999389648</ele>
        <time>2014-04-27T09:12:08.000Z</time>
      </trkpt>
      <trkpt lat="48.97716" lon="1.13482">
        <ele>200.39999389648</ele>
        <time>2014-04-27T09:12:12.000Z</time>
      </trkpt>
      <trkpt lat="48.97724" lon="1.13481">
        <ele>200.39999389648</ele>
        <time>2014-04-27T09:12:15.000Z</time>
      </trkpt>
      <trkpt lat="48.97737" lon="1.13479">
        <ele>200.19999694824</ele>
        <time>2014-04-27T09:12:20.000Z</time>
      </trkpt>
      <trkpt lat="48.97748" lon="1.13476">
        <ele>200.60000610352</ele>
        <time>2014-04-27T09:12:24.000Z</time>
      </trkpt>
      <trkpt lat="48.97754" lon="1.13476">
        <ele>201</ele>
        <time>2014-04-27T09:12:27.000Z</time>
      </trkpt>
      <trkpt lat="48.97758" lon="1.13473">
        <ele>201</ele>
        <time>2014-04-27T09:12:29.000Z</time>
      </trkpt>
      <trkpt lat="48.97766" lon="1.13473">
        <ele>201</ele>
        <time>2014-04-27T09:12:32.000Z</time>
      </trkpt>
      <trkpt lat="48.97768" lon="1.13472">
        <ele>201.39999389648</ele>
        <time>2014-04-27T09:12:33.000Z</time>
      </trkpt>
      <trkpt lat="48.97772" lon="1.13471">
        <ele>201.39999389648</ele>
        <time>2014-04-27T09:12:35.000Z</time>
      </trkpt>
      <trkpt lat="48.9778" lon="1.13469">
        <ele>201.19999694824</ele>
        <time>2014-04-27T09:12:38.000Z</time>
      </trkpt>
      <trkpt lat="48.9779" lon="1.13466">
        <ele>201</ele>
        <time>2014-04-27T09:12:42.000Z</time>
      </trkpt>
      <trkpt lat="48.97803" lon="1.13462">
        <ele>201.19999694824</ele>
        <time>2014-04-27T09:12:47.000Z</time>
      </trkpt>
      <trkpt lat="48.97816" lon="1.13458">
        <ele>201.19999694824</ele>
        <time>2014-04-27T09:12:51.000Z</time>
      </trkpt>
      <trkpt lat="48.97818" lon="1.13459">
        <ele>201.39999389648</ele>
        <time>2014-04-27T09:12:52.000Z</time>
      </trkpt>
      <trkpt lat="48.97824" lon="1.13457">
        <ele>201.60000610352</ele>
        <time>2014-04-27T09:12:54.000Z</time>
      </trkpt>
      <trkpt lat="48.97832" lon="1.13455">
        <ele>201.39999389648</ele>
        <time>2014-04-27T09:12:56.000Z</time>
      </trkpt>
      <trkpt lat="48.9784" lon="1.13452">
        <ele>201.60000610352</ele>
        <time>2014-04-27T09:12:58.000Z</time>
      </trkpt>
      <trkpt lat="48.97855" lon="1.13448">
        <ele>202</ele>
        <time>2014-04-27T09:13:03.000Z</time>
      </trkpt>
      <trkpt lat="48.97869" lon="1.13444">
        <ele>202.19999694824</ele>
        <time>2014-04-27T09:13:07.000Z</time>
      </trkpt>
      <trkpt lat="48.97885" lon="1.13438">
        <ele>202.19999694824</ele>
        <time>2014-04-27T09:13:13.000Z</time>
      </trkpt>
      <trkpt lat="48.97896" lon="1.13434">
        <ele>202.39999389648</ele>
        <time>2014-04-27T09:13:16.000Z</time>
      </trkpt>
      <trkpt lat="48.97911" lon="1.13431">
        <ele>202.19999694824</ele>
        <time>2014-04-27T09:13:20.000Z</time>
      </trkpt>
      <trkpt lat="48.97922" lon="1.13427">
        <ele>201.80000305176</ele>
        <time>2014-04-27T09:13:23.000Z</time>
      </trkpt>
      <trkpt lat="48.97942" lon="1.13423">
        <ele>202</ele>
        <time>2014-04-27T09:13:28.000Z</time>
      </trkpt>
      <trkpt lat="48.97961" lon="1.13418">
        <ele>201.60000610352</ele>
        <time>2014-04-27T09:13:34.000Z</time>
      </trkpt>
      <trkpt lat="48.97975" lon="1.13415">
        <ele>201.60000610352</ele>
        <time>2014-04-27T09:13:40.000Z</time>
      </trkpt>
      <trkpt lat="48.97976" lon="1.13413">
        <ele>201.19999694824</ele>
        <time>2014-04-27T09:13:45.000Z</time>
      </trkpt>
      <trkpt lat="48.97979" lon="1.1341">
        <ele>200.60000610352</ele>
        <time>2014-04-27T09:13:58.000Z</time>
      </trkpt>
      <trkpt lat="48.9798" lon="1.13409">
        <ele>200.39999389648</ele>
        <time>2014-04-27T09:14:10.000Z</time>
      </trkpt>
      <trkpt lat="48.97981" lon="1.13413">
        <ele>200.80000305176</ele>
        <time>2014-04-27T09:14:16.000Z</time>
      </trkpt>
      <trkpt lat="48.97987" lon="1.13428">
        <ele>201</ele>
        <time>2014-04-27T09:14:22.000Z</time>
      </trkpt>
      <trkpt lat="48.97994" lon="1.13441">
        <ele>200.19999694824</ele>
        <time>2014-04-27T09:14:28.000Z</time>
      </trkpt>
      <trkpt lat="48.97995" lon="1.13441">
        <ele>200</ele>
        <time>2014-04-27T09:14:35.000Z</time>
      </trkpt>
      <trkpt lat="48.97996" lon="1.13443">
        <ele>200</ele>
        <time>2014-04-27T09:14:36.000Z</time>
      </trkpt>
      <trkpt lat="48.98" lon="1.13449">
        <ele>200</ele>
        <time>2014-04-27T09:14:39.000Z</time>
      </trkpt>
      <trkpt lat="48.98008" lon="1.13463">
        <ele>199.60000610352</ele>
        <time>2014-04-27T09:14:44.000Z</time>
      </trkpt>
      <trkpt lat="48.98013" lon="1.13472">
        <ele>199.39999389648</ele>
        <time>2014-04-27T09:14:47.000Z</time>
      </trkpt>
      <trkpt lat="48.98022" lon="1.13487">
        <ele>199.19999694824</ele>
        <time>2014-04-27T09:14:51.000Z</time>
      </trkpt>
      <trkpt lat="48.98035" lon="1.13508">
        <ele>198.80000305176</ele>
        <time>2014-04-27T09:14:57.000Z</time>
      </trkpt>
      <trkpt lat="48.98048" lon="1.13531">
        <ele>198.60000610352</ele>
        <time>2014-04-27T09:15:04.000Z</time>
      </trkpt>
      <trkpt lat="48.9806" lon="1.13553">
        <ele>198.60000610352</ele>
        <time>2014-04-27T09:15:11.000Z</time>
      </trkpt>
      <trkpt lat="48.98077" lon="1.13581">
        <ele>198.60000610352</ele>
        <time>2014-04-27T09:15:20.000Z</time>
      </trkpt>
      <trkpt lat="48.98084" lon="1.13593">
        <ele>198.39999389648</ele>
        <time>2014-04-27T09:15:24.000Z</time>
      </trkpt>
      <trkpt lat="48.98088" lon="1.136">
        <ele>198.19999694824</ele>
        <time>2014-04-27T09:15:27.000Z</time>
      </trkpt>
      <trkpt lat="48.98104" lon="1.13625">
        <ele>198</ele>
        <time>2014-04-27T09:15:35.000Z</time>
      </trkpt>
      <trkpt lat="48.98104" lon="1.13626">
        <ele>197.80000305176</ele>
        <time>2014-04-27T09:15:36.000Z</time>
      </trkpt>
      <trkpt lat="48.98106" lon="1.13629">
        <ele>198</ele>
        <time>2014-04-27T09:15:38.000Z</time>
      </trkpt>
      <trkpt lat="48.98108" lon="1.13633">
        <ele>198</ele>
        <time>2014-04-27T09:15:40.000Z</time>
      </trkpt>
      <trkpt lat="48.98112" lon="1.1364">
        <ele>198</ele>
        <time>2014-04-27T09:15:44.000Z</time>
      </trkpt>
      <trkpt lat="48.98114" lon="1.13649">
        <ele>198</ele>
        <time>2014-04-27T09:15:47.000Z</time>
      </trkpt>
      <trkpt lat="48.98117" lon="1.13654">
        <ele>198</ele>
        <time>2014-04-27T09:15:49.000Z</time>
      </trkpt>
      <trkpt lat="48.9812" lon="1.13657">
        <ele>197.80000305176</ele>
        <time>2014-04-27T09:15:51.000Z</time>
      </trkpt>
      <trkpt lat="48.98122" lon="1.1366">
        <ele>198</ele>
        <time>2014-04-27T09:15:53.000Z</time>
      </trkpt>
      <trkpt lat="48.98127" lon="1.13668">
        <ele>197.80000305176</ele>
        <time>2014-04-27T09:15:57.000Z</time>
      </trkpt>
      <trkpt lat="48.98127" lon="1.13669">
        <ele>197.80000305176</ele>
        <time>2014-04-27T09:15:58.000Z</time>
      </trkpt>
      <trkpt lat="48.98133" lon="1.13678">
        <ele>197.80000305176</ele>
        <time>2014-04-27T09:16:02.000Z</time>
      </trkpt>
      <trkpt lat="48.98135" lon="1.13682">
        <ele>198</ele>
        <time>2014-04-27T09:16:04.000Z</time>
      </trkpt>
      <trkpt lat="48.98138" lon="1.13684">
        <ele>198</ele>
        <time>2014-04-27T09:16:06.000Z</time>
      </trkpt>
      <trkpt lat="48.98142" lon="1.13689">
        <ele>197.80000305176</ele>
        <time>2014-04-27T09:16:10.000Z</time>
      </trkpt>
      <trkpt lat="48.98148" lon="1.13699">
        <ele>197.60000610352</ele>
        <time>2014-04-27T09:16:16.000Z</time>
      </trkpt>
      <trkpt lat="48.98155" lon="1.13706">
        <ele>197.60000610352</ele>
        <time>2014-04-27T09:16:21.000Z</time>
      </trkpt>
      <trkpt lat="48.98158" lon="1.13712">
        <ele>197.60000610352</ele>
        <time>2014-04-27T09:16:27.000Z</time>
      </trkpt>
      <trkpt lat="48.98158" lon="1.13714">
        <ele>197.80000305176</ele>
        <time>2014-04-27T09:16:28.000Z</time>
      </trkpt>
      <trkpt lat="48.98162" lon="1.13721">
        <ele>197.80000305176</ele>
        <time>2014-04-27T09:16:31.000Z</time>
      </trkpt>
      <trkpt lat="48.98165" lon="1.13724">
        <ele>197.80000305176</ele>
        <time>2014-04-27T09:16:33.000Z</time>
      </trkpt>
      <trkpt lat="48.98168" lon="1.13727">
        <ele>197.60000610352</ele>
        <time>2014-04-27T09:16:36.000Z</time>
      </trkpt>
      <trkpt lat="48.9817" lon="1.13729">
        <ele>197.80000305176</ele>
        <time>2014-04-27T09:16:42.000Z</time>
      </trkpt>
      <trkpt lat="48.98173" lon="1.13734">
        <ele>197.80000305176</ele>
        <time>2014-04-27T09:16:50.000Z</time>
      </trkpt>
      <trkpt lat="48.98176" lon="1.13738">
        <ele>197.60000610352</ele>
        <time>2014-04-27T09:17:00.000Z</time>
      </trkpt>
      <trkpt lat="48.98178" lon="1.13739">
        <ele>197.60000610352</ele>
        <time>2014-04-27T09:17:05.000Z</time>
      </trkpt>
      <trkpt lat="48.98179" lon="1.13739">
        <ele>197.60000610352</ele>
        <time>2014-04-27T09:17:06.000Z</time>
      </trkpt>
      <trkpt lat="48.98184" lon="1.13745">
        <ele>198</ele>
        <time>2014-04-27T09:17:12.000Z</time>
      </trkpt>
      <trkpt lat="48.98185" lon="1.13747">
        <ele>198</ele>
        <time>2014-04-27T09:17:17.000Z</time>
      </trkpt>
      <trkpt lat="48.98192" lon="1.13758">
        <ele>198</ele>
        <time>2014-04-27T09:17:23.000Z</time>
      </trkpt>
      <trkpt lat="48.98195" lon="1.13761">
        <ele>197.80000305176</ele>
        <time>2014-04-27T09:17:25.000Z</time>
      </trkpt>
      <trkpt lat="48.98194" lon="1.13761">
        <ele>197.39999389648</ele>
        <time>2014-04-27T09:17:28.000Z</time>
      </trkpt>
      <trkpt lat="48.98194" lon="1.13761">
        <ele>197.19999694824</ele>
        <time>2014-04-27T09:17:33.000Z</time>
      </trkpt>
      <trkpt lat="48.98197" lon="1.13766">
        <ele>197.80000305176</ele>
        <time>2014-04-27T09:17:37.000Z</time>
      </trkpt>
      <trkpt lat="48.98205" lon="1.13774">
        <ele>198</ele>
        <time>2014-04-27T09:17:42.000Z</time>
      </trkpt>
      <trkpt lat="48.98214" lon="1.13785">
        <ele>197.80000305176</ele>
        <time>2014-04-27T09:17:47.000Z</time>
      </trkpt>
      <trkpt lat="48.98215" lon="1.13787">
        <ele>197.80000305176</ele>
        <time>2014-04-27T09:17:48.000Z</time>
      </trkpt>
      <trkpt lat="48.98218" lon="1.13794">
        <ele>198.19999694824</ele>
        <time>2014-04-27T09:17:51.000Z</time>
      </trkpt>
      <trkpt lat="48.98224" lon="1.13799">
        <ele>197.80000305176</ele>
        <time>2014-04-27T09:17:54.000Z</time>
      </trkpt>
      <trkpt lat="48.98229" lon="1.13805">
        <ele>197.80000305176</ele>
        <time>2014-04-27T09:17:57.000Z</time>
      </trkpt>
      <trkpt lat="48.98235" lon="1.13817">
        <ele>198</ele>
        <time>2014-04-27T09:18:02.000Z</time>
      </trkpt>
      <trkpt lat="48.98241" lon="1.1383">
        <ele>198</ele>
        <time>2014-04-27T09:18:08.000Z</time>
      </trkpt>
      <trkpt lat="48.98243" lon="1.13836">
        <ele>198.19999694824</ele>
        <time>2014-04-27T09:18:11.000Z</time>
      </trkpt>
      <trkpt lat="48.98243" lon="1.13839">
        <ele>198.39999389648</ele>
        <time>2014-04-27T09:18:12.000Z</time>
      </trkpt>
      <trkpt lat="48.98243" lon="1.13841">
        <ele>198.39999389648</ele>
        <time>2014-04-27T09:18:13.000Z</time>
      </trkpt>
      <trkpt lat="48.98243" lon="1.13844">
        <ele>198.60000610352</ele>
        <time>2014-04-27T09:18:14.000Z</time>
      </trkpt>
      <trkpt lat="48.98246" lon="1.13849">
        <ele>198.60000610352</ele>
        <time>2014-04-27T09:18:17.000Z</time>
      </trkpt>
      <trkpt lat="48.98249" lon="1.13856">
        <ele>198.39999389648</ele>
        <time>2014-04-27T09:18:22.000Z</time>
      </trkpt>
      <trkpt lat="48.98251" lon="1.13861">
        <ele>198.39999389648</ele>
        <time>2014-04-27T09:18:31.000Z</time>
      </trkpt>
      <trkpt lat="48.98254" lon="1.13868">
        <ele>198.60000610352</ele>
        <time>2014-04-27T09:18:37.000Z</time>
      </trkpt>
      <trkpt lat="48.98257" lon="1.13874">
        <ele>198.80000305176</ele>
        <time>2014-04-27T09:18:44.000Z</time>
      </trkpt>
      <trkpt lat="48.98262" lon="1.13886">
        <ele>199</ele>
        <time>2014-04-27T09:18:49.000Z</time>
      </trkpt>
      <trkpt lat="48.98263" lon="1.13888">
        <ele>199</ele>
        <time>2014-04-27T09:18:50.000Z</time>
      </trkpt>
      <trkpt lat="48.98268" lon="1.13897">
        <ele>199.39999389648</ele>
        <time>2014-04-27T09:18:54.000Z</time>
      </trkpt>
      <trkpt lat="48.9827" lon="1.13899">
        <ele>199.39999389648</ele>
        <time>2014-04-27T09:18:55.000Z</time>
      </trkpt>
      <trkpt lat="48.98275" lon="1.13907">
        <ele>199.80000305176</ele>
        <time>2014-04-27T09:18:59.000Z</time>
      </trkpt>
      <trkpt lat="48.98276" lon="1.13913">
        <ele>200.19999694824</ele>
        <time>2014-04-27T09:19:01.000Z</time>
      </trkpt>
      <trkpt lat="48.9828" lon="1.13924">
        <ele>200.39999389648</ele>
        <time>2014-04-27T09:19:05.000Z</time>
      </trkpt>
      <trkpt lat="48.98284" lon="1.13929">
        <ele>200.60000610352</ele>
        <time>2014-04-27T09:19:07.000Z</time>
      </trkpt>
      <trkpt lat="48.98295" lon="1.13945">
        <ele>201.19999694824</ele>
        <time>2014-04-27T09:19:13.000Z</time>
      </trkpt>
      <trkpt lat="48.98296" lon="1.13947">
        <ele>201.60000610352</ele>
        <time>2014-04-27T09:19:14.000Z</time>
      </trkpt>
      <trkpt lat="48.98301" lon="1.13954">
        <ele>201.80000305176</ele>
        <time>2014-04-27T09:19:17.000Z</time>
      </trkpt>
      <trkpt lat="48.98303" lon="1.13957">
        <ele>202</ele>
        <time>2014-04-27T09:19:18.000Z</time>
      </trkpt>
      <trkpt lat="48.98312" lon="1.13972">
        <ele>202.39999389648</ele>
        <time>2014-04-27T09:19:22.000Z</time>
      </trkpt>
      <trkpt lat="48.98316" lon="1.13977">
        <ele>202.60000610352</ele>
        <time>2014-04-27T09:19:24.000Z</time>
      </trkpt>
      <trkpt lat="48.98327" lon="1.13994">
        <ele>203</ele>
        <time>2014-04-27T09:19:29.000Z</time>
      </trkpt>
      <trkpt lat="48.98335" lon="1.14006">
        <ele>203.60000610352</ele>
        <time>2014-04-27T09:19:33.000Z</time>
      </trkpt>
      <trkpt lat="48.98339" lon="1.14013">
        <ele>204</ele>
        <time>2014-04-27T09:19:35.000Z</time>
      </trkpt>
      <trkpt lat="48.98347" lon="1.14028">
        <ele>204.60000610352</ele>
        <time>2014-04-27T09:19:39.000Z</time>
      </trkpt>
      <trkpt lat="48.98353" lon="1.14038">
        <ele>204.80000305176</ele>
        <time>2014-04-27T09:19:42.000Z</time>
      </trkpt>
      <trkpt lat="48.98372" lon="1.14069">
        <ele>205.39999389648</ele>
        <time>2014-04-27T09:19:50.000Z</time>
      </trkpt>
      <trkpt lat="48.98374" lon="1.14073">
        <ele>205.60000610352</ele>
        <time>2014-04-27T09:19:51.000Z</time>
      </trkpt>
      <trkpt lat="48.98385" lon="1.1409">
        <ele>205.80000305176</ele>
        <time>2014-04-27T09:19:56.000Z</time>
      </trkpt>
      <trkpt lat="48.98407" lon="1.14123">
        <ele>206.60000610352</ele>
        <time>2014-04-27T09:20:05.000Z</time>
      </trkpt>
      <trkpt lat="48.9841" lon="1.14126">
        <ele>206.60000610352</ele>
        <time>2014-04-27T09:20:06.000Z</time>
      </trkpt>
      <trkpt lat="48.9842" lon="1.14146">
        <ele>206.80000305176</ele>
        <time>2014-04-27T09:20:11.000Z</time>
      </trkpt>
      <trkpt lat="48.98436" lon="1.14171">
        <ele>207.19999694824</ele>
        <time>2014-04-27T09:20:18.000Z</time>
      </trkpt>
      <trkpt lat="48.9845" lon="1.14195">
        <ele>207.60000610352</ele>
        <time>2014-04-27T09:20:24.000Z</time>
      </trkpt>
      <trkpt lat="48.98464" lon="1.14215">
        <ele>207.80000305176</ele>
        <time>2014-04-27T09:20:30.000Z</time>
      </trkpt>
      <trkpt lat="48.98483" lon="1.14245">
        <ele>207.80000305176</ele>
        <time>2014-04-27T09:20:38.000Z</time>
      </trkpt>
      <trkpt lat="48.9849" lon="1.14256">
        <ele>208</ele>
        <time>2014-04-27T09:20:43.000Z</time>
      </trkpt>
      <trkpt lat="48.98493" lon="1.14262">
        <ele>208.19999694824</ele>
        <time>2014-04-27T09:20:47.000Z</time>
      </trkpt>
      <trkpt lat="48.98493" lon="1.14261">
        <ele>208</ele>
        <time>2014-04-27T09:20:48.000Z</time>
      </trkpt>
      <trkpt lat="48.98494" lon="1.14262">
        <ele>208.19999694824</ele>
        <time>2014-04-27T09:20:55.000Z</time>
      </trkpt>
      <trkpt lat="48.98495" lon="1.1426">
        <ele>208</ele>
        <time>2014-04-27T09:21:00.000Z</time>
      </trkpt>
      <trkpt lat="48.98495" lon="1.14261">
        <ele>208</ele>
        <time>2014-04-27T09:21:01.000Z</time>
      </trkpt>
      <trkpt lat="48.98495" lon="1.1426">
        <ele>207.80000305176</ele>
        <time>2014-04-27T09:21:11.000Z</time>
      </trkpt>
      <trkpt lat="48.98496" lon="1.1426">
        <ele>207.60000610352</ele>
        <time>2014-04-27T09:21:22.000Z</time>
      </trkpt>
      <trkpt lat="48.98497" lon="1.14261">
        <ele>207.80000305176</ele>
        <time>2014-04-27T09:21:30.000Z</time>
      </trkpt>
      <trkpt lat="48.98498" lon="1.14266">
        <ele>207.39999389648</ele>
        <time>2014-04-27T09:21:34.000Z</time>
      </trkpt>
      <trkpt lat="48.98497" lon="1.14267">
        <ele>207.39999389648</ele>
        <time>2014-04-27T09:21:35.000Z</time>
      </trkpt>
      <trkpt lat="48.98486" lon="1.14284">
        <ele>207.39999389648</ele>
        <time>2014-04-27T09:21:41.000Z</time>
      </trkpt>
      <trkpt lat="48.98475" lon="1.14303">
        <ele>207.60000610352</ele>
        <time>2014-04-27T09:21:46.000Z</time>
      </trkpt>
      <trkpt lat="48.98461" lon="1.14326">
        <ele>207.60000610352</ele>
        <time>2014-04-27T09:21:52.000Z</time>
      </trkpt>
      <trkpt lat="48.98445" lon="1.14351">
        <ele>207.19999694824</ele>
        <time>2014-04-27T09:21:59.000Z</time>
      </trkpt>
      <trkpt lat="48.98431" lon="1.14374">
        <ele>207.39999389648</ele>
        <time>2014-04-27T09:22:05.000Z</time>
      </trkpt>
      <trkpt lat="48.98413" lon="1.14405">
        <ele>207.19999694824</ele>
        <time>2014-04-27T09:22:13.000Z</time>
      </trkpt>
      <trkpt lat="48.98403" lon="1.14421">
        <ele>207.39999389648</ele>
        <time>2014-04-27T09:22:16.000Z</time>
      </trkpt>
      <trkpt lat="48.98395" lon="1.14436">
        <ele>207.39999389648</ele>
        <time>2014-04-27T09:22:19.000Z</time>
      </trkpt>
      <trkpt lat="48.98378" lon="1.14463">
        <ele>206.60000610352</ele>
        <time>2014-04-27T09:22:25.000Z</time>
      </trkpt>
      <trkpt lat="48.98361" lon="1.14491">
        <ele>206.39999389648</ele>
        <time>2014-04-27T09:22:31.000Z</time>
      </trkpt>
      <trkpt lat="48.98351" lon="1.14507">
        <ele>206.19999694824</ele>
        <time>2014-04-27T09:22:35.000Z</time>
      </trkpt>
      <trkpt lat="48.98345" lon="1.14517">
        <ele>206</ele>
        <time>2014-04-27T09:22:37.000Z</time>
      </trkpt>
      <trkpt lat="48.98336" lon="1.14532">
        <ele>206</ele>
        <time>2014-04-27T09:22:40.000Z</time>
      </trkpt>
      <trkpt lat="48.98324" lon="1.14552">
        <ele>205.60000610352</ele>
        <time>2014-04-27T09:22:44.000Z</time>
      </trkpt>
      <trkpt lat="48.9832" lon="1.14558">
        <ele>205.60000610352</ele>
        <time>2014-04-27T09:22:45.000Z</time>
      </trkpt>
      <trkpt lat="48.98306" lon="1.14585">
        <ele>205.19999694824</ele>
        <time>2014-04-27T09:22:50.000Z</time>
      </trkpt>
      <trkpt lat="48.98299" lon="1.14596">
        <ele>205</ele>
        <time>2014-04-27T09:22:52.000Z</time>
      </trkpt>
      <trkpt lat="48.98292" lon="1.14608">
        <ele>204.80000305176</ele>
        <time>2014-04-27T09:22:54.000Z</time>
      </trkpt>
      <trkpt lat="48.98278" lon="1.14628">
        <ele>204.39999389648</ele>
        <time>2014-04-27T09:22:58.000Z</time>
      </trkpt>
      <trkpt lat="48.98271" lon="1.14639">
        <ele>204.39999389648</ele>
        <time>2014-04-27T09:23:00.000Z</time>
      </trkpt>
      <trkpt lat="48.98256" lon="1.1466">
        <ele>203.19999694824</ele>
        <time>2014-04-27T09:23:04.000Z</time>
      </trkpt>
      <trkpt lat="48.98253" lon="1.14665">
        <ele>203.19999694824</ele>
        <time>2014-04-27T09:23:05.000Z</time>
      </trkpt>
      <trkpt lat="48.98233" lon="1.14698">
        <ele>202.39999389648</ele>
        <time>2014-04-27T09:23:12.000Z</time>
      </trkpt>
      <trkpt lat="48.98222" lon="1.14716">
        <ele>202.39999389648</ele>
        <time>2014-04-27T09:23:16.000Z</time>
      </trkpt>
      <trkpt lat="48.98218" lon="1.14724">
        <ele>202</ele>
        <time>2014-04-27T09:23:18.000Z</time>
      </trkpt>
      <trkpt lat="48.98214" lon="1.1473">
        <ele>202</ele>
        <time>2014-04-27T09:23:20.000Z</time>
      </trkpt>
      <trkpt lat="48.982" lon="1.14748">
        <ele>202.19999694824</ele>
        <time>2014-04-27T09:23:25.000Z</time>
      </trkpt>
      <trkpt lat="48.98191" lon="1.14762">
        <ele>201.80000305176</ele>
        <time>2014-04-27T09:23:29.000Z</time>
      </trkpt>
      <trkpt lat="48.98179" lon="1.1478">
        <ele>202</ele>
        <time>2014-04-27T09:23:34.000Z</time>
      </trkpt>
      <trkpt lat="48.98177" lon="1.14785">
        <ele>202.19999694824</ele>
        <time>2014-04-27T09:23:35.000Z</time>
      </trkpt>
      <trkpt lat="48.98171" lon="1.14796">
        <ele>202</ele>
        <time>2014-04-27T09:23:38.000Z</time>
      </trkpt>
      <trkpt lat="48.98165" lon="1.1481">
        <ele>202</ele>
        <time>2014-04-27T09:23:42.000Z</time>
      </trkpt>
      <trkpt lat="48.98154" lon="1.14831">
        <ele>201.60000610352</ele>
        <time>2014-04-27T09:23:48.000Z</time>
      </trkpt>
      <trkpt lat="48.98143" lon="1.14854">
        <ele>201.39999389648</ele>
        <time>2014-04-27T09:23:54.000Z</time>
      </trkpt>
      <trkpt lat="48.98133" lon="1.14873">
        <ele>202</ele>
        <time>2014-04-27T09:24:00.000Z</time>
      </trkpt>
      <trkpt lat="48.98129" lon="1.1488">
        <ele>202.19999694824</ele>
        <time>2014-04-27T09:24:03.000Z</time>
      </trkpt>
      <trkpt lat="48.98128" lon="1.14882">
        <ele>202.19999694824</ele>
        <time>2014-04-27T09:24:04.000Z</time>
      </trkpt>
      <trkpt lat="48.98124" lon="1.14891">
        <ele>202</ele>
        <time>2014-04-27T09:24:07.000Z</time>
      </trkpt>
      <trkpt lat="48.98122" lon="1.14897">
        <ele>201.80000305176</ele>
        <time>2014-04-27T09:24:09.000Z</time>
      </trkpt>
      <trkpt lat="48.98114" lon="1.1491">
        <ele>202.19999694824</ele>
        <time>2014-04-27T09:24:13.000Z</time>
      </trkpt>
      <trkpt lat="48.98104" lon="1.14932">
        <ele>202.39999389648</ele>
        <time>2014-04-27T09:24:19.000Z</time>
      </trkpt>
      <trkpt lat="48.98098" lon="1.14945">
        <ele>202.39999389648</ele>
        <time>2014-04-27T09:24:23.000Z</time>
      </trkpt>
      <trkpt lat="48.98087" lon="1.14969">
        <ele>202.60000610352</ele>
        <time>2014-04-27T09:24:29.000Z</time>
      </trkpt>
      <trkpt lat="48.98076" lon="1.14993">
        <ele>202.80000305176</ele>
        <time>2014-04-27T09:24:35.000Z</time>
      </trkpt>
      <trkpt lat="48.98066" lon="1.15013">
        <ele>202.80000305176</ele>
        <time>2014-04-27T09:24:40.000Z</time>
      </trkpt>
      <trkpt lat="48.98057" lon="1.15035">
        <ele>202.60000610352</ele>
        <time>2014-04-27T09:24:46.000Z</time>
      </trkpt>
      <trkpt lat="48.98046" lon="1.15058">
        <ele>202.60000610352</ele>
        <time>2014-04-27T09:24:52.000Z</time>
      </trkpt>
      <trkpt lat="48.98034" lon="1.15084">
        <ele>202.80000305176</ele>
        <time>2014-04-27T09:24:59.000Z</time>
      </trkpt>
      <trkpt lat="48.98024" lon="1.15104">
        <ele>203</ele>
        <time>2014-04-27T09:25:05.000Z</time>
      </trkpt>
      <trkpt lat="48.98019" lon="1.15114">
        <ele>203</ele>
        <time>2014-04-27T09:25:08.000Z</time>
      </trkpt>
      <trkpt lat="48.98011" lon="1.15132">
        <ele>203</ele>
        <time>2014-04-27T09:25:12.000Z</time>
      </trkpt>
      <trkpt lat="48.98002" lon="1.1515">
        <ele>203.19999694824</ele>
        <time>2014-04-27T09:25:17.000Z</time>
      </trkpt>
      <trkpt lat="48.97995" lon="1.15163">
        <ele>203.39999389648</ele>
        <time>2014-04-27T09:25:21.000Z</time>
      </trkpt>
      <trkpt lat="48.97987" lon="1.15182">
        <ele>203.19999694824</ele>
        <time>2014-04-27T09:25:26.000Z</time>
      </trkpt>
      <trkpt lat="48.97986" lon="1.15186">
        <ele>203</ele>
        <time>2014-04-27T09:25:30.000Z</time>
      </trkpt>
      <trkpt lat="48.97981" lon="1.15199">
        <ele>203.60000610352</ele>
        <time>2014-04-27T09:25:36.000Z</time>
      </trkpt>
      <trkpt lat="48.97978" lon="1.15215">
        <ele>203.60000610352</ele>
        <time>2014-04-27T09:25:41.000Z</time>
      </trkpt>
      <trkpt lat="48.9798" lon="1.15218">
        <ele>203.39999389648</ele>
        <time>2014-04-27T09:25:42.000Z</time>
      </trkpt>
      <trkpt lat="48.97986" lon="1.15238">
        <ele>203.80000305176</ele>
        <time>2014-04-27T09:25:47.000Z</time>
      </trkpt>
      <trkpt lat="48.98" lon="1.15257">
        <ele>203.80000305176</ele>
        <time>2014-04-27T09:25:52.000Z</time>
      </trkpt>
      <trkpt lat="48.98009" lon="1.15267">
        <ele>204.19999694824</ele>
        <time>2014-04-27T09:25:55.000Z</time>
      </trkpt>
      <trkpt lat="48.98023" lon="1.15283">
        <ele>204.60000610352</ele>
        <time>2014-04-27T09:26:00.000Z</time>
      </trkpt>
      <trkpt lat="48.98041" lon="1.15304">
        <ele>205</ele>
        <time>2014-04-27T09:26:07.000Z</time>
      </trkpt>
      <trkpt lat="48.98047" lon="1.15318">
        <ele>205</ele>
        <time>2014-04-27T09:26:10.000Z</time>
      </trkpt>
      <trkpt lat="48.98046" lon="1.15323">
        <ele>205.19999694824</ele>
        <time>2014-04-27T09:26:11.000Z</time>
      </trkpt>
      <trkpt lat="48.98038" lon="1.1534">
        <ele>205.80000305176</ele>
        <time>2014-04-27T09:26:15.000Z</time>
      </trkpt>
      <trkpt lat="48.98021" lon="1.15361">
        <ele>205.80000305176</ele>
        <time>2014-04-27T09:26:21.000Z</time>
      </trkpt>
      <trkpt lat="48.97998" lon="1.1539">
        <ele>205.80000305176</ele>
        <time>2014-04-27T09:26:28.000Z</time>
      </trkpt>
      <trkpt lat="48.97976" lon="1.15416">
        <ele>205.39999389648</ele>
        <time>2014-04-27T09:26:35.000Z</time>
      </trkpt>
      <trkpt lat="48.97948" lon="1.15447">
        <ele>205.19999694824</ele>
        <time>2014-04-27T09:26:42.000Z</time>
      </trkpt>
      <trkpt lat="48.97923" lon="1.15475">
        <ele>204.60000610352</ele>
        <time>2014-04-27T09:26:49.000Z</time>
      </trkpt>
      <trkpt lat="48.97904" lon="1.15497">
        <ele>204.19999694824</ele>
        <time>2014-04-27T09:26:55.000Z</time>
      </trkpt>
      <trkpt lat="48.97878" lon="1.15516">
        <ele>204.19999694824</ele>
        <time>2014-04-27T09:27:01.000Z</time>
      </trkpt>
      <trkpt lat="48.97869" lon="1.15519">
        <ele>204</ele>
        <time>2014-04-27T09:27:03.000Z</time>
      </trkpt>
      <trkpt lat="48.9785" lon="1.15525">
        <ele>203.80000305176</ele>
        <time>2014-04-27T09:27:07.000Z</time>
      </trkpt>
      <trkpt lat="48.97823" lon="1.15532">
        <ele>203</ele>
        <time>2014-04-27T09:27:14.000Z</time>
      </trkpt>
      <trkpt lat="48.97797" lon="1.15538">
        <ele>203</ele>
        <time>2014-04-27T09:27:21.000Z</time>
      </trkpt>
      <trkpt lat="48.97767" lon="1.15546">
        <ele>203.60000610352</ele>
        <time>2014-04-27T09:27:29.000Z</time>
      </trkpt>
      <trkpt lat="48.97744" lon="1.15551">
        <ele>204</ele>
        <time>2014-04-27T09:27:35.000Z</time>
      </trkpt>
      <trkpt lat="48.97729" lon="1.15554">
        <ele>204.39999389648</ele>
        <time>2014-04-27T09:27:39.000Z</time>
      </trkpt>
      <trkpt lat="48.97694" lon="1.15553">
        <ele>204.39999389648</ele>
        <time>2014-04-27T09:27:48.000Z</time>
      </trkpt>
      <trkpt lat="48.97671" lon="1.1555">
        <ele>205.19999694824</ele>
        <time>2014-04-27T09:27:54.000Z</time>
      </trkpt>
      <trkpt lat="48.97656" lon="1.15549">
        <ele>206</ele>
        <time>2014-04-27T09:27:58.000Z</time>
      </trkpt>
      <trkpt lat="48.97628" lon="1.15548">
        <ele>205.60000610352</ele>
        <time>2014-04-27T09:28:06.000Z</time>
      </trkpt>
      <trkpt lat="48.97618" lon="1.15546">
        <ele>206.39999389648</ele>
        <time>2014-04-27T09:28:09.000Z</time>
      </trkpt>
      <trkpt lat="48.97601" lon="1.15541">
        <ele>206.19999694824</ele>
        <time>2014-04-27T09:28:14.000Z</time>
      </trkpt>
      <trkpt lat="48.97582" lon="1.15535">
        <ele>206.60000610352</ele>
        <time>2014-04-27T09:28:20.000Z</time>
      </trkpt>
      <trkpt lat="48.97579" lon="1.15538">
        <ele>206.60000610352</ele>
        <time>2014-04-27T09:28:22.000Z</time>
      </trkpt>
      <trkpt lat="48.97581" lon="1.15538">
        <ele>206.60000610352</ele>
        <time>2014-04-27T09:28:23.000Z</time>
      </trkpt>
      <trkpt lat="48.97594" lon="1.15542">
        <ele>205.80000305176</ele>
        <time>2014-04-27T09:28:27.000Z</time>
      </trkpt>
      <trkpt lat="48.97621" lon="1.15549">
        <ele>205.60000610352</ele>
        <time>2014-04-27T09:28:34.000Z</time>
      </trkpt>
      <trkpt lat="48.97624" lon="1.1555">
        <ele>205.60000610352</ele>
        <time>2014-04-27T09:28:37.000Z</time>
      </trkpt>
      <trkpt lat="48.97624" lon="1.1555">
        <ele>205.39999389648</ele>
        <time>2014-04-27T09:28:43.000Z</time>
      </trkpt>
      <trkpt lat="48.97624" lon="1.15551">
        <ele>206</ele>
        <time>2014-04-27T09:28:54.000Z</time>
      </trkpt>
      <trkpt lat="48.97624" lon="1.1555">
        <ele>205.60000610352</ele>
        <time>2014-04-27T09:29:06.000Z</time>
      </trkpt>
      <trkpt lat="48.97622" lon="1.1555">
        <ele>205.60000610352</ele>
        <time>2014-04-27T09:29:07.000Z</time>
      </trkpt>
      <trkpt lat="48.97615" lon="1.15549">
        <ele>205.60000610352</ele>
        <time>2014-04-27T09:29:10.000Z</time>
      </trkpt>
      <trkpt lat="48.97594" lon="1.15541">
        <ele>205.39999389648</ele>
        <time>2014-04-27T09:29:15.000Z</time>
      </trkpt>
      <trkpt lat="48.9757" lon="1.15533">
        <ele>205.80000305176</ele>
        <time>2014-04-27T09:29:22.000Z</time>
      </trkpt>
      <trkpt lat="48.97553" lon="1.15528">
        <ele>205.60000610352</ele>
        <time>2014-04-27T09:29:27.000Z</time>
      </trkpt>
      <trkpt lat="48.97552" lon="1.15524">
        <ele>205.60000610352</ele>
        <time>2014-04-27T09:29:28.000Z</time>
      </trkpt>
      <trkpt lat="48.97552" lon="1.15511">
        <ele>205.19999694824</ele>
        <time>2014-04-27T09:29:30.000Z</time>
      </trkpt>
      <trkpt lat="48.97554" lon="1.15485">
        <ele>206.39999389648</ele>
        <time>2014-04-27T09:29:35.000Z</time>
      </trkpt>
      <trkpt lat="48.97556" lon="1.15449">
        <ele>206</ele>
        <time>2014-04-27T09:29:41.000Z</time>
      </trkpt>
      <trkpt lat="48.97562" lon="1.15416">
        <ele>205.60000610352</ele>
        <time>2014-04-27T09:29:47.000Z</time>
      </trkpt>
      <trkpt lat="48.97571" lon="1.15404">
        <ele>205.39999389648</ele>
        <time>2014-04-27T09:29:50.000Z</time>
      </trkpt>
      <trkpt lat="48.97574" lon="1.15401">
        <ele>205.19999694824</ele>
        <time>2014-04-27T09:29:51.000Z</time>
      </trkpt>
      <trkpt lat="48.97585" lon="1.15402">
        <ele>205</ele>
        <time>2014-04-27T09:29:54.000Z</time>
      </trkpt>
      <trkpt lat="48.97587" lon="1.15407">
        <ele>205.19999694824</ele>
        <time>2014-04-27T09:29:55.000Z</time>
      </trkpt>
      <trkpt lat="48.97601" lon="1.1542">
        <ele>205.39999389648</ele>
        <time>2014-04-27T09:29:59.000Z</time>
      </trkpt>
      <trkpt lat="48.97605" lon="1.15422">
        <ele>205.39999389648</ele>
        <time>2014-04-27T09:30:00.000Z</time>
      </trkpt>
      <trkpt lat="48.97624" lon="1.15429">
        <ele>204.39999389648</ele>
        <time>2014-04-27T09:30:05.000Z</time>
      </trkpt>
      <trkpt lat="48.97628" lon="1.15429">
        <ele>204.19999694824</ele>
        <time>2014-04-27T09:30:06.000Z</time>
      </trkpt>
      <trkpt lat="48.97644" lon="1.15435">
        <ele>204</ele>
        <time>2014-04-27T09:30:11.000Z</time>
      </trkpt>
      <trkpt lat="48.97648" lon="1.1543">
        <ele>204</ele>
        <time>2014-04-27T09:30:13.000Z</time>
      </trkpt>
      <trkpt lat="48.9765" lon="1.15426">
        <ele>204</ele>
        <time>2014-04-27T09:30:14.000Z</time>
      </trkpt>
      <trkpt lat="48.97646" lon="1.15423">
        <ele>204</ele>
        <time>2014-04-27T09:30:17.000Z</time>
      </trkpt>
      <trkpt lat="48.97643" lon="1.15433">
        <ele>204</ele>
        <time>2014-04-27T09:30:21.000Z</time>
      </trkpt>
      <trkpt lat="48.97644" lon="1.15436">
        <ele>204</ele>
        <time>2014-04-27T09:30:25.000Z</time>
      </trkpt>
      <trkpt lat="48.97646" lon="1.15434">
        <ele>204</ele>
        <time>2014-04-27T09:30:32.000Z</time>
      </trkpt>
      <trkpt lat="48.97649" lon="1.15427">
        <ele>204.19999694824</ele>
        <time>2014-04-27T09:30:34.000Z</time>
      </trkpt>
      <trkpt lat="48.97656" lon="1.15399">
        <ele>203.80000305176</ele>
        <time>2014-04-27T09:30:41.000Z</time>
      </trkpt>
      <trkpt lat="48.97659" lon="1.15386">
        <ele>203.60000610352</ele>
        <time>2014-04-27T09:30:45.000Z</time>
      </trkpt>
      <trkpt lat="48.97661" lon="1.15384">
        <ele>203.60000610352</ele>
        <time>2014-04-27T09:30:46.000Z</time>
      </trkpt>
      <trkpt lat="48.97669" lon="1.15378">
        <ele>203.19999694824</ele>
        <time>2014-04-27T09:30:50.000Z</time>
      </trkpt>
      <trkpt lat="48.97672" lon="1.15376">
        <ele>203</ele>
        <time>2014-04-27T09:30:52.000Z</time>
      </trkpt>
      <trkpt lat="48.97671" lon="1.15376">
        <ele>202.80000305176</ele>
        <time>2014-04-27T09:30:56.000Z</time>
      </trkpt>
      <trkpt lat="48.97669" lon="1.15374">
        <ele>203.19999694824</ele>
        <time>2014-04-27T09:31:08.000Z</time>
      </trkpt>
      <trkpt lat="48.97671" lon="1.15371">
        <ele>203.60000610352</ele>
        <time>2014-04-27T09:31:16.000Z</time>
      </trkpt>
      <trkpt lat="48.97674" lon="1.1537">
        <ele>203.39999389648</ele>
        <time>2014-04-27T09:31:25.000Z</time>
      </trkpt>
      <trkpt lat="48.97675" lon="1.15366">
        <ele>203</ele>
        <time>2014-04-27T09:31:31.000Z</time>
      </trkpt>
      <trkpt lat="48.97675" lon="1.15364">
        <ele>203.39999389648</ele>
        <time>2014-04-27T09:31:42.000Z</time>
      </trkpt>
      <trkpt lat="48.97674" lon="1.15363">
        <ele>203.39999389648</ele>
        <time>2014-04-27T09:31:52.000Z</time>
      </trkpt>
      <trkpt lat="48.97671" lon="1.15359">
        <ele>203.39999389648</ele>
        <time>2014-04-27T09:32:00.000Z</time>
      </trkpt>
      <trkpt lat="48.9767" lon="1.1536">
        <ele>203.39999389648</ele>
        <time>2014-04-27T09:32:06.000Z</time>
      </trkpt>
      <trkpt lat="48.9767" lon="1.15359">
        <ele>203.39999389648</ele>
        <time>2014-04-27T09:32:15.000Z</time>
      </trkpt>
      <trkpt lat="48.97671" lon="1.1536">
        <ele>203</ele>
        <time>2014-04-27T09:32:28.000Z</time>
      </trkpt>
      <trkpt lat="48.97671" lon="1.15363">
        <ele>203</ele>
        <time>2014-04-27T09:32:34.000Z</time>
      </trkpt>
      <trkpt lat="48.97671" lon="1.15363">
        <ele>203.39999389648</ele>
        <time>2014-04-27T09:32:41.000Z</time>
      </trkpt>
      <trkpt lat="48.97672" lon="1.15365">
        <ele>203.39999389648</ele>
        <time>2014-04-27T09:32:49.000Z</time>
      </trkpt>
      <trkpt lat="48.97674" lon="1.15374">
        <ele>203.19999694824</ele>
        <time>2014-04-27T09:32:58.000Z</time>
      </trkpt>
      <trkpt lat="48.97675" lon="1.15374">
        <ele>203.19999694824</ele>
        <time>2014-04-27T09:32:59.000Z</time>
      </trkpt>
      <trkpt lat="48.97677" lon="1.15376">
        <ele>203.19999694824</ele>
        <time>2014-04-27T09:33:06.000Z</time>
      </trkpt>
      <trkpt lat="48.97679" lon="1.15376">
        <ele>203.39999389648</ele>
        <time>2014-04-27T09:33:14.000Z</time>
      </trkpt>
      <trkpt lat="48.97677" lon="1.15376">
        <ele>203.60000610352</ele>
        <time>2014-04-27T09:33:17.000Z</time>
      </trkpt>
      <trkpt lat="48.97676" lon="1.15375">
        <ele>203.39999389648</ele>
        <time>2014-04-27T09:33:19.000Z</time>
      </trkpt>
      <trkpt lat="48.97677" lon="1.15375">
        <ele>202.80000305176</ele>
        <time>2014-04-27T09:33:28.000Z</time>
      </trkpt>
      <trkpt lat="48.97677" lon="1.15374">
        <ele>203.19999694824</ele>
        <time>2014-04-27T09:33:35.000Z</time>
      </trkpt>
      <trkpt lat="48.97677" lon="1.15372">
        <ele>203.60000610352</ele>
        <time>2014-04-27T09:33:43.000Z</time>
      </trkpt>
      <trkpt lat="48.97679" lon="1.15366">
        <ele>203.39999389648</ele>
        <time>2014-04-27T09:33:50.000Z</time>
      </trkpt>
      <trkpt lat="48.97679" lon="1.15366">
        <ele>203.60000610352</ele>
        <time>2014-04-27T09:33:58.000Z</time>
      </trkpt>
      <trkpt lat="48.97681" lon="1.15363">
        <ele>203.60000610352</ele>
        <time>2014-04-27T09:34:12.000Z</time>
      </trkpt>
      <trkpt lat="48.97682" lon="1.15363">
        <ele>203.80000305176</ele>
        <time>2014-04-27T09:34:20.000Z</time>
      </trkpt>
      <trkpt lat="48.97683" lon="1.15362">
        <ele>204.19999694824</ele>
        <time>2014-04-27T09:34:29.000Z</time>
      </trkpt>
      <trkpt lat="48.97683" lon="1.1536">
        <ele>204</ele>
        <time>2014-04-27T09:34:43.000Z</time>
      </trkpt>
      <trkpt lat="48.97684" lon="1.15361">
        <ele>203.80000305176</ele>
        <time>2014-04-27T09:34:49.000Z</time>
      </trkpt>
      <trkpt lat="48.97684" lon="1.15361">
        <ele>203.80000305176</ele>
        <time>2014-04-27T09:34:58.000Z</time>
      </trkpt>
      <trkpt lat="48.97684" lon="1.15361">
        <ele>204.19999694824</ele>
        <time>2014-04-27T09:35:06.000Z</time>
      </trkpt>
      <trkpt lat="48.97685" lon="1.1536">
        <ele>204</ele>
        <time>2014-04-27T09:35:16.000Z</time>
      </trkpt>
      <trkpt lat="48.97684" lon="1.1536">
        <ele>203.60000610352</ele>
        <time>2014-04-27T09:35:22.000Z</time>
      </trkpt>
      <trkpt lat="48.97684" lon="1.15359">
        <ele>203.80000305176</ele>
        <time>2014-04-27T09:35:27.000Z</time>
      </trkpt>
      <trkpt lat="48.97684" lon="1.15358">
        <ele>204.19999694824</ele>
        <time>2014-04-27T09:35:32.000Z</time>
      </trkpt>
      <trkpt lat="48.97684" lon="1.15358">
        <ele>204.39999389648</ele>
        <time>2014-04-27T09:35:36.000Z</time>
      </trkpt>
      <trkpt lat="48.97683" lon="1.15358">
        <ele>204</ele>
        <time>2014-04-27T09:35:45.000Z</time>
      </trkpt>
      <trkpt lat="48.97684" lon="1.15358">
        <ele>203.80000305176</ele>
        <time>2014-04-27T09:35:51.000Z</time>
      </trkpt>
      <trkpt lat="48.97683" lon="1.15356">
        <ele>203.39999389648</ele>
        <time>2014-04-27T09:35:56.000Z</time>
      </trkpt>
      <trkpt lat="48.97682" lon="1.15356">
        <ele>203.19999694824</ele>
        <time>2014-04-27T09:35:57.000Z</time>
      </trkpt>
    </trkseg>
  </trk>
</gpx>